<?xml version="1.0" encoding="UTF-8" standalone="no" ?>
<gpx xmlns="http://www.topografix.com/GPX/1/1" xmlns:xsi="http://www.w3.org/2001/XMLSchema-instance" xsi:schemaLocation="http://www.topografix.com/GPX/1/1 http://www.topografix.com/GPX/1/1/gpx.xsd" version="1.1" creator="VisuGPX - https://www.visugpx.com">
  <metadata>
    <name>LGT : Le Circuit du Toul Du à Plésidy</name>
    <desc><![CDATA[Une très belle balade d\'environ 10 km proposée par la Communauté de Communes de Bourbriac qui vous permettra de découvrir le patrimoine local ( menhir de Kailouan, menhir du Toul Du, Chapelle Sainte-Anne ) en empruntant de jolis sentiers au sein de la vallée du Toul Du.]]></desc>
  </metadata>
  <trk>
    <name><![CDATA[LGT : Le Circuit du Toul Du à Plésidy_1]]></name>
    <trkseg>
      <trkpt lat="48.4422" lon="-3.14204">
        <ele>312</ele>
        <time>2014-11-10T14:42:30.1Z</time>
      </trkpt>
      <trkpt lat="48.44218" lon="-3.14207">
        <ele>311</ele>
        <time>2014-11-10T14:42:32.1Z</time>
      </trkpt>
      <trkpt lat="48.44217" lon="-3.14209">
        <ele>312</ele>
        <time>2014-11-10T14:42:34.1Z</time>
      </trkpt>
      <trkpt lat="48.44214" lon="-3.14212">
        <ele>312</ele>
        <time>2014-11-10T14:42:37.1Z</time>
      </trkpt>
      <trkpt lat="48.44213" lon="-3.14215">
        <ele>312</ele>
        <time>2014-11-10T14:42:40.1Z</time>
      </trkpt>
      <trkpt lat="48.44211" lon="-3.14217">
        <ele>312</ele>
        <time>2014-11-10T14:42:42.1Z</time>
      </trkpt>
      <trkpt lat="48.4421" lon="-3.14219">
        <ele>312</ele>
        <time>2014-11-10T14:42:44.1Z</time>
      </trkpt>
      <trkpt lat="48.44207" lon="-3.14223">
        <ele>312</ele>
        <time>2014-11-10T14:42:47.1Z</time>
      </trkpt>
      <trkpt lat="48.44205" lon="-3.14226">
        <ele>312</ele>
        <time>2014-11-10T14:42:50.1Z</time>
      </trkpt>
      <trkpt lat="48.44203" lon="-3.14228">
        <ele>312</ele>
        <time>2014-11-10T14:42:52.1Z</time>
      </trkpt>
      <trkpt lat="48.44201" lon="-3.14231">
        <ele>313</ele>
        <time>2014-11-10T14:42:55.1Z</time>
      </trkpt>
      <trkpt lat="48.44199" lon="-3.14233">
        <ele>313</ele>
        <time>2014-11-10T14:42:57.1Z</time>
      </trkpt>
      <trkpt lat="48.44195" lon="-3.14237">
        <ele>313</ele>
        <time>2014-11-10T14:43:00.1Z</time>
      </trkpt>
      <trkpt lat="48.44192" lon="-3.14241">
        <ele>313</ele>
        <time>2014-11-10T14:43:03.1Z</time>
      </trkpt>
      <trkpt lat="48.44191" lon="-3.14244">
        <ele>313</ele>
        <time>2014-11-10T14:43:05.1Z</time>
      </trkpt>
      <trkpt lat="48.44189" lon="-3.14248">
        <ele>313</ele>
        <time>2014-11-10T14:43:08.1Z</time>
      </trkpt>
      <trkpt lat="48.44186" lon="-3.14253">
        <ele>313</ele>
        <time>2014-11-10T14:43:11.1Z</time>
      </trkpt>
      <trkpt lat="48.44184" lon="-3.14256">
        <ele>313</ele>
        <time>2014-11-10T14:43:13.1Z</time>
      </trkpt>
      <trkpt lat="48.44182" lon="-3.1426">
        <ele>313</ele>
        <time>2014-11-10T14:43:16.1Z</time>
      </trkpt>
      <trkpt lat="48.4418" lon="-3.14264">
        <ele>313</ele>
        <time>2014-11-10T14:43:19.1Z</time>
      </trkpt>
      <trkpt lat="48.44178" lon="-3.14267">
        <ele>313</ele>
        <time>2014-11-10T14:43:21.1Z</time>
      </trkpt>
      <trkpt lat="48.44176" lon="-3.14271">
        <ele>313</ele>
        <time>2014-11-10T14:43:24.1Z</time>
      </trkpt>
      <trkpt lat="48.44174" lon="-3.14275">
        <ele>313</ele>
        <time>2014-11-10T14:43:27.1Z</time>
      </trkpt>
      <trkpt lat="48.44172" lon="-3.1428">
        <ele>314</ele>
        <time>2014-11-10T14:43:30.1Z</time>
      </trkpt>
      <trkpt lat="48.44169" lon="-3.14285">
        <ele>314</ele>
        <time>2014-11-10T14:43:33.1Z</time>
      </trkpt>
      <trkpt lat="48.44166" lon="-3.1429">
        <ele>315</ele>
        <time>2014-11-10T14:43:36.1Z</time>
      </trkpt>
      <trkpt lat="48.44165" lon="-3.14293">
        <ele>315</ele>
        <time>2014-11-10T14:43:38.1Z</time>
      </trkpt>
      <trkpt lat="48.44162" lon="-3.14296">
        <ele>315</ele>
        <time>2014-11-10T14:43:40.1Z</time>
      </trkpt>
      <trkpt lat="48.4416" lon="-3.14301">
        <ele>315</ele>
        <time>2014-11-10T14:43:43.1Z</time>
      </trkpt>
      <trkpt lat="48.44159" lon="-3.14304">
        <ele>315</ele>
        <time>2014-11-10T14:43:45.1Z</time>
      </trkpt>
      <trkpt lat="48.44156" lon="-3.14309">
        <ele>315</ele>
        <time>2014-11-10T14:43:48.1Z</time>
      </trkpt>
      <trkpt lat="48.44154" lon="-3.14314">
        <ele>316</ele>
        <time>2014-11-10T14:43:51.1Z</time>
      </trkpt>
      <trkpt lat="48.44152" lon="-3.14318">
        <ele>316</ele>
        <time>2014-11-10T14:43:53.1Z</time>
      </trkpt>
      <trkpt lat="48.4415" lon="-3.14322">
        <ele>316</ele>
        <time>2014-11-10T14:43:56.1Z</time>
      </trkpt>
      <trkpt lat="48.44146" lon="-3.14327">
        <ele>316</ele>
        <time>2014-11-10T14:43:59.1Z</time>
      </trkpt>
      <trkpt lat="48.44145" lon="-3.14329">
        <ele>316</ele>
        <time>2014-11-10T14:44:01.1Z</time>
      </trkpt>
      <trkpt lat="48.44143" lon="-3.14333">
        <ele>317</ele>
        <time>2014-11-10T14:44:04.1Z</time>
      </trkpt>
      <trkpt lat="48.4414" lon="-3.14338">
        <ele>317</ele>
        <time>2014-11-10T14:44:07.1Z</time>
      </trkpt>
      <trkpt lat="48.44138" lon="-3.14342">
        <ele>318</ele>
        <time>2014-11-10T14:44:10.1Z</time>
      </trkpt>
      <trkpt lat="48.44136" lon="-3.14346">
        <ele>318</ele>
        <time>2014-11-10T14:44:12.1Z</time>
      </trkpt>
      <trkpt lat="48.44135" lon="-3.1435">
        <ele>318</ele>
        <time>2014-11-10T14:44:15.1Z</time>
      </trkpt>
      <trkpt lat="48.44133" lon="-3.14353">
        <ele>318</ele>
        <time>2014-11-10T14:44:17.1Z</time>
      </trkpt>
      <trkpt lat="48.44131" lon="-3.14357">
        <ele>318</ele>
        <time>2014-11-10T14:44:20.1Z</time>
      </trkpt>
      <trkpt lat="48.44129" lon="-3.14362">
        <ele>318</ele>
        <time>2014-11-10T14:44:23.1Z</time>
      </trkpt>
      <trkpt lat="48.44128" lon="-3.14364">
        <ele>318</ele>
        <time>2014-11-10T14:44:25.1Z</time>
      </trkpt>
      <trkpt lat="48.44125" lon="-3.14369">
        <ele>319</ele>
        <time>2014-11-10T14:44:28.1Z</time>
      </trkpt>
      <trkpt lat="48.44122" lon="-3.14373">
        <ele>319</ele>
        <time>2014-11-10T14:44:31.1Z</time>
      </trkpt>
      <trkpt lat="48.4412" lon="-3.14375">
        <ele>320</ele>
        <time>2014-11-10T14:44:33.1Z</time>
      </trkpt>
      <trkpt lat="48.44118" lon="-3.14379">
        <ele>320</ele>
        <time>2014-11-10T14:44:36.1Z</time>
      </trkpt>
      <trkpt lat="48.44116" lon="-3.14382">
        <ele>320</ele>
        <time>2014-11-10T14:44:38.1Z</time>
      </trkpt>
      <trkpt lat="48.44113" lon="-3.14385">
        <ele>320</ele>
        <time>2014-11-10T14:44:41.1Z</time>
      </trkpt>
      <trkpt lat="48.4411" lon="-3.14387">
        <ele>321</ele>
        <time>2014-11-10T14:44:44.1Z</time>
      </trkpt>
      <trkpt lat="48.44108" lon="-3.14388">
        <ele>321</ele>
        <time>2014-11-10T14:44:46.1Z</time>
      </trkpt>
      <trkpt lat="48.44104" lon="-3.14389">
        <ele>321</ele>
        <time>2014-11-10T14:44:49.1Z</time>
      </trkpt>
      <trkpt lat="48.44101" lon="-3.14388">
        <ele>321</ele>
        <time>2014-11-10T14:44:51.1Z</time>
      </trkpt>
      <trkpt lat="48.44097" lon="-3.14389">
        <ele>322</ele>
        <time>2014-11-10T14:44:54.1Z</time>
      </trkpt>
      <trkpt lat="48.44095" lon="-3.14388">
        <ele>322</ele>
        <time>2014-11-10T14:44:56.1Z</time>
      </trkpt>
      <trkpt lat="48.44091" lon="-3.14388">
        <ele>322</ele>
        <time>2014-11-10T14:44:59.1Z</time>
      </trkpt>
      <trkpt lat="48.44088" lon="-3.14388">
        <ele>322</ele>
        <time>2014-11-10T14:45:02.1Z</time>
      </trkpt>
      <trkpt lat="48.44085" lon="-3.14387">
        <ele>322</ele>
        <time>2014-11-10T14:45:04.1Z</time>
      </trkpt>
      <trkpt lat="48.44081" lon="-3.14387">
        <ele>322</ele>
        <time>2014-11-10T14:45:07.1Z</time>
      </trkpt>
      <trkpt lat="48.44079" lon="-3.14387">
        <ele>322</ele>
        <time>2014-11-10T14:45:09.1Z</time>
      </trkpt>
      <trkpt lat="48.44075" lon="-3.14386">
        <ele>322</ele>
        <time>2014-11-10T14:45:12.1Z</time>
      </trkpt>
      <trkpt lat="48.44072" lon="-3.14386">
        <ele>322</ele>
        <time>2014-11-10T14:45:15.1Z</time>
      </trkpt>
      <trkpt lat="48.44068" lon="-3.14386">
        <ele>322</ele>
        <time>2014-11-10T14:45:18.1Z</time>
      </trkpt>
      <trkpt lat="48.44066" lon="-3.14386">
        <ele>322</ele>
        <time>2014-11-10T14:45:20.1Z</time>
      </trkpt>
      <trkpt lat="48.44062" lon="-3.14386">
        <ele>323</ele>
        <time>2014-11-10T14:45:23.1Z</time>
      </trkpt>
      <trkpt lat="48.4406" lon="-3.14386">
        <ele>323</ele>
        <time>2014-11-10T14:45:25.1Z</time>
      </trkpt>
      <trkpt lat="48.44056" lon="-3.14386">
        <ele>323</ele>
        <time>2014-11-10T14:45:28.1Z</time>
      </trkpt>
      <trkpt lat="48.44053" lon="-3.14386">
        <ele>323</ele>
        <time>2014-11-10T14:45:30.1Z</time>
      </trkpt>
      <trkpt lat="48.44051" lon="-3.14386">
        <ele>323</ele>
        <time>2014-11-10T14:45:33.1Z</time>
      </trkpt>
      <trkpt lat="48.44048" lon="-3.14386">
        <ele>323</ele>
        <time>2014-11-10T14:45:35.1Z</time>
      </trkpt>
      <trkpt lat="48.44044" lon="-3.14386">
        <ele>324</ele>
        <time>2014-11-10T14:45:38.1Z</time>
      </trkpt>
      <trkpt lat="48.4404" lon="-3.14386">
        <ele>324</ele>
        <time>2014-11-10T14:45:41.1Z</time>
      </trkpt>
      <trkpt lat="48.44036" lon="-3.14386">
        <ele>324</ele>
        <time>2014-11-10T14:45:44.1Z</time>
      </trkpt>
      <trkpt lat="48.44033" lon="-3.14386">
        <ele>324</ele>
        <time>2014-11-10T14:45:47.1Z</time>
      </trkpt>
      <trkpt lat="48.4403" lon="-3.14387">
        <ele>324</ele>
        <time>2014-11-10T14:45:49.1Z</time>
      </trkpt>
      <trkpt lat="48.44027" lon="-3.14387">
        <ele>324</ele>
        <time>2014-11-10T14:45:51.1Z</time>
      </trkpt>
      <trkpt lat="48.44024" lon="-3.14387">
        <ele>324</ele>
        <time>2014-11-10T14:45:54.1Z</time>
      </trkpt>
      <trkpt lat="48.44021" lon="-3.14388">
        <ele>324</ele>
        <time>2014-11-10T14:45:57.1Z</time>
      </trkpt>
      <trkpt lat="48.44019" lon="-3.14388">
        <ele>324</ele>
        <time>2014-11-10T14:45:59.1Z</time>
      </trkpt>
      <trkpt lat="48.44017" lon="-3.14389">
        <ele>324</ele>
        <time>2014-11-10T14:46:02.1Z</time>
      </trkpt>
      <trkpt lat="48.44015" lon="-3.1439">
        <ele>324</ele>
        <time>2014-11-10T14:46:04.1Z</time>
      </trkpt>
      <trkpt lat="48.44012" lon="-3.14391">
        <ele>325</ele>
        <time>2014-11-10T14:46:07.1Z</time>
      </trkpt>
      <trkpt lat="48.4401" lon="-3.14391">
        <ele>325</ele>
        <time>2014-11-10T14:46:09.1Z</time>
      </trkpt>
      <trkpt lat="48.44007" lon="-3.14392">
        <ele>325</ele>
        <time>2014-11-10T14:46:12.1Z</time>
      </trkpt>
      <trkpt lat="48.44005" lon="-3.14392">
        <ele>325</ele>
        <time>2014-11-10T14:46:14.1Z</time>
      </trkpt>
      <trkpt lat="48.44003" lon="-3.14393">
        <ele>325</ele>
        <time>2014-11-10T14:46:16.1Z</time>
      </trkpt>
      <trkpt lat="48.43999" lon="-3.14393">
        <ele>325</ele>
        <time>2014-11-10T14:46:19.1Z</time>
      </trkpt>
      <trkpt lat="48.43995" lon="-3.14394">
        <ele>325</ele>
        <time>2014-11-10T14:46:22.1Z</time>
      </trkpt>
      <trkpt lat="48.43992" lon="-3.14394">
        <ele>325</ele>
        <time>2014-11-10T14:46:24.1Z</time>
      </trkpt>
      <trkpt lat="48.43988" lon="-3.14394">
        <ele>325</ele>
        <time>2014-11-10T14:46:27.1Z</time>
      </trkpt>
      <trkpt lat="48.43986" lon="-3.14395">
        <ele>325</ele>
        <time>2014-11-10T14:46:29.1Z</time>
      </trkpt>
      <trkpt lat="48.43982" lon="-3.14395">
        <ele>325</ele>
        <time>2014-11-10T14:46:32.1Z</time>
      </trkpt>
      <trkpt lat="48.43978" lon="-3.14395">
        <ele>325</ele>
        <time>2014-11-10T14:46:35.1Z</time>
      </trkpt>
      <trkpt lat="48.43973" lon="-3.14394">
        <ele>325</ele>
        <time>2014-11-10T14:46:38.1Z</time>
      </trkpt>
      <trkpt lat="48.43969" lon="-3.14393">
        <ele>324</ele>
        <time>2014-11-10T14:46:41.1Z</time>
      </trkpt>
      <trkpt lat="48.43966" lon="-3.14392">
        <ele>324</ele>
        <time>2014-11-10T14:46:43.1Z</time>
      </trkpt>
      <trkpt lat="48.43962" lon="-3.14391">
        <ele>324</ele>
        <time>2014-11-10T14:46:46.1Z</time>
      </trkpt>
      <trkpt lat="48.4396" lon="-3.1439">
        <ele>324</ele>
        <time>2014-11-10T14:46:48.1Z</time>
      </trkpt>
      <trkpt lat="48.43955" lon="-3.14388">
        <ele>324</ele>
        <time>2014-11-10T14:46:51.1Z</time>
      </trkpt>
      <trkpt lat="48.43953" lon="-3.14387">
        <ele>324</ele>
        <time>2014-11-10T14:46:53.1Z</time>
      </trkpt>
      <trkpt lat="48.43951" lon="-3.14386">
        <ele>324</ele>
        <time>2014-11-10T14:46:55.1Z</time>
      </trkpt>
      <trkpt lat="48.43947" lon="-3.14384">
        <ele>323</ele>
        <time>2014-11-10T14:46:58.1Z</time>
      </trkpt>
      <trkpt lat="48.43943" lon="-3.14382">
        <ele>324</ele>
        <time>2014-11-10T14:47:01.1Z</time>
      </trkpt>
      <trkpt lat="48.4394" lon="-3.14381">
        <ele>324</ele>
        <time>2014-11-10T14:47:04.1Z</time>
      </trkpt>
      <trkpt lat="48.43938" lon="-3.14379">
        <ele>324</ele>
        <time>2014-11-10T14:47:06.1Z</time>
      </trkpt>
      <trkpt lat="48.43936" lon="-3.14377">
        <ele>324</ele>
        <time>2014-11-10T14:47:08.1Z</time>
      </trkpt>
      <trkpt lat="48.43933" lon="-3.14374">
        <ele>324</ele>
        <time>2014-11-10T14:47:11.1Z</time>
      </trkpt>
      <trkpt lat="48.43929" lon="-3.14371">
        <ele>324</ele>
        <time>2014-11-10T14:47:14.1Z</time>
      </trkpt>
      <trkpt lat="48.43927" lon="-3.14369">
        <ele>324</ele>
        <time>2014-11-10T14:47:16.1Z</time>
      </trkpt>
      <trkpt lat="48.43924" lon="-3.14367">
        <ele>324</ele>
        <time>2014-11-10T14:47:19.1Z</time>
      </trkpt>
      <trkpt lat="48.43922" lon="-3.14366">
        <ele>325</ele>
        <time>2014-11-10T14:47:21.1Z</time>
      </trkpt>
      <trkpt lat="48.43918" lon="-3.14365">
        <ele>325</ele>
        <time>2014-11-10T14:47:24.1Z</time>
      </trkpt>
      <trkpt lat="48.43916" lon="-3.14364">
        <ele>325</ele>
        <time>2014-11-10T14:47:26.1Z</time>
      </trkpt>
      <trkpt lat="48.43913" lon="-3.14362">
        <ele>325</ele>
        <time>2014-11-10T14:47:29.1Z</time>
      </trkpt>
      <trkpt lat="48.4391" lon="-3.14361">
        <ele>325</ele>
        <time>2014-11-10T14:47:31.1Z</time>
      </trkpt>
      <trkpt lat="48.43908" lon="-3.1436">
        <ele>325</ele>
        <time>2014-11-10T14:47:33.1Z</time>
      </trkpt>
      <trkpt lat="48.43904" lon="-3.14359">
        <ele>325</ele>
        <time>2014-11-10T14:47:36.1Z</time>
      </trkpt>
      <trkpt lat="48.439" lon="-3.14358">
        <ele>326</ele>
        <time>2014-11-10T14:47:39.1Z</time>
      </trkpt>
      <trkpt lat="48.43898" lon="-3.14357">
        <ele>326</ele>
        <time>2014-11-10T14:47:41.1Z</time>
      </trkpt>
      <trkpt lat="48.43894" lon="-3.14356">
        <ele>326</ele>
        <time>2014-11-10T14:47:44.1Z</time>
      </trkpt>
      <trkpt lat="48.43892" lon="-3.14356">
        <ele>326</ele>
        <time>2014-11-10T14:47:46.1Z</time>
      </trkpt>
      <trkpt lat="48.43888" lon="-3.14356">
        <ele>327</ele>
        <time>2014-11-10T14:47:49.1Z</time>
      </trkpt>
      <trkpt lat="48.43886" lon="-3.14355">
        <ele>327</ele>
        <time>2014-11-10T14:47:51.1Z</time>
      </trkpt>
      <trkpt lat="48.43882" lon="-3.14354">
        <ele>327</ele>
        <time>2014-11-10T14:47:54.1Z</time>
      </trkpt>
      <trkpt lat="48.43879" lon="-3.14354">
        <ele>327</ele>
        <time>2014-11-10T14:47:56.1Z</time>
      </trkpt>
      <trkpt lat="48.43877" lon="-3.14353">
        <ele>327</ele>
        <time>2014-11-10T14:47:58.1Z</time>
      </trkpt>
      <trkpt lat="48.43874" lon="-3.14353">
        <ele>327</ele>
        <time>2014-11-10T14:48:01.1Z</time>
      </trkpt>
      <trkpt lat="48.4387" lon="-3.14353">
        <ele>328</ele>
        <time>2014-11-10T14:48:04.1Z</time>
      </trkpt>
      <trkpt lat="48.43868" lon="-3.14353">
        <ele>328</ele>
        <time>2014-11-10T14:48:06.1Z</time>
      </trkpt>
      <trkpt lat="48.43864" lon="-3.14352">
        <ele>328</ele>
        <time>2014-11-10T14:48:09.1Z</time>
      </trkpt>
      <trkpt lat="48.43862" lon="-3.14352">
        <ele>329</ele>
        <time>2014-11-10T14:48:11.1Z</time>
      </trkpt>
      <trkpt lat="48.43858" lon="-3.14352">
        <ele>329</ele>
        <time>2014-11-10T14:48:14.1Z</time>
      </trkpt>
      <trkpt lat="48.43856" lon="-3.14352">
        <ele>329</ele>
        <time>2014-11-10T14:48:16.1Z</time>
      </trkpt>
      <trkpt lat="48.43852" lon="-3.14352">
        <ele>329</ele>
        <time>2014-11-10T14:48:19.1Z</time>
      </trkpt>
      <trkpt lat="48.43848" lon="-3.14352">
        <ele>329</ele>
        <time>2014-11-10T14:48:22.1Z</time>
      </trkpt>
      <trkpt lat="48.43846" lon="-3.14352">
        <ele>329</ele>
        <time>2014-11-10T14:48:24.1Z</time>
      </trkpt>
      <trkpt lat="48.43843" lon="-3.14352">
        <ele>329</ele>
        <time>2014-11-10T14:48:27.1Z</time>
      </trkpt>
      <trkpt lat="48.4384" lon="-3.14352">
        <ele>330</ele>
        <time>2014-11-10T14:48:29.1Z</time>
      </trkpt>
      <trkpt lat="48.43837" lon="-3.14352">
        <ele>329</ele>
        <time>2014-11-10T14:48:32.1Z</time>
      </trkpt>
      <trkpt lat="48.43834" lon="-3.14352">
        <ele>329</ele>
        <time>2014-11-10T14:48:35.1Z</time>
      </trkpt>
      <trkpt lat="48.43831" lon="-3.14353">
        <ele>329</ele>
        <time>2014-11-10T14:48:37.1Z</time>
      </trkpt>
      <trkpt lat="48.43829" lon="-3.14354">
        <ele>329</ele>
        <time>2014-11-10T14:48:40.1Z</time>
      </trkpt>
      <trkpt lat="48.43827" lon="-3.14354">
        <ele>330</ele>
        <time>2014-11-10T14:48:42.1Z</time>
      </trkpt>
      <trkpt lat="48.43824" lon="-3.14355">
        <ele>330</ele>
        <time>2014-11-10T14:48:45.1Z</time>
      </trkpt>
      <trkpt lat="48.43819" lon="-3.14355">
        <ele>330</ele>
        <time>2014-11-10T14:48:48.1Z</time>
      </trkpt>
      <trkpt lat="48.43817" lon="-3.14356">
        <ele>330</ele>
        <time>2014-11-10T14:48:50.1Z</time>
      </trkpt>
      <trkpt lat="48.43812" lon="-3.14356">
        <ele>330</ele>
        <time>2014-11-10T14:48:53.1Z</time>
      </trkpt>
      <trkpt lat="48.4381" lon="-3.14357">
        <ele>330</ele>
        <time>2014-11-10T14:48:55.1Z</time>
      </trkpt>
      <trkpt lat="48.43806" lon="-3.14358">
        <ele>330</ele>
        <time>2014-11-10T14:48:58.1Z</time>
      </trkpt>
      <trkpt lat="48.43803" lon="-3.1436">
        <ele>330</ele>
        <time>2014-11-10T14:49:00.1Z</time>
      </trkpt>
      <trkpt lat="48.43801" lon="-3.14362">
        <ele>330</ele>
        <time>2014-11-10T14:49:02.1Z</time>
      </trkpt>
      <trkpt lat="48.43799" lon="-3.14363">
        <ele>330</ele>
        <time>2014-11-10T14:49:05.1Z</time>
      </trkpt>
      <trkpt lat="48.43797" lon="-3.14365">
        <ele>330</ele>
        <time>2014-11-10T14:49:07.1Z</time>
      </trkpt>
      <trkpt lat="48.43795" lon="-3.14367">
        <ele>330</ele>
        <time>2014-11-10T14:49:10.1Z</time>
      </trkpt>
      <trkpt lat="48.43793" lon="-3.14369">
        <ele>330</ele>
        <time>2014-11-10T14:49:12.1Z</time>
      </trkpt>
      <trkpt lat="48.43792" lon="-3.1437">
        <ele>330</ele>
        <time>2014-11-10T14:49:15.1Z</time>
      </trkpt>
      <trkpt lat="48.4379" lon="-3.14374">
        <ele>331</ele>
        <time>2014-11-10T14:49:18.1Z</time>
      </trkpt>
      <trkpt lat="48.43787" lon="-3.14376">
        <ele>331</ele>
        <time>2014-11-10T14:49:21.1Z</time>
      </trkpt>
      <trkpt lat="48.43785" lon="-3.14379">
        <ele>331</ele>
        <time>2014-11-10T14:49:23.1Z</time>
      </trkpt>
      <trkpt lat="48.43783" lon="-3.14383">
        <ele>330</ele>
        <time>2014-11-10T14:49:26.1Z</time>
      </trkpt>
      <trkpt lat="48.43781" lon="-3.14386">
        <ele>330</ele>
        <time>2014-11-10T14:49:28.1Z</time>
      </trkpt>
      <trkpt lat="48.43779" lon="-3.1439">
        <ele>330</ele>
        <time>2014-11-10T14:49:31.1Z</time>
      </trkpt>
      <trkpt lat="48.43777" lon="-3.14393">
        <ele>330</ele>
        <time>2014-11-10T14:49:33.1Z</time>
      </trkpt>
      <trkpt lat="48.43775" lon="-3.14398">
        <ele>330</ele>
        <time>2014-11-10T14:49:36.1Z</time>
      </trkpt>
      <trkpt lat="48.43773" lon="-3.14401">
        <ele>330</ele>
        <time>2014-11-10T14:49:38.1Z</time>
      </trkpt>
      <trkpt lat="48.43771" lon="-3.14406">
        <ele>331</ele>
        <time>2014-11-10T14:49:41.1Z</time>
      </trkpt>
      <trkpt lat="48.43768" lon="-3.1441">
        <ele>331</ele>
        <time>2014-11-10T14:49:44.1Z</time>
      </trkpt>
      <trkpt lat="48.43767" lon="-3.14413">
        <ele>331</ele>
        <time>2014-11-10T14:49:46.1Z</time>
      </trkpt>
      <trkpt lat="48.43764" lon="-3.14418">
        <ele>331</ele>
        <time>2014-11-10T14:49:49.1Z</time>
      </trkpt>
      <trkpt lat="48.43763" lon="-3.14421">
        <ele>331</ele>
        <time>2014-11-10T14:49:51.1Z</time>
      </trkpt>
      <trkpt lat="48.4376" lon="-3.14426">
        <ele>332</ele>
        <time>2014-11-10T14:49:54.1Z</time>
      </trkpt>
      <trkpt lat="48.43757" lon="-3.14431">
        <ele>332</ele>
        <time>2014-11-10T14:49:57.1Z</time>
      </trkpt>
      <trkpt lat="48.43755" lon="-3.14436">
        <ele>332</ele>
        <time>2014-11-10T14:50:00.1Z</time>
      </trkpt>
      <trkpt lat="48.43753" lon="-3.14439">
        <ele>332</ele>
        <time>2014-11-10T14:50:02.1Z</time>
      </trkpt>
      <trkpt lat="48.43751" lon="-3.14443">
        <ele>332</ele>
        <time>2014-11-10T14:50:05.1Z</time>
      </trkpt>
      <trkpt lat="48.4375" lon="-3.14446">
        <ele>332</ele>
        <time>2014-11-10T14:50:07.1Z</time>
      </trkpt>
      <trkpt lat="48.43747" lon="-3.14452">
        <ele>332</ele>
        <time>2014-11-10T14:50:10.1Z</time>
      </trkpt>
      <trkpt lat="48.43744" lon="-3.14456">
        <ele>333</ele>
        <time>2014-11-10T14:50:13.1Z</time>
      </trkpt>
      <trkpt lat="48.43741" lon="-3.1446">
        <ele>333</ele>
        <time>2014-11-10T14:50:16.1Z</time>
      </trkpt>
      <trkpt lat="48.43738" lon="-3.14463">
        <ele>333</ele>
        <time>2014-11-10T14:50:19.1Z</time>
      </trkpt>
      <trkpt lat="48.43736" lon="-3.14468">
        <ele>333</ele>
        <time>2014-11-10T14:50:22.1Z</time>
      </trkpt>
      <trkpt lat="48.43732" lon="-3.14473">
        <ele>334</ele>
        <time>2014-11-10T14:50:25.1Z</time>
      </trkpt>
      <trkpt lat="48.43729" lon="-3.14479">
        <ele>334</ele>
        <time>2014-11-10T14:50:28.1Z</time>
      </trkpt>
      <trkpt lat="48.43725" lon="-3.14484">
        <ele>335</ele>
        <time>2014-11-10T14:50:31.1Z</time>
      </trkpt>
      <trkpt lat="48.43722" lon="-3.1449">
        <ele>335</ele>
        <time>2014-11-10T14:50:34.1Z</time>
      </trkpt>
      <trkpt lat="48.43718" lon="-3.14496">
        <ele>335</ele>
        <time>2014-11-10T14:50:37.1Z</time>
      </trkpt>
      <trkpt lat="48.43715" lon="-3.14501">
        <ele>335</ele>
        <time>2014-11-10T14:50:40.1Z</time>
      </trkpt>
      <trkpt lat="48.43713" lon="-3.14505">
        <ele>336</ele>
        <time>2014-11-10T14:50:42.1Z</time>
      </trkpt>
      <trkpt lat="48.4371" lon="-3.14511">
        <ele>336</ele>
        <time>2014-11-10T14:50:45.1Z</time>
      </trkpt>
      <trkpt lat="48.43707" lon="-3.14516">
        <ele>337</ele>
        <time>2014-11-10T14:50:48.1Z</time>
      </trkpt>
      <trkpt lat="48.43703" lon="-3.14522">
        <ele>337</ele>
        <time>2014-11-10T14:50:51.1Z</time>
      </trkpt>
      <trkpt lat="48.43701" lon="-3.14526">
        <ele>337</ele>
        <time>2014-11-10T14:50:53.1Z</time>
      </trkpt>
      <trkpt lat="48.43699" lon="-3.14531">
        <ele>337</ele>
        <time>2014-11-10T14:50:56.1Z</time>
      </trkpt>
      <trkpt lat="48.43697" lon="-3.14534">
        <ele>337</ele>
        <time>2014-11-10T14:50:58.1Z</time>
      </trkpt>
      <trkpt lat="48.43694" lon="-3.14539">
        <ele>338</ele>
        <time>2014-11-10T14:51:01.1Z</time>
      </trkpt>
      <trkpt lat="48.43693" lon="-3.14542">
        <ele>338</ele>
        <time>2014-11-10T14:51:03.1Z</time>
      </trkpt>
      <trkpt lat="48.4369" lon="-3.14546">
        <ele>338</ele>
        <time>2014-11-10T14:51:06.1Z</time>
      </trkpt>
      <trkpt lat="48.43688" lon="-3.1455">
        <ele>338</ele>
        <time>2014-11-10T14:51:08.1Z</time>
      </trkpt>
      <trkpt lat="48.43685" lon="-3.14554">
        <ele>339</ele>
        <time>2014-11-10T14:51:11.1Z</time>
      </trkpt>
      <trkpt lat="48.43683" lon="-3.14559">
        <ele>339</ele>
        <time>2014-11-10T14:51:14.1Z</time>
      </trkpt>
      <trkpt lat="48.4368" lon="-3.14564">
        <ele>339</ele>
        <time>2014-11-10T14:51:17.1Z</time>
      </trkpt>
      <trkpt lat="48.43678" lon="-3.14567">
        <ele>339</ele>
        <time>2014-11-10T14:51:19.1Z</time>
      </trkpt>
      <trkpt lat="48.43676" lon="-3.14572">
        <ele>339</ele>
        <time>2014-11-10T14:51:22.1Z</time>
      </trkpt>
      <trkpt lat="48.43673" lon="-3.14576">
        <ele>340</ele>
        <time>2014-11-10T14:51:25.1Z</time>
      </trkpt>
      <trkpt lat="48.43673" lon="-3.14578">
        <ele>340</ele>
        <time>2014-11-10T14:51:28.1Z</time>
      </trkpt>
      <trkpt lat="48.43672" lon="-3.14578">
        <ele>341</ele>
        <time>2014-11-10T14:51:30.1Z</time>
      </trkpt>
      <trkpt lat="48.43671" lon="-3.14579">
        <ele>341</ele>
        <time>2014-11-10T14:51:33.1Z</time>
      </trkpt>
      <trkpt lat="48.43671" lon="-3.1458">
        <ele>341</ele>
        <time>2014-11-10T14:51:35.1Z</time>
      </trkpt>
      <trkpt lat="48.43671" lon="-3.1458">
        <ele>341</ele>
        <time>2014-11-10T14:51:37.1Z</time>
      </trkpt>
      <trkpt lat="48.43671" lon="-3.1458">
        <ele>341</ele>
        <time>2014-11-10T14:51:40.1Z</time>
      </trkpt>
      <trkpt lat="48.4367" lon="-3.14581">
        <ele>341</ele>
        <time>2014-11-10T14:51:43.1Z</time>
      </trkpt>
      <trkpt lat="48.4367" lon="-3.14581">
        <ele>341</ele>
        <time>2014-11-10T14:51:45.1Z</time>
      </trkpt>
      <trkpt lat="48.4367" lon="-3.14582">
        <ele>341</ele>
        <time>2014-11-10T14:51:48.1Z</time>
      </trkpt>
      <trkpt lat="48.43668" lon="-3.14584">
        <ele>341</ele>
        <time>2014-11-10T14:51:50.1Z</time>
      </trkpt>
      <trkpt lat="48.43666" lon="-3.14589">
        <ele>341</ele>
        <time>2014-11-10T14:51:53.1Z</time>
      </trkpt>
      <trkpt lat="48.43663" lon="-3.14594">
        <ele>341</ele>
        <time>2014-11-10T14:51:56.1Z</time>
      </trkpt>
      <trkpt lat="48.4366" lon="-3.14598">
        <ele>342</ele>
        <time>2014-11-10T14:51:59.1Z</time>
      </trkpt>
      <trkpt lat="48.43658" lon="-3.14603">
        <ele>342</ele>
        <time>2014-11-10T14:52:02.1Z</time>
      </trkpt>
      <trkpt lat="48.43655" lon="-3.14607">
        <ele>342</ele>
        <time>2014-11-10T14:52:05.1Z</time>
      </trkpt>
      <trkpt lat="48.43654" lon="-3.1461">
        <ele>342</ele>
        <time>2014-11-10T14:52:07.1Z</time>
      </trkpt>
      <trkpt lat="48.43652" lon="-3.14615">
        <ele>343</ele>
        <time>2014-11-10T14:52:10.1Z</time>
      </trkpt>
      <trkpt lat="48.43651" lon="-3.1462">
        <ele>343</ele>
        <time>2014-11-10T14:52:13.1Z</time>
      </trkpt>
      <trkpt lat="48.4365" lon="-3.14624">
        <ele>343</ele>
        <time>2014-11-10T14:52:16.1Z</time>
      </trkpt>
      <trkpt lat="48.43649" lon="-3.14629">
        <ele>343</ele>
        <time>2014-11-10T14:52:19.1Z</time>
      </trkpt>
      <trkpt lat="48.43647" lon="-3.14633">
        <ele>343</ele>
        <time>2014-11-10T14:52:22.1Z</time>
      </trkpt>
      <trkpt lat="48.43647" lon="-3.14637">
        <ele>344</ele>
        <time>2014-11-10T14:52:25.1Z</time>
      </trkpt>
      <trkpt lat="48.43646" lon="-3.14642">
        <ele>344</ele>
        <time>2014-11-10T14:52:28.1Z</time>
      </trkpt>
      <trkpt lat="48.43645" lon="-3.14645">
        <ele>343</ele>
        <time>2014-11-10T14:52:30.1Z</time>
      </trkpt>
      <trkpt lat="48.43643" lon="-3.1465">
        <ele>344</ele>
        <time>2014-11-10T14:52:33.1Z</time>
      </trkpt>
      <trkpt lat="48.43642" lon="-3.14652">
        <ele>344</ele>
        <time>2014-11-10T14:52:35.1Z</time>
      </trkpt>
      <trkpt lat="48.43642" lon="-3.14656">
        <ele>344</ele>
        <time>2014-11-10T14:52:37.1Z</time>
      </trkpt>
      <trkpt lat="48.43641" lon="-3.1466">
        <ele>344</ele>
        <time>2014-11-10T14:52:40.1Z</time>
      </trkpt>
      <trkpt lat="48.4364" lon="-3.14663">
        <ele>344</ele>
        <time>2014-11-10T14:52:42.1Z</time>
      </trkpt>
      <trkpt lat="48.43639" lon="-3.14666">
        <ele>344</ele>
        <time>2014-11-10T14:52:44.1Z</time>
      </trkpt>
      <trkpt lat="48.43639" lon="-3.1467">
        <ele>344</ele>
        <time>2014-11-10T14:52:47.1Z</time>
      </trkpt>
      <trkpt lat="48.43637" lon="-3.14675">
        <ele>345</ele>
        <time>2014-11-10T14:52:50.1Z</time>
      </trkpt>
      <trkpt lat="48.43636" lon="-3.1468">
        <ele>345</ele>
        <time>2014-11-10T14:52:53.1Z</time>
      </trkpt>
      <trkpt lat="48.43634" lon="-3.14685">
        <ele>346</ele>
        <time>2014-11-10T14:52:56.1Z</time>
      </trkpt>
      <trkpt lat="48.43633" lon="-3.14689">
        <ele>346</ele>
        <time>2014-11-10T14:52:59.1Z</time>
      </trkpt>
      <trkpt lat="48.43631" lon="-3.14694">
        <ele>346</ele>
        <time>2014-11-10T14:53:02.1Z</time>
      </trkpt>
      <trkpt lat="48.4363" lon="-3.14698">
        <ele>346</ele>
        <time>2014-11-10T14:53:04.1Z</time>
      </trkpt>
      <trkpt lat="48.43628" lon="-3.14702">
        <ele>346</ele>
        <time>2014-11-10T14:53:07.1Z</time>
      </trkpt>
      <trkpt lat="48.43627" lon="-3.14706">
        <ele>346</ele>
        <time>2014-11-10T14:53:09.1Z</time>
      </trkpt>
      <trkpt lat="48.43626" lon="-3.1471">
        <ele>346</ele>
        <time>2014-11-10T14:53:12.1Z</time>
      </trkpt>
      <trkpt lat="48.43624" lon="-3.14714">
        <ele>346</ele>
        <time>2014-11-10T14:53:14.1Z</time>
      </trkpt>
      <trkpt lat="48.43622" lon="-3.14717">
        <ele>346</ele>
        <time>2014-11-10T14:53:16.1Z</time>
      </trkpt>
      <trkpt lat="48.4362" lon="-3.14722">
        <ele>347</ele>
        <time>2014-11-10T14:53:19.1Z</time>
      </trkpt>
      <trkpt lat="48.43618" lon="-3.14725">
        <ele>346</ele>
        <time>2014-11-10T14:53:21.1Z</time>
      </trkpt>
      <trkpt lat="48.43617" lon="-3.14728">
        <ele>346</ele>
        <time>2014-11-10T14:53:23.1Z</time>
      </trkpt>
      <trkpt lat="48.43614" lon="-3.14732">
        <ele>346</ele>
        <time>2014-11-10T14:53:26.1Z</time>
      </trkpt>
      <trkpt lat="48.43613" lon="-3.14735">
        <ele>346</ele>
        <time>2014-11-10T14:53:28.1Z</time>
      </trkpt>
      <trkpt lat="48.4361" lon="-3.14739">
        <ele>346</ele>
        <time>2014-11-10T14:53:31.1Z</time>
      </trkpt>
      <trkpt lat="48.43608" lon="-3.14744">
        <ele>346</ele>
        <time>2014-11-10T14:53:34.1Z</time>
      </trkpt>
      <trkpt lat="48.43606" lon="-3.14747">
        <ele>346</ele>
        <time>2014-11-10T14:53:36.1Z</time>
      </trkpt>
      <trkpt lat="48.43603" lon="-3.14751">
        <ele>346</ele>
        <time>2014-11-10T14:53:39.1Z</time>
      </trkpt>
      <trkpt lat="48.43601" lon="-3.14754">
        <ele>346</ele>
        <time>2014-11-10T14:53:41.1Z</time>
      </trkpt>
      <trkpt lat="48.43599" lon="-3.14756">
        <ele>346</ele>
        <time>2014-11-10T14:53:44.1Z</time>
      </trkpt>
      <trkpt lat="48.43597" lon="-3.14758">
        <ele>346</ele>
        <time>2014-11-10T14:53:46.1Z</time>
      </trkpt>
      <trkpt lat="48.43594" lon="-3.14762">
        <ele>346</ele>
        <time>2014-11-10T14:53:49.1Z</time>
      </trkpt>
      <trkpt lat="48.43592" lon="-3.14765">
        <ele>346</ele>
        <time>2014-11-10T14:53:51.1Z</time>
      </trkpt>
      <trkpt lat="48.43589" lon="-3.14768">
        <ele>346</ele>
        <time>2014-11-10T14:53:54.1Z</time>
      </trkpt>
      <trkpt lat="48.43588" lon="-3.1477">
        <ele>345</ele>
        <time>2014-11-10T14:53:56.1Z</time>
      </trkpt>
      <trkpt lat="48.43585" lon="-3.14774">
        <ele>345</ele>
        <time>2014-11-10T14:53:59.1Z</time>
      </trkpt>
      <trkpt lat="48.43583" lon="-3.14777">
        <ele>345</ele>
        <time>2014-11-10T14:54:01.1Z</time>
      </trkpt>
      <trkpt lat="48.4358" lon="-3.1478">
        <ele>345</ele>
        <time>2014-11-10T14:54:03.1Z</time>
      </trkpt>
      <trkpt lat="48.43576" lon="-3.14784">
        <ele>345</ele>
        <time>2014-11-10T14:54:06.1Z</time>
      </trkpt>
      <trkpt lat="48.43574" lon="-3.14786">
        <ele>345</ele>
        <time>2014-11-10T14:54:08.1Z</time>
      </trkpt>
      <trkpt lat="48.4357" lon="-3.1479">
        <ele>345</ele>
        <time>2014-11-10T14:54:11.1Z</time>
      </trkpt>
      <trkpt lat="48.43567" lon="-3.14794">
        <ele>346</ele>
        <time>2014-11-10T14:54:14.1Z</time>
      </trkpt>
      <trkpt lat="48.43565" lon="-3.14796">
        <ele>346</ele>
        <time>2014-11-10T14:54:16.1Z</time>
      </trkpt>
      <trkpt lat="48.43563" lon="-3.14799">
        <ele>346</ele>
        <time>2014-11-10T14:54:19.1Z</time>
      </trkpt>
      <trkpt lat="48.43561" lon="-3.14803">
        <ele>346</ele>
        <time>2014-11-10T14:54:22.1Z</time>
      </trkpt>
      <trkpt lat="48.4356" lon="-3.14805">
        <ele>346</ele>
        <time>2014-11-10T14:54:24.1Z</time>
      </trkpt>
      <trkpt lat="48.43558" lon="-3.14809">
        <ele>346</ele>
        <time>2014-11-10T14:54:27.1Z</time>
      </trkpt>
      <trkpt lat="48.43557" lon="-3.14812">
        <ele>346</ele>
        <time>2014-11-10T14:54:30.1Z</time>
      </trkpt>
      <trkpt lat="48.43557" lon="-3.14815">
        <ele>346</ele>
        <time>2014-11-10T14:54:32.1Z</time>
      </trkpt>
      <trkpt lat="48.43556" lon="-3.14819">
        <ele>346</ele>
        <time>2014-11-10T14:54:35.1Z</time>
      </trkpt>
      <trkpt lat="48.43556" lon="-3.14822">
        <ele>346</ele>
        <time>2014-11-10T14:54:37.1Z</time>
      </trkpt>
      <trkpt lat="48.43555" lon="-3.14827">
        <ele>346</ele>
        <time>2014-11-10T14:54:40.1Z</time>
      </trkpt>
      <trkpt lat="48.43554" lon="-3.1483">
        <ele>346</ele>
        <time>2014-11-10T14:54:42.1Z</time>
      </trkpt>
      <trkpt lat="48.43553" lon="-3.14834">
        <ele>347</ele>
        <time>2014-11-10T14:54:44.1Z</time>
      </trkpt>
      <trkpt lat="48.43552" lon="-3.14838">
        <ele>347</ele>
        <time>2014-11-10T14:54:46.1Z</time>
      </trkpt>
      <trkpt lat="48.43551" lon="-3.14843">
        <ele>347</ele>
        <time>2014-11-10T14:54:49.1Z</time>
      </trkpt>
      <trkpt lat="48.4355" lon="-3.14849">
        <ele>347</ele>
        <time>2014-11-10T14:54:52.1Z</time>
      </trkpt>
      <trkpt lat="48.43549" lon="-3.14852">
        <ele>347</ele>
        <time>2014-11-10T14:54:54.1Z</time>
      </trkpt>
      <trkpt lat="48.43549" lon="-3.14858">
        <ele>347</ele>
        <time>2014-11-10T14:54:57.1Z</time>
      </trkpt>
      <trkpt lat="48.43548" lon="-3.14861">
        <ele>347</ele>
        <time>2014-11-10T14:54:59.1Z</time>
      </trkpt>
      <trkpt lat="48.43548" lon="-3.14864">
        <ele>347</ele>
        <time>2014-11-10T14:55:01.1Z</time>
      </trkpt>
      <trkpt lat="48.43546" lon="-3.1487">
        <ele>347</ele>
        <time>2014-11-10T14:55:04.1Z</time>
      </trkpt>
      <trkpt lat="48.43545" lon="-3.14876">
        <ele>347</ele>
        <time>2014-11-10T14:55:07.1Z</time>
      </trkpt>
      <trkpt lat="48.43544" lon="-3.14879">
        <ele>348</ele>
        <time>2014-11-10T14:55:09.1Z</time>
      </trkpt>
      <trkpt lat="48.43542" lon="-3.14885">
        <ele>348</ele>
        <time>2014-11-10T14:55:12.1Z</time>
      </trkpt>
      <trkpt lat="48.4354" lon="-3.1489">
        <ele>347</ele>
        <time>2014-11-10T14:55:15.1Z</time>
      </trkpt>
      <trkpt lat="48.43538" lon="-3.14895">
        <ele>347</ele>
        <time>2014-11-10T14:55:18.1Z</time>
      </trkpt>
      <trkpt lat="48.43536" lon="-3.149">
        <ele>347</ele>
        <time>2014-11-10T14:55:21.1Z</time>
      </trkpt>
      <trkpt lat="48.43534" lon="-3.14904">
        <ele>347</ele>
        <time>2014-11-10T14:55:24.1Z</time>
      </trkpt>
      <trkpt lat="48.43532" lon="-3.14908">
        <ele>347</ele>
        <time>2014-11-10T14:55:26.1Z</time>
      </trkpt>
      <trkpt lat="48.43529" lon="-3.14913">
        <ele>347</ele>
        <time>2014-11-10T14:55:29.1Z</time>
      </trkpt>
      <trkpt lat="48.43526" lon="-3.14916">
        <ele>348</ele>
        <time>2014-11-10T14:55:31.1Z</time>
      </trkpt>
      <trkpt lat="48.43524" lon="-3.14919">
        <ele>348</ele>
        <time>2014-11-10T14:55:33.1Z</time>
      </trkpt>
      <trkpt lat="48.43521" lon="-3.14923">
        <ele>348</ele>
        <time>2014-11-10T14:55:36.1Z</time>
      </trkpt>
      <trkpt lat="48.43517" lon="-3.14927">
        <ele>348</ele>
        <time>2014-11-10T14:55:39.1Z</time>
      </trkpt>
      <trkpt lat="48.43514" lon="-3.14932">
        <ele>347</ele>
        <time>2014-11-10T14:55:42.1Z</time>
      </trkpt>
      <trkpt lat="48.4351" lon="-3.14935">
        <ele>348</ele>
        <time>2014-11-10T14:55:45.1Z</time>
      </trkpt>
      <trkpt lat="48.43508" lon="-3.14938">
        <ele>348</ele>
        <time>2014-11-10T14:55:47.1Z</time>
      </trkpt>
      <trkpt lat="48.43504" lon="-3.14942">
        <ele>348</ele>
        <time>2014-11-10T14:55:50.1Z</time>
      </trkpt>
      <trkpt lat="48.43502" lon="-3.14945">
        <ele>347</ele>
        <time>2014-11-10T14:55:52.1Z</time>
      </trkpt>
      <trkpt lat="48.43499" lon="-3.14949">
        <ele>346</ele>
        <time>2014-11-10T14:55:55.1Z</time>
      </trkpt>
      <trkpt lat="48.43496" lon="-3.14951">
        <ele>347</ele>
        <time>2014-11-10T14:55:57.1Z</time>
      </trkpt>
      <trkpt lat="48.43494" lon="-3.14955">
        <ele>346</ele>
        <time>2014-11-10T14:56:00.1Z</time>
      </trkpt>
      <trkpt lat="48.43492" lon="-3.14958">
        <ele>347</ele>
        <time>2014-11-10T14:56:02.1Z</time>
      </trkpt>
      <trkpt lat="48.43488" lon="-3.14963">
        <ele>347</ele>
        <time>2014-11-10T14:56:05.1Z</time>
      </trkpt>
      <trkpt lat="48.43486" lon="-3.14966">
        <ele>347</ele>
        <time>2014-11-10T14:56:07.1Z</time>
      </trkpt>
      <trkpt lat="48.43483" lon="-3.1497">
        <ele>347</ele>
        <time>2014-11-10T14:56:10.1Z</time>
      </trkpt>
      <trkpt lat="48.4348" lon="-3.14974">
        <ele>347</ele>
        <time>2014-11-10T14:56:13.1Z</time>
      </trkpt>
      <trkpt lat="48.43478" lon="-3.14977">
        <ele>347</ele>
        <time>2014-11-10T14:56:15.1Z</time>
      </trkpt>
      <trkpt lat="48.43476" lon="-3.1498">
        <ele>347</ele>
        <time>2014-11-10T14:56:17.1Z</time>
      </trkpt>
      <trkpt lat="48.43473" lon="-3.14984">
        <ele>347</ele>
        <time>2014-11-10T14:56:20.1Z</time>
      </trkpt>
      <trkpt lat="48.4347" lon="-3.14989">
        <ele>348</ele>
        <time>2014-11-10T14:56:23.1Z</time>
      </trkpt>
      <trkpt lat="48.43467" lon="-3.14994">
        <ele>348</ele>
        <time>2014-11-10T14:56:26.1Z</time>
      </trkpt>
      <trkpt lat="48.43465" lon="-3.14997">
        <ele>348</ele>
        <time>2014-11-10T14:56:28.1Z</time>
      </trkpt>
      <trkpt lat="48.43463" lon="-3.15002">
        <ele>348</ele>
        <time>2014-11-10T14:56:31.1Z</time>
      </trkpt>
      <trkpt lat="48.43461" lon="-3.15005">
        <ele>348</ele>
        <time>2014-11-10T14:56:33.1Z</time>
      </trkpt>
      <trkpt lat="48.43458" lon="-3.15009">
        <ele>348</ele>
        <time>2014-11-10T14:56:36.1Z</time>
      </trkpt>
      <trkpt lat="48.43456" lon="-3.15014">
        <ele>347</ele>
        <time>2014-11-10T14:56:39.1Z</time>
      </trkpt>
      <trkpt lat="48.43454" lon="-3.15017">
        <ele>347</ele>
        <time>2014-11-10T14:56:41.1Z</time>
      </trkpt>
      <trkpt lat="48.43452" lon="-3.15022">
        <ele>347</ele>
        <time>2014-11-10T14:56:44.1Z</time>
      </trkpt>
      <trkpt lat="48.43449" lon="-3.15026">
        <ele>347</ele>
        <time>2014-11-10T14:56:47.1Z</time>
      </trkpt>
      <trkpt lat="48.43447" lon="-3.15031">
        <ele>348</ele>
        <time>2014-11-10T14:56:50.1Z</time>
      </trkpt>
      <trkpt lat="48.43445" lon="-3.15034">
        <ele>348</ele>
        <time>2014-11-10T14:56:52.1Z</time>
      </trkpt>
      <trkpt lat="48.43443" lon="-3.15039">
        <ele>348</ele>
        <time>2014-11-10T14:56:55.1Z</time>
      </trkpt>
      <trkpt lat="48.43441" lon="-3.15043">
        <ele>348</ele>
        <time>2014-11-10T14:56:58.1Z</time>
      </trkpt>
      <trkpt lat="48.43439" lon="-3.15047">
        <ele>348</ele>
        <time>2014-11-10T14:57:01.1Z</time>
      </trkpt>
      <trkpt lat="48.43437" lon="-3.1505">
        <ele>348</ele>
        <time>2014-11-10T14:57:03.1Z</time>
      </trkpt>
      <trkpt lat="48.43435" lon="-3.15054">
        <ele>348</ele>
        <time>2014-11-10T14:57:06.1Z</time>
      </trkpt>
      <trkpt lat="48.43433" lon="-3.15057">
        <ele>348</ele>
        <time>2014-11-10T14:57:08.1Z</time>
      </trkpt>
      <trkpt lat="48.43431" lon="-3.15061">
        <ele>349</ele>
        <time>2014-11-10T14:57:11.1Z</time>
      </trkpt>
      <trkpt lat="48.43429" lon="-3.15065">
        <ele>349</ele>
        <time>2014-11-10T14:57:14.1Z</time>
      </trkpt>
      <trkpt lat="48.43428" lon="-3.15068">
        <ele>349</ele>
        <time>2014-11-10T14:57:16.1Z</time>
      </trkpt>
      <trkpt lat="48.43425" lon="-3.15072">
        <ele>349</ele>
        <time>2014-11-10T14:57:19.1Z</time>
      </trkpt>
      <trkpt lat="48.43423" lon="-3.15074">
        <ele>349</ele>
        <time>2014-11-10T14:57:21.1Z</time>
      </trkpt>
      <trkpt lat="48.43422" lon="-3.15076">
        <ele>349</ele>
        <time>2014-11-10T14:57:23.1Z</time>
      </trkpt>
      <trkpt lat="48.43419" lon="-3.1508">
        <ele>349</ele>
        <time>2014-11-10T14:57:26.1Z</time>
      </trkpt>
      <trkpt lat="48.43417" lon="-3.15082">
        <ele>349</ele>
        <time>2014-11-10T14:57:29.1Z</time>
      </trkpt>
      <trkpt lat="48.43414" lon="-3.15085">
        <ele>349</ele>
        <time>2014-11-10T14:57:32.1Z</time>
      </trkpt>
      <trkpt lat="48.43413" lon="-3.15087">
        <ele>350</ele>
        <time>2014-11-10T14:57:34.1Z</time>
      </trkpt>
      <trkpt lat="48.4341" lon="-3.15089">
        <ele>350</ele>
        <time>2014-11-10T14:57:37.1Z</time>
      </trkpt>
      <trkpt lat="48.43407" lon="-3.15091">
        <ele>350</ele>
        <time>2014-11-10T14:57:40.1Z</time>
      </trkpt>
      <trkpt lat="48.43404" lon="-3.15093">
        <ele>350</ele>
        <time>2014-11-10T14:57:43.1Z</time>
      </trkpt>
      <trkpt lat="48.43402" lon="-3.15094">
        <ele>350</ele>
        <time>2014-11-10T14:57:45.1Z</time>
      </trkpt>
      <trkpt lat="48.43399" lon="-3.15096">
        <ele>350</ele>
        <time>2014-11-10T14:57:48.1Z</time>
      </trkpt>
      <trkpt lat="48.43396" lon="-3.15096">
        <ele>350</ele>
        <time>2014-11-10T14:57:51.1Z</time>
      </trkpt>
      <trkpt lat="48.43392" lon="-3.15098">
        <ele>351</ele>
        <time>2014-11-10T14:57:54.1Z</time>
      </trkpt>
      <trkpt lat="48.43389" lon="-3.15099">
        <ele>351</ele>
        <time>2014-11-10T14:57:56.1Z</time>
      </trkpt>
      <trkpt lat="48.43386" lon="-3.151">
        <ele>351</ele>
        <time>2014-11-10T14:57:59.1Z</time>
      </trkpt>
      <trkpt lat="48.43383" lon="-3.15101">
        <ele>351</ele>
        <time>2014-11-10T14:58:01.1Z</time>
      </trkpt>
      <trkpt lat="48.43379" lon="-3.15102">
        <ele>350</ele>
        <time>2014-11-10T14:58:04.1Z</time>
      </trkpt>
      <trkpt lat="48.43375" lon="-3.15103">
        <ele>351</ele>
        <time>2014-11-10T14:58:07.1Z</time>
      </trkpt>
      <trkpt lat="48.43372" lon="-3.15104">
        <ele>350</ele>
        <time>2014-11-10T14:58:09.1Z</time>
      </trkpt>
      <trkpt lat="48.43368" lon="-3.15106">
        <ele>351</ele>
        <time>2014-11-10T14:58:12.1Z</time>
      </trkpt>
      <trkpt lat="48.43364" lon="-3.15107">
        <ele>351</ele>
        <time>2014-11-10T14:58:15.1Z</time>
      </trkpt>
      <trkpt lat="48.43361" lon="-3.15108">
        <ele>351</ele>
        <time>2014-11-10T14:58:17.1Z</time>
      </trkpt>
      <trkpt lat="48.43358" lon="-3.15109">
        <ele>350</ele>
        <time>2014-11-10T14:58:19.1Z</time>
      </trkpt>
      <trkpt lat="48.43355" lon="-3.15111">
        <ele>350</ele>
        <time>2014-11-10T14:58:21.1Z</time>
      </trkpt>
      <trkpt lat="48.43351" lon="-3.15112">
        <ele>351</ele>
        <time>2014-11-10T14:58:24.1Z</time>
      </trkpt>
      <trkpt lat="48.43347" lon="-3.15114">
        <ele>351</ele>
        <time>2014-11-10T14:58:27.1Z</time>
      </trkpt>
      <trkpt lat="48.43343" lon="-3.15116">
        <ele>351</ele>
        <time>2014-11-10T14:58:30.1Z</time>
      </trkpt>
      <trkpt lat="48.43341" lon="-3.15117">
        <ele>351</ele>
        <time>2014-11-10T14:58:32.1Z</time>
      </trkpt>
      <trkpt lat="48.43339" lon="-3.15119">
        <ele>351</ele>
        <time>2014-11-10T14:58:34.1Z</time>
      </trkpt>
      <trkpt lat="48.43336" lon="-3.15121">
        <ele>351</ele>
        <time>2014-11-10T14:58:36.1Z</time>
      </trkpt>
      <trkpt lat="48.43333" lon="-3.15123">
        <ele>351</ele>
        <time>2014-11-10T14:58:39.1Z</time>
      </trkpt>
      <trkpt lat="48.43329" lon="-3.15126">
        <ele>351</ele>
        <time>2014-11-10T14:58:42.1Z</time>
      </trkpt>
      <trkpt lat="48.43327" lon="-3.15128">
        <ele>351</ele>
        <time>2014-11-10T14:58:44.1Z</time>
      </trkpt>
      <trkpt lat="48.43324" lon="-3.15133">
        <ele>351</ele>
        <time>2014-11-10T14:58:47.1Z</time>
      </trkpt>
      <trkpt lat="48.43323" lon="-3.15135">
        <ele>351</ele>
        <time>2014-11-10T14:58:49.1Z</time>
      </trkpt>
      <trkpt lat="48.43321" lon="-3.15138">
        <ele>351</ele>
        <time>2014-11-10T14:58:51.1Z</time>
      </trkpt>
      <trkpt lat="48.43318" lon="-3.15141">
        <ele>351</ele>
        <time>2014-11-10T14:58:54.1Z</time>
      </trkpt>
      <trkpt lat="48.43316" lon="-3.15145">
        <ele>352</ele>
        <time>2014-11-10T14:58:57.1Z</time>
      </trkpt>
      <trkpt lat="48.43314" lon="-3.15147">
        <ele>352</ele>
        <time>2014-11-10T14:58:59.1Z</time>
      </trkpt>
      <trkpt lat="48.43311" lon="-3.15151">
        <ele>352</ele>
        <time>2014-11-10T14:59:02.1Z</time>
      </trkpt>
      <trkpt lat="48.43309" lon="-3.15153">
        <ele>352</ele>
        <time>2014-11-10T14:59:04.1Z</time>
      </trkpt>
      <trkpt lat="48.43306" lon="-3.15155">
        <ele>352</ele>
        <time>2014-11-10T14:59:07.1Z</time>
      </trkpt>
      <trkpt lat="48.43302" lon="-3.15158">
        <ele>352</ele>
        <time>2014-11-10T14:59:10.1Z</time>
      </trkpt>
      <trkpt lat="48.43299" lon="-3.1516">
        <ele>352</ele>
        <time>2014-11-10T14:59:13.1Z</time>
      </trkpt>
      <trkpt lat="48.43297" lon="-3.15162">
        <ele>352</ele>
        <time>2014-11-10T14:59:16.1Z</time>
      </trkpt>
      <trkpt lat="48.43295" lon="-3.15163">
        <ele>352</ele>
        <time>2014-11-10T14:59:18.1Z</time>
      </trkpt>
      <trkpt lat="48.43292" lon="-3.15165">
        <ele>352</ele>
        <time>2014-11-10T14:59:21.1Z</time>
      </trkpt>
      <trkpt lat="48.43291" lon="-3.15167">
        <ele>351</ele>
        <time>2014-11-10T14:59:24.1Z</time>
      </trkpt>
      <trkpt lat="48.4329" lon="-3.15167">
        <ele>352</ele>
        <time>2014-11-10T14:59:26.1Z</time>
      </trkpt>
      <trkpt lat="48.4329" lon="-3.15167">
        <ele>352</ele>
        <time>2014-11-10T14:59:28.1Z</time>
      </trkpt>
      <trkpt lat="48.4329" lon="-3.15167">
        <ele>352</ele>
        <time>2014-11-10T14:59:31.1Z</time>
      </trkpt>
      <trkpt lat="48.43289" lon="-3.15167">
        <ele>352</ele>
        <time>2014-11-10T14:59:34.1Z</time>
      </trkpt>
      <trkpt lat="48.43289" lon="-3.15167">
        <ele>352</ele>
        <time>2014-11-10T14:59:36.1Z</time>
      </trkpt>
      <trkpt lat="48.43288" lon="-3.15167">
        <ele>352</ele>
        <time>2014-11-10T14:59:38.1Z</time>
      </trkpt>
      <trkpt lat="48.43286" lon="-3.15167">
        <ele>352</ele>
        <time>2014-11-10T14:59:41.1Z</time>
      </trkpt>
      <trkpt lat="48.43284" lon="-3.15168">
        <ele>352</ele>
        <time>2014-11-10T14:59:43.1Z</time>
      </trkpt>
      <trkpt lat="48.43282" lon="-3.15168">
        <ele>352</ele>
        <time>2014-11-10T14:59:45.1Z</time>
      </trkpt>
      <trkpt lat="48.43281" lon="-3.15167">
        <ele>352</ele>
        <time>2014-11-10T14:59:47.1Z</time>
      </trkpt>
      <trkpt lat="48.4328" lon="-3.15165">
        <ele>351</ele>
        <time>2014-11-10T14:59:50.1Z</time>
      </trkpt>
      <trkpt lat="48.43279" lon="-3.15163">
        <ele>351</ele>
        <time>2014-11-10T14:59:52.1Z</time>
      </trkpt>
      <trkpt lat="48.43279" lon="-3.15161">
        <ele>351</ele>
        <time>2014-11-10T14:59:54.1Z</time>
      </trkpt>
      <trkpt lat="48.43278" lon="-3.15158">
        <ele>351</ele>
        <time>2014-11-10T14:59:57.1Z</time>
      </trkpt>
      <trkpt lat="48.43278" lon="-3.15157">
        <ele>351</ele>
        <time>2014-11-10T15:00:00.1Z</time>
      </trkpt>
      <trkpt lat="48.43279" lon="-3.15157">
        <ele>351</ele>
        <time>2014-11-10T15:00:03.1Z</time>
      </trkpt>
      <trkpt lat="48.4328" lon="-3.15158">
        <ele>351</ele>
        <time>2014-11-10T15:00:05.1Z</time>
      </trkpt>
      <trkpt lat="48.4328" lon="-3.15159">
        <ele>351</ele>
        <time>2014-11-10T15:00:08.1Z</time>
      </trkpt>
      <trkpt lat="48.4328" lon="-3.15159">
        <ele>351</ele>
        <time>2014-11-10T15:00:11.1Z</time>
      </trkpt>
      <trkpt lat="48.4328" lon="-3.1516">
        <ele>351</ele>
        <time>2014-11-10T15:00:13.1Z</time>
      </trkpt>
      <trkpt lat="48.4328" lon="-3.15159">
        <ele>351</ele>
        <time>2014-11-10T15:00:17.1Z</time>
      </trkpt>
      <trkpt lat="48.4328" lon="-3.15158">
        <ele>351</ele>
        <time>2014-11-10T15:00:19.1Z</time>
      </trkpt>
      <trkpt lat="48.4328" lon="-3.15158">
        <ele>351</ele>
        <time>2014-11-10T15:00:21.1Z</time>
      </trkpt>
      <trkpt lat="48.4328" lon="-3.15157">
        <ele>351</ele>
        <time>2014-11-10T15:00:24.1Z</time>
      </trkpt>
      <trkpt lat="48.43279" lon="-3.15157">
        <ele>351</ele>
        <time>2014-11-10T15:00:26.1Z</time>
      </trkpt>
      <trkpt lat="48.43279" lon="-3.15156">
        <ele>351</ele>
        <time>2014-11-10T15:00:29.1Z</time>
      </trkpt>
      <trkpt lat="48.43279" lon="-3.15156">
        <ele>351</ele>
        <time>2014-11-10T15:00:31.1Z</time>
      </trkpt>
      <trkpt lat="48.43279" lon="-3.15155">
        <ele>351</ele>
        <time>2014-11-10T15:00:34.1Z</time>
      </trkpt>
      <trkpt lat="48.43279" lon="-3.15155">
        <ele>351</ele>
        <time>2014-11-10T15:00:37.1Z</time>
      </trkpt>
      <trkpt lat="48.43279" lon="-3.15155">
        <ele>351</ele>
        <time>2014-11-10T15:00:39.1Z</time>
      </trkpt>
      <trkpt lat="48.43278" lon="-3.15155">
        <ele>351</ele>
        <time>2014-11-10T15:00:41.1Z</time>
      </trkpt>
      <trkpt lat="48.43277" lon="-3.15156">
        <ele>351</ele>
        <time>2014-11-10T15:00:44.1Z</time>
      </trkpt>
      <trkpt lat="48.43277" lon="-3.15155">
        <ele>351</ele>
        <time>2014-11-10T15:00:47.1Z</time>
      </trkpt>
      <trkpt lat="48.43276" lon="-3.15153">
        <ele>351</ele>
        <time>2014-11-10T15:00:50.1Z</time>
      </trkpt>
      <trkpt lat="48.43276" lon="-3.15152">
        <ele>351</ele>
        <time>2014-11-10T15:00:52.1Z</time>
      </trkpt>
      <trkpt lat="48.43275" lon="-3.15148">
        <ele>351</ele>
        <time>2014-11-10T15:00:55.1Z</time>
      </trkpt>
      <trkpt lat="48.43275" lon="-3.15146">
        <ele>350</ele>
        <time>2014-11-10T15:00:57.1Z</time>
      </trkpt>
      <trkpt lat="48.43274" lon="-3.15145">
        <ele>351</ele>
        <time>2014-11-10T15:00:59.1Z</time>
      </trkpt>
      <trkpt lat="48.43273" lon="-3.15142">
        <ele>350</ele>
        <time>2014-11-10T15:01:02.1Z</time>
      </trkpt>
      <trkpt lat="48.43273" lon="-3.15138">
        <ele>350</ele>
        <time>2014-11-10T15:01:05.1Z</time>
      </trkpt>
      <trkpt lat="48.43272" lon="-3.15134">
        <ele>350</ele>
        <time>2014-11-10T15:01:08.1Z</time>
      </trkpt>
      <trkpt lat="48.43271" lon="-3.15131">
        <ele>350</ele>
        <time>2014-11-10T15:01:11.1Z</time>
      </trkpt>
      <trkpt lat="48.43271" lon="-3.15128">
        <ele>350</ele>
        <time>2014-11-10T15:01:13.1Z</time>
      </trkpt>
      <trkpt lat="48.4327" lon="-3.15124">
        <ele>350</ele>
        <time>2014-11-10T15:01:16.1Z</time>
      </trkpt>
      <trkpt lat="48.43269" lon="-3.1512">
        <ele>349</ele>
        <time>2014-11-10T15:01:19.1Z</time>
      </trkpt>
      <trkpt lat="48.43268" lon="-3.15115">
        <ele>349</ele>
        <time>2014-11-10T15:01:22.1Z</time>
      </trkpt>
      <trkpt lat="48.43267" lon="-3.15112">
        <ele>349</ele>
        <time>2014-11-10T15:01:24.1Z</time>
      </trkpt>
      <trkpt lat="48.43267" lon="-3.15109">
        <ele>349</ele>
        <time>2014-11-10T15:01:26.1Z</time>
      </trkpt>
      <trkpt lat="48.43266" lon="-3.15105">
        <ele>349</ele>
        <time>2014-11-10T15:01:29.1Z</time>
      </trkpt>
      <trkpt lat="48.43265" lon="-3.151">
        <ele>348</ele>
        <time>2014-11-10T15:01:32.1Z</time>
      </trkpt>
      <trkpt lat="48.43265" lon="-3.15096">
        <ele>348</ele>
        <time>2014-11-10T15:01:34.1Z</time>
      </trkpt>
      <trkpt lat="48.43264" lon="-3.15091">
        <ele>348</ele>
        <time>2014-11-10T15:01:37.1Z</time>
      </trkpt>
      <trkpt lat="48.43263" lon="-3.15087">
        <ele>348</ele>
        <time>2014-11-10T15:01:40.1Z</time>
      </trkpt>
      <trkpt lat="48.43262" lon="-3.15082">
        <ele>347</ele>
        <time>2014-11-10T15:01:43.1Z</time>
      </trkpt>
      <trkpt lat="48.43261" lon="-3.15078">
        <ele>347</ele>
        <time>2014-11-10T15:01:45.1Z</time>
      </trkpt>
      <trkpt lat="48.4326" lon="-3.15073">
        <ele>347</ele>
        <time>2014-11-10T15:01:48.1Z</time>
      </trkpt>
      <trkpt lat="48.43259" lon="-3.15069">
        <ele>347</ele>
        <time>2014-11-10T15:01:51.1Z</time>
      </trkpt>
      <trkpt lat="48.43259" lon="-3.15066">
        <ele>347</ele>
        <time>2014-11-10T15:01:53.1Z</time>
      </trkpt>
      <trkpt lat="48.43258" lon="-3.15061">
        <ele>347</ele>
        <time>2014-11-10T15:01:56.1Z</time>
      </trkpt>
      <trkpt lat="48.43257" lon="-3.15058">
        <ele>348</ele>
        <time>2014-11-10T15:01:58.1Z</time>
      </trkpt>
      <trkpt lat="48.43256" lon="-3.15053">
        <ele>347</ele>
        <time>2014-11-10T15:02:01.1Z</time>
      </trkpt>
      <trkpt lat="48.43255" lon="-3.15048">
        <ele>347</ele>
        <time>2014-11-10T15:02:04.1Z</time>
      </trkpt>
      <trkpt lat="48.43254" lon="-3.15044">
        <ele>347</ele>
        <time>2014-11-10T15:02:06.1Z</time>
      </trkpt>
      <trkpt lat="48.43253" lon="-3.15039">
        <ele>347</ele>
        <time>2014-11-10T15:02:09.1Z</time>
      </trkpt>
      <trkpt lat="48.43252" lon="-3.15034">
        <ele>346</ele>
        <time>2014-11-10T15:02:12.1Z</time>
      </trkpt>
      <trkpt lat="48.43251" lon="-3.15028">
        <ele>346</ele>
        <time>2014-11-10T15:02:15.1Z</time>
      </trkpt>
      <trkpt lat="48.4325" lon="-3.15025">
        <ele>346</ele>
        <time>2014-11-10T15:02:17.1Z</time>
      </trkpt>
      <trkpt lat="48.43249" lon="-3.15021">
        <ele>346</ele>
        <time>2014-11-10T15:02:19.1Z</time>
      </trkpt>
      <trkpt lat="48.43248" lon="-3.15016">
        <ele>346</ele>
        <time>2014-11-10T15:02:22.1Z</time>
      </trkpt>
      <trkpt lat="48.43247" lon="-3.1501">
        <ele>346</ele>
        <time>2014-11-10T15:02:25.1Z</time>
      </trkpt>
      <trkpt lat="48.43246" lon="-3.15005">
        <ele>346</ele>
        <time>2014-11-10T15:02:28.1Z</time>
      </trkpt>
      <trkpt lat="48.43245" lon="-3.15001">
        <ele>346</ele>
        <time>2014-11-10T15:02:30.1Z</time>
      </trkpt>
      <trkpt lat="48.43244" lon="-3.14998">
        <ele>345</ele>
        <time>2014-11-10T15:02:32.1Z</time>
      </trkpt>
      <trkpt lat="48.43243" lon="-3.14993">
        <ele>345</ele>
        <time>2014-11-10T15:02:35.1Z</time>
      </trkpt>
      <trkpt lat="48.43242" lon="-3.14988">
        <ele>345</ele>
        <time>2014-11-10T15:02:38.1Z</time>
      </trkpt>
      <trkpt lat="48.4324" lon="-3.14984">
        <ele>344</ele>
        <time>2014-11-10T15:02:41.1Z</time>
      </trkpt>
      <trkpt lat="48.43239" lon="-3.1498">
        <ele>344</ele>
        <time>2014-11-10T15:02:43.1Z</time>
      </trkpt>
      <trkpt lat="48.43238" lon="-3.14977">
        <ele>345</ele>
        <time>2014-11-10T15:02:45.1Z</time>
      </trkpt>
      <trkpt lat="48.43236" lon="-3.14972">
        <ele>345</ele>
        <time>2014-11-10T15:02:48.1Z</time>
      </trkpt>
      <trkpt lat="48.43235" lon="-3.14969">
        <ele>345</ele>
        <time>2014-11-10T15:02:50.1Z</time>
      </trkpt>
      <trkpt lat="48.43233" lon="-3.14964">
        <ele>344</ele>
        <time>2014-11-10T15:02:53.1Z</time>
      </trkpt>
      <trkpt lat="48.43232" lon="-3.14959">
        <ele>344</ele>
        <time>2014-11-10T15:02:56.1Z</time>
      </trkpt>
      <trkpt lat="48.43231" lon="-3.14955">
        <ele>344</ele>
        <time>2014-11-10T15:02:58.1Z</time>
      </trkpt>
      <trkpt lat="48.43229" lon="-3.14951">
        <ele>345</ele>
        <time>2014-11-10T15:03:01.1Z</time>
      </trkpt>
      <trkpt lat="48.43228" lon="-3.14947">
        <ele>345</ele>
        <time>2014-11-10T15:03:03.1Z</time>
      </trkpt>
      <trkpt lat="48.43226" lon="-3.14944">
        <ele>345</ele>
        <time>2014-11-10T15:03:05.1Z</time>
      </trkpt>
      <trkpt lat="48.43224" lon="-3.14938">
        <ele>345</ele>
        <time>2014-11-10T15:03:08.1Z</time>
      </trkpt>
      <trkpt lat="48.43223" lon="-3.14935">
        <ele>345</ele>
        <time>2014-11-10T15:03:10.1Z</time>
      </trkpt>
      <trkpt lat="48.43221" lon="-3.14931">
        <ele>345</ele>
        <time>2014-11-10T15:03:13.1Z</time>
      </trkpt>
      <trkpt lat="48.43219" lon="-3.14928">
        <ele>344</ele>
        <time>2014-11-10T15:03:15.1Z</time>
      </trkpt>
      <trkpt lat="48.43217" lon="-3.14923">
        <ele>345</ele>
        <time>2014-11-10T15:03:18.1Z</time>
      </trkpt>
      <trkpt lat="48.43216" lon="-3.14919">
        <ele>345</ele>
        <time>2014-11-10T15:03:20.1Z</time>
      </trkpt>
      <trkpt lat="48.43214" lon="-3.14917">
        <ele>345</ele>
        <time>2014-11-10T15:03:22.1Z</time>
      </trkpt>
      <trkpt lat="48.43213" lon="-3.14912">
        <ele>345</ele>
        <time>2014-11-10T15:03:25.1Z</time>
      </trkpt>
      <trkpt lat="48.4321" lon="-3.14907">
        <ele>345</ele>
        <time>2014-11-10T15:03:28.1Z</time>
      </trkpt>
      <trkpt lat="48.43208" lon="-3.14903">
        <ele>345</ele>
        <time>2014-11-10T15:03:31.1Z</time>
      </trkpt>
      <trkpt lat="48.43206" lon="-3.14898">
        <ele>345</ele>
        <time>2014-11-10T15:03:34.1Z</time>
      </trkpt>
      <trkpt lat="48.43204" lon="-3.14895">
        <ele>345</ele>
        <time>2014-11-10T15:03:36.1Z</time>
      </trkpt>
      <trkpt lat="48.43203" lon="-3.14893">
        <ele>345</ele>
        <time>2014-11-10T15:03:38.1Z</time>
      </trkpt>
      <trkpt lat="48.43201" lon="-3.14888">
        <ele>345</ele>
        <time>2014-11-10T15:03:41.1Z</time>
      </trkpt>
      <trkpt lat="48.43199" lon="-3.14885">
        <ele>345</ele>
        <time>2014-11-10T15:03:43.1Z</time>
      </trkpt>
      <trkpt lat="48.43197" lon="-3.1488">
        <ele>344</ele>
        <time>2014-11-10T15:03:46.1Z</time>
      </trkpt>
      <trkpt lat="48.43195" lon="-3.14877">
        <ele>344</ele>
        <time>2014-11-10T15:03:48.1Z</time>
      </trkpt>
      <trkpt lat="48.43193" lon="-3.14872">
        <ele>345</ele>
        <time>2014-11-10T15:03:51.1Z</time>
      </trkpt>
      <trkpt lat="48.43191" lon="-3.14867">
        <ele>345</ele>
        <time>2014-11-10T15:03:54.1Z</time>
      </trkpt>
      <trkpt lat="48.4319" lon="-3.14863">
        <ele>346</ele>
        <time>2014-11-10T15:03:56.1Z</time>
      </trkpt>
      <trkpt lat="48.43188" lon="-3.14858">
        <ele>346</ele>
        <time>2014-11-10T15:03:59.1Z</time>
      </trkpt>
      <trkpt lat="48.43187" lon="-3.14853">
        <ele>346</ele>
        <time>2014-11-10T15:04:02.1Z</time>
      </trkpt>
      <trkpt lat="48.43185" lon="-3.1485">
        <ele>347</ele>
        <time>2014-11-10T15:04:04.1Z</time>
      </trkpt>
      <trkpt lat="48.43183" lon="-3.14845">
        <ele>347</ele>
        <time>2014-11-10T15:04:07.1Z</time>
      </trkpt>
      <trkpt lat="48.43182" lon="-3.14842">
        <ele>347</ele>
        <time>2014-11-10T15:04:09.1Z</time>
      </trkpt>
      <trkpt lat="48.4318" lon="-3.14838">
        <ele>347</ele>
        <time>2014-11-10T15:04:12.1Z</time>
      </trkpt>
      <trkpt lat="48.43178" lon="-3.14836">
        <ele>347</ele>
        <time>2014-11-10T15:04:14.1Z</time>
      </trkpt>
      <trkpt lat="48.43176" lon="-3.14832">
        <ele>347</ele>
        <time>2014-11-10T15:04:17.1Z</time>
      </trkpt>
      <trkpt lat="48.43174" lon="-3.1483">
        <ele>348</ele>
        <time>2014-11-10T15:04:19.1Z</time>
      </trkpt>
      <trkpt lat="48.43171" lon="-3.14827">
        <ele>348</ele>
        <time>2014-11-10T15:04:22.1Z</time>
      </trkpt>
      <trkpt lat="48.43169" lon="-3.14825">
        <ele>348</ele>
        <time>2014-11-10T15:04:24.1Z</time>
      </trkpt>
      <trkpt lat="48.43166" lon="-3.14821">
        <ele>348</ele>
        <time>2014-11-10T15:04:27.1Z</time>
      </trkpt>
      <trkpt lat="48.43164" lon="-3.14817">
        <ele>348</ele>
        <time>2014-11-10T15:04:30.1Z</time>
      </trkpt>
      <trkpt lat="48.43162" lon="-3.14814">
        <ele>349</ele>
        <time>2014-11-10T15:04:32.1Z</time>
      </trkpt>
      <trkpt lat="48.4316" lon="-3.14812">
        <ele>349</ele>
        <time>2014-11-10T15:04:34.1Z</time>
      </trkpt>
      <trkpt lat="48.43157" lon="-3.14808">
        <ele>348</ele>
        <time>2014-11-10T15:04:37.1Z</time>
      </trkpt>
      <trkpt lat="48.43155" lon="-3.14806">
        <ele>348</ele>
        <time>2014-11-10T15:04:39.1Z</time>
      </trkpt>
      <trkpt lat="48.43153" lon="-3.14803">
        <ele>349</ele>
        <time>2014-11-10T15:04:42.1Z</time>
      </trkpt>
      <trkpt lat="48.4315" lon="-3.14799">
        <ele>349</ele>
        <time>2014-11-10T15:04:45.1Z</time>
      </trkpt>
      <trkpt lat="48.43148" lon="-3.14797">
        <ele>349</ele>
        <time>2014-11-10T15:04:47.1Z</time>
      </trkpt>
      <trkpt lat="48.43145" lon="-3.14794">
        <ele>349</ele>
        <time>2014-11-10T15:04:50.1Z</time>
      </trkpt>
      <trkpt lat="48.43143" lon="-3.14792">
        <ele>349</ele>
        <time>2014-11-10T15:04:52.1Z</time>
      </trkpt>
      <trkpt lat="48.4314" lon="-3.14788">
        <ele>350</ele>
        <time>2014-11-10T15:04:55.1Z</time>
      </trkpt>
      <trkpt lat="48.43137" lon="-3.14785">
        <ele>350</ele>
        <time>2014-11-10T15:04:58.1Z</time>
      </trkpt>
      <trkpt lat="48.43135" lon="-3.14783">
        <ele>350</ele>
        <time>2014-11-10T15:05:00.1Z</time>
      </trkpt>
      <trkpt lat="48.43131" lon="-3.1478">
        <ele>350</ele>
        <time>2014-11-10T15:05:03.1Z</time>
      </trkpt>
      <trkpt lat="48.43129" lon="-3.14778">
        <ele>350</ele>
        <time>2014-11-10T15:05:06.1Z</time>
      </trkpt>
      <trkpt lat="48.43126" lon="-3.14776">
        <ele>350</ele>
        <time>2014-11-10T15:05:09.1Z</time>
      </trkpt>
      <trkpt lat="48.43124" lon="-3.14774">
        <ele>351</ele>
        <time>2014-11-10T15:05:11.1Z</time>
      </trkpt>
      <trkpt lat="48.43122" lon="-3.14773">
        <ele>352</ele>
        <time>2014-11-10T15:05:13.1Z</time>
      </trkpt>
      <trkpt lat="48.43119" lon="-3.1477">
        <ele>352</ele>
        <time>2014-11-10T15:05:16.1Z</time>
      </trkpt>
      <trkpt lat="48.43116" lon="-3.14768">
        <ele>352</ele>
        <time>2014-11-10T15:05:19.1Z</time>
      </trkpt>
      <trkpt lat="48.43112" lon="-3.14767">
        <ele>352</ele>
        <time>2014-11-10T15:05:22.1Z</time>
      </trkpt>
      <trkpt lat="48.43109" lon="-3.14764">
        <ele>352</ele>
        <time>2014-11-10T15:05:25.1Z</time>
      </trkpt>
      <trkpt lat="48.43107" lon="-3.14762">
        <ele>353</ele>
        <time>2014-11-10T15:05:27.1Z</time>
      </trkpt>
      <trkpt lat="48.43103" lon="-3.1476">
        <ele>353</ele>
        <time>2014-11-10T15:05:30.1Z</time>
      </trkpt>
      <trkpt lat="48.43099" lon="-3.14758">
        <ele>353</ele>
        <time>2014-11-10T15:05:33.1Z</time>
      </trkpt>
      <trkpt lat="48.43097" lon="-3.14756">
        <ele>353</ele>
        <time>2014-11-10T15:05:35.1Z</time>
      </trkpt>
      <trkpt lat="48.43095" lon="-3.14755">
        <ele>353</ele>
        <time>2014-11-10T15:05:37.1Z</time>
      </trkpt>
      <trkpt lat="48.43092" lon="-3.14754">
        <ele>354</ele>
        <time>2014-11-10T15:05:39.1Z</time>
      </trkpt>
      <trkpt lat="48.43088" lon="-3.14751">
        <ele>354</ele>
        <time>2014-11-10T15:05:42.1Z</time>
      </trkpt>
      <trkpt lat="48.43085" lon="-3.14749">
        <ele>354</ele>
        <time>2014-11-10T15:05:44.1Z</time>
      </trkpt>
      <trkpt lat="48.43081" lon="-3.14746">
        <ele>355</ele>
        <time>2014-11-10T15:05:47.1Z</time>
      </trkpt>
      <trkpt lat="48.43077" lon="-3.14744">
        <ele>355</ele>
        <time>2014-11-10T15:05:50.1Z</time>
      </trkpt>
      <trkpt lat="48.43075" lon="-3.14742">
        <ele>355</ele>
        <time>2014-11-10T15:05:52.1Z</time>
      </trkpt>
      <trkpt lat="48.43071" lon="-3.14741">
        <ele>356</ele>
        <time>2014-11-10T15:05:55.1Z</time>
      </trkpt>
      <trkpt lat="48.43067" lon="-3.14739">
        <ele>356</ele>
        <time>2014-11-10T15:05:58.1Z</time>
      </trkpt>
      <trkpt lat="48.43063" lon="-3.14738">
        <ele>357</ele>
        <time>2014-11-10T15:06:01.1Z</time>
      </trkpt>
      <trkpt lat="48.43061" lon="-3.14737">
        <ele>358</ele>
        <time>2014-11-10T15:06:03.1Z</time>
      </trkpt>
      <trkpt lat="48.43059" lon="-3.14736">
        <ele>358</ele>
        <time>2014-11-10T15:06:05.1Z</time>
      </trkpt>
      <trkpt lat="48.43056" lon="-3.14734">
        <ele>358</ele>
        <time>2014-11-10T15:06:08.1Z</time>
      </trkpt>
      <trkpt lat="48.43053" lon="-3.14731">
        <ele>358</ele>
        <time>2014-11-10T15:06:11.1Z</time>
      </trkpt>
      <trkpt lat="48.43049" lon="-3.14729">
        <ele>359</ele>
        <time>2014-11-10T15:06:14.1Z</time>
      </trkpt>
      <trkpt lat="48.43045" lon="-3.14727">
        <ele>360</ele>
        <time>2014-11-10T15:06:17.1Z</time>
      </trkpt>
      <trkpt lat="48.43041" lon="-3.14724">
        <ele>360</ele>
        <time>2014-11-10T15:06:20.1Z</time>
      </trkpt>
      <trkpt lat="48.43038" lon="-3.14722">
        <ele>360</ele>
        <time>2014-11-10T15:06:23.1Z</time>
      </trkpt>
      <trkpt lat="48.43035" lon="-3.1472">
        <ele>361</ele>
        <time>2014-11-10T15:06:26.1Z</time>
      </trkpt>
      <trkpt lat="48.43032" lon="-3.14718">
        <ele>362</ele>
        <time>2014-11-10T15:06:28.1Z</time>
      </trkpt>
      <trkpt lat="48.4303" lon="-3.14716">
        <ele>362</ele>
        <time>2014-11-10T15:06:30.1Z</time>
      </trkpt>
      <trkpt lat="48.43027" lon="-3.14713">
        <ele>363</ele>
        <time>2014-11-10T15:06:33.1Z</time>
      </trkpt>
      <trkpt lat="48.43024" lon="-3.14709">
        <ele>363</ele>
        <time>2014-11-10T15:06:36.1Z</time>
      </trkpt>
      <trkpt lat="48.43019" lon="-3.14707">
        <ele>364</ele>
        <time>2014-11-10T15:06:39.1Z</time>
      </trkpt>
      <trkpt lat="48.43015" lon="-3.14704">
        <ele>364</ele>
        <time>2014-11-10T15:06:42.1Z</time>
      </trkpt>
      <trkpt lat="48.43012" lon="-3.14701">
        <ele>364</ele>
        <time>2014-11-10T15:06:45.1Z</time>
      </trkpt>
      <trkpt lat="48.43009" lon="-3.14699">
        <ele>364</ele>
        <time>2014-11-10T15:06:47.1Z</time>
      </trkpt>
      <trkpt lat="48.43005" lon="-3.14696">
        <ele>365</ele>
        <time>2014-11-10T15:06:50.1Z</time>
      </trkpt>
      <trkpt lat="48.43002" lon="-3.14693">
        <ele>365</ele>
        <time>2014-11-10T15:06:53.1Z</time>
      </trkpt>
      <trkpt lat="48.42998" lon="-3.1469">
        <ele>365</ele>
        <time>2014-11-10T15:06:56.1Z</time>
      </trkpt>
      <trkpt lat="48.42995" lon="-3.14688">
        <ele>365</ele>
        <time>2014-11-10T15:06:59.1Z</time>
      </trkpt>
      <trkpt lat="48.42993" lon="-3.14688">
        <ele>366</ele>
        <time>2014-11-10T15:07:02.1Z</time>
      </trkpt>
      <trkpt lat="48.42992" lon="-3.14688">
        <ele>367</ele>
        <time>2014-11-10T15:07:04.1Z</time>
      </trkpt>
      <trkpt lat="48.42992" lon="-3.14687">
        <ele>367</ele>
        <time>2014-11-10T15:07:07.1Z</time>
      </trkpt>
      <trkpt lat="48.42992" lon="-3.14685">
        <ele>367</ele>
        <time>2014-11-10T15:07:09.1Z</time>
      </trkpt>
      <trkpt lat="48.42989" lon="-3.14683">
        <ele>367</ele>
        <time>2014-11-10T15:07:12.1Z</time>
      </trkpt>
      <trkpt lat="48.42987" lon="-3.14682">
        <ele>366</ele>
        <time>2014-11-10T15:07:14.1Z</time>
      </trkpt>
      <trkpt lat="48.42984" lon="-3.1468">
        <ele>367</ele>
        <time>2014-11-10T15:07:17.1Z</time>
      </trkpt>
      <trkpt lat="48.42983" lon="-3.14678">
        <ele>367</ele>
        <time>2014-11-10T15:07:19.1Z</time>
      </trkpt>
      <trkpt lat="48.42981" lon="-3.14677">
        <ele>367</ele>
        <time>2014-11-10T15:07:21.1Z</time>
      </trkpt>
      <trkpt lat="48.42978" lon="-3.14675">
        <ele>367</ele>
        <time>2014-11-10T15:07:24.1Z</time>
      </trkpt>
      <trkpt lat="48.42976" lon="-3.14673">
        <ele>368</ele>
        <time>2014-11-10T15:07:26.1Z</time>
      </trkpt>
      <trkpt lat="48.42974" lon="-3.14672">
        <ele>368</ele>
        <time>2014-11-10T15:07:28.1Z</time>
      </trkpt>
      <trkpt lat="48.42971" lon="-3.14671">
        <ele>368</ele>
        <time>2014-11-10T15:07:31.1Z</time>
      </trkpt>
      <trkpt lat="48.42967" lon="-3.1467">
        <ele>369</ele>
        <time>2014-11-10T15:07:34.1Z</time>
      </trkpt>
      <trkpt lat="48.42965" lon="-3.14667">
        <ele>369</ele>
        <time>2014-11-10T15:07:37.1Z</time>
      </trkpt>
      <trkpt lat="48.42962" lon="-3.14666">
        <ele>369</ele>
        <time>2014-11-10T15:07:39.1Z</time>
      </trkpt>
      <trkpt lat="48.42959" lon="-3.14664">
        <ele>369</ele>
        <time>2014-11-10T15:07:42.1Z</time>
      </trkpt>
      <trkpt lat="48.42955" lon="-3.14662">
        <ele>369</ele>
        <time>2014-11-10T15:07:45.1Z</time>
      </trkpt>
      <trkpt lat="48.42954" lon="-3.14661">
        <ele>369</ele>
        <time>2014-11-10T15:07:47.1Z</time>
      </trkpt>
      <trkpt lat="48.4295" lon="-3.1466">
        <ele>369</ele>
        <time>2014-11-10T15:07:50.1Z</time>
      </trkpt>
      <trkpt lat="48.42948" lon="-3.14658">
        <ele>369</ele>
        <time>2014-11-10T15:07:52.1Z</time>
      </trkpt>
      <trkpt lat="48.42945" lon="-3.14657">
        <ele>370</ele>
        <time>2014-11-10T15:07:55.1Z</time>
      </trkpt>
      <trkpt lat="48.42941" lon="-3.14655">
        <ele>370</ele>
        <time>2014-11-10T15:07:58.1Z</time>
      </trkpt>
      <trkpt lat="48.42938" lon="-3.14653">
        <ele>370</ele>
        <time>2014-11-10T15:08:01.1Z</time>
      </trkpt>
      <trkpt lat="48.42936" lon="-3.14652">
        <ele>370</ele>
        <time>2014-11-10T15:08:03.1Z</time>
      </trkpt>
      <trkpt lat="48.42932" lon="-3.14651">
        <ele>370</ele>
        <time>2014-11-10T15:08:06.1Z</time>
      </trkpt>
      <trkpt lat="48.4293" lon="-3.1465">
        <ele>370</ele>
        <time>2014-11-10T15:08:08.1Z</time>
      </trkpt>
      <trkpt lat="48.42926" lon="-3.14649">
        <ele>371</ele>
        <time>2014-11-10T15:08:11.1Z</time>
      </trkpt>
      <trkpt lat="48.42923" lon="-3.14648">
        <ele>371</ele>
        <time>2014-11-10T15:08:14.1Z</time>
      </trkpt>
      <trkpt lat="48.4292" lon="-3.14647">
        <ele>371</ele>
        <time>2014-11-10T15:08:17.1Z</time>
      </trkpt>
      <trkpt lat="48.42916" lon="-3.14646">
        <ele>371</ele>
        <time>2014-11-10T15:08:20.1Z</time>
      </trkpt>
      <trkpt lat="48.42915" lon="-3.14646">
        <ele>372</ele>
        <time>2014-11-10T15:08:22.1Z</time>
      </trkpt>
      <trkpt lat="48.42912" lon="-3.14646">
        <ele>372</ele>
        <time>2014-11-10T15:08:24.1Z</time>
      </trkpt>
      <trkpt lat="48.4291" lon="-3.14646">
        <ele>372</ele>
        <time>2014-11-10T15:08:27.1Z</time>
      </trkpt>
      <trkpt lat="48.42907" lon="-3.14646">
        <ele>372</ele>
        <time>2014-11-10T15:08:29.1Z</time>
      </trkpt>
      <trkpt lat="48.42904" lon="-3.14647">
        <ele>372</ele>
        <time>2014-11-10T15:08:32.1Z</time>
      </trkpt>
      <trkpt lat="48.429" lon="-3.14647">
        <ele>372</ele>
        <time>2014-11-10T15:08:35.1Z</time>
      </trkpt>
      <trkpt lat="48.42899" lon="-3.14647">
        <ele>372</ele>
        <time>2014-11-10T15:08:37.1Z</time>
      </trkpt>
      <trkpt lat="48.42895" lon="-3.14648">
        <ele>373</ele>
        <time>2014-11-10T15:08:40.1Z</time>
      </trkpt>
      <trkpt lat="48.42893" lon="-3.14649">
        <ele>373</ele>
        <time>2014-11-10T15:08:42.1Z</time>
      </trkpt>
      <trkpt lat="48.4289" lon="-3.1465">
        <ele>373</ele>
        <time>2014-11-10T15:08:45.1Z</time>
      </trkpt>
      <trkpt lat="48.42886" lon="-3.14651">
        <ele>374</ele>
        <time>2014-11-10T15:08:48.1Z</time>
      </trkpt>
      <trkpt lat="48.42884" lon="-3.14651">
        <ele>374</ele>
        <time>2014-11-10T15:08:50.1Z</time>
      </trkpt>
      <trkpt lat="48.4288" lon="-3.14652">
        <ele>374</ele>
        <time>2014-11-10T15:08:53.1Z</time>
      </trkpt>
      <trkpt lat="48.42878" lon="-3.14652">
        <ele>374</ele>
        <time>2014-11-10T15:08:55.1Z</time>
      </trkpt>
      <trkpt lat="48.42874" lon="-3.14653">
        <ele>375</ele>
        <time>2014-11-10T15:08:58.1Z</time>
      </trkpt>
      <trkpt lat="48.4287" lon="-3.14654">
        <ele>375</ele>
        <time>2014-11-10T15:09:01.1Z</time>
      </trkpt>
      <trkpt lat="48.42867" lon="-3.14654">
        <ele>375</ele>
        <time>2014-11-10T15:09:03.1Z</time>
      </trkpt>
      <trkpt lat="48.42863" lon="-3.14655">
        <ele>375</ele>
        <time>2014-11-10T15:09:06.1Z</time>
      </trkpt>
      <trkpt lat="48.42862" lon="-3.14655">
        <ele>375</ele>
        <time>2014-11-10T15:09:08.1Z</time>
      </trkpt>
      <trkpt lat="48.42858" lon="-3.14655">
        <ele>376</ele>
        <time>2014-11-10T15:09:11.1Z</time>
      </trkpt>
      <trkpt lat="48.42855" lon="-3.14656">
        <ele>376</ele>
        <time>2014-11-10T15:09:14.1Z</time>
      </trkpt>
      <trkpt lat="48.42851" lon="-3.14656">
        <ele>377</ele>
        <time>2014-11-10T15:09:17.1Z</time>
      </trkpt>
      <trkpt lat="48.42848" lon="-3.14657">
        <ele>377</ele>
        <time>2014-11-10T15:09:19.1Z</time>
      </trkpt>
      <trkpt lat="48.42845" lon="-3.14657">
        <ele>378</ele>
        <time>2014-11-10T15:09:22.1Z</time>
      </trkpt>
      <trkpt lat="48.42841" lon="-3.14658">
        <ele>377</ele>
        <time>2014-11-10T15:09:25.1Z</time>
      </trkpt>
      <trkpt lat="48.42839" lon="-3.14659">
        <ele>378</ele>
        <time>2014-11-10T15:09:27.1Z</time>
      </trkpt>
      <trkpt lat="48.42837" lon="-3.1466">
        <ele>378</ele>
        <time>2014-11-10T15:09:29.1Z</time>
      </trkpt>
      <trkpt lat="48.42833" lon="-3.14661">
        <ele>379</ele>
        <time>2014-11-10T15:09:32.1Z</time>
      </trkpt>
      <trkpt lat="48.4283" lon="-3.14661">
        <ele>379</ele>
        <time>2014-11-10T15:09:35.1Z</time>
      </trkpt>
      <trkpt lat="48.42826" lon="-3.14662">
        <ele>379</ele>
        <time>2014-11-10T15:09:38.1Z</time>
      </trkpt>
      <trkpt lat="48.42824" lon="-3.14663">
        <ele>379</ele>
        <time>2014-11-10T15:09:40.1Z</time>
      </trkpt>
      <trkpt lat="48.4282" lon="-3.14663">
        <ele>380</ele>
        <time>2014-11-10T15:09:43.1Z</time>
      </trkpt>
      <trkpt lat="48.42818" lon="-3.14664">
        <ele>380</ele>
        <time>2014-11-10T15:09:45.1Z</time>
      </trkpt>
      <trkpt lat="48.42814" lon="-3.14664">
        <ele>380</ele>
        <time>2014-11-10T15:09:48.1Z</time>
      </trkpt>
      <trkpt lat="48.42812" lon="-3.14665">
        <ele>380</ele>
        <time>2014-11-10T15:09:50.1Z</time>
      </trkpt>
      <trkpt lat="48.42809" lon="-3.14665">
        <ele>380</ele>
        <time>2014-11-10T15:09:53.1Z</time>
      </trkpt>
      <trkpt lat="48.42804" lon="-3.14666">
        <ele>381</ele>
        <time>2014-11-10T15:09:56.1Z</time>
      </trkpt>
      <trkpt lat="48.42802" lon="-3.14666">
        <ele>381</ele>
        <time>2014-11-10T15:09:58.1Z</time>
      </trkpt>
      <trkpt lat="48.42798" lon="-3.14666">
        <ele>382</ele>
        <time>2014-11-10T15:10:01.1Z</time>
      </trkpt>
      <trkpt lat="48.42794" lon="-3.14666">
        <ele>382</ele>
        <time>2014-11-10T15:10:04.1Z</time>
      </trkpt>
      <trkpt lat="48.42792" lon="-3.14666">
        <ele>382</ele>
        <time>2014-11-10T15:10:06.1Z</time>
      </trkpt>
      <trkpt lat="48.42788" lon="-3.14666">
        <ele>382</ele>
        <time>2014-11-10T15:10:09.1Z</time>
      </trkpt>
      <trkpt lat="48.42784" lon="-3.14667">
        <ele>382</ele>
        <time>2014-11-10T15:10:12.1Z</time>
      </trkpt>
      <trkpt lat="48.42781" lon="-3.14667">
        <ele>382</ele>
        <time>2014-11-10T15:10:15.1Z</time>
      </trkpt>
      <trkpt lat="48.42778" lon="-3.14668">
        <ele>383</ele>
        <time>2014-11-10T15:10:17.1Z</time>
      </trkpt>
      <trkpt lat="48.42776" lon="-3.14668">
        <ele>383</ele>
        <time>2014-11-10T15:10:19.1Z</time>
      </trkpt>
      <trkpt lat="48.42772" lon="-3.14669">
        <ele>383</ele>
        <time>2014-11-10T15:10:22.1Z</time>
      </trkpt>
      <trkpt lat="48.42768" lon="-3.14669">
        <ele>383</ele>
        <time>2014-11-10T15:10:25.1Z</time>
      </trkpt>
      <trkpt lat="48.42764" lon="-3.1467">
        <ele>383</ele>
        <time>2014-11-10T15:10:28.1Z</time>
      </trkpt>
      <trkpt lat="48.4276" lon="-3.1467">
        <ele>383</ele>
        <time>2014-11-10T15:10:31.1Z</time>
      </trkpt>
      <trkpt lat="48.42758" lon="-3.14671">
        <ele>383</ele>
        <time>2014-11-10T15:10:33.1Z</time>
      </trkpt>
      <trkpt lat="48.42754" lon="-3.14672">
        <ele>384</ele>
        <time>2014-11-10T15:10:36.1Z</time>
      </trkpt>
      <trkpt lat="48.42752" lon="-3.14673">
        <ele>384</ele>
        <time>2014-11-10T15:10:38.1Z</time>
      </trkpt>
      <trkpt lat="48.42748" lon="-3.14674">
        <ele>384</ele>
        <time>2014-11-10T15:10:41.1Z</time>
      </trkpt>
      <trkpt lat="48.42746" lon="-3.14674">
        <ele>384</ele>
        <time>2014-11-10T15:10:43.1Z</time>
      </trkpt>
      <trkpt lat="48.42742" lon="-3.14676">
        <ele>384</ele>
        <time>2014-11-10T15:10:46.1Z</time>
      </trkpt>
      <trkpt lat="48.42738" lon="-3.14676">
        <ele>385</ele>
        <time>2014-11-10T15:10:49.1Z</time>
      </trkpt>
      <trkpt lat="48.42735" lon="-3.14677">
        <ele>385</ele>
        <time>2014-11-10T15:10:51.1Z</time>
      </trkpt>
      <trkpt lat="48.42731" lon="-3.14678">
        <ele>385</ele>
        <time>2014-11-10T15:10:54.1Z</time>
      </trkpt>
      <trkpt lat="48.42728" lon="-3.14678">
        <ele>385</ele>
        <time>2014-11-10T15:10:56.1Z</time>
      </trkpt>
      <trkpt lat="48.42724" lon="-3.14679">
        <ele>385</ele>
        <time>2014-11-10T15:10:59.1Z</time>
      </trkpt>
      <trkpt lat="48.42722" lon="-3.1468">
        <ele>385</ele>
        <time>2014-11-10T15:11:01.1Z</time>
      </trkpt>
      <trkpt lat="48.42718" lon="-3.14681">
        <ele>386</ele>
        <time>2014-11-10T15:11:04.1Z</time>
      </trkpt>
      <trkpt lat="48.42716" lon="-3.14682">
        <ele>386</ele>
        <time>2014-11-10T15:11:06.1Z</time>
      </trkpt>
      <trkpt lat="48.42712" lon="-3.14683">
        <ele>386</ele>
        <time>2014-11-10T15:11:09.1Z</time>
      </trkpt>
      <trkpt lat="48.42709" lon="-3.14683">
        <ele>386</ele>
        <time>2014-11-10T15:11:12.1Z</time>
      </trkpt>
      <trkpt lat="48.42707" lon="-3.14684">
        <ele>386</ele>
        <time>2014-11-10T15:11:14.1Z</time>
      </trkpt>
      <trkpt lat="48.42704" lon="-3.14685">
        <ele>386</ele>
        <time>2014-11-10T15:11:16.1Z</time>
      </trkpt>
      <trkpt lat="48.427" lon="-3.14685">
        <ele>387</ele>
        <time>2014-11-10T15:11:19.1Z</time>
      </trkpt>
      <trkpt lat="48.42696" lon="-3.14686">
        <ele>387</ele>
        <time>2014-11-10T15:11:22.1Z</time>
      </trkpt>
      <trkpt lat="48.42693" lon="-3.14687">
        <ele>387</ele>
        <time>2014-11-10T15:11:25.1Z</time>
      </trkpt>
      <trkpt lat="48.4269" lon="-3.14687">
        <ele>387</ele>
        <time>2014-11-10T15:11:27.1Z</time>
      </trkpt>
      <trkpt lat="48.42686" lon="-3.14687">
        <ele>387</ele>
        <time>2014-11-10T15:11:30.1Z</time>
      </trkpt>
      <trkpt lat="48.42683" lon="-3.14688">
        <ele>387</ele>
        <time>2014-11-10T15:11:32.1Z</time>
      </trkpt>
      <trkpt lat="48.42679" lon="-3.14688">
        <ele>387</ele>
        <time>2014-11-10T15:11:35.1Z</time>
      </trkpt>
      <trkpt lat="48.42675" lon="-3.14689">
        <ele>387</ele>
        <time>2014-11-10T15:11:38.1Z</time>
      </trkpt>
      <trkpt lat="48.42673" lon="-3.14689">
        <ele>387</ele>
        <time>2014-11-10T15:11:40.1Z</time>
      </trkpt>
      <trkpt lat="48.4267" lon="-3.14689">
        <ele>388</ele>
        <time>2014-11-10T15:11:43.1Z</time>
      </trkpt>
      <trkpt lat="48.42667" lon="-3.14689">
        <ele>387</ele>
        <time>2014-11-10T15:11:45.1Z</time>
      </trkpt>
      <trkpt lat="48.42663" lon="-3.1469">
        <ele>387</ele>
        <time>2014-11-10T15:11:48.1Z</time>
      </trkpt>
      <trkpt lat="48.42659" lon="-3.1469">
        <ele>387</ele>
        <time>2014-11-10T15:11:51.1Z</time>
      </trkpt>
      <trkpt lat="48.42656" lon="-3.14691">
        <ele>387</ele>
        <time>2014-11-10T15:11:54.1Z</time>
      </trkpt>
      <trkpt lat="48.42653" lon="-3.14691">
        <ele>388</ele>
        <time>2014-11-10T15:11:56.1Z</time>
      </trkpt>
      <trkpt lat="48.4265" lon="-3.14691">
        <ele>388</ele>
        <time>2014-11-10T15:11:59.1Z</time>
      </trkpt>
      <trkpt lat="48.42646" lon="-3.14691">
        <ele>388</ele>
        <time>2014-11-10T15:12:02.1Z</time>
      </trkpt>
      <trkpt lat="48.42642" lon="-3.14692">
        <ele>388</ele>
        <time>2014-11-10T15:12:05.1Z</time>
      </trkpt>
      <trkpt lat="48.42638" lon="-3.14692">
        <ele>388</ele>
        <time>2014-11-10T15:12:08.1Z</time>
      </trkpt>
      <trkpt lat="48.42635" lon="-3.14691">
        <ele>388</ele>
        <time>2014-11-10T15:12:10.1Z</time>
      </trkpt>
      <trkpt lat="48.42632" lon="-3.14691">
        <ele>388</ele>
        <time>2014-11-10T15:12:13.1Z</time>
      </trkpt>
      <trkpt lat="48.42629" lon="-3.14691">
        <ele>388</ele>
        <time>2014-11-10T15:12:15.1Z</time>
      </trkpt>
      <trkpt lat="48.42625" lon="-3.1469">
        <ele>388</ele>
        <time>2014-11-10T15:12:18.1Z</time>
      </trkpt>
      <trkpt lat="48.42622" lon="-3.1469">
        <ele>388</ele>
        <time>2014-11-10T15:12:20.1Z</time>
      </trkpt>
      <trkpt lat="48.42619" lon="-3.14689">
        <ele>389</ele>
        <time>2014-11-10T15:12:23.1Z</time>
      </trkpt>
      <trkpt lat="48.42614" lon="-3.14688">
        <ele>388</ele>
        <time>2014-11-10T15:12:26.1Z</time>
      </trkpt>
      <trkpt lat="48.42611" lon="-3.14688">
        <ele>388</ele>
        <time>2014-11-10T15:12:29.1Z</time>
      </trkpt>
      <trkpt lat="48.42609" lon="-3.14688">
        <ele>388</ele>
        <time>2014-11-10T15:12:31.1Z</time>
      </trkpt>
      <trkpt lat="48.42605" lon="-3.14686">
        <ele>388</ele>
        <time>2014-11-10T15:12:34.1Z</time>
      </trkpt>
      <trkpt lat="48.42603" lon="-3.14685">
        <ele>388</ele>
        <time>2014-11-10T15:12:36.1Z</time>
      </trkpt>
      <trkpt lat="48.42599" lon="-3.14683">
        <ele>388</ele>
        <time>2014-11-10T15:12:39.1Z</time>
      </trkpt>
      <trkpt lat="48.42595" lon="-3.14682">
        <ele>388</ele>
        <time>2014-11-10T15:12:42.1Z</time>
      </trkpt>
      <trkpt lat="48.42591" lon="-3.1468">
        <ele>388</ele>
        <time>2014-11-10T15:12:45.1Z</time>
      </trkpt>
      <trkpt lat="48.42589" lon="-3.14679">
        <ele>388</ele>
        <time>2014-11-10T15:12:47.1Z</time>
      </trkpt>
      <trkpt lat="48.42586" lon="-3.14678">
        <ele>388</ele>
        <time>2014-11-10T15:12:50.1Z</time>
      </trkpt>
      <trkpt lat="48.42583" lon="-3.14676">
        <ele>388</ele>
        <time>2014-11-10T15:12:52.1Z</time>
      </trkpt>
      <trkpt lat="48.4258" lon="-3.14674">
        <ele>388</ele>
        <time>2014-11-10T15:12:55.1Z</time>
      </trkpt>
      <trkpt lat="48.42576" lon="-3.14673">
        <ele>387</ele>
        <time>2014-11-10T15:12:58.1Z</time>
      </trkpt>
      <trkpt lat="48.42573" lon="-3.14671">
        <ele>388</ele>
        <time>2014-11-10T15:13:00.1Z</time>
      </trkpt>
      <trkpt lat="48.4257" lon="-3.1467">
        <ele>387</ele>
        <time>2014-11-10T15:13:03.1Z</time>
      </trkpt>
      <trkpt lat="48.42568" lon="-3.14669">
        <ele>388</ele>
        <time>2014-11-10T15:13:05.1Z</time>
      </trkpt>
      <trkpt lat="48.42564" lon="-3.14668">
        <ele>388</ele>
        <time>2014-11-10T15:13:08.1Z</time>
      </trkpt>
      <trkpt lat="48.42561" lon="-3.14666">
        <ele>388</ele>
        <time>2014-11-10T15:13:11.1Z</time>
      </trkpt>
      <trkpt lat="48.42558" lon="-3.14664">
        <ele>389</ele>
        <time>2014-11-10T15:13:13.1Z</time>
      </trkpt>
      <trkpt lat="48.42555" lon="-3.14663">
        <ele>389</ele>
        <time>2014-11-10T15:13:16.1Z</time>
      </trkpt>
      <trkpt lat="48.42553" lon="-3.14663">
        <ele>388</ele>
        <time>2014-11-10T15:13:18.1Z</time>
      </trkpt>
      <trkpt lat="48.42549" lon="-3.14662">
        <ele>388</ele>
        <time>2014-11-10T15:13:21.1Z</time>
      </trkpt>
      <trkpt lat="48.42545" lon="-3.14661">
        <ele>388</ele>
        <time>2014-11-10T15:13:23.1Z</time>
      </trkpt>
      <trkpt lat="48.42543" lon="-3.1466">
        <ele>389</ele>
        <time>2014-11-10T15:13:26.1Z</time>
      </trkpt>
      <trkpt lat="48.4254" lon="-3.14659">
        <ele>389</ele>
        <time>2014-11-10T15:13:28.1Z</time>
      </trkpt>
      <trkpt lat="48.42538" lon="-3.14656">
        <ele>389</ele>
        <time>2014-11-10T15:13:30.1Z</time>
      </trkpt>
      <trkpt lat="48.42535" lon="-3.14654">
        <ele>389</ele>
        <time>2014-11-10T15:13:32.1Z</time>
      </trkpt>
      <trkpt lat="48.42532" lon="-3.14653">
        <ele>389</ele>
        <time>2014-11-10T15:13:35.1Z</time>
      </trkpt>
      <trkpt lat="48.4253" lon="-3.14652">
        <ele>389</ele>
        <time>2014-11-10T15:13:37.1Z</time>
      </trkpt>
      <trkpt lat="48.42527" lon="-3.14651">
        <ele>388</ele>
        <time>2014-11-10T15:13:39.1Z</time>
      </trkpt>
      <trkpt lat="48.42524" lon="-3.14649">
        <ele>388</ele>
        <time>2014-11-10T15:13:42.1Z</time>
      </trkpt>
      <trkpt lat="48.42522" lon="-3.14648">
        <ele>388</ele>
        <time>2014-11-10T15:13:44.1Z</time>
      </trkpt>
      <trkpt lat="48.42518" lon="-3.14646">
        <ele>388</ele>
        <time>2014-11-10T15:13:47.1Z</time>
      </trkpt>
      <trkpt lat="48.42516" lon="-3.14646">
        <ele>388</ele>
        <time>2014-11-10T15:13:49.1Z</time>
      </trkpt>
      <trkpt lat="48.42513" lon="-3.14645">
        <ele>388</ele>
        <time>2014-11-10T15:13:51.1Z</time>
      </trkpt>
      <trkpt lat="48.4251" lon="-3.14643">
        <ele>388</ele>
        <time>2014-11-10T15:13:54.1Z</time>
      </trkpt>
      <trkpt lat="48.42507" lon="-3.14641">
        <ele>388</ele>
        <time>2014-11-10T15:13:57.1Z</time>
      </trkpt>
      <trkpt lat="48.42503" lon="-3.14639">
        <ele>388</ele>
        <time>2014-11-10T15:14:00.1Z</time>
      </trkpt>
      <trkpt lat="48.42502" lon="-3.14637">
        <ele>388</ele>
        <time>2014-11-10T15:14:02.1Z</time>
      </trkpt>
      <trkpt lat="48.425" lon="-3.14636">
        <ele>388</ele>
        <time>2014-11-10T15:14:04.1Z</time>
      </trkpt>
      <trkpt lat="48.42499" lon="-3.14636">
        <ele>388</ele>
        <time>2014-11-10T15:14:07.1Z</time>
      </trkpt>
      <trkpt lat="48.42498" lon="-3.14635">
        <ele>388</ele>
        <time>2014-11-10T15:14:09.1Z</time>
      </trkpt>
      <trkpt lat="48.42497" lon="-3.14635">
        <ele>388</ele>
        <time>2014-11-10T15:14:11.1Z</time>
      </trkpt>
      <trkpt lat="48.42497" lon="-3.14636">
        <ele>388</ele>
        <time>2014-11-10T15:14:14.1Z</time>
      </trkpt>
      <trkpt lat="48.42497" lon="-3.14637">
        <ele>389</ele>
        <time>2014-11-10T15:14:16.1Z</time>
      </trkpt>
      <trkpt lat="48.42496" lon="-3.14639">
        <ele>389</ele>
        <time>2014-11-10T15:14:19.1Z</time>
      </trkpt>
      <trkpt lat="48.42496" lon="-3.14642">
        <ele>388</ele>
        <time>2014-11-10T15:14:22.1Z</time>
      </trkpt>
      <trkpt lat="48.42498" lon="-3.14645">
        <ele>388</ele>
        <time>2014-11-10T15:14:25.1Z</time>
      </trkpt>
      <trkpt lat="48.42498" lon="-3.14646">
        <ele>388</ele>
        <time>2014-11-10T15:14:27.1Z</time>
      </trkpt>
      <trkpt lat="48.42498" lon="-3.14646">
        <ele>388</ele>
        <time>2014-11-10T15:14:29.1Z</time>
      </trkpt>
      <trkpt lat="48.42498" lon="-3.14646">
        <ele>388</ele>
        <time>2014-11-10T15:14:32.1Z</time>
      </trkpt>
      <trkpt lat="48.42498" lon="-3.14647">
        <ele>388</ele>
        <time>2014-11-10T15:14:35.1Z</time>
      </trkpt>
      <trkpt lat="48.42498" lon="-3.14647">
        <ele>388</ele>
        <time>2014-11-10T15:14:38.1Z</time>
      </trkpt>
      <trkpt lat="48.42498" lon="-3.14648">
        <ele>388</ele>
        <time>2014-11-10T15:14:40.1Z</time>
      </trkpt>
      <trkpt lat="48.42498" lon="-3.14649">
        <ele>388</ele>
        <time>2014-11-10T15:14:43.1Z</time>
      </trkpt>
      <trkpt lat="48.42497" lon="-3.14649">
        <ele>389</ele>
        <time>2014-11-10T15:14:45.1Z</time>
      </trkpt>
      <trkpt lat="48.42497" lon="-3.14649">
        <ele>389</ele>
        <time>2014-11-10T15:14:47.1Z</time>
      </trkpt>
      <trkpt lat="48.42498" lon="-3.1465">
        <ele>389</ele>
        <time>2014-11-10T15:14:49.1Z</time>
      </trkpt>
      <trkpt lat="48.42499" lon="-3.14652">
        <ele>389</ele>
        <time>2014-11-10T15:14:52.1Z</time>
      </trkpt>
      <trkpt lat="48.42499" lon="-3.14653">
        <ele>389</ele>
        <time>2014-11-10T15:14:54.1Z</time>
      </trkpt>
      <trkpt lat="48.425" lon="-3.14654">
        <ele>388</ele>
        <time>2014-11-10T15:14:56.1Z</time>
      </trkpt>
      <trkpt lat="48.425" lon="-3.14656">
        <ele>388</ele>
        <time>2014-11-10T15:14:58.1Z</time>
      </trkpt>
      <trkpt lat="48.42501" lon="-3.14657">
        <ele>388</ele>
        <time>2014-11-10T15:15:01.1Z</time>
      </trkpt>
      <trkpt lat="48.42502" lon="-3.14659">
        <ele>388</ele>
        <time>2014-11-10T15:15:04.1Z</time>
      </trkpt>
      <trkpt lat="48.42503" lon="-3.14661">
        <ele>389</ele>
        <time>2014-11-10T15:15:07.1Z</time>
      </trkpt>
      <trkpt lat="48.42504" lon="-3.14661">
        <ele>389</ele>
        <time>2014-11-10T15:15:09.1Z</time>
      </trkpt>
      <trkpt lat="48.42504" lon="-3.14661">
        <ele>389</ele>
        <time>2014-11-10T15:15:12.1Z</time>
      </trkpt>
      <trkpt lat="48.42504" lon="-3.14663">
        <ele>389</ele>
        <time>2014-11-10T15:15:14.1Z</time>
      </trkpt>
      <trkpt lat="48.42505" lon="-3.14665">
        <ele>388</ele>
        <time>2014-11-10T15:15:17.1Z</time>
      </trkpt>
      <trkpt lat="48.42506" lon="-3.14668">
        <ele>388</ele>
        <time>2014-11-10T15:15:19.1Z</time>
      </trkpt>
      <trkpt lat="48.42506" lon="-3.14669">
        <ele>388</ele>
        <time>2014-11-10T15:15:22.1Z</time>
      </trkpt>
      <trkpt lat="48.42507" lon="-3.14671">
        <ele>389</ele>
        <time>2014-11-10T15:15:24.1Z</time>
      </trkpt>
      <trkpt lat="48.42508" lon="-3.14673">
        <ele>389</ele>
        <time>2014-11-10T15:15:27.1Z</time>
      </trkpt>
      <trkpt lat="48.4251" lon="-3.14677">
        <ele>389</ele>
        <time>2014-11-10T15:15:30.1Z</time>
      </trkpt>
      <trkpt lat="48.42511" lon="-3.1468">
        <ele>389</ele>
        <time>2014-11-10T15:15:32.1Z</time>
      </trkpt>
      <trkpt lat="48.42511" lon="-3.14682">
        <ele>389</ele>
        <time>2014-11-10T15:15:35.1Z</time>
      </trkpt>
      <trkpt lat="48.42511" lon="-3.14682">
        <ele>389</ele>
        <time>2014-11-10T15:15:37.1Z</time>
      </trkpt>
      <trkpt lat="48.42511" lon="-3.14683">
        <ele>389</ele>
        <time>2014-11-10T15:15:40.1Z</time>
      </trkpt>
      <trkpt lat="48.4251" lon="-3.14682">
        <ele>389</ele>
        <time>2014-11-10T15:15:42.1Z</time>
      </trkpt>
      <trkpt lat="48.4251" lon="-3.14682">
        <ele>389</ele>
        <time>2014-11-10T15:15:45.1Z</time>
      </trkpt>
      <trkpt lat="48.4251" lon="-3.14682">
        <ele>389</ele>
        <time>2014-11-10T15:15:47.1Z</time>
      </trkpt>
      <trkpt lat="48.42509" lon="-3.14682">
        <ele>389</ele>
        <time>2014-11-10T15:15:50.1Z</time>
      </trkpt>
      <trkpt lat="48.42509" lon="-3.14682">
        <ele>389</ele>
        <time>2014-11-10T15:15:56.1Z</time>
      </trkpt>
      <trkpt lat="48.42509" lon="-3.14682">
        <ele>389</ele>
        <time>2014-11-10T15:15:58.1Z</time>
      </trkpt>
      <trkpt lat="48.42509" lon="-3.14682">
        <ele>388</ele>
        <time>2014-11-10T15:16:05.1Z</time>
      </trkpt>
      <trkpt lat="48.4251" lon="-3.14682">
        <ele>389</ele>
        <time>2014-11-10T15:16:07.1Z</time>
      </trkpt>
      <trkpt lat="48.4251" lon="-3.14682">
        <ele>389</ele>
        <time>2014-11-10T15:16:16.1Z</time>
      </trkpt>
      <trkpt lat="48.4251" lon="-3.14682">
        <ele>388</ele>
        <time>2014-11-10T15:16:21.1Z</time>
      </trkpt>
      <trkpt lat="48.4251" lon="-3.14682">
        <ele>388</ele>
        <time>2014-11-10T15:16:25.1Z</time>
      </trkpt>
      <trkpt lat="48.4251" lon="-3.14682">
        <ele>388</ele>
        <time>2014-11-10T15:16:28.1Z</time>
      </trkpt>
      <trkpt lat="48.4251" lon="-3.14682">
        <ele>389</ele>
        <time>2014-11-10T15:16:33.1Z</time>
      </trkpt>
      <trkpt lat="48.42509" lon="-3.14682">
        <ele>388</ele>
        <time>2014-11-10T15:16:35.1Z</time>
      </trkpt>
      <trkpt lat="48.4251" lon="-3.14681">
        <ele>388</ele>
        <time>2014-11-10T15:16:37.1Z</time>
      </trkpt>
      <trkpt lat="48.42509" lon="-3.14681">
        <ele>388</ele>
        <time>2014-11-10T15:16:45.1Z</time>
      </trkpt>
      <trkpt lat="48.42509" lon="-3.14681">
        <ele>388</ele>
        <time>2014-11-10T15:16:47.1Z</time>
      </trkpt>
      <trkpt lat="48.42509" lon="-3.14681">
        <ele>388</ele>
        <time>2014-11-10T15:16:50.1Z</time>
      </trkpt>
      <trkpt lat="48.42509" lon="-3.14681">
        <ele>388</ele>
        <time>2014-11-10T15:16:53.1Z</time>
      </trkpt>
      <trkpt lat="48.42509" lon="-3.14681">
        <ele>388</ele>
        <time>2014-11-10T15:16:57.1Z</time>
      </trkpt>
      <trkpt lat="48.4251" lon="-3.14682">
        <ele>389</ele>
        <time>2014-11-10T15:16:59.1Z</time>
      </trkpt>
      <trkpt lat="48.42509" lon="-3.14682">
        <ele>389</ele>
        <time>2014-11-10T15:17:02.1Z</time>
      </trkpt>
      <trkpt lat="48.42509" lon="-3.14682">
        <ele>389</ele>
        <time>2014-11-10T15:17:06.1Z</time>
      </trkpt>
      <trkpt lat="48.42509" lon="-3.14682">
        <ele>390</ele>
        <time>2014-11-10T15:17:09.1Z</time>
      </trkpt>
      <trkpt lat="48.42509" lon="-3.14682">
        <ele>390</ele>
        <time>2014-11-10T15:17:11.1Z</time>
      </trkpt>
      <trkpt lat="48.4251" lon="-3.14683">
        <ele>389</ele>
        <time>2014-11-10T15:17:14.1Z</time>
      </trkpt>
      <trkpt lat="48.4251" lon="-3.14683">
        <ele>389</ele>
        <time>2014-11-10T15:17:16.1Z</time>
      </trkpt>
      <trkpt lat="48.4251" lon="-3.14683">
        <ele>389</ele>
        <time>2014-11-10T15:17:19.1Z</time>
      </trkpt>
      <trkpt lat="48.4251" lon="-3.14683">
        <ele>389</ele>
        <time>2014-11-10T15:17:22.1Z</time>
      </trkpt>
      <trkpt lat="48.4251" lon="-3.14684">
        <ele>389</ele>
        <time>2014-11-10T15:17:24.1Z</time>
      </trkpt>
      <trkpt lat="48.4251" lon="-3.14683">
        <ele>389</ele>
        <time>2014-11-10T15:17:28.1Z</time>
      </trkpt>
      <trkpt lat="48.42511" lon="-3.14683">
        <ele>389</ele>
        <time>2014-11-10T15:17:31.1Z</time>
      </trkpt>
      <trkpt lat="48.42511" lon="-3.14683">
        <ele>389</ele>
        <time>2014-11-10T15:17:33.1Z</time>
      </trkpt>
      <trkpt lat="48.42511" lon="-3.14683">
        <ele>389</ele>
        <time>2014-11-10T15:17:36.1Z</time>
      </trkpt>
      <trkpt lat="48.42511" lon="-3.14683">
        <ele>389</ele>
        <time>2014-11-10T15:17:38.1Z</time>
      </trkpt>
      <trkpt lat="48.42512" lon="-3.14685">
        <ele>389</ele>
        <time>2014-11-10T15:17:41.1Z</time>
      </trkpt>
      <trkpt lat="48.42513" lon="-3.14686">
        <ele>389</ele>
        <time>2014-11-10T15:17:43.1Z</time>
      </trkpt>
      <trkpt lat="48.42513" lon="-3.14688">
        <ele>388</ele>
        <time>2014-11-10T15:17:46.1Z</time>
      </trkpt>
      <trkpt lat="48.42514" lon="-3.1469">
        <ele>388</ele>
        <time>2014-11-10T15:17:48.1Z</time>
      </trkpt>
      <trkpt lat="48.42515" lon="-3.14693">
        <ele>389</ele>
        <time>2014-11-10T15:17:50.1Z</time>
      </trkpt>
      <trkpt lat="48.42516" lon="-3.14698">
        <ele>389</ele>
        <time>2014-11-10T15:17:53.1Z</time>
      </trkpt>
      <trkpt lat="48.42518" lon="-3.14702">
        <ele>390</ele>
        <time>2014-11-10T15:17:56.1Z</time>
      </trkpt>
      <trkpt lat="48.42519" lon="-3.14706">
        <ele>390</ele>
        <time>2014-11-10T15:17:58.1Z</time>
      </trkpt>
      <trkpt lat="48.4252" lon="-3.1471">
        <ele>390</ele>
        <time>2014-11-10T15:18:01.1Z</time>
      </trkpt>
      <trkpt lat="48.42521" lon="-3.14713">
        <ele>390</ele>
        <time>2014-11-10T15:18:03.1Z</time>
      </trkpt>
      <trkpt lat="48.42522" lon="-3.14718">
        <ele>390</ele>
        <time>2014-11-10T15:18:05.1Z</time>
      </trkpt>
      <trkpt lat="48.42522" lon="-3.1472">
        <ele>390</ele>
        <time>2014-11-10T15:18:08.1Z</time>
      </trkpt>
      <trkpt lat="48.42522" lon="-3.14721">
        <ele>390</ele>
        <time>2014-11-10T15:18:11.1Z</time>
      </trkpt>
      <trkpt lat="48.42522" lon="-3.14725">
        <ele>390</ele>
        <time>2014-11-10T15:18:14.1Z</time>
      </trkpt>
      <trkpt lat="48.42523" lon="-3.14729">
        <ele>390</ele>
        <time>2014-11-10T15:18:17.1Z</time>
      </trkpt>
      <trkpt lat="48.42524" lon="-3.14734">
        <ele>390</ele>
        <time>2014-11-10T15:18:20.1Z</time>
      </trkpt>
      <trkpt lat="48.42525" lon="-3.14739">
        <ele>390</ele>
        <time>2014-11-10T15:18:23.1Z</time>
      </trkpt>
      <trkpt lat="48.42526" lon="-3.14745">
        <ele>390</ele>
        <time>2014-11-10T15:18:26.1Z</time>
      </trkpt>
      <trkpt lat="48.42527" lon="-3.1475">
        <ele>390</ele>
        <time>2014-11-10T15:18:28.1Z</time>
      </trkpt>
      <trkpt lat="48.42528" lon="-3.14754">
        <ele>390</ele>
        <time>2014-11-10T15:18:31.1Z</time>
      </trkpt>
      <trkpt lat="48.42529" lon="-3.14757">
        <ele>389</ele>
        <time>2014-11-10T15:18:33.1Z</time>
      </trkpt>
      <trkpt lat="48.42529" lon="-3.14763">
        <ele>390</ele>
        <time>2014-11-10T15:18:36.1Z</time>
      </trkpt>
      <trkpt lat="48.4253" lon="-3.14769">
        <ele>390</ele>
        <time>2014-11-10T15:18:39.1Z</time>
      </trkpt>
      <trkpt lat="48.4253" lon="-3.14772">
        <ele>390</ele>
        <time>2014-11-10T15:18:41.1Z</time>
      </trkpt>
      <trkpt lat="48.4253" lon="-3.14778">
        <ele>390</ele>
        <time>2014-11-10T15:18:44.1Z</time>
      </trkpt>
      <trkpt lat="48.4253" lon="-3.14784">
        <ele>390</ele>
        <time>2014-11-10T15:18:47.1Z</time>
      </trkpt>
      <trkpt lat="48.42531" lon="-3.1479">
        <ele>390</ele>
        <time>2014-11-10T15:18:50.1Z</time>
      </trkpt>
      <trkpt lat="48.42531" lon="-3.14793">
        <ele>390</ele>
        <time>2014-11-10T15:18:52.1Z</time>
      </trkpt>
      <trkpt lat="48.42532" lon="-3.14798">
        <ele>390</ele>
        <time>2014-11-10T15:18:55.1Z</time>
      </trkpt>
      <trkpt lat="48.42532" lon="-3.14804">
        <ele>390</ele>
        <time>2014-11-10T15:18:57.1Z</time>
      </trkpt>
      <trkpt lat="48.42532" lon="-3.14808">
        <ele>390</ele>
        <time>2014-11-10T15:19:00.1Z</time>
      </trkpt>
      <trkpt lat="48.42532" lon="-3.14813">
        <ele>390</ele>
        <time>2014-11-10T15:19:03.1Z</time>
      </trkpt>
      <trkpt lat="48.42532" lon="-3.14818">
        <ele>390</ele>
        <time>2014-11-10T15:19:05.1Z</time>
      </trkpt>
      <trkpt lat="48.42532" lon="-3.14822">
        <ele>390</ele>
        <time>2014-11-10T15:19:07.1Z</time>
      </trkpt>
      <trkpt lat="48.42532" lon="-3.14826">
        <ele>390</ele>
        <time>2014-11-10T15:19:09.1Z</time>
      </trkpt>
      <trkpt lat="48.42532" lon="-3.14831">
        <ele>390</ele>
        <time>2014-11-10T15:19:12.1Z</time>
      </trkpt>
      <trkpt lat="48.42531" lon="-3.14837">
        <ele>391</ele>
        <time>2014-11-10T15:19:15.1Z</time>
      </trkpt>
      <trkpt lat="48.42531" lon="-3.14843">
        <ele>391</ele>
        <time>2014-11-10T15:19:17.1Z</time>
      </trkpt>
      <trkpt lat="48.42531" lon="-3.14846">
        <ele>391</ele>
        <time>2014-11-10T15:19:20.1Z</time>
      </trkpt>
      <trkpt lat="48.42531" lon="-3.14852">
        <ele>391</ele>
        <time>2014-11-10T15:19:22.1Z</time>
      </trkpt>
      <trkpt lat="48.42531" lon="-3.14858">
        <ele>391</ele>
        <time>2014-11-10T15:19:26.1Z</time>
      </trkpt>
      <trkpt lat="48.42531" lon="-3.14861">
        <ele>391</ele>
        <time>2014-11-10T15:19:28.1Z</time>
      </trkpt>
      <trkpt lat="48.42531" lon="-3.14867">
        <ele>391</ele>
        <time>2014-11-10T15:19:30.1Z</time>
      </trkpt>
      <trkpt lat="48.42531" lon="-3.14871">
        <ele>391</ele>
        <time>2014-11-10T15:19:33.1Z</time>
      </trkpt>
      <trkpt lat="48.4253" lon="-3.14876">
        <ele>391</ele>
        <time>2014-11-10T15:19:35.1Z</time>
      </trkpt>
      <trkpt lat="48.4253" lon="-3.1488">
        <ele>391</ele>
        <time>2014-11-10T15:19:38.1Z</time>
      </trkpt>
      <trkpt lat="48.4253" lon="-3.14886">
        <ele>391</ele>
        <time>2014-11-10T15:19:41.1Z</time>
      </trkpt>
      <trkpt lat="48.4253" lon="-3.1489">
        <ele>391</ele>
        <time>2014-11-10T15:19:43.1Z</time>
      </trkpt>
      <trkpt lat="48.4253" lon="-3.14895">
        <ele>391</ele>
        <time>2014-11-10T15:19:46.1Z</time>
      </trkpt>
      <trkpt lat="48.4253" lon="-3.14901">
        <ele>391</ele>
        <time>2014-11-10T15:19:48.1Z</time>
      </trkpt>
      <trkpt lat="48.4253" lon="-3.14905">
        <ele>391</ele>
        <time>2014-11-10T15:19:51.1Z</time>
      </trkpt>
      <trkpt lat="48.4253" lon="-3.14911">
        <ele>391</ele>
        <time>2014-11-10T15:19:53.1Z</time>
      </trkpt>
      <trkpt lat="48.4253" lon="-3.14915">
        <ele>391</ele>
        <time>2014-11-10T15:19:56.1Z</time>
      </trkpt>
      <trkpt lat="48.42529" lon="-3.14919">
        <ele>391</ele>
        <time>2014-11-10T15:19:58.1Z</time>
      </trkpt>
      <trkpt lat="48.42529" lon="-3.14925">
        <ele>391</ele>
        <time>2014-11-10T15:20:01.1Z</time>
      </trkpt>
      <trkpt lat="48.42529" lon="-3.1493">
        <ele>392</ele>
        <time>2014-11-10T15:20:04.1Z</time>
      </trkpt>
      <trkpt lat="48.42529" lon="-3.14936">
        <ele>392</ele>
        <time>2014-11-10T15:20:06.1Z</time>
      </trkpt>
      <trkpt lat="48.42529" lon="-3.1494">
        <ele>392</ele>
        <time>2014-11-10T15:20:09.1Z</time>
      </trkpt>
      <trkpt lat="48.42528" lon="-3.14944">
        <ele>391</ele>
        <time>2014-11-10T15:20:11.1Z</time>
      </trkpt>
      <trkpt lat="48.42528" lon="-3.1495">
        <ele>392</ele>
        <time>2014-11-10T15:20:14.1Z</time>
      </trkpt>
      <trkpt lat="48.42527" lon="-3.14956">
        <ele>391</ele>
        <time>2014-11-10T15:20:17.1Z</time>
      </trkpt>
      <trkpt lat="48.42527" lon="-3.14962">
        <ele>391</ele>
        <time>2014-11-10T15:20:20.1Z</time>
      </trkpt>
      <trkpt lat="48.42526" lon="-3.14968">
        <ele>390</ele>
        <time>2014-11-10T15:20:22.1Z</time>
      </trkpt>
      <trkpt lat="48.42525" lon="-3.14972">
        <ele>390</ele>
        <time>2014-11-10T15:20:25.1Z</time>
      </trkpt>
      <trkpt lat="48.42525" lon="-3.14978">
        <ele>390</ele>
        <time>2014-11-10T15:20:28.1Z</time>
      </trkpt>
      <trkpt lat="48.42524" lon="-3.14984">
        <ele>391</ele>
        <time>2014-11-10T15:20:31.1Z</time>
      </trkpt>
      <trkpt lat="48.42524" lon="-3.14989">
        <ele>391</ele>
        <time>2014-11-10T15:20:33.1Z</time>
      </trkpt>
      <trkpt lat="48.42523" lon="-3.14993">
        <ele>391</ele>
        <time>2014-11-10T15:20:36.1Z</time>
      </trkpt>
      <trkpt lat="48.42522" lon="-3.14999">
        <ele>390</ele>
        <time>2014-11-10T15:20:39.1Z</time>
      </trkpt>
      <trkpt lat="48.42521" lon="-3.15005">
        <ele>390</ele>
        <time>2014-11-10T15:20:42.1Z</time>
      </trkpt>
      <trkpt lat="48.42521" lon="-3.15009">
        <ele>390</ele>
        <time>2014-11-10T15:20:44.1Z</time>
      </trkpt>
      <trkpt lat="48.4252" lon="-3.15015">
        <ele>390</ele>
        <time>2014-11-10T15:20:47.1Z</time>
      </trkpt>
      <trkpt lat="48.42519" lon="-3.15019">
        <ele>390</ele>
        <time>2014-11-10T15:20:49.1Z</time>
      </trkpt>
      <trkpt lat="48.42518" lon="-3.15024">
        <ele>390</ele>
        <time>2014-11-10T15:20:52.1Z</time>
      </trkpt>
      <trkpt lat="48.42517" lon="-3.1503">
        <ele>389</ele>
        <time>2014-11-10T15:20:54.1Z</time>
      </trkpt>
      <trkpt lat="48.42516" lon="-3.15034">
        <ele>389</ele>
        <time>2014-11-10T15:20:57.1Z</time>
      </trkpt>
      <trkpt lat="48.42515" lon="-3.1504">
        <ele>390</ele>
        <time>2014-11-10T15:21:00.1Z</time>
      </trkpt>
      <trkpt lat="48.42514" lon="-3.15046">
        <ele>390</ele>
        <time>2014-11-10T15:21:03.1Z</time>
      </trkpt>
      <trkpt lat="48.42513" lon="-3.15051">
        <ele>389</ele>
        <time>2014-11-10T15:21:06.1Z</time>
      </trkpt>
      <trkpt lat="48.42512" lon="-3.15054">
        <ele>389</ele>
        <time>2014-11-10T15:21:08.1Z</time>
      </trkpt>
      <trkpt lat="48.42511" lon="-3.15059">
        <ele>388</ele>
        <time>2014-11-10T15:21:10.1Z</time>
      </trkpt>
      <trkpt lat="48.42511" lon="-3.15063">
        <ele>388</ele>
        <time>2014-11-10T15:21:13.1Z</time>
      </trkpt>
      <trkpt lat="48.42511" lon="-3.15063">
        <ele>388</ele>
        <time>2014-11-10T15:21:15.1Z</time>
      </trkpt>
      <trkpt lat="48.4251" lon="-3.15065">
        <ele>388</ele>
        <time>2014-11-10T15:21:18.1Z</time>
      </trkpt>
      <trkpt lat="48.4251" lon="-3.15065">
        <ele>389</ele>
        <time>2014-11-10T15:21:20.1Z</time>
      </trkpt>
      <trkpt lat="48.4251" lon="-3.15065">
        <ele>389</ele>
        <time>2014-11-10T15:21:23.1Z</time>
      </trkpt>
      <trkpt lat="48.4251" lon="-3.15066">
        <ele>388</ele>
        <time>2014-11-10T15:21:27.1Z</time>
      </trkpt>
      <trkpt lat="48.4251" lon="-3.15066">
        <ele>388</ele>
        <time>2014-11-10T15:21:29.1Z</time>
      </trkpt>
      <trkpt lat="48.42509" lon="-3.15066">
        <ele>388</ele>
        <time>2014-11-10T15:21:32.1Z</time>
      </trkpt>
      <trkpt lat="48.42509" lon="-3.15066">
        <ele>388</ele>
        <time>2014-11-10T15:21:34.1Z</time>
      </trkpt>
      <trkpt lat="48.42508" lon="-3.15068">
        <ele>388</ele>
        <time>2014-11-10T15:21:37.1Z</time>
      </trkpt>
      <trkpt lat="48.42507" lon="-3.15072">
        <ele>388</ele>
        <time>2014-11-10T15:21:39.1Z</time>
      </trkpt>
      <trkpt lat="48.42506" lon="-3.15075">
        <ele>387</ele>
        <time>2014-11-10T15:21:42.1Z</time>
      </trkpt>
      <trkpt lat="48.42506" lon="-3.15078">
        <ele>387</ele>
        <time>2014-11-10T15:21:44.1Z</time>
      </trkpt>
      <trkpt lat="48.42504" lon="-3.15083">
        <ele>387</ele>
        <time>2014-11-10T15:21:47.1Z</time>
      </trkpt>
      <trkpt lat="48.42503" lon="-3.15089">
        <ele>387</ele>
        <time>2014-11-10T15:21:50.1Z</time>
      </trkpt>
      <trkpt lat="48.42503" lon="-3.15094">
        <ele>387</ele>
        <time>2014-11-10T15:21:52.1Z</time>
      </trkpt>
      <trkpt lat="48.42502" lon="-3.15098">
        <ele>386</ele>
        <time>2014-11-10T15:21:55.1Z</time>
      </trkpt>
      <trkpt lat="48.42501" lon="-3.15103">
        <ele>386</ele>
        <time>2014-11-10T15:21:57.1Z</time>
      </trkpt>
      <trkpt lat="48.425" lon="-3.15107">
        <ele>386</ele>
        <time>2014-11-10T15:22:00.1Z</time>
      </trkpt>
      <trkpt lat="48.42498" lon="-3.15112">
        <ele>385</ele>
        <time>2014-11-10T15:22:03.1Z</time>
      </trkpt>
      <trkpt lat="48.42498" lon="-3.15115">
        <ele>385</ele>
        <time>2014-11-10T15:22:05.1Z</time>
      </trkpt>
      <trkpt lat="48.42497" lon="-3.15121">
        <ele>385</ele>
        <time>2014-11-10T15:22:08.1Z</time>
      </trkpt>
      <trkpt lat="48.42495" lon="-3.15125">
        <ele>385</ele>
        <time>2014-11-10T15:22:11.1Z</time>
      </trkpt>
      <trkpt lat="48.42494" lon="-3.15129">
        <ele>385</ele>
        <time>2014-11-10T15:22:14.1Z</time>
      </trkpt>
      <trkpt lat="48.42493" lon="-3.15134">
        <ele>385</ele>
        <time>2014-11-10T15:22:17.1Z</time>
      </trkpt>
      <trkpt lat="48.42491" lon="-3.15139">
        <ele>385</ele>
        <time>2014-11-10T15:22:20.1Z</time>
      </trkpt>
      <trkpt lat="48.42489" lon="-3.15143">
        <ele>385</ele>
        <time>2014-11-10T15:22:22.1Z</time>
      </trkpt>
      <trkpt lat="48.42487" lon="-3.15146">
        <ele>385</ele>
        <time>2014-11-10T15:22:25.1Z</time>
      </trkpt>
      <trkpt lat="48.42485" lon="-3.15147">
        <ele>385</ele>
        <time>2014-11-10T15:22:27.1Z</time>
      </trkpt>
      <trkpt lat="48.42482" lon="-3.1515">
        <ele>384</ele>
        <time>2014-11-10T15:22:29.1Z</time>
      </trkpt>
      <trkpt lat="48.4248" lon="-3.15152">
        <ele>384</ele>
        <time>2014-11-10T15:22:32.1Z</time>
      </trkpt>
      <trkpt lat="48.42478" lon="-3.15153">
        <ele>384</ele>
        <time>2014-11-10T15:22:35.1Z</time>
      </trkpt>
      <trkpt lat="48.42477" lon="-3.15153">
        <ele>384</ele>
        <time>2014-11-10T15:22:38.1Z</time>
      </trkpt>
      <trkpt lat="48.42477" lon="-3.15153">
        <ele>384</ele>
        <time>2014-11-10T15:22:42.1Z</time>
      </trkpt>
      <trkpt lat="48.42477" lon="-3.15153">
        <ele>384</ele>
        <time>2014-11-10T15:22:45.1Z</time>
      </trkpt>
      <trkpt lat="48.42476" lon="-3.15154">
        <ele>384</ele>
        <time>2014-11-10T15:22:48.1Z</time>
      </trkpt>
      <trkpt lat="48.42476" lon="-3.15154">
        <ele>384</ele>
        <time>2014-11-10T15:22:51.1Z</time>
      </trkpt>
      <trkpt lat="48.42476" lon="-3.15154">
        <ele>384</ele>
        <time>2014-11-10T15:22:53.1Z</time>
      </trkpt>
      <trkpt lat="48.42475" lon="-3.15154">
        <ele>384</ele>
        <time>2014-11-10T15:22:56.1Z</time>
      </trkpt>
      <trkpt lat="48.42475" lon="-3.15153">
        <ele>384</ele>
        <time>2014-11-10T15:22:59.1Z</time>
      </trkpt>
      <trkpt lat="48.42472" lon="-3.15153">
        <ele>384</ele>
        <time>2014-11-10T15:23:01.1Z</time>
      </trkpt>
      <trkpt lat="48.4247" lon="-3.15153">
        <ele>384</ele>
        <time>2014-11-10T15:23:03.1Z</time>
      </trkpt>
      <trkpt lat="48.42467" lon="-3.15152">
        <ele>384</ele>
        <time>2014-11-10T15:23:06.1Z</time>
      </trkpt>
      <trkpt lat="48.42465" lon="-3.15151">
        <ele>384</ele>
        <time>2014-11-10T15:23:08.1Z</time>
      </trkpt>
      <trkpt lat="48.42461" lon="-3.1515">
        <ele>383</ele>
        <time>2014-11-10T15:23:11.1Z</time>
      </trkpt>
      <trkpt lat="48.42458" lon="-3.15151">
        <ele>383</ele>
        <time>2014-11-10T15:23:14.1Z</time>
      </trkpt>
      <trkpt lat="48.42455" lon="-3.1515">
        <ele>382</ele>
        <time>2014-11-10T15:23:17.1Z</time>
      </trkpt>
      <trkpt lat="48.42451" lon="-3.1515">
        <ele>382</ele>
        <time>2014-11-10T15:23:19.1Z</time>
      </trkpt>
      <trkpt lat="48.42449" lon="-3.1515">
        <ele>383</ele>
        <time>2014-11-10T15:23:22.1Z</time>
      </trkpt>
      <trkpt lat="48.42446" lon="-3.15149">
        <ele>383</ele>
        <time>2014-11-10T15:23:24.1Z</time>
      </trkpt>
      <trkpt lat="48.42443" lon="-3.15149">
        <ele>382</ele>
        <time>2014-11-10T15:23:26.1Z</time>
      </trkpt>
      <trkpt lat="48.4244" lon="-3.1515">
        <ele>382</ele>
        <time>2014-11-10T15:23:29.1Z</time>
      </trkpt>
      <trkpt lat="48.42438" lon="-3.1515">
        <ele>382</ele>
        <time>2014-11-10T15:23:31.1Z</time>
      </trkpt>
      <trkpt lat="48.42434" lon="-3.1515">
        <ele>382</ele>
        <time>2014-11-10T15:23:33.1Z</time>
      </trkpt>
      <trkpt lat="48.42432" lon="-3.1515">
        <ele>382</ele>
        <time>2014-11-10T15:23:36.1Z</time>
      </trkpt>
      <trkpt lat="48.42429" lon="-3.1515">
        <ele>381</ele>
        <time>2014-11-10T15:23:39.1Z</time>
      </trkpt>
      <trkpt lat="48.42425" lon="-3.15149">
        <ele>381</ele>
        <time>2014-11-10T15:23:41.1Z</time>
      </trkpt>
      <trkpt lat="48.42422" lon="-3.15148">
        <ele>381</ele>
        <time>2014-11-10T15:23:44.1Z</time>
      </trkpt>
      <trkpt lat="48.4242" lon="-3.15147">
        <ele>381</ele>
        <time>2014-11-10T15:23:46.1Z</time>
      </trkpt>
      <trkpt lat="48.42419" lon="-3.15145">
        <ele>381</ele>
        <time>2014-11-10T15:23:49.1Z</time>
      </trkpt>
      <trkpt lat="48.42418" lon="-3.15144">
        <ele>381</ele>
        <time>2014-11-10T15:23:52.1Z</time>
      </trkpt>
      <trkpt lat="48.42418" lon="-3.15144">
        <ele>381</ele>
        <time>2014-11-10T15:23:54.1Z</time>
      </trkpt>
      <trkpt lat="48.42418" lon="-3.15144">
        <ele>381</ele>
        <time>2014-11-10T15:23:56.1Z</time>
      </trkpt>
      <trkpt lat="48.42418" lon="-3.15144">
        <ele>381</ele>
        <time>2014-11-10T15:24:00.1Z</time>
      </trkpt>
      <trkpt lat="48.42417" lon="-3.15143">
        <ele>381</ele>
        <time>2014-11-10T15:24:04.1Z</time>
      </trkpt>
      <trkpt lat="48.42417" lon="-3.15143">
        <ele>381</ele>
        <time>2014-11-10T15:24:07.1Z</time>
      </trkpt>
      <trkpt lat="48.42417" lon="-3.15143">
        <ele>381</ele>
        <time>2014-11-10T15:24:10.1Z</time>
      </trkpt>
      <trkpt lat="48.42416" lon="-3.15142">
        <ele>381</ele>
        <time>2014-11-10T15:24:14.1Z</time>
      </trkpt>
      <trkpt lat="48.42414" lon="-3.1514">
        <ele>381</ele>
        <time>2014-11-10T15:24:17.1Z</time>
      </trkpt>
      <trkpt lat="48.42413" lon="-3.15138">
        <ele>381</ele>
        <time>2014-11-10T15:24:19.1Z</time>
      </trkpt>
      <trkpt lat="48.42412" lon="-3.15137">
        <ele>381</ele>
        <time>2014-11-10T15:24:21.1Z</time>
      </trkpt>
      <trkpt lat="48.42411" lon="-3.15134">
        <ele>380</ele>
        <time>2014-11-10T15:24:25.1Z</time>
      </trkpt>
      <trkpt lat="48.42411" lon="-3.1513">
        <ele>380</ele>
        <time>2014-11-10T15:24:27.1Z</time>
      </trkpt>
      <trkpt lat="48.42411" lon="-3.15128">
        <ele>380</ele>
        <time>2014-11-10T15:24:30.1Z</time>
      </trkpt>
      <trkpt lat="48.42411" lon="-3.15124">
        <ele>380</ele>
        <time>2014-11-10T15:24:32.1Z</time>
      </trkpt>
      <trkpt lat="48.42411" lon="-3.15122">
        <ele>380</ele>
        <time>2014-11-10T15:24:35.1Z</time>
      </trkpt>
      <trkpt lat="48.42412" lon="-3.15121">
        <ele>380</ele>
        <time>2014-11-10T15:24:37.1Z</time>
      </trkpt>
      <trkpt lat="48.42412" lon="-3.1512">
        <ele>381</ele>
        <time>2014-11-10T15:24:41.1Z</time>
      </trkpt>
      <trkpt lat="48.42412" lon="-3.1512">
        <ele>381</ele>
        <time>2014-11-10T15:24:45.1Z</time>
      </trkpt>
      <trkpt lat="48.42412" lon="-3.15121">
        <ele>380</ele>
        <time>2014-11-10T15:24:47.1Z</time>
      </trkpt>
      <trkpt lat="48.42411" lon="-3.15122">
        <ele>381</ele>
        <time>2014-11-10T15:24:49.1Z</time>
      </trkpt>
      <trkpt lat="48.42411" lon="-3.15124">
        <ele>380</ele>
        <time>2014-11-10T15:24:52.1Z</time>
      </trkpt>
      <trkpt lat="48.42412" lon="-3.15126">
        <ele>381</ele>
        <time>2014-11-10T15:24:54.1Z</time>
      </trkpt>
      <trkpt lat="48.42412" lon="-3.15128">
        <ele>381</ele>
        <time>2014-11-10T15:24:57.1Z</time>
      </trkpt>
      <trkpt lat="48.42412" lon="-3.15128">
        <ele>381</ele>
        <time>2014-11-10T15:24:59.1Z</time>
      </trkpt>
      <trkpt lat="48.42412" lon="-3.15129">
        <ele>381</ele>
        <time>2014-11-10T15:25:01.1Z</time>
      </trkpt>
      <trkpt lat="48.42411" lon="-3.15129">
        <ele>381</ele>
        <time>2014-11-10T15:25:03.1Z</time>
      </trkpt>
      <trkpt lat="48.42411" lon="-3.15129">
        <ele>381</ele>
        <time>2014-11-10T15:25:05.1Z</time>
      </trkpt>
      <trkpt lat="48.42411" lon="-3.15129">
        <ele>381</ele>
        <time>2014-11-10T15:25:08.1Z</time>
      </trkpt>
      <trkpt lat="48.42411" lon="-3.15129">
        <ele>381</ele>
        <time>2014-11-10T15:25:11.1Z</time>
      </trkpt>
      <trkpt lat="48.42412" lon="-3.1513">
        <ele>381</ele>
        <time>2014-11-10T15:25:13.1Z</time>
      </trkpt>
      <trkpt lat="48.42411" lon="-3.1513">
        <ele>381</ele>
        <time>2014-11-10T15:25:16.1Z</time>
      </trkpt>
      <trkpt lat="48.42411" lon="-3.1513">
        <ele>382</ele>
        <time>2014-11-10T15:25:19.1Z</time>
      </trkpt>
      <trkpt lat="48.42411" lon="-3.1513">
        <ele>382</ele>
        <time>2014-11-10T15:25:22.1Z</time>
      </trkpt>
      <trkpt lat="48.42412" lon="-3.1513">
        <ele>381</ele>
        <time>2014-11-10T15:25:24.1Z</time>
      </trkpt>
      <trkpt lat="48.42412" lon="-3.1513">
        <ele>381</ele>
        <time>2014-11-10T15:25:29.1Z</time>
      </trkpt>
      <trkpt lat="48.42412" lon="-3.1513">
        <ele>381</ele>
        <time>2014-11-10T15:25:32.1Z</time>
      </trkpt>
      <trkpt lat="48.42413" lon="-3.1513">
        <ele>381</ele>
        <time>2014-11-10T15:25:35.1Z</time>
      </trkpt>
      <trkpt lat="48.42413" lon="-3.1513">
        <ele>381</ele>
        <time>2014-11-10T15:25:37.1Z</time>
      </trkpt>
      <trkpt lat="48.42413" lon="-3.1513">
        <ele>380</ele>
        <time>2014-11-10T15:25:41.1Z</time>
      </trkpt>
      <trkpt lat="48.42413" lon="-3.1513">
        <ele>380</ele>
        <time>2014-11-10T15:25:43.1Z</time>
      </trkpt>
      <trkpt lat="48.42413" lon="-3.1513">
        <ele>381</ele>
        <time>2014-11-10T15:25:45.1Z</time>
      </trkpt>
      <trkpt lat="48.42413" lon="-3.1513">
        <ele>381</ele>
        <time>2014-11-10T15:25:50.1Z</time>
      </trkpt>
      <trkpt lat="48.42412" lon="-3.1513">
        <ele>381</ele>
        <time>2014-11-10T15:25:55.1Z</time>
      </trkpt>
      <trkpt lat="48.42412" lon="-3.1513">
        <ele>381</ele>
        <time>2014-11-10T15:25:58.1Z</time>
      </trkpt>
      <trkpt lat="48.42411" lon="-3.15131">
        <ele>381</ele>
        <time>2014-11-10T15:26:00.1Z</time>
      </trkpt>
      <trkpt lat="48.42411" lon="-3.15131">
        <ele>381</ele>
        <time>2014-11-10T15:26:03.1Z</time>
      </trkpt>
      <trkpt lat="48.42411" lon="-3.15131">
        <ele>381</ele>
        <time>2014-11-10T15:26:05.1Z</time>
      </trkpt>
      <trkpt lat="48.42411" lon="-3.15131">
        <ele>381</ele>
        <time>2014-11-10T15:26:07.1Z</time>
      </trkpt>
      <trkpt lat="48.42411" lon="-3.1513">
        <ele>381</ele>
        <time>2014-11-10T15:26:11.1Z</time>
      </trkpt>
      <trkpt lat="48.42411" lon="-3.1513">
        <ele>381</ele>
        <time>2014-11-10T15:26:13.1Z</time>
      </trkpt>
      <trkpt lat="48.42412" lon="-3.1513">
        <ele>381</ele>
        <time>2014-11-10T15:26:16.1Z</time>
      </trkpt>
      <trkpt lat="48.42412" lon="-3.1513">
        <ele>381</ele>
        <time>2014-11-10T15:26:20.1Z</time>
      </trkpt>
      <trkpt lat="48.42411" lon="-3.15131">
        <ele>381</ele>
        <time>2014-11-10T15:26:23.1Z</time>
      </trkpt>
      <trkpt lat="48.42411" lon="-3.15131">
        <ele>381</ele>
        <time>2014-11-10T15:26:25.1Z</time>
      </trkpt>
      <trkpt lat="48.42411" lon="-3.15131">
        <ele>381</ele>
        <time>2014-11-10T15:26:28.1Z</time>
      </trkpt>
      <trkpt lat="48.42411" lon="-3.15131">
        <ele>381</ele>
        <time>2014-11-10T15:26:30.1Z</time>
      </trkpt>
      <trkpt lat="48.4241" lon="-3.15132">
        <ele>381</ele>
        <time>2014-11-10T15:26:33.1Z</time>
      </trkpt>
      <trkpt lat="48.4241" lon="-3.15132">
        <ele>381</ele>
        <time>2014-11-10T15:26:36.1Z</time>
      </trkpt>
      <trkpt lat="48.4241" lon="-3.15133">
        <ele>381</ele>
        <time>2014-11-10T15:26:40.1Z</time>
      </trkpt>
      <trkpt lat="48.4241" lon="-3.15133">
        <ele>381</ele>
        <time>2014-11-10T15:26:44.1Z</time>
      </trkpt>
      <trkpt lat="48.4241" lon="-3.15133">
        <ele>381</ele>
        <time>2014-11-10T15:26:46.1Z</time>
      </trkpt>
      <trkpt lat="48.4241" lon="-3.15133">
        <ele>381</ele>
        <time>2014-11-10T15:26:49.1Z</time>
      </trkpt>
      <trkpt lat="48.4241" lon="-3.15133">
        <ele>381</ele>
        <time>2014-11-10T15:26:52.1Z</time>
      </trkpt>
      <trkpt lat="48.42411" lon="-3.15132">
        <ele>380</ele>
        <time>2014-11-10T15:26:55.1Z</time>
      </trkpt>
      <trkpt lat="48.42411" lon="-3.15132">
        <ele>381</ele>
        <time>2014-11-10T15:26:58.1Z</time>
      </trkpt>
      <trkpt lat="48.42411" lon="-3.15132">
        <ele>381</ele>
        <time>2014-11-10T15:27:01.1Z</time>
      </trkpt>
      <trkpt lat="48.42411" lon="-3.15132">
        <ele>381</ele>
        <time>2014-11-10T15:27:07.1Z</time>
      </trkpt>
      <trkpt lat="48.42412" lon="-3.15132">
        <ele>380</ele>
        <time>2014-11-10T15:27:12.1Z</time>
      </trkpt>
      <trkpt lat="48.42412" lon="-3.15132">
        <ele>380</ele>
        <time>2014-11-10T15:27:16.1Z</time>
      </trkpt>
      <trkpt lat="48.42412" lon="-3.15132">
        <ele>380</ele>
        <time>2014-11-10T15:27:19.1Z</time>
      </trkpt>
      <trkpt lat="48.42413" lon="-3.15132">
        <ele>380</ele>
        <time>2014-11-10T15:27:22.1Z</time>
      </trkpt>
      <trkpt lat="48.42413" lon="-3.15132">
        <ele>380</ele>
        <time>2014-11-10T15:27:25.1Z</time>
      </trkpt>
      <trkpt lat="48.42414" lon="-3.15132">
        <ele>381</ele>
        <time>2014-11-10T15:27:27.1Z</time>
      </trkpt>
      <trkpt lat="48.42414" lon="-3.15132">
        <ele>381</ele>
        <time>2014-11-10T15:27:29.1Z</time>
      </trkpt>
      <trkpt lat="48.42414" lon="-3.15132">
        <ele>381</ele>
        <time>2014-11-10T15:27:33.1Z</time>
      </trkpt>
      <trkpt lat="48.42414" lon="-3.15131">
        <ele>381</ele>
        <time>2014-11-10T15:27:36.1Z</time>
      </trkpt>
      <trkpt lat="48.42414" lon="-3.15131">
        <ele>381</ele>
        <time>2014-11-10T15:27:39.1Z</time>
      </trkpt>
      <trkpt lat="48.42414" lon="-3.15131">
        <ele>381</ele>
        <time>2014-11-10T15:27:43.1Z</time>
      </trkpt>
      <trkpt lat="48.42413" lon="-3.15131">
        <ele>381</ele>
        <time>2014-11-10T15:27:45.1Z</time>
      </trkpt>
      <trkpt lat="48.42413" lon="-3.15132">
        <ele>381</ele>
        <time>2014-11-10T15:27:48.1Z</time>
      </trkpt>
      <trkpt lat="48.42412" lon="-3.15132">
        <ele>381</ele>
        <time>2014-11-10T15:27:52.1Z</time>
      </trkpt>
      <trkpt lat="48.42411" lon="-3.15133">
        <ele>381</ele>
        <time>2014-11-10T15:27:57.1Z</time>
      </trkpt>
      <trkpt lat="48.42411" lon="-3.15134">
        <ele>381</ele>
        <time>2014-11-10T15:27:59.1Z</time>
      </trkpt>
      <trkpt lat="48.4241" lon="-3.15134">
        <ele>381</ele>
        <time>2014-11-10T15:28:03.1Z</time>
      </trkpt>
      <trkpt lat="48.4241" lon="-3.15134">
        <ele>381</ele>
        <time>2014-11-10T15:28:05.1Z</time>
      </trkpt>
      <trkpt lat="48.4241" lon="-3.15135">
        <ele>381</ele>
        <time>2014-11-10T15:28:07.1Z</time>
      </trkpt>
      <trkpt lat="48.42411" lon="-3.15135">
        <ele>381</ele>
        <time>2014-11-10T15:28:09.1Z</time>
      </trkpt>
      <trkpt lat="48.4241" lon="-3.15135">
        <ele>381</ele>
        <time>2014-11-10T15:28:12.1Z</time>
      </trkpt>
      <trkpt lat="48.4241" lon="-3.15135">
        <ele>381</ele>
        <time>2014-11-10T15:28:15.1Z</time>
      </trkpt>
      <trkpt lat="48.4241" lon="-3.15135">
        <ele>381</ele>
        <time>2014-11-10T15:28:19.1Z</time>
      </trkpt>
      <trkpt lat="48.42411" lon="-3.15134">
        <ele>381</ele>
        <time>2014-11-10T15:28:23.1Z</time>
      </trkpt>
      <trkpt lat="48.42411" lon="-3.15134">
        <ele>381</ele>
        <time>2014-11-10T15:28:25.1Z</time>
      </trkpt>
      <trkpt lat="48.42411" lon="-3.15133">
        <ele>381</ele>
        <time>2014-11-10T15:28:27.1Z</time>
      </trkpt>
      <trkpt lat="48.42412" lon="-3.15133">
        <ele>381</ele>
        <time>2014-11-10T15:28:30.1Z</time>
      </trkpt>
      <trkpt lat="48.42412" lon="-3.15133">
        <ele>381</ele>
        <time>2014-11-10T15:28:32.1Z</time>
      </trkpt>
      <trkpt lat="48.42412" lon="-3.15133">
        <ele>381</ele>
        <time>2014-11-10T15:28:35.1Z</time>
      </trkpt>
      <trkpt lat="48.42412" lon="-3.15133">
        <ele>381</ele>
        <time>2014-11-10T15:28:38.1Z</time>
      </trkpt>
      <trkpt lat="48.42413" lon="-3.15133">
        <ele>380</ele>
        <time>2014-11-10T15:28:41.1Z</time>
      </trkpt>
      <trkpt lat="48.42412" lon="-3.15132">
        <ele>381</ele>
        <time>2014-11-10T15:28:45.1Z</time>
      </trkpt>
      <trkpt lat="48.42413" lon="-3.15132">
        <ele>381</ele>
        <time>2014-11-10T15:28:49.1Z</time>
      </trkpt>
      <trkpt lat="48.42413" lon="-3.15132">
        <ele>381</ele>
        <time>2014-11-10T15:28:51.1Z</time>
      </trkpt>
      <trkpt lat="48.42413" lon="-3.15131">
        <ele>381</ele>
        <time>2014-11-10T15:28:53.1Z</time>
      </trkpt>
      <trkpt lat="48.42413" lon="-3.15131">
        <ele>381</ele>
        <time>2014-11-10T15:28:56.1Z</time>
      </trkpt>
      <trkpt lat="48.42413" lon="-3.15131">
        <ele>381</ele>
        <time>2014-11-10T15:28:59.1Z</time>
      </trkpt>
      <trkpt lat="48.42413" lon="-3.1513">
        <ele>381</ele>
        <time>2014-11-10T15:29:02.1Z</time>
      </trkpt>
      <trkpt lat="48.42413" lon="-3.1513">
        <ele>381</ele>
        <time>2014-11-10T15:29:04.1Z</time>
      </trkpt>
      <trkpt lat="48.42413" lon="-3.1513">
        <ele>380</ele>
        <time>2014-11-10T15:29:06.1Z</time>
      </trkpt>
      <trkpt lat="48.42413" lon="-3.15129">
        <ele>380</ele>
        <time>2014-11-10T15:29:09.1Z</time>
      </trkpt>
      <trkpt lat="48.42412" lon="-3.15129">
        <ele>380</ele>
        <time>2014-11-10T15:29:14.1Z</time>
      </trkpt>
      <trkpt lat="48.42413" lon="-3.15129">
        <ele>381</ele>
        <time>2014-11-10T15:29:22.1Z</time>
      </trkpt>
      <trkpt lat="48.42412" lon="-3.15129">
        <ele>381</ele>
        <time>2014-11-10T15:29:25.1Z</time>
      </trkpt>
      <trkpt lat="48.42412" lon="-3.15129">
        <ele>381</ele>
        <time>2014-11-10T15:29:28.1Z</time>
      </trkpt>
      <trkpt lat="48.42412" lon="-3.15129">
        <ele>381</ele>
        <time>2014-11-10T15:29:31.1Z</time>
      </trkpt>
      <trkpt lat="48.42412" lon="-3.15132">
        <ele>381</ele>
        <time>2014-11-10T15:29:34.1Z</time>
      </trkpt>
      <trkpt lat="48.42412" lon="-3.15136">
        <ele>381</ele>
        <time>2014-11-10T15:29:38.1Z</time>
      </trkpt>
      <trkpt lat="48.42414" lon="-3.15141">
        <ele>381</ele>
        <time>2014-11-10T15:29:40.1Z</time>
      </trkpt>
      <trkpt lat="48.42415" lon="-3.15144">
        <ele>381</ele>
        <time>2014-11-10T15:29:42.1Z</time>
      </trkpt>
      <trkpt lat="48.42418" lon="-3.15145">
        <ele>381</ele>
        <time>2014-11-10T15:29:45.1Z</time>
      </trkpt>
      <trkpt lat="48.4242" lon="-3.15144">
        <ele>381</ele>
        <time>2014-11-10T15:29:47.1Z</time>
      </trkpt>
      <trkpt lat="48.42423" lon="-3.15144">
        <ele>381</ele>
        <time>2014-11-10T15:29:49.1Z</time>
      </trkpt>
      <trkpt lat="48.42424" lon="-3.15144">
        <ele>381</ele>
        <time>2014-11-10T15:29:52.1Z</time>
      </trkpt>
      <trkpt lat="48.42427" lon="-3.15145">
        <ele>381</ele>
        <time>2014-11-10T15:29:54.1Z</time>
      </trkpt>
      <trkpt lat="48.42429" lon="-3.15145">
        <ele>381</ele>
        <time>2014-11-10T15:29:57.1Z</time>
      </trkpt>
      <trkpt lat="48.42431" lon="-3.15146">
        <ele>382</ele>
        <time>2014-11-10T15:29:59.1Z</time>
      </trkpt>
      <trkpt lat="48.42435" lon="-3.15146">
        <ele>382</ele>
        <time>2014-11-10T15:30:01.1Z</time>
      </trkpt>
      <trkpt lat="48.42441" lon="-3.15149">
        <ele>382</ele>
        <time>2014-11-10T15:30:04.1Z</time>
      </trkpt>
      <trkpt lat="48.42447" lon="-3.1515">
        <ele>383</ele>
        <time>2014-11-10T15:30:07.1Z</time>
      </trkpt>
      <trkpt lat="48.42454" lon="-3.15152">
        <ele>383</ele>
        <time>2014-11-10T15:30:09.1Z</time>
      </trkpt>
      <trkpt lat="48.42458" lon="-3.15152">
        <ele>384</ele>
        <time>2014-11-10T15:30:12.1Z</time>
      </trkpt>
      <trkpt lat="48.42462" lon="-3.15152">
        <ele>384</ele>
        <time>2014-11-10T15:30:14.1Z</time>
      </trkpt>
      <trkpt lat="48.42465" lon="-3.15153">
        <ele>384</ele>
        <time>2014-11-10T15:30:17.1Z</time>
      </trkpt>
      <trkpt lat="48.42466" lon="-3.15154">
        <ele>384</ele>
        <time>2014-11-10T15:30:20.1Z</time>
      </trkpt>
      <trkpt lat="48.42467" lon="-3.15154">
        <ele>384</ele>
        <time>2014-11-10T15:30:22.1Z</time>
      </trkpt>
      <trkpt lat="48.42468" lon="-3.15154">
        <ele>384</ele>
        <time>2014-11-10T15:30:25.1Z</time>
      </trkpt>
      <trkpt lat="48.42469" lon="-3.15154">
        <ele>384</ele>
        <time>2014-11-10T15:30:27.1Z</time>
      </trkpt>
      <trkpt lat="48.4247" lon="-3.15153">
        <ele>383</ele>
        <time>2014-11-10T15:30:29.1Z</time>
      </trkpt>
      <trkpt lat="48.42471" lon="-3.15153">
        <ele>383</ele>
        <time>2014-11-10T15:30:32.1Z</time>
      </trkpt>
      <trkpt lat="48.42471" lon="-3.15152">
        <ele>383</ele>
        <time>2014-11-10T15:30:34.1Z</time>
      </trkpt>
      <trkpt lat="48.42471" lon="-3.15152">
        <ele>383</ele>
        <time>2014-11-10T15:30:37.1Z</time>
      </trkpt>
      <trkpt lat="48.42472" lon="-3.15152">
        <ele>384</ele>
        <time>2014-11-10T15:30:40.1Z</time>
      </trkpt>
      <trkpt lat="48.42475" lon="-3.15153">
        <ele>383</ele>
        <time>2014-11-10T15:30:42.1Z</time>
      </trkpt>
      <trkpt lat="48.42477" lon="-3.15154">
        <ele>384</ele>
        <time>2014-11-10T15:30:44.1Z</time>
      </trkpt>
      <trkpt lat="48.4248" lon="-3.15157">
        <ele>384</ele>
        <time>2014-11-10T15:30:47.1Z</time>
      </trkpt>
      <trkpt lat="48.42481" lon="-3.1516">
        <ele>384</ele>
        <time>2014-11-10T15:30:50.1Z</time>
      </trkpt>
      <trkpt lat="48.42481" lon="-3.15163">
        <ele>384</ele>
        <time>2014-11-10T15:30:52.1Z</time>
      </trkpt>
      <trkpt lat="48.4248" lon="-3.15168">
        <ele>384</ele>
        <time>2014-11-10T15:30:54.1Z</time>
      </trkpt>
      <trkpt lat="48.4248" lon="-3.15174">
        <ele>385</ele>
        <time>2014-11-10T15:30:58.1Z</time>
      </trkpt>
      <trkpt lat="48.42479" lon="-3.1518">
        <ele>385</ele>
        <time>2014-11-10T15:31:01.1Z</time>
      </trkpt>
      <trkpt lat="48.42479" lon="-3.15186">
        <ele>385</ele>
        <time>2014-11-10T15:31:03.1Z</time>
      </trkpt>
      <trkpt lat="48.42478" lon="-3.15192">
        <ele>385</ele>
        <time>2014-11-10T15:31:06.1Z</time>
      </trkpt>
      <trkpt lat="48.42477" lon="-3.15197">
        <ele>385</ele>
        <time>2014-11-10T15:31:09.1Z</time>
      </trkpt>
      <trkpt lat="48.42477" lon="-3.15203">
        <ele>386</ele>
        <time>2014-11-10T15:31:13.1Z</time>
      </trkpt>
      <trkpt lat="48.42476" lon="-3.15207">
        <ele>386</ele>
        <time>2014-11-10T15:31:15.1Z</time>
      </trkpt>
      <trkpt lat="48.42475" lon="-3.15213">
        <ele>386</ele>
        <time>2014-11-10T15:31:17.1Z</time>
      </trkpt>
      <trkpt lat="48.42474" lon="-3.15219">
        <ele>386</ele>
        <time>2014-11-10T15:31:20.1Z</time>
      </trkpt>
      <trkpt lat="48.42473" lon="-3.15224">
        <ele>385</ele>
        <time>2014-11-10T15:31:23.1Z</time>
      </trkpt>
      <trkpt lat="48.42472" lon="-3.15227">
        <ele>385</ele>
        <time>2014-11-10T15:31:26.1Z</time>
      </trkpt>
      <trkpt lat="48.42471" lon="-3.1523">
        <ele>386</ele>
        <time>2014-11-10T15:31:28.1Z</time>
      </trkpt>
      <trkpt lat="48.4247" lon="-3.15236">
        <ele>386</ele>
        <time>2014-11-10T15:31:30.1Z</time>
      </trkpt>
      <trkpt lat="48.42469" lon="-3.1524">
        <ele>386</ele>
        <time>2014-11-10T15:31:32.1Z</time>
      </trkpt>
      <trkpt lat="48.42469" lon="-3.15244">
        <ele>386</ele>
        <time>2014-11-10T15:31:35.1Z</time>
      </trkpt>
      <trkpt lat="48.42468" lon="-3.15249">
        <ele>386</ele>
        <time>2014-11-10T15:31:37.1Z</time>
      </trkpt>
      <trkpt lat="48.42467" lon="-3.15253">
        <ele>386</ele>
        <time>2014-11-10T15:31:40.1Z</time>
      </trkpt>
      <trkpt lat="48.42466" lon="-3.15259">
        <ele>386</ele>
        <time>2014-11-10T15:31:43.1Z</time>
      </trkpt>
      <trkpt lat="48.42465" lon="-3.15264">
        <ele>387</ele>
        <time>2014-11-10T15:31:45.1Z</time>
      </trkpt>
      <trkpt lat="48.42464" lon="-3.1527">
        <ele>387</ele>
        <time>2014-11-10T15:31:48.1Z</time>
      </trkpt>
      <trkpt lat="48.42464" lon="-3.15273">
        <ele>387</ele>
        <time>2014-11-10T15:31:51.1Z</time>
      </trkpt>
      <trkpt lat="48.42462" lon="-3.15279">
        <ele>387</ele>
        <time>2014-11-10T15:31:53.1Z</time>
      </trkpt>
      <trkpt lat="48.42462" lon="-3.15282">
        <ele>387</ele>
        <time>2014-11-10T15:31:55.1Z</time>
      </trkpt>
      <trkpt lat="48.4246" lon="-3.15287">
        <ele>387</ele>
        <time>2014-11-10T15:31:58.1Z</time>
      </trkpt>
      <trkpt lat="48.42459" lon="-3.15292">
        <ele>387</ele>
        <time>2014-11-10T15:32:01.1Z</time>
      </trkpt>
      <trkpt lat="48.42458" lon="-3.15297">
        <ele>387</ele>
        <time>2014-11-10T15:32:04.1Z</time>
      </trkpt>
      <trkpt lat="48.42457" lon="-3.153">
        <ele>387</ele>
        <time>2014-11-10T15:32:06.1Z</time>
      </trkpt>
      <trkpt lat="48.42456" lon="-3.15304">
        <ele>388</ele>
        <time>2014-11-10T15:32:08.1Z</time>
      </trkpt>
      <trkpt lat="48.42455" lon="-3.1531">
        <ele>388</ele>
        <time>2014-11-10T15:32:10.1Z</time>
      </trkpt>
      <trkpt lat="48.42454" lon="-3.15315">
        <ele>388</ele>
        <time>2014-11-10T15:32:13.1Z</time>
      </trkpt>
      <trkpt lat="48.42454" lon="-3.15319">
        <ele>388</ele>
        <time>2014-11-10T15:32:15.1Z</time>
      </trkpt>
      <trkpt lat="48.42453" lon="-3.15323">
        <ele>388</ele>
        <time>2014-11-10T15:32:18.1Z</time>
      </trkpt>
      <trkpt lat="48.42452" lon="-3.15329">
        <ele>388</ele>
        <time>2014-11-10T15:32:21.1Z</time>
      </trkpt>
      <trkpt lat="48.42451" lon="-3.15332">
        <ele>389</ele>
        <time>2014-11-10T15:32:23.1Z</time>
      </trkpt>
      <trkpt lat="48.4245" lon="-3.15337">
        <ele>389</ele>
        <time>2014-11-10T15:32:26.1Z</time>
      </trkpt>
      <trkpt lat="48.42449" lon="-3.15342">
        <ele>389</ele>
        <time>2014-11-10T15:32:29.1Z</time>
      </trkpt>
      <trkpt lat="48.42448" lon="-3.15346">
        <ele>390</ele>
        <time>2014-11-10T15:32:32.1Z</time>
      </trkpt>
      <trkpt lat="48.42447" lon="-3.15352">
        <ele>390</ele>
        <time>2014-11-10T15:32:35.1Z</time>
      </trkpt>
      <trkpt lat="48.42446" lon="-3.15355">
        <ele>390</ele>
        <time>2014-11-10T15:32:37.1Z</time>
      </trkpt>
      <trkpt lat="48.42445" lon="-3.1536">
        <ele>390</ele>
        <time>2014-11-10T15:32:40.1Z</time>
      </trkpt>
      <trkpt lat="48.42444" lon="-3.15363">
        <ele>390</ele>
        <time>2014-11-10T15:32:42.1Z</time>
      </trkpt>
      <trkpt lat="48.42443" lon="-3.15368">
        <ele>390</ele>
        <time>2014-11-10T15:32:46.1Z</time>
      </trkpt>
      <trkpt lat="48.42442" lon="-3.15373">
        <ele>390</ele>
        <time>2014-11-10T15:32:48.1Z</time>
      </trkpt>
      <trkpt lat="48.42441" lon="-3.15376">
        <ele>391</ele>
        <time>2014-11-10T15:32:50.1Z</time>
      </trkpt>
      <trkpt lat="48.4244" lon="-3.15381">
        <ele>391</ele>
        <time>2014-11-10T15:32:53.1Z</time>
      </trkpt>
      <trkpt lat="48.4244" lon="-3.15386">
        <ele>392</ele>
        <time>2014-11-10T15:32:56.1Z</time>
      </trkpt>
      <trkpt lat="48.42439" lon="-3.15389">
        <ele>392</ele>
        <time>2014-11-10T15:32:58.1Z</time>
      </trkpt>
      <trkpt lat="48.42438" lon="-3.15394">
        <ele>392</ele>
        <time>2014-11-10T15:33:01.1Z</time>
      </trkpt>
      <trkpt lat="48.42437" lon="-3.15397">
        <ele>393</ele>
        <time>2014-11-10T15:33:03.1Z</time>
      </trkpt>
      <trkpt lat="48.42436" lon="-3.15402">
        <ele>393</ele>
        <time>2014-11-10T15:33:06.1Z</time>
      </trkpt>
      <trkpt lat="48.42435" lon="-3.15405">
        <ele>394</ele>
        <time>2014-11-10T15:33:08.1Z</time>
      </trkpt>
      <trkpt lat="48.42435" lon="-3.15408">
        <ele>394</ele>
        <time>2014-11-10T15:33:11.1Z</time>
      </trkpt>
      <trkpt lat="48.42434" lon="-3.15411">
        <ele>394</ele>
        <time>2014-11-10T15:33:13.1Z</time>
      </trkpt>
      <trkpt lat="48.42434" lon="-3.15416">
        <ele>394</ele>
        <time>2014-11-10T15:33:15.1Z</time>
      </trkpt>
      <trkpt lat="48.42433" lon="-3.15421">
        <ele>394</ele>
        <time>2014-11-10T15:33:18.1Z</time>
      </trkpt>
      <trkpt lat="48.42432" lon="-3.15425">
        <ele>394</ele>
        <time>2014-11-10T15:33:21.1Z</time>
      </trkpt>
      <trkpt lat="48.42431" lon="-3.15428">
        <ele>394</ele>
        <time>2014-11-10T15:33:24.1Z</time>
      </trkpt>
      <trkpt lat="48.4243" lon="-3.15434">
        <ele>395</ele>
        <time>2014-11-10T15:33:26.1Z</time>
      </trkpt>
      <trkpt lat="48.4243" lon="-3.15437">
        <ele>395</ele>
        <time>2014-11-10T15:33:28.1Z</time>
      </trkpt>
      <trkpt lat="48.42429" lon="-3.1544">
        <ele>396</ele>
        <time>2014-11-10T15:33:31.1Z</time>
      </trkpt>
      <trkpt lat="48.42428" lon="-3.15444">
        <ele>396</ele>
        <time>2014-11-10T15:33:33.1Z</time>
      </trkpt>
      <trkpt lat="48.42427" lon="-3.15448">
        <ele>396</ele>
        <time>2014-11-10T15:33:36.1Z</time>
      </trkpt>
      <trkpt lat="48.42427" lon="-3.15451">
        <ele>397</ele>
        <time>2014-11-10T15:33:38.1Z</time>
      </trkpt>
      <trkpt lat="48.42426" lon="-3.15456">
        <ele>397</ele>
        <time>2014-11-10T15:33:40.1Z</time>
      </trkpt>
      <trkpt lat="48.42426" lon="-3.15461">
        <ele>397</ele>
        <time>2014-11-10T15:33:43.1Z</time>
      </trkpt>
      <trkpt lat="48.42425" lon="-3.15464">
        <ele>397</ele>
        <time>2014-11-10T15:33:45.1Z</time>
      </trkpt>
      <trkpt lat="48.42424" lon="-3.15468">
        <ele>397</ele>
        <time>2014-11-10T15:33:48.1Z</time>
      </trkpt>
      <trkpt lat="48.42423" lon="-3.15473">
        <ele>397</ele>
        <time>2014-11-10T15:33:50.1Z</time>
      </trkpt>
      <trkpt lat="48.42423" lon="-3.15479">
        <ele>397</ele>
        <time>2014-11-10T15:33:53.1Z</time>
      </trkpt>
      <trkpt lat="48.42422" lon="-3.15482">
        <ele>398</ele>
        <time>2014-11-10T15:33:55.1Z</time>
      </trkpt>
      <trkpt lat="48.42422" lon="-3.15486">
        <ele>398</ele>
        <time>2014-11-10T15:33:57.1Z</time>
      </trkpt>
      <trkpt lat="48.42422" lon="-3.15489">
        <ele>398</ele>
        <time>2014-11-10T15:34:00.1Z</time>
      </trkpt>
      <trkpt lat="48.42421" lon="-3.15494">
        <ele>398</ele>
        <time>2014-11-10T15:34:02.1Z</time>
      </trkpt>
      <trkpt lat="48.42421" lon="-3.15498">
        <ele>399</ele>
        <time>2014-11-10T15:34:05.1Z</time>
      </trkpt>
      <trkpt lat="48.4242" lon="-3.15504">
        <ele>398</ele>
        <time>2014-11-10T15:34:08.1Z</time>
      </trkpt>
      <trkpt lat="48.42419" lon="-3.15509">
        <ele>398</ele>
        <time>2014-11-10T15:34:10.1Z</time>
      </trkpt>
      <trkpt lat="48.42418" lon="-3.15515">
        <ele>398</ele>
        <time>2014-11-10T15:34:13.1Z</time>
      </trkpt>
      <trkpt lat="48.42418" lon="-3.15517">
        <ele>398</ele>
        <time>2014-11-10T15:34:15.1Z</time>
      </trkpt>
      <trkpt lat="48.42417" lon="-3.15521">
        <ele>399</ele>
        <time>2014-11-10T15:34:18.1Z</time>
      </trkpt>
      <trkpt lat="48.42418" lon="-3.15525">
        <ele>399</ele>
        <time>2014-11-10T15:34:20.1Z</time>
      </trkpt>
      <trkpt lat="48.42419" lon="-3.15527">
        <ele>399</ele>
        <time>2014-11-10T15:34:22.1Z</time>
      </trkpt>
      <trkpt lat="48.42419" lon="-3.15532">
        <ele>399</ele>
        <time>2014-11-10T15:34:25.1Z</time>
      </trkpt>
      <trkpt lat="48.42419" lon="-3.15536">
        <ele>399</ele>
        <time>2014-11-10T15:34:27.1Z</time>
      </trkpt>
      <trkpt lat="48.42419" lon="-3.15539">
        <ele>399</ele>
        <time>2014-11-10T15:34:30.1Z</time>
      </trkpt>
      <trkpt lat="48.42419" lon="-3.15544">
        <ele>399</ele>
        <time>2014-11-10T15:34:32.1Z</time>
      </trkpt>
      <trkpt lat="48.42419" lon="-3.15548">
        <ele>399</ele>
        <time>2014-11-10T15:34:34.1Z</time>
      </trkpt>
      <trkpt lat="48.42418" lon="-3.15553">
        <ele>399</ele>
        <time>2014-11-10T15:34:37.1Z</time>
      </trkpt>
      <trkpt lat="48.42418" lon="-3.15557">
        <ele>399</ele>
        <time>2014-11-10T15:34:39.1Z</time>
      </trkpt>
      <trkpt lat="48.42417" lon="-3.1556">
        <ele>399</ele>
        <time>2014-11-10T15:34:42.1Z</time>
      </trkpt>
      <trkpt lat="48.42417" lon="-3.15565">
        <ele>399</ele>
        <time>2014-11-10T15:34:44.1Z</time>
      </trkpt>
      <trkpt lat="48.42417" lon="-3.1557">
        <ele>399</ele>
        <time>2014-11-10T15:34:48.1Z</time>
      </trkpt>
      <trkpt lat="48.42416" lon="-3.15576">
        <ele>399</ele>
        <time>2014-11-10T15:34:50.1Z</time>
      </trkpt>
      <trkpt lat="48.42415" lon="-3.15581">
        <ele>399</ele>
        <time>2014-11-10T15:34:53.1Z</time>
      </trkpt>
      <trkpt lat="48.42414" lon="-3.15587">
        <ele>399</ele>
        <time>2014-11-10T15:34:56.1Z</time>
      </trkpt>
      <trkpt lat="48.42413" lon="-3.1559">
        <ele>399</ele>
        <time>2014-11-10T15:34:58.1Z</time>
      </trkpt>
      <trkpt lat="48.42413" lon="-3.15595">
        <ele>399</ele>
        <time>2014-11-10T15:35:01.1Z</time>
      </trkpt>
      <trkpt lat="48.42412" lon="-3.15599">
        <ele>399</ele>
        <time>2014-11-10T15:35:03.1Z</time>
      </trkpt>
      <trkpt lat="48.42412" lon="-3.15603">
        <ele>399</ele>
        <time>2014-11-10T15:35:05.1Z</time>
      </trkpt>
      <trkpt lat="48.42411" lon="-3.15609">
        <ele>399</ele>
        <time>2014-11-10T15:35:08.1Z</time>
      </trkpt>
      <trkpt lat="48.42411" lon="-3.15615">
        <ele>399</ele>
        <time>2014-11-10T15:35:12.1Z</time>
      </trkpt>
      <trkpt lat="48.4241" lon="-3.15621">
        <ele>398</ele>
        <time>2014-11-10T15:35:14.1Z</time>
      </trkpt>
      <trkpt lat="48.4241" lon="-3.15625">
        <ele>398</ele>
        <time>2014-11-10T15:35:16.1Z</time>
      </trkpt>
      <trkpt lat="48.4241" lon="-3.15629">
        <ele>398</ele>
        <time>2014-11-10T15:35:18.1Z</time>
      </trkpt>
      <trkpt lat="48.4241" lon="-3.15635">
        <ele>398</ele>
        <time>2014-11-10T15:35:21.1Z</time>
      </trkpt>
      <trkpt lat="48.4241" lon="-3.15638">
        <ele>398</ele>
        <time>2014-11-10T15:35:24.1Z</time>
      </trkpt>
      <trkpt lat="48.42409" lon="-3.15644">
        <ele>398</ele>
        <time>2014-11-10T15:35:26.1Z</time>
      </trkpt>
      <trkpt lat="48.42409" lon="-3.1565">
        <ele>397</ele>
        <time>2014-11-10T15:35:29.1Z</time>
      </trkpt>
      <trkpt lat="48.42409" lon="-3.15655">
        <ele>397</ele>
        <time>2014-11-10T15:35:32.1Z</time>
      </trkpt>
      <trkpt lat="48.42409" lon="-3.15659">
        <ele>397</ele>
        <time>2014-11-10T15:35:35.1Z</time>
      </trkpt>
      <trkpt lat="48.42409" lon="-3.15665">
        <ele>397</ele>
        <time>2014-11-10T15:35:37.1Z</time>
      </trkpt>
      <trkpt lat="48.42409" lon="-3.15669">
        <ele>397</ele>
        <time>2014-11-10T15:35:39.1Z</time>
      </trkpt>
      <trkpt lat="48.42408" lon="-3.15676">
        <ele>397</ele>
        <time>2014-11-10T15:35:42.1Z</time>
      </trkpt>
      <trkpt lat="48.42409" lon="-3.15682">
        <ele>397</ele>
        <time>2014-11-10T15:35:45.1Z</time>
      </trkpt>
      <trkpt lat="48.42409" lon="-3.15686">
        <ele>396</ele>
        <time>2014-11-10T15:35:47.1Z</time>
      </trkpt>
      <trkpt lat="48.4241" lon="-3.15691">
        <ele>396</ele>
        <time>2014-11-10T15:35:50.1Z</time>
      </trkpt>
      <trkpt lat="48.4241" lon="-3.15697">
        <ele>396</ele>
        <time>2014-11-10T15:35:53.1Z</time>
      </trkpt>
      <trkpt lat="48.42411" lon="-3.15703">
        <ele>396</ele>
        <time>2014-11-10T15:35:56.1Z</time>
      </trkpt>
      <trkpt lat="48.42411" lon="-3.15708">
        <ele>396</ele>
        <time>2014-11-10T15:35:59.1Z</time>
      </trkpt>
      <trkpt lat="48.42412" lon="-3.15714">
        <ele>396</ele>
        <time>2014-11-10T15:36:02.1Z</time>
      </trkpt>
      <trkpt lat="48.42413" lon="-3.1572">
        <ele>396</ele>
        <time>2014-11-10T15:36:05.1Z</time>
      </trkpt>
      <trkpt lat="48.42413" lon="-3.15725">
        <ele>395</ele>
        <time>2014-11-10T15:36:08.1Z</time>
      </trkpt>
      <trkpt lat="48.42414" lon="-3.15729">
        <ele>395</ele>
        <time>2014-11-10T15:36:10.1Z</time>
      </trkpt>
      <trkpt lat="48.42414" lon="-3.15734">
        <ele>395</ele>
        <time>2014-11-10T15:36:13.1Z</time>
      </trkpt>
      <trkpt lat="48.42415" lon="-3.15738">
        <ele>395</ele>
        <time>2014-11-10T15:36:15.1Z</time>
      </trkpt>
      <trkpt lat="48.42416" lon="-3.15743">
        <ele>395</ele>
        <time>2014-11-10T15:36:18.1Z</time>
      </trkpt>
      <trkpt lat="48.42416" lon="-3.15749">
        <ele>395</ele>
        <time>2014-11-10T15:36:21.1Z</time>
      </trkpt>
      <trkpt lat="48.42417" lon="-3.15752">
        <ele>395</ele>
        <time>2014-11-10T15:36:23.1Z</time>
      </trkpt>
      <trkpt lat="48.42418" lon="-3.15757">
        <ele>395</ele>
        <time>2014-11-10T15:36:26.1Z</time>
      </trkpt>
      <trkpt lat="48.42418" lon="-3.15761">
        <ele>395</ele>
        <time>2014-11-10T15:36:28.1Z</time>
      </trkpt>
      <trkpt lat="48.42419" lon="-3.15764">
        <ele>395</ele>
        <time>2014-11-10T15:36:30.1Z</time>
      </trkpt>
      <trkpt lat="48.4242" lon="-3.15769">
        <ele>395</ele>
        <time>2014-11-10T15:36:33.1Z</time>
      </trkpt>
      <trkpt lat="48.4242" lon="-3.15773">
        <ele>395</ele>
        <time>2014-11-10T15:36:36.1Z</time>
      </trkpt>
      <trkpt lat="48.42421" lon="-3.15778">
        <ele>395</ele>
        <time>2014-11-10T15:36:38.1Z</time>
      </trkpt>
      <trkpt lat="48.42421" lon="-3.15781">
        <ele>395</ele>
        <time>2014-11-10T15:36:40.1Z</time>
      </trkpt>
      <trkpt lat="48.42422" lon="-3.15787">
        <ele>395</ele>
        <time>2014-11-10T15:36:43.1Z</time>
      </trkpt>
      <trkpt lat="48.42423" lon="-3.1579">
        <ele>395</ele>
        <time>2014-11-10T15:36:45.1Z</time>
      </trkpt>
      <trkpt lat="48.42423" lon="-3.15794">
        <ele>395</ele>
        <time>2014-11-10T15:36:47.1Z</time>
      </trkpt>
      <trkpt lat="48.42424" lon="-3.15799">
        <ele>395</ele>
        <time>2014-11-10T15:36:50.1Z</time>
      </trkpt>
      <trkpt lat="48.42425" lon="-3.15802">
        <ele>395</ele>
        <time>2014-11-10T15:36:52.1Z</time>
      </trkpt>
      <trkpt lat="48.42426" lon="-3.15807">
        <ele>395</ele>
        <time>2014-11-10T15:36:55.1Z</time>
      </trkpt>
      <trkpt lat="48.42427" lon="-3.15811">
        <ele>394</ele>
        <time>2014-11-10T15:36:57.1Z</time>
      </trkpt>
      <trkpt lat="48.42428" lon="-3.15816">
        <ele>395</ele>
        <time>2014-11-10T15:37:00.1Z</time>
      </trkpt>
      <trkpt lat="48.42429" lon="-3.1582">
        <ele>395</ele>
        <time>2014-11-10T15:37:02.1Z</time>
      </trkpt>
      <trkpt lat="48.42429" lon="-3.15825">
        <ele>395</ele>
        <time>2014-11-10T15:37:05.1Z</time>
      </trkpt>
      <trkpt lat="48.4243" lon="-3.15831">
        <ele>395</ele>
        <time>2014-11-10T15:37:09.1Z</time>
      </trkpt>
      <trkpt lat="48.4243" lon="-3.15837">
        <ele>395</ele>
        <time>2014-11-10T15:37:11.1Z</time>
      </trkpt>
      <trkpt lat="48.42431" lon="-3.15842">
        <ele>395</ele>
        <time>2014-11-10T15:37:14.1Z</time>
      </trkpt>
      <trkpt lat="48.42432" lon="-3.15848">
        <ele>395</ele>
        <time>2014-11-10T15:37:17.1Z</time>
      </trkpt>
      <trkpt lat="48.42433" lon="-3.15854">
        <ele>395</ele>
        <time>2014-11-10T15:37:21.1Z</time>
      </trkpt>
      <trkpt lat="48.42433" lon="-3.15859">
        <ele>395</ele>
        <time>2014-11-10T15:37:23.1Z</time>
      </trkpt>
      <trkpt lat="48.42434" lon="-3.15863">
        <ele>394</ele>
        <time>2014-11-10T15:37:25.1Z</time>
      </trkpt>
      <trkpt lat="48.42434" lon="-3.15869">
        <ele>395</ele>
        <time>2014-11-10T15:37:28.1Z</time>
      </trkpt>
      <trkpt lat="48.42435" lon="-3.15873">
        <ele>395</ele>
        <time>2014-11-10T15:37:30.1Z</time>
      </trkpt>
      <trkpt lat="48.42435" lon="-3.15876">
        <ele>395</ele>
        <time>2014-11-10T15:37:32.1Z</time>
      </trkpt>
      <trkpt lat="48.42436" lon="-3.15882">
        <ele>395</ele>
        <time>2014-11-10T15:37:35.1Z</time>
      </trkpt>
      <trkpt lat="48.42437" lon="-3.15887">
        <ele>395</ele>
        <time>2014-11-10T15:37:38.1Z</time>
      </trkpt>
      <trkpt lat="48.42437" lon="-3.15893">
        <ele>395</ele>
        <time>2014-11-10T15:37:41.1Z</time>
      </trkpt>
      <trkpt lat="48.42437" lon="-3.15899">
        <ele>395</ele>
        <time>2014-11-10T15:37:44.1Z</time>
      </trkpt>
      <trkpt lat="48.42438" lon="-3.15902">
        <ele>395</ele>
        <time>2014-11-10T15:37:46.1Z</time>
      </trkpt>
      <trkpt lat="48.42438" lon="-3.15908">
        <ele>396</ele>
        <time>2014-11-10T15:37:49.1Z</time>
      </trkpt>
      <trkpt lat="48.42439" lon="-3.15914">
        <ele>396</ele>
        <time>2014-11-10T15:37:52.1Z</time>
      </trkpt>
      <trkpt lat="48.4244" lon="-3.15919">
        <ele>396</ele>
        <time>2014-11-10T15:37:55.1Z</time>
      </trkpt>
      <trkpt lat="48.4244" lon="-3.15922">
        <ele>396</ele>
        <time>2014-11-10T15:37:57.1Z</time>
      </trkpt>
      <trkpt lat="48.4244" lon="-3.15928">
        <ele>396</ele>
        <time>2014-11-10T15:38:00.1Z</time>
      </trkpt>
      <trkpt lat="48.42441" lon="-3.15932">
        <ele>396</ele>
        <time>2014-11-10T15:38:02.1Z</time>
      </trkpt>
      <trkpt lat="48.42442" lon="-3.15937">
        <ele>396</ele>
        <time>2014-11-10T15:38:05.1Z</time>
      </trkpt>
      <trkpt lat="48.42442" lon="-3.15942">
        <ele>396</ele>
        <time>2014-11-10T15:38:08.1Z</time>
      </trkpt>
      <trkpt lat="48.42443" lon="-3.15946">
        <ele>396</ele>
        <time>2014-11-10T15:38:10.1Z</time>
      </trkpt>
      <trkpt lat="48.42444" lon="-3.15951">
        <ele>396</ele>
        <time>2014-11-10T15:38:13.1Z</time>
      </trkpt>
      <trkpt lat="48.42445" lon="-3.15956">
        <ele>396</ele>
        <time>2014-11-10T15:38:16.1Z</time>
      </trkpt>
      <trkpt lat="48.42445" lon="-3.1596">
        <ele>396</ele>
        <time>2014-11-10T15:38:18.1Z</time>
      </trkpt>
      <trkpt lat="48.42446" lon="-3.15965">
        <ele>396</ele>
        <time>2014-11-10T15:38:21.1Z</time>
      </trkpt>
      <trkpt lat="48.42447" lon="-3.15971">
        <ele>396</ele>
        <time>2014-11-10T15:38:24.1Z</time>
      </trkpt>
      <trkpt lat="48.42448" lon="-3.15977">
        <ele>396</ele>
        <time>2014-11-10T15:38:27.1Z</time>
      </trkpt>
      <trkpt lat="48.42449" lon="-3.15981">
        <ele>396</ele>
        <time>2014-11-10T15:38:29.1Z</time>
      </trkpt>
      <trkpt lat="48.42449" lon="-3.15985">
        <ele>396</ele>
        <time>2014-11-10T15:38:31.1Z</time>
      </trkpt>
      <trkpt lat="48.4245" lon="-3.1599">
        <ele>397</ele>
        <time>2014-11-10T15:38:34.1Z</time>
      </trkpt>
      <trkpt lat="48.42451" lon="-3.15994">
        <ele>397</ele>
        <time>2014-11-10T15:38:36.1Z</time>
      </trkpt>
      <trkpt lat="48.42452" lon="-3.15998">
        <ele>397</ele>
        <time>2014-11-10T15:38:38.1Z</time>
      </trkpt>
      <trkpt lat="48.42454" lon="-3.16003">
        <ele>397</ele>
        <time>2014-11-10T15:38:41.1Z</time>
      </trkpt>
      <trkpt lat="48.42456" lon="-3.16006">
        <ele>397</ele>
        <time>2014-11-10T15:38:44.1Z</time>
      </trkpt>
      <trkpt lat="48.4246" lon="-3.16008">
        <ele>397</ele>
        <time>2014-11-10T15:38:47.1Z</time>
      </trkpt>
      <trkpt lat="48.42463" lon="-3.16008">
        <ele>398</ele>
        <time>2014-11-10T15:38:50.1Z</time>
      </trkpt>
      <trkpt lat="48.42465" lon="-3.16008">
        <ele>398</ele>
        <time>2014-11-10T15:38:52.1Z</time>
      </trkpt>
      <trkpt lat="48.42468" lon="-3.16007">
        <ele>398</ele>
        <time>2014-11-10T15:38:55.1Z</time>
      </trkpt>
      <trkpt lat="48.4247" lon="-3.16006">
        <ele>398</ele>
        <time>2014-11-10T15:38:57.1Z</time>
      </trkpt>
      <trkpt lat="48.42472" lon="-3.16005">
        <ele>398</ele>
        <time>2014-11-10T15:38:59.1Z</time>
      </trkpt>
      <trkpt lat="48.42475" lon="-3.16003">
        <ele>398</ele>
        <time>2014-11-10T15:39:02.1Z</time>
      </trkpt>
      <trkpt lat="48.42478" lon="-3.16002">
        <ele>398</ele>
        <time>2014-11-10T15:39:05.1Z</time>
      </trkpt>
      <trkpt lat="48.42482" lon="-3.15998">
        <ele>398</ele>
        <time>2014-11-10T15:39:08.1Z</time>
      </trkpt>
      <trkpt lat="48.42485" lon="-3.15996">
        <ele>398</ele>
        <time>2014-11-10T15:39:11.1Z</time>
      </trkpt>
      <trkpt lat="48.42485" lon="-3.15995">
        <ele>397</ele>
        <time>2014-11-10T15:39:13.1Z</time>
      </trkpt>
      <trkpt lat="48.42488" lon="-3.15993">
        <ele>397</ele>
        <time>2014-11-10T15:39:16.1Z</time>
      </trkpt>
      <trkpt lat="48.42491" lon="-3.15992">
        <ele>397</ele>
        <time>2014-11-10T15:39:19.1Z</time>
      </trkpt>
      <trkpt lat="48.42493" lon="-3.1599">
        <ele>398</ele>
        <time>2014-11-10T15:39:21.1Z</time>
      </trkpt>
      <trkpt lat="48.42496" lon="-3.15989">
        <ele>398</ele>
        <time>2014-11-10T15:39:24.1Z</time>
      </trkpt>
      <trkpt lat="48.42498" lon="-3.15987">
        <ele>398</ele>
        <time>2014-11-10T15:39:26.1Z</time>
      </trkpt>
      <trkpt lat="48.42501" lon="-3.15985">
        <ele>398</ele>
        <time>2014-11-10T15:39:29.1Z</time>
      </trkpt>
      <trkpt lat="48.42504" lon="-3.15984">
        <ele>398</ele>
        <time>2014-11-10T15:39:32.1Z</time>
      </trkpt>
      <trkpt lat="48.42507" lon="-3.15982">
        <ele>398</ele>
        <time>2014-11-10T15:39:35.1Z</time>
      </trkpt>
      <trkpt lat="48.42511" lon="-3.1598">
        <ele>398</ele>
        <time>2014-11-10T15:39:38.1Z</time>
      </trkpt>
      <trkpt lat="48.42513" lon="-3.15979">
        <ele>398</ele>
        <time>2014-11-10T15:39:40.1Z</time>
      </trkpt>
      <trkpt lat="48.42516" lon="-3.15977">
        <ele>398</ele>
        <time>2014-11-10T15:39:43.1Z</time>
      </trkpt>
      <trkpt lat="48.42519" lon="-3.15976">
        <ele>398</ele>
        <time>2014-11-10T15:39:45.1Z</time>
      </trkpt>
      <trkpt lat="48.42521" lon="-3.15975">
        <ele>398</ele>
        <time>2014-11-10T15:39:47.1Z</time>
      </trkpt>
      <trkpt lat="48.42524" lon="-3.15973">
        <ele>398</ele>
        <time>2014-11-10T15:39:50.1Z</time>
      </trkpt>
      <trkpt lat="48.42527" lon="-3.15972">
        <ele>398</ele>
        <time>2014-11-10T15:39:52.1Z</time>
      </trkpt>
      <trkpt lat="48.4253" lon="-3.1597">
        <ele>399</ele>
        <time>2014-11-10T15:39:55.1Z</time>
      </trkpt>
      <trkpt lat="48.42533" lon="-3.15967">
        <ele>399</ele>
        <time>2014-11-10T15:39:58.1Z</time>
      </trkpt>
      <trkpt lat="48.42536" lon="-3.15965">
        <ele>399</ele>
        <time>2014-11-10T15:40:01.1Z</time>
      </trkpt>
      <trkpt lat="48.42537" lon="-3.15963">
        <ele>399</ele>
        <time>2014-11-10T15:40:03.1Z</time>
      </trkpt>
      <trkpt lat="48.42539" lon="-3.15962">
        <ele>398</ele>
        <time>2014-11-10T15:40:05.1Z</time>
      </trkpt>
      <trkpt lat="48.42541" lon="-3.1596">
        <ele>399</ele>
        <time>2014-11-10T15:40:07.1Z</time>
      </trkpt>
      <trkpt lat="48.42545" lon="-3.15958">
        <ele>399</ele>
        <time>2014-11-10T15:40:10.1Z</time>
      </trkpt>
      <trkpt lat="48.42547" lon="-3.15958">
        <ele>399</ele>
        <time>2014-11-10T15:40:12.1Z</time>
      </trkpt>
      <trkpt lat="48.42549" lon="-3.15958">
        <ele>399</ele>
        <time>2014-11-10T15:40:14.1Z</time>
      </trkpt>
      <trkpt lat="48.42551" lon="-3.15959">
        <ele>399</ele>
        <time>2014-11-10T15:40:16.1Z</time>
      </trkpt>
      <trkpt lat="48.42554" lon="-3.15962">
        <ele>399</ele>
        <time>2014-11-10T15:40:19.1Z</time>
      </trkpt>
      <trkpt lat="48.42556" lon="-3.15966">
        <ele>399</ele>
        <time>2014-11-10T15:40:22.1Z</time>
      </trkpt>
      <trkpt lat="48.42558" lon="-3.15971">
        <ele>400</ele>
        <time>2014-11-10T15:40:25.1Z</time>
      </trkpt>
      <trkpt lat="48.42559" lon="-3.15976">
        <ele>399</ele>
        <time>2014-11-10T15:40:28.1Z</time>
      </trkpt>
      <trkpt lat="48.4256" lon="-3.15979">
        <ele>400</ele>
        <time>2014-11-10T15:40:30.1Z</time>
      </trkpt>
      <trkpt lat="48.42562" lon="-3.15985">
        <ele>400</ele>
        <time>2014-11-10T15:40:33.1Z</time>
      </trkpt>
      <trkpt lat="48.42563" lon="-3.15989">
        <ele>400</ele>
        <time>2014-11-10T15:40:36.1Z</time>
      </trkpt>
      <trkpt lat="48.42564" lon="-3.15992">
        <ele>401</ele>
        <time>2014-11-10T15:40:38.1Z</time>
      </trkpt>
      <trkpt lat="48.42566" lon="-3.15996">
        <ele>401</ele>
        <time>2014-11-10T15:40:41.1Z</time>
      </trkpt>
      <trkpt lat="48.42568" lon="-3.16001">
        <ele>401</ele>
        <time>2014-11-10T15:40:44.1Z</time>
      </trkpt>
      <trkpt lat="48.42569" lon="-3.16004">
        <ele>401</ele>
        <time>2014-11-10T15:40:47.1Z</time>
      </trkpt>
      <trkpt lat="48.42571" lon="-3.16009">
        <ele>401</ele>
        <time>2014-11-10T15:40:50.1Z</time>
      </trkpt>
      <trkpt lat="48.42572" lon="-3.16012">
        <ele>401</ele>
        <time>2014-11-10T15:40:52.1Z</time>
      </trkpt>
      <trkpt lat="48.42574" lon="-3.16017">
        <ele>401</ele>
        <time>2014-11-10T15:40:55.1Z</time>
      </trkpt>
      <trkpt lat="48.42574" lon="-3.1602">
        <ele>402</ele>
        <time>2014-11-10T15:40:57.1Z</time>
      </trkpt>
      <trkpt lat="48.42576" lon="-3.16024">
        <ele>402</ele>
        <time>2014-11-10T15:41:00.1Z</time>
      </trkpt>
      <trkpt lat="48.42577" lon="-3.16029">
        <ele>402</ele>
        <time>2014-11-10T15:41:03.1Z</time>
      </trkpt>
      <trkpt lat="48.42578" lon="-3.16033">
        <ele>402</ele>
        <time>2014-11-10T15:41:05.1Z</time>
      </trkpt>
      <trkpt lat="48.4258" lon="-3.16037">
        <ele>402</ele>
        <time>2014-11-10T15:41:08.1Z</time>
      </trkpt>
      <trkpt lat="48.42581" lon="-3.1604">
        <ele>402</ele>
        <time>2014-11-10T15:41:10.1Z</time>
      </trkpt>
      <trkpt lat="48.42582" lon="-3.16043">
        <ele>402</ele>
        <time>2014-11-10T15:41:12.1Z</time>
      </trkpt>
      <trkpt lat="48.42584" lon="-3.16048">
        <ele>402</ele>
        <time>2014-11-10T15:41:15.1Z</time>
      </trkpt>
      <trkpt lat="48.42585" lon="-3.16051">
        <ele>403</ele>
        <time>2014-11-10T15:41:17.1Z</time>
      </trkpt>
      <trkpt lat="48.42588" lon="-3.16055">
        <ele>403</ele>
        <time>2014-11-10T15:41:20.1Z</time>
      </trkpt>
      <trkpt lat="48.42591" lon="-3.16059">
        <ele>403</ele>
        <time>2014-11-10T15:41:23.1Z</time>
      </trkpt>
      <trkpt lat="48.42595" lon="-3.16062">
        <ele>403</ele>
        <time>2014-11-10T15:41:26.1Z</time>
      </trkpt>
      <trkpt lat="48.42599" lon="-3.16064">
        <ele>403</ele>
        <time>2014-11-10T15:41:29.1Z</time>
      </trkpt>
      <trkpt lat="48.42602" lon="-3.16065">
        <ele>403</ele>
        <time>2014-11-10T15:41:31.1Z</time>
      </trkpt>
      <trkpt lat="48.42606" lon="-3.16066">
        <ele>404</ele>
        <time>2014-11-10T15:41:34.1Z</time>
      </trkpt>
      <trkpt lat="48.42608" lon="-3.16066">
        <ele>404</ele>
        <time>2014-11-10T15:41:36.1Z</time>
      </trkpt>
      <trkpt lat="48.42611" lon="-3.16066">
        <ele>404</ele>
        <time>2014-11-10T15:41:39.1Z</time>
      </trkpt>
      <trkpt lat="48.42615" lon="-3.16066">
        <ele>404</ele>
        <time>2014-11-10T15:41:42.1Z</time>
      </trkpt>
      <trkpt lat="48.42618" lon="-3.16066">
        <ele>404</ele>
        <time>2014-11-10T15:41:45.1Z</time>
      </trkpt>
      <trkpt lat="48.42622" lon="-3.16066">
        <ele>404</ele>
        <time>2014-11-10T15:41:48.1Z</time>
      </trkpt>
      <trkpt lat="48.42624" lon="-3.16066">
        <ele>404</ele>
        <time>2014-11-10T15:41:50.1Z</time>
      </trkpt>
      <trkpt lat="48.42626" lon="-3.16067">
        <ele>404</ele>
        <time>2014-11-10T15:41:53.1Z</time>
      </trkpt>
      <trkpt lat="48.4263" lon="-3.16068">
        <ele>404</ele>
        <time>2014-11-10T15:41:55.1Z</time>
      </trkpt>
      <trkpt lat="48.42633" lon="-3.16068">
        <ele>404</ele>
        <time>2014-11-10T15:41:57.1Z</time>
      </trkpt>
      <trkpt lat="48.42636" lon="-3.16068">
        <ele>404</ele>
        <time>2014-11-10T15:42:00.1Z</time>
      </trkpt>
      <trkpt lat="48.4264" lon="-3.16069">
        <ele>404</ele>
        <time>2014-11-10T15:42:03.1Z</time>
      </trkpt>
      <trkpt lat="48.42644" lon="-3.16069">
        <ele>403</ele>
        <time>2014-11-10T15:42:06.1Z</time>
      </trkpt>
      <trkpt lat="48.42648" lon="-3.16069">
        <ele>404</ele>
        <time>2014-11-10T15:42:09.1Z</time>
      </trkpt>
      <trkpt lat="48.4265" lon="-3.16069">
        <ele>403</ele>
        <time>2014-11-10T15:42:11.1Z</time>
      </trkpt>
      <trkpt lat="48.42653" lon="-3.16069">
        <ele>403</ele>
        <time>2014-11-10T15:42:13.1Z</time>
      </trkpt>
      <trkpt lat="48.42657" lon="-3.1607">
        <ele>403</ele>
        <time>2014-11-10T15:42:16.1Z</time>
      </trkpt>
      <trkpt lat="48.42661" lon="-3.16071">
        <ele>403</ele>
        <time>2014-11-10T15:42:19.1Z</time>
      </trkpt>
      <trkpt lat="48.42664" lon="-3.16072">
        <ele>404</ele>
        <time>2014-11-10T15:42:22.1Z</time>
      </trkpt>
      <trkpt lat="48.42668" lon="-3.16072">
        <ele>404</ele>
        <time>2014-11-10T15:42:25.1Z</time>
      </trkpt>
      <trkpt lat="48.42671" lon="-3.16072">
        <ele>403</ele>
        <time>2014-11-10T15:42:27.1Z</time>
      </trkpt>
      <trkpt lat="48.42675" lon="-3.16072">
        <ele>403</ele>
        <time>2014-11-10T15:42:30.1Z</time>
      </trkpt>
      <trkpt lat="48.42678" lon="-3.16072">
        <ele>404</ele>
        <time>2014-11-10T15:42:32.1Z</time>
      </trkpt>
      <trkpt lat="48.42681" lon="-3.16073">
        <ele>403</ele>
        <time>2014-11-10T15:42:35.1Z</time>
      </trkpt>
      <trkpt lat="48.42684" lon="-3.16073">
        <ele>403</ele>
        <time>2014-11-10T15:42:37.1Z</time>
      </trkpt>
      <trkpt lat="48.42688" lon="-3.16074">
        <ele>404</ele>
        <time>2014-11-10T15:42:40.1Z</time>
      </trkpt>
      <trkpt lat="48.42692" lon="-3.16074">
        <ele>404</ele>
        <time>2014-11-10T15:42:43.1Z</time>
      </trkpt>
      <trkpt lat="48.42694" lon="-3.16074">
        <ele>404</ele>
        <time>2014-11-10T15:42:45.1Z</time>
      </trkpt>
      <trkpt lat="48.42698" lon="-3.16075">
        <ele>404</ele>
        <time>2014-11-10T15:42:48.1Z</time>
      </trkpt>
      <trkpt lat="48.42701" lon="-3.16075">
        <ele>404</ele>
        <time>2014-11-10T15:42:50.1Z</time>
      </trkpt>
      <trkpt lat="48.42703" lon="-3.16075">
        <ele>404</ele>
        <time>2014-11-10T15:42:52.1Z</time>
      </trkpt>
      <trkpt lat="48.42707" lon="-3.16076">
        <ele>404</ele>
        <time>2014-11-10T15:42:55.1Z</time>
      </trkpt>
      <trkpt lat="48.4271" lon="-3.16076">
        <ele>404</ele>
        <time>2014-11-10T15:42:57.1Z</time>
      </trkpt>
      <trkpt lat="48.42714" lon="-3.16076">
        <ele>404</ele>
        <time>2014-11-10T15:43:00.1Z</time>
      </trkpt>
      <trkpt lat="48.42717" lon="-3.16077">
        <ele>405</ele>
        <time>2014-11-10T15:43:03.1Z</time>
      </trkpt>
      <trkpt lat="48.4272" lon="-3.16077">
        <ele>405</ele>
        <time>2014-11-10T15:43:05.1Z</time>
      </trkpt>
      <trkpt lat="48.42722" lon="-3.16077">
        <ele>406</ele>
        <time>2014-11-10T15:43:07.1Z</time>
      </trkpt>
      <trkpt lat="48.42727" lon="-3.16077">
        <ele>406</ele>
        <time>2014-11-10T15:43:10.1Z</time>
      </trkpt>
      <trkpt lat="48.4273" lon="-3.16077">
        <ele>406</ele>
        <time>2014-11-10T15:43:13.1Z</time>
      </trkpt>
      <trkpt lat="48.42733" lon="-3.16078">
        <ele>406</ele>
        <time>2014-11-10T15:43:15.1Z</time>
      </trkpt>
      <trkpt lat="48.42737" lon="-3.16078">
        <ele>407</ele>
        <time>2014-11-10T15:43:18.1Z</time>
      </trkpt>
      <trkpt lat="48.42741" lon="-3.16078">
        <ele>407</ele>
        <time>2014-11-10T15:43:21.1Z</time>
      </trkpt>
      <trkpt lat="48.42745" lon="-3.16078">
        <ele>407</ele>
        <time>2014-11-10T15:43:24.1Z</time>
      </trkpt>
      <trkpt lat="48.42748" lon="-3.16079">
        <ele>407</ele>
        <time>2014-11-10T15:43:27.1Z</time>
      </trkpt>
      <trkpt lat="48.42751" lon="-3.1608">
        <ele>407</ele>
        <time>2014-11-10T15:43:29.1Z</time>
      </trkpt>
      <trkpt lat="48.42754" lon="-3.1608">
        <ele>407</ele>
        <time>2014-11-10T15:43:31.1Z</time>
      </trkpt>
      <trkpt lat="48.42756" lon="-3.1608">
        <ele>407</ele>
        <time>2014-11-10T15:43:33.1Z</time>
      </trkpt>
      <trkpt lat="48.4276" lon="-3.16081">
        <ele>407</ele>
        <time>2014-11-10T15:43:36.1Z</time>
      </trkpt>
      <trkpt lat="48.42764" lon="-3.16081">
        <ele>406</ele>
        <time>2014-11-10T15:43:39.1Z</time>
      </trkpt>
      <trkpt lat="48.42766" lon="-3.16081">
        <ele>406</ele>
        <time>2014-11-10T15:43:41.1Z</time>
      </trkpt>
      <trkpt lat="48.42769" lon="-3.16082">
        <ele>406</ele>
        <time>2014-11-10T15:43:43.1Z</time>
      </trkpt>
      <trkpt lat="48.42771" lon="-3.16082">
        <ele>406</ele>
        <time>2014-11-10T15:43:45.1Z</time>
      </trkpt>
      <trkpt lat="48.42775" lon="-3.16082">
        <ele>406</ele>
        <time>2014-11-10T15:43:48.1Z</time>
      </trkpt>
      <trkpt lat="48.42777" lon="-3.16083">
        <ele>406</ele>
        <time>2014-11-10T15:43:50.1Z</time>
      </trkpt>
      <trkpt lat="48.42781" lon="-3.16083">
        <ele>406</ele>
        <time>2014-11-10T15:43:53.1Z</time>
      </trkpt>
      <trkpt lat="48.42783" lon="-3.16084">
        <ele>406</ele>
        <time>2014-11-10T15:43:55.1Z</time>
      </trkpt>
      <trkpt lat="48.42786" lon="-3.16084">
        <ele>405</ele>
        <time>2014-11-10T15:43:57.1Z</time>
      </trkpt>
      <trkpt lat="48.4279" lon="-3.16085">
        <ele>406</ele>
        <time>2014-11-10T15:44:00.1Z</time>
      </trkpt>
      <trkpt lat="48.42794" lon="-3.16085">
        <ele>406</ele>
        <time>2014-11-10T15:44:03.1Z</time>
      </trkpt>
      <trkpt lat="48.42797" lon="-3.16086">
        <ele>406</ele>
        <time>2014-11-10T15:44:05.1Z</time>
      </trkpt>
      <trkpt lat="48.42801" lon="-3.16087">
        <ele>406</ele>
        <time>2014-11-10T15:44:08.1Z</time>
      </trkpt>
      <trkpt lat="48.42804" lon="-3.16087">
        <ele>406</ele>
        <time>2014-11-10T15:44:10.1Z</time>
      </trkpt>
      <trkpt lat="48.42807" lon="-3.16087">
        <ele>405</ele>
        <time>2014-11-10T15:44:12.1Z</time>
      </trkpt>
      <trkpt lat="48.4281" lon="-3.16087">
        <ele>405</ele>
        <time>2014-11-10T15:44:15.1Z</time>
      </trkpt>
      <trkpt lat="48.42814" lon="-3.16088">
        <ele>406</ele>
        <time>2014-11-10T15:44:18.1Z</time>
      </trkpt>
      <trkpt lat="48.42818" lon="-3.16088">
        <ele>406</ele>
        <time>2014-11-10T15:44:21.1Z</time>
      </trkpt>
      <trkpt lat="48.42822" lon="-3.16089">
        <ele>406</ele>
        <time>2014-11-10T15:44:24.1Z</time>
      </trkpt>
      <trkpt lat="48.42826" lon="-3.1609">
        <ele>406</ele>
        <time>2014-11-10T15:44:27.1Z</time>
      </trkpt>
      <trkpt lat="48.42828" lon="-3.1609">
        <ele>406</ele>
        <time>2014-11-10T15:44:29.1Z</time>
      </trkpt>
      <trkpt lat="48.42831" lon="-3.1609">
        <ele>406</ele>
        <time>2014-11-10T15:44:31.1Z</time>
      </trkpt>
      <trkpt lat="48.42835" lon="-3.1609">
        <ele>406</ele>
        <time>2014-11-10T15:44:34.1Z</time>
      </trkpt>
      <trkpt lat="48.42838" lon="-3.16091">
        <ele>406</ele>
        <time>2014-11-10T15:44:36.1Z</time>
      </trkpt>
      <trkpt lat="48.42841" lon="-3.16092">
        <ele>405</ele>
        <time>2014-11-10T15:44:39.1Z</time>
      </trkpt>
      <trkpt lat="48.42844" lon="-3.16092">
        <ele>405</ele>
        <time>2014-11-10T15:44:41.1Z</time>
      </trkpt>
      <trkpt lat="48.42846" lon="-3.16092">
        <ele>406</ele>
        <time>2014-11-10T15:44:43.1Z</time>
      </trkpt>
      <trkpt lat="48.42849" lon="-3.16093">
        <ele>406</ele>
        <time>2014-11-10T15:44:45.1Z</time>
      </trkpt>
      <trkpt lat="48.42853" lon="-3.16093">
        <ele>406</ele>
        <time>2014-11-10T15:44:48.1Z</time>
      </trkpt>
      <trkpt lat="48.42857" lon="-3.16094">
        <ele>406</ele>
        <time>2014-11-10T15:44:51.1Z</time>
      </trkpt>
      <trkpt lat="48.4286" lon="-3.16095">
        <ele>405</ele>
        <time>2014-11-10T15:44:54.1Z</time>
      </trkpt>
      <trkpt lat="48.42864" lon="-3.16095">
        <ele>405</ele>
        <time>2014-11-10T15:44:57.1Z</time>
      </trkpt>
      <trkpt lat="48.42868" lon="-3.16096">
        <ele>405</ele>
        <time>2014-11-10T15:45:00.1Z</time>
      </trkpt>
      <trkpt lat="48.42872" lon="-3.16097">
        <ele>405</ele>
        <time>2014-11-10T15:45:03.1Z</time>
      </trkpt>
      <trkpt lat="48.42874" lon="-3.16097">
        <ele>404</ele>
        <time>2014-11-10T15:45:05.1Z</time>
      </trkpt>
      <trkpt lat="48.42876" lon="-3.16098">
        <ele>405</ele>
        <time>2014-11-10T15:45:07.1Z</time>
      </trkpt>
      <trkpt lat="48.4288" lon="-3.16098">
        <ele>404</ele>
        <time>2014-11-10T15:45:10.1Z</time>
      </trkpt>
      <trkpt lat="48.42883" lon="-3.16099">
        <ele>404</ele>
        <time>2014-11-10T15:45:13.1Z</time>
      </trkpt>
      <trkpt lat="48.42887" lon="-3.16099">
        <ele>404</ele>
        <time>2014-11-10T15:45:16.1Z</time>
      </trkpt>
      <trkpt lat="48.4289" lon="-3.161">
        <ele>404</ele>
        <time>2014-11-10T15:45:18.1Z</time>
      </trkpt>
      <trkpt lat="48.42894" lon="-3.161">
        <ele>404</ele>
        <time>2014-11-10T15:45:21.1Z</time>
      </trkpt>
      <trkpt lat="48.42896" lon="-3.16101">
        <ele>404</ele>
        <time>2014-11-10T15:45:23.1Z</time>
      </trkpt>
      <trkpt lat="48.429" lon="-3.16102">
        <ele>404</ele>
        <time>2014-11-10T15:45:26.1Z</time>
      </trkpt>
      <trkpt lat="48.42903" lon="-3.16102">
        <ele>404</ele>
        <time>2014-11-10T15:45:28.1Z</time>
      </trkpt>
      <trkpt lat="48.42907" lon="-3.16103">
        <ele>404</ele>
        <time>2014-11-10T15:45:31.1Z</time>
      </trkpt>
      <trkpt lat="48.4291" lon="-3.16103">
        <ele>403</ele>
        <time>2014-11-10T15:45:33.1Z</time>
      </trkpt>
      <trkpt lat="48.42914" lon="-3.16103">
        <ele>403</ele>
        <time>2014-11-10T15:45:36.1Z</time>
      </trkpt>
      <trkpt lat="48.42918" lon="-3.16104">
        <ele>403</ele>
        <time>2014-11-10T15:45:39.1Z</time>
      </trkpt>
      <trkpt lat="48.4292" lon="-3.16104">
        <ele>403</ele>
        <time>2014-11-10T15:45:41.1Z</time>
      </trkpt>
      <trkpt lat="48.42924" lon="-3.16104">
        <ele>403</ele>
        <time>2014-11-10T15:45:44.1Z</time>
      </trkpt>
      <trkpt lat="48.42927" lon="-3.16105">
        <ele>403</ele>
        <time>2014-11-10T15:45:46.1Z</time>
      </trkpt>
      <trkpt lat="48.4293" lon="-3.16106">
        <ele>402</ele>
        <time>2014-11-10T15:45:49.1Z</time>
      </trkpt>
      <trkpt lat="48.42933" lon="-3.16109">
        <ele>402</ele>
        <time>2014-11-10T15:45:52.1Z</time>
      </trkpt>
      <trkpt lat="48.42936" lon="-3.16113">
        <ele>402</ele>
        <time>2014-11-10T15:45:55.1Z</time>
      </trkpt>
      <trkpt lat="48.42936" lon="-3.16115">
        <ele>402</ele>
        <time>2014-11-10T15:45:57.1Z</time>
      </trkpt>
      <trkpt lat="48.42936" lon="-3.1612">
        <ele>401</ele>
        <time>2014-11-10T15:46:00.1Z</time>
      </trkpt>
      <trkpt lat="48.42936" lon="-3.16126">
        <ele>401</ele>
        <time>2014-11-10T15:46:03.1Z</time>
      </trkpt>
      <trkpt lat="48.42935" lon="-3.16129">
        <ele>402</ele>
        <time>2014-11-10T15:46:05.1Z</time>
      </trkpt>
      <trkpt lat="48.42933" lon="-3.16135">
        <ele>402</ele>
        <time>2014-11-10T15:46:08.1Z</time>
      </trkpt>
      <trkpt lat="48.42932" lon="-3.16139">
        <ele>402</ele>
        <time>2014-11-10T15:46:10.1Z</time>
      </trkpt>
      <trkpt lat="48.42931" lon="-3.16144">
        <ele>403</ele>
        <time>2014-11-10T15:46:13.1Z</time>
      </trkpt>
      <trkpt lat="48.42929" lon="-3.16149">
        <ele>403</ele>
        <time>2014-11-10T15:46:16.1Z</time>
      </trkpt>
      <trkpt lat="48.42928" lon="-3.16153">
        <ele>403</ele>
        <time>2014-11-10T15:46:18.1Z</time>
      </trkpt>
      <trkpt lat="48.42926" lon="-3.16157">
        <ele>403</ele>
        <time>2014-11-10T15:46:21.1Z</time>
      </trkpt>
      <trkpt lat="48.42926" lon="-3.16161">
        <ele>403</ele>
        <time>2014-11-10T15:46:23.1Z</time>
      </trkpt>
      <trkpt lat="48.42924" lon="-3.16164">
        <ele>403</ele>
        <time>2014-11-10T15:46:25.1Z</time>
      </trkpt>
      <trkpt lat="48.42923" lon="-3.1617">
        <ele>403</ele>
        <time>2014-11-10T15:46:28.1Z</time>
      </trkpt>
      <trkpt lat="48.42921" lon="-3.16175">
        <ele>403</ele>
        <time>2014-11-10T15:46:31.1Z</time>
      </trkpt>
      <trkpt lat="48.4292" lon="-3.16179">
        <ele>404</ele>
        <time>2014-11-10T15:46:34.1Z</time>
      </trkpt>
      <trkpt lat="48.42919" lon="-3.16184">
        <ele>404</ele>
        <time>2014-11-10T15:46:37.1Z</time>
      </trkpt>
      <trkpt lat="48.42918" lon="-3.16189">
        <ele>404</ele>
        <time>2014-11-10T15:46:40.1Z</time>
      </trkpt>
      <trkpt lat="48.42916" lon="-3.16194">
        <ele>403</ele>
        <time>2014-11-10T15:46:43.1Z</time>
      </trkpt>
      <trkpt lat="48.42915" lon="-3.16199">
        <ele>404</ele>
        <time>2014-11-10T15:46:46.1Z</time>
      </trkpt>
      <trkpt lat="48.42914" lon="-3.16204">
        <ele>404</ele>
        <time>2014-11-10T15:46:49.1Z</time>
      </trkpt>
      <trkpt lat="48.42913" lon="-3.16207">
        <ele>404</ele>
        <time>2014-11-10T15:46:52.1Z</time>
      </trkpt>
      <trkpt lat="48.42911" lon="-3.16212">
        <ele>403</ele>
        <time>2014-11-10T15:46:54.1Z</time>
      </trkpt>
      <trkpt lat="48.4291" lon="-3.16216">
        <ele>404</ele>
        <time>2014-11-10T15:46:56.1Z</time>
      </trkpt>
      <trkpt lat="48.42909" lon="-3.16221">
        <ele>404</ele>
        <time>2014-11-10T15:46:59.1Z</time>
      </trkpt>
      <trkpt lat="48.42908" lon="-3.16226">
        <ele>403</ele>
        <time>2014-11-10T15:47:02.1Z</time>
      </trkpt>
      <trkpt lat="48.42907" lon="-3.16231">
        <ele>403</ele>
        <time>2014-11-10T15:47:05.1Z</time>
      </trkpt>
      <trkpt lat="48.42905" lon="-3.16236">
        <ele>403</ele>
        <time>2014-11-10T15:47:08.1Z</time>
      </trkpt>
      <trkpt lat="48.42904" lon="-3.16239">
        <ele>404</ele>
        <time>2014-11-10T15:47:10.1Z</time>
      </trkpt>
      <trkpt lat="48.42903" lon="-3.16244">
        <ele>404</ele>
        <time>2014-11-10T15:47:13.1Z</time>
      </trkpt>
      <trkpt lat="48.42901" lon="-3.16249">
        <ele>404</ele>
        <time>2014-11-10T15:47:16.1Z</time>
      </trkpt>
      <trkpt lat="48.429" lon="-3.16254">
        <ele>404</ele>
        <time>2014-11-10T15:47:19.1Z</time>
      </trkpt>
      <trkpt lat="48.42899" lon="-3.16258">
        <ele>404</ele>
        <time>2014-11-10T15:47:21.1Z</time>
      </trkpt>
      <trkpt lat="48.42898" lon="-3.16261">
        <ele>403</ele>
        <time>2014-11-10T15:47:23.1Z</time>
      </trkpt>
      <trkpt lat="48.42897" lon="-3.16266">
        <ele>403</ele>
        <time>2014-11-10T15:47:26.1Z</time>
      </trkpt>
      <trkpt lat="48.42896" lon="-3.16269">
        <ele>403</ele>
        <time>2014-11-10T15:47:28.1Z</time>
      </trkpt>
      <trkpt lat="48.42894" lon="-3.16272">
        <ele>403</ele>
        <time>2014-11-10T15:47:30.1Z</time>
      </trkpt>
      <trkpt lat="48.42893" lon="-3.16277">
        <ele>403</ele>
        <time>2014-11-10T15:47:33.1Z</time>
      </trkpt>
      <trkpt lat="48.42891" lon="-3.16282">
        <ele>403</ele>
        <time>2014-11-10T15:47:36.1Z</time>
      </trkpt>
      <trkpt lat="48.4289" lon="-3.16287">
        <ele>403</ele>
        <time>2014-11-10T15:47:39.1Z</time>
      </trkpt>
      <trkpt lat="48.42888" lon="-3.16292">
        <ele>403</ele>
        <time>2014-11-10T15:47:42.1Z</time>
      </trkpt>
      <trkpt lat="48.42887" lon="-3.16296">
        <ele>404</ele>
        <time>2014-11-10T15:47:44.1Z</time>
      </trkpt>
      <trkpt lat="48.42886" lon="-3.16301">
        <ele>404</ele>
        <time>2014-11-10T15:47:47.1Z</time>
      </trkpt>
      <trkpt lat="48.42885" lon="-3.16304">
        <ele>404</ele>
        <time>2014-11-10T15:47:49.1Z</time>
      </trkpt>
      <trkpt lat="48.42884" lon="-3.16307">
        <ele>404</ele>
        <time>2014-11-10T15:47:51.1Z</time>
      </trkpt>
      <trkpt lat="48.42883" lon="-3.16311">
        <ele>404</ele>
        <time>2014-11-10T15:47:53.1Z</time>
      </trkpt>
      <trkpt lat="48.42882" lon="-3.16316">
        <ele>404</ele>
        <time>2014-11-10T15:47:56.1Z</time>
      </trkpt>
      <trkpt lat="48.42881" lon="-3.16321">
        <ele>404</ele>
        <time>2014-11-10T15:47:59.1Z</time>
      </trkpt>
      <trkpt lat="48.42879" lon="-3.16324">
        <ele>404</ele>
        <time>2014-11-10T15:48:01.1Z</time>
      </trkpt>
      <trkpt lat="48.42878" lon="-3.16329">
        <ele>404</ele>
        <time>2014-11-10T15:48:04.1Z</time>
      </trkpt>
      <trkpt lat="48.42877" lon="-3.16332">
        <ele>404</ele>
        <time>2014-11-10T15:48:06.1Z</time>
      </trkpt>
      <trkpt lat="48.42876" lon="-3.16336">
        <ele>404</ele>
        <time>2014-11-10T15:48:09.1Z</time>
      </trkpt>
      <trkpt lat="48.42875" lon="-3.16339">
        <ele>404</ele>
        <time>2014-11-10T15:48:11.1Z</time>
      </trkpt>
      <trkpt lat="48.42873" lon="-3.16344">
        <ele>404</ele>
        <time>2014-11-10T15:48:14.1Z</time>
      </trkpt>
      <trkpt lat="48.42871" lon="-3.16349">
        <ele>404</ele>
        <time>2014-11-10T15:48:17.1Z</time>
      </trkpt>
      <trkpt lat="48.4287" lon="-3.16354">
        <ele>404</ele>
        <time>2014-11-10T15:48:20.1Z</time>
      </trkpt>
      <trkpt lat="48.42868" lon="-3.1636">
        <ele>404</ele>
        <time>2014-11-10T15:48:23.1Z</time>
      </trkpt>
      <trkpt lat="48.42867" lon="-3.16363">
        <ele>404</ele>
        <time>2014-11-10T15:48:25.1Z</time>
      </trkpt>
      <trkpt lat="48.42865" lon="-3.16368">
        <ele>404</ele>
        <time>2014-11-10T15:48:28.1Z</time>
      </trkpt>
      <trkpt lat="48.42864" lon="-3.16372">
        <ele>404</ele>
        <time>2014-11-10T15:48:30.1Z</time>
      </trkpt>
      <trkpt lat="48.42862" lon="-3.16377">
        <ele>404</ele>
        <time>2014-11-10T15:48:33.1Z</time>
      </trkpt>
      <trkpt lat="48.42861" lon="-3.1638">
        <ele>404</ele>
        <time>2014-11-10T15:48:35.1Z</time>
      </trkpt>
      <trkpt lat="48.4286" lon="-3.16384">
        <ele>404</ele>
        <time>2014-11-10T15:48:37.1Z</time>
      </trkpt>
      <trkpt lat="48.42859" lon="-3.16389">
        <ele>404</ele>
        <time>2014-11-10T15:48:40.1Z</time>
      </trkpt>
      <trkpt lat="48.42857" lon="-3.16394">
        <ele>404</ele>
        <time>2014-11-10T15:48:43.1Z</time>
      </trkpt>
      <trkpt lat="48.42856" lon="-3.16398">
        <ele>404</ele>
        <time>2014-11-10T15:48:45.1Z</time>
      </trkpt>
      <trkpt lat="48.42854" lon="-3.16404">
        <ele>404</ele>
        <time>2014-11-10T15:48:48.1Z</time>
      </trkpt>
      <trkpt lat="48.42853" lon="-3.16409">
        <ele>404</ele>
        <time>2014-11-10T15:48:51.1Z</time>
      </trkpt>
      <trkpt lat="48.42851" lon="-3.16414">
        <ele>403</ele>
        <time>2014-11-10T15:48:54.1Z</time>
      </trkpt>
      <trkpt lat="48.4285" lon="-3.16418">
        <ele>403</ele>
        <time>2014-11-10T15:48:56.1Z</time>
      </trkpt>
      <trkpt lat="48.42849" lon="-3.16423">
        <ele>403</ele>
        <time>2014-11-10T15:48:59.1Z</time>
      </trkpt>
      <trkpt lat="48.42848" lon="-3.16425">
        <ele>403</ele>
        <time>2014-11-10T15:49:01.1Z</time>
      </trkpt>
      <trkpt lat="48.42847" lon="-3.16428">
        <ele>403</ele>
        <time>2014-11-10T15:49:03.1Z</time>
      </trkpt>
      <trkpt lat="48.42846" lon="-3.16432">
        <ele>403</ele>
        <time>2014-11-10T15:49:06.1Z</time>
      </trkpt>
      <trkpt lat="48.42844" lon="-3.16438">
        <ele>402</ele>
        <time>2014-11-10T15:49:09.1Z</time>
      </trkpt>
      <trkpt lat="48.42843" lon="-3.16441">
        <ele>402</ele>
        <time>2014-11-10T15:49:11.1Z</time>
      </trkpt>
      <trkpt lat="48.42842" lon="-3.16444">
        <ele>401</ele>
        <time>2014-11-10T15:49:13.1Z</time>
      </trkpt>
      <trkpt lat="48.42839" lon="-3.16448">
        <ele>401</ele>
        <time>2014-11-10T15:49:16.1Z</time>
      </trkpt>
      <trkpt lat="48.42837" lon="-3.16451">
        <ele>401</ele>
        <time>2014-11-10T15:49:18.1Z</time>
      </trkpt>
      <trkpt lat="48.42834" lon="-3.16454">
        <ele>401</ele>
        <time>2014-11-10T15:49:21.1Z</time>
      </trkpt>
      <trkpt lat="48.42831" lon="-3.16456">
        <ele>401</ele>
        <time>2014-11-10T15:49:24.1Z</time>
      </trkpt>
      <trkpt lat="48.42829" lon="-3.16456">
        <ele>401</ele>
        <time>2014-11-10T15:49:26.1Z</time>
      </trkpt>
      <trkpt lat="48.42826" lon="-3.16456">
        <ele>401</ele>
        <time>2014-11-10T15:49:29.1Z</time>
      </trkpt>
      <trkpt lat="48.42823" lon="-3.16456">
        <ele>401</ele>
        <time>2014-11-10T15:49:31.1Z</time>
      </trkpt>
      <trkpt lat="48.4282" lon="-3.16455">
        <ele>401</ele>
        <time>2014-11-10T15:49:34.1Z</time>
      </trkpt>
      <trkpt lat="48.42816" lon="-3.16455">
        <ele>401</ele>
        <time>2014-11-10T15:49:37.1Z</time>
      </trkpt>
      <trkpt lat="48.42812" lon="-3.16454">
        <ele>401</ele>
        <time>2014-11-10T15:49:40.1Z</time>
      </trkpt>
      <trkpt lat="48.4281" lon="-3.16454">
        <ele>401</ele>
        <time>2014-11-10T15:49:42.1Z</time>
      </trkpt>
      <trkpt lat="48.42808" lon="-3.16453">
        <ele>401</ele>
        <time>2014-11-10T15:49:45.1Z</time>
      </trkpt>
      <trkpt lat="48.42804" lon="-3.16453">
        <ele>401</ele>
        <time>2014-11-10T15:49:47.1Z</time>
      </trkpt>
      <trkpt lat="48.42801" lon="-3.16452">
        <ele>401</ele>
        <time>2014-11-10T15:49:50.1Z</time>
      </trkpt>
      <trkpt lat="48.42797" lon="-3.16451">
        <ele>401</ele>
        <time>2014-11-10T15:49:53.1Z</time>
      </trkpt>
      <trkpt lat="48.42794" lon="-3.16451">
        <ele>402</ele>
        <time>2014-11-10T15:49:55.1Z</time>
      </trkpt>
      <trkpt lat="48.42791" lon="-3.1645">
        <ele>402</ele>
        <time>2014-11-10T15:49:58.1Z</time>
      </trkpt>
      <trkpt lat="48.42787" lon="-3.16449">
        <ele>402</ele>
        <time>2014-11-10T15:50:01.1Z</time>
      </trkpt>
      <trkpt lat="48.42783" lon="-3.16448">
        <ele>402</ele>
        <time>2014-11-10T15:50:04.1Z</time>
      </trkpt>
      <trkpt lat="48.4278" lon="-3.16448">
        <ele>402</ele>
        <time>2014-11-10T15:50:06.1Z</time>
      </trkpt>
      <trkpt lat="48.42777" lon="-3.16448">
        <ele>402</ele>
        <time>2014-11-10T15:50:08.1Z</time>
      </trkpt>
      <trkpt lat="48.42773" lon="-3.16448">
        <ele>402</ele>
        <time>2014-11-10T15:50:11.1Z</time>
      </trkpt>
      <trkpt lat="48.42769" lon="-3.16448">
        <ele>402</ele>
        <time>2014-11-10T15:50:14.1Z</time>
      </trkpt>
      <trkpt lat="48.42767" lon="-3.16449">
        <ele>402</ele>
        <time>2014-11-10T15:50:16.1Z</time>
      </trkpt>
      <trkpt lat="48.42764" lon="-3.1645">
        <ele>402</ele>
        <time>2014-11-10T15:50:19.1Z</time>
      </trkpt>
      <trkpt lat="48.4276" lon="-3.16451">
        <ele>402</ele>
        <time>2014-11-10T15:50:22.1Z</time>
      </trkpt>
      <trkpt lat="48.42757" lon="-3.16453">
        <ele>402</ele>
        <time>2014-11-10T15:50:25.1Z</time>
      </trkpt>
      <trkpt lat="48.42756" lon="-3.16456">
        <ele>402</ele>
        <time>2014-11-10T15:50:28.1Z</time>
      </trkpt>
      <trkpt lat="48.42755" lon="-3.16459">
        <ele>402</ele>
        <time>2014-11-10T15:50:30.1Z</time>
      </trkpt>
      <trkpt lat="48.42754" lon="-3.16463">
        <ele>402</ele>
        <time>2014-11-10T15:50:32.1Z</time>
      </trkpt>
      <trkpt lat="48.42752" lon="-3.16466">
        <ele>402</ele>
        <time>2014-11-10T15:50:35.1Z</time>
      </trkpt>
      <trkpt lat="48.4275" lon="-3.16469">
        <ele>401</ele>
        <time>2014-11-10T15:50:37.1Z</time>
      </trkpt>
      <trkpt lat="48.42747" lon="-3.16473">
        <ele>401</ele>
        <time>2014-11-10T15:50:40.1Z</time>
      </trkpt>
      <trkpt lat="48.42744" lon="-3.16477">
        <ele>401</ele>
        <time>2014-11-10T15:50:43.1Z</time>
      </trkpt>
      <trkpt lat="48.42743" lon="-3.16479">
        <ele>401</ele>
        <time>2014-11-10T15:50:45.1Z</time>
      </trkpt>
      <trkpt lat="48.42739" lon="-3.16482">
        <ele>401</ele>
        <time>2014-11-10T15:50:48.1Z</time>
      </trkpt>
      <trkpt lat="48.42737" lon="-3.16484">
        <ele>400</ele>
        <time>2014-11-10T15:50:51.1Z</time>
      </trkpt>
      <trkpt lat="48.42734" lon="-3.16487">
        <ele>400</ele>
        <time>2014-11-10T15:50:54.1Z</time>
      </trkpt>
      <trkpt lat="48.42732" lon="-3.1649">
        <ele>399</ele>
        <time>2014-11-10T15:50:56.1Z</time>
      </trkpt>
      <trkpt lat="48.4273" lon="-3.16493">
        <ele>399</ele>
        <time>2014-11-10T15:50:59.1Z</time>
      </trkpt>
      <trkpt lat="48.42728" lon="-3.16495">
        <ele>398</ele>
        <time>2014-11-10T15:51:01.1Z</time>
      </trkpt>
      <trkpt lat="48.42726" lon="-3.16498">
        <ele>398</ele>
        <time>2014-11-10T15:51:03.1Z</time>
      </trkpt>
      <trkpt lat="48.42724" lon="-3.16501">
        <ele>398</ele>
        <time>2014-11-10T15:51:06.1Z</time>
      </trkpt>
      <trkpt lat="48.42722" lon="-3.16504">
        <ele>398</ele>
        <time>2014-11-10T15:51:08.1Z</time>
      </trkpt>
      <trkpt lat="48.4272" lon="-3.16507">
        <ele>397</ele>
        <time>2014-11-10T15:51:11.1Z</time>
      </trkpt>
      <trkpt lat="48.42718" lon="-3.16511">
        <ele>397</ele>
        <time>2014-11-10T15:51:14.1Z</time>
      </trkpt>
      <trkpt lat="48.42716" lon="-3.16515">
        <ele>397</ele>
        <time>2014-11-10T15:51:17.1Z</time>
      </trkpt>
      <trkpt lat="48.42714" lon="-3.16519">
        <ele>396</ele>
        <time>2014-11-10T15:51:20.1Z</time>
      </trkpt>
      <trkpt lat="48.42713" lon="-3.16522">
        <ele>395</ele>
        <time>2014-11-10T15:51:22.1Z</time>
      </trkpt>
      <trkpt lat="48.42712" lon="-3.16524">
        <ele>395</ele>
        <time>2014-11-10T15:51:24.1Z</time>
      </trkpt>
      <trkpt lat="48.4271" lon="-3.16527">
        <ele>395</ele>
        <time>2014-11-10T15:51:26.1Z</time>
      </trkpt>
      <trkpt lat="48.42709" lon="-3.1653">
        <ele>394</ele>
        <time>2014-11-10T15:51:29.1Z</time>
      </trkpt>
      <trkpt lat="48.42707" lon="-3.16533">
        <ele>394</ele>
        <time>2014-11-10T15:51:32.1Z</time>
      </trkpt>
      <trkpt lat="48.42707" lon="-3.16536">
        <ele>393</ele>
        <time>2014-11-10T15:51:34.1Z</time>
      </trkpt>
      <trkpt lat="48.42706" lon="-3.16538">
        <ele>393</ele>
        <time>2014-11-10T15:51:36.1Z</time>
      </trkpt>
      <trkpt lat="48.42706" lon="-3.16541">
        <ele>392</ele>
        <time>2014-11-10T15:51:39.1Z</time>
      </trkpt>
      <trkpt lat="48.42705" lon="-3.16542">
        <ele>392</ele>
        <time>2014-11-10T15:51:41.1Z</time>
      </trkpt>
      <trkpt lat="48.42705" lon="-3.16544">
        <ele>391</ele>
        <time>2014-11-10T15:51:44.1Z</time>
      </trkpt>
      <trkpt lat="48.42704" lon="-3.16545">
        <ele>391</ele>
        <time>2014-11-10T15:51:47.1Z</time>
      </trkpt>
      <trkpt lat="48.42704" lon="-3.16546">
        <ele>390</ele>
        <time>2014-11-10T15:51:49.1Z</time>
      </trkpt>
      <trkpt lat="48.42704" lon="-3.16549">
        <ele>390</ele>
        <time>2014-11-10T15:51:51.1Z</time>
      </trkpt>
      <trkpt lat="48.42705" lon="-3.16551">
        <ele>389</ele>
        <time>2014-11-10T15:51:53.1Z</time>
      </trkpt>
      <trkpt lat="48.42706" lon="-3.16554">
        <ele>388</ele>
        <time>2014-11-10T15:51:56.1Z</time>
      </trkpt>
      <trkpt lat="48.42707" lon="-3.16555">
        <ele>388</ele>
        <time>2014-11-10T15:51:58.1Z</time>
      </trkpt>
      <trkpt lat="48.42707" lon="-3.16558">
        <ele>387</ele>
        <time>2014-11-10T15:52:00.1Z</time>
      </trkpt>
      <trkpt lat="48.42709" lon="-3.16561">
        <ele>386</ele>
        <time>2014-11-10T15:52:03.1Z</time>
      </trkpt>
      <trkpt lat="48.42709" lon="-3.16564">
        <ele>386</ele>
        <time>2014-11-10T15:52:05.1Z</time>
      </trkpt>
      <trkpt lat="48.42709" lon="-3.16567">
        <ele>384</ele>
        <time>2014-11-10T15:52:08.1Z</time>
      </trkpt>
      <trkpt lat="48.4271" lon="-3.1657">
        <ele>384</ele>
        <time>2014-11-10T15:52:10.1Z</time>
      </trkpt>
      <trkpt lat="48.42712" lon="-3.16573">
        <ele>383</ele>
        <time>2014-11-10T15:52:13.1Z</time>
      </trkpt>
      <trkpt lat="48.42713" lon="-3.16576">
        <ele>383</ele>
        <time>2014-11-10T15:52:16.1Z</time>
      </trkpt>
      <trkpt lat="48.42714" lon="-3.16577">
        <ele>383</ele>
        <time>2014-11-10T15:52:19.1Z</time>
      </trkpt>
      <trkpt lat="48.42714" lon="-3.16578">
        <ele>382</ele>
        <time>2014-11-10T15:52:21.1Z</time>
      </trkpt>
      <trkpt lat="48.42714" lon="-3.16579">
        <ele>382</ele>
        <time>2014-11-10T15:52:24.1Z</time>
      </trkpt>
      <trkpt lat="48.42715" lon="-3.1658">
        <ele>382</ele>
        <time>2014-11-10T15:52:26.1Z</time>
      </trkpt>
      <trkpt lat="48.42715" lon="-3.16581">
        <ele>382</ele>
        <time>2014-11-10T15:52:29.1Z</time>
      </trkpt>
      <trkpt lat="48.42715" lon="-3.16582">
        <ele>383</ele>
        <time>2014-11-10T15:52:31.1Z</time>
      </trkpt>
      <trkpt lat="48.42716" lon="-3.16583">
        <ele>383</ele>
        <time>2014-11-10T15:52:34.1Z</time>
      </trkpt>
      <trkpt lat="48.42716" lon="-3.16583">
        <ele>383</ele>
        <time>2014-11-10T15:52:36.1Z</time>
      </trkpt>
      <trkpt lat="48.42716" lon="-3.16583">
        <ele>383</ele>
        <time>2014-11-10T15:52:39.1Z</time>
      </trkpt>
      <trkpt lat="48.42717" lon="-3.16583">
        <ele>382</ele>
        <time>2014-11-10T15:52:41.1Z</time>
      </trkpt>
      <trkpt lat="48.42717" lon="-3.16583">
        <ele>383</ele>
        <time>2014-11-10T15:52:43.1Z</time>
      </trkpt>
      <trkpt lat="48.42717" lon="-3.16583">
        <ele>383</ele>
        <time>2014-11-10T15:52:46.1Z</time>
      </trkpt>
      <trkpt lat="48.42717" lon="-3.16583">
        <ele>383</ele>
        <time>2014-11-10T15:52:49.1Z</time>
      </trkpt>
      <trkpt lat="48.42717" lon="-3.16583">
        <ele>383</ele>
        <time>2014-11-10T15:52:51.1Z</time>
      </trkpt>
      <trkpt lat="48.42718" lon="-3.16583">
        <ele>383</ele>
        <time>2014-11-10T15:52:55.1Z</time>
      </trkpt>
      <trkpt lat="48.42718" lon="-3.16583">
        <ele>382</ele>
        <time>2014-11-10T15:52:57.1Z</time>
      </trkpt>
      <trkpt lat="48.42718" lon="-3.16583">
        <ele>382</ele>
        <time>2014-11-10T15:53:00.1Z</time>
      </trkpt>
      <trkpt lat="48.42718" lon="-3.16583">
        <ele>383</ele>
        <time>2014-11-10T15:53:02.1Z</time>
      </trkpt>
      <trkpt lat="48.42718" lon="-3.16584">
        <ele>383</ele>
        <time>2014-11-10T15:53:05.1Z</time>
      </trkpt>
      <trkpt lat="48.42719" lon="-3.16584">
        <ele>383</ele>
        <time>2014-11-10T15:53:08.1Z</time>
      </trkpt>
      <trkpt lat="48.42719" lon="-3.16583">
        <ele>383</ele>
        <time>2014-11-10T15:53:12.1Z</time>
      </trkpt>
      <trkpt lat="48.42719" lon="-3.16584">
        <ele>383</ele>
        <time>2014-11-10T15:53:14.1Z</time>
      </trkpt>
      <trkpt lat="48.4272" lon="-3.16586">
        <ele>383</ele>
        <time>2014-11-10T15:53:17.1Z</time>
      </trkpt>
      <trkpt lat="48.42721" lon="-3.16588">
        <ele>382</ele>
        <time>2014-11-10T15:53:20.1Z</time>
      </trkpt>
      <trkpt lat="48.42722" lon="-3.1659">
        <ele>381</ele>
        <time>2014-11-10T15:53:23.1Z</time>
      </trkpt>
      <trkpt lat="48.42721" lon="-3.16592">
        <ele>381</ele>
        <time>2014-11-10T15:53:26.1Z</time>
      </trkpt>
      <trkpt lat="48.42721" lon="-3.16594">
        <ele>380</ele>
        <time>2014-11-10T15:53:28.1Z</time>
      </trkpt>
      <trkpt lat="48.42721" lon="-3.16596">
        <ele>380</ele>
        <time>2014-11-10T15:53:30.1Z</time>
      </trkpt>
      <trkpt lat="48.42722" lon="-3.16598">
        <ele>380</ele>
        <time>2014-11-10T15:53:32.1Z</time>
      </trkpt>
      <trkpt lat="48.42722" lon="-3.166">
        <ele>379</ele>
        <time>2014-11-10T15:53:35.1Z</time>
      </trkpt>
      <trkpt lat="48.42722" lon="-3.16602">
        <ele>379</ele>
        <time>2014-11-10T15:53:37.1Z</time>
      </trkpt>
      <trkpt lat="48.42723" lon="-3.16605">
        <ele>378</ele>
        <time>2014-11-10T15:53:40.1Z</time>
      </trkpt>
      <trkpt lat="48.42724" lon="-3.16607">
        <ele>377</ele>
        <time>2014-11-10T15:53:42.1Z</time>
      </trkpt>
      <trkpt lat="48.42725" lon="-3.16611">
        <ele>376</ele>
        <time>2014-11-10T15:53:45.1Z</time>
      </trkpt>
      <trkpt lat="48.42726" lon="-3.16614">
        <ele>376</ele>
        <time>2014-11-10T15:53:48.1Z</time>
      </trkpt>
      <trkpt lat="48.42728" lon="-3.16617">
        <ele>375</ele>
        <time>2014-11-10T15:53:51.1Z</time>
      </trkpt>
      <trkpt lat="48.42729" lon="-3.1662">
        <ele>375</ele>
        <time>2014-11-10T15:53:54.1Z</time>
      </trkpt>
      <trkpt lat="48.4273" lon="-3.16622">
        <ele>374</ele>
        <time>2014-11-10T15:53:57.1Z</time>
      </trkpt>
      <trkpt lat="48.4273" lon="-3.16624">
        <ele>373</ele>
        <time>2014-11-10T15:53:59.1Z</time>
      </trkpt>
      <trkpt lat="48.42732" lon="-3.16626">
        <ele>373</ele>
        <time>2014-11-10T15:54:02.1Z</time>
      </trkpt>
      <trkpt lat="48.42734" lon="-3.16627">
        <ele>373</ele>
        <time>2014-11-10T15:54:05.1Z</time>
      </trkpt>
      <trkpt lat="48.42735" lon="-3.16628">
        <ele>373</ele>
        <time>2014-11-10T15:54:08.1Z</time>
      </trkpt>
      <trkpt lat="48.42737" lon="-3.16628">
        <ele>373</ele>
        <time>2014-11-10T15:54:11.1Z</time>
      </trkpt>
      <trkpt lat="48.42738" lon="-3.16629">
        <ele>373</ele>
        <time>2014-11-10T15:54:13.1Z</time>
      </trkpt>
      <trkpt lat="48.42738" lon="-3.1663">
        <ele>373</ele>
        <time>2014-11-10T15:54:16.1Z</time>
      </trkpt>
      <trkpt lat="48.42739" lon="-3.16631">
        <ele>374</ele>
        <time>2014-11-10T15:54:18.1Z</time>
      </trkpt>
      <trkpt lat="48.4274" lon="-3.16633">
        <ele>374</ele>
        <time>2014-11-10T15:54:21.1Z</time>
      </trkpt>
      <trkpt lat="48.4274" lon="-3.16634">
        <ele>373</ele>
        <time>2014-11-10T15:54:24.1Z</time>
      </trkpt>
      <trkpt lat="48.42739" lon="-3.16636">
        <ele>373</ele>
        <time>2014-11-10T15:54:26.1Z</time>
      </trkpt>
      <trkpt lat="48.42739" lon="-3.16638">
        <ele>372</ele>
        <time>2014-11-10T15:54:29.1Z</time>
      </trkpt>
      <trkpt lat="48.42738" lon="-3.1664">
        <ele>372</ele>
        <time>2014-11-10T15:54:31.1Z</time>
      </trkpt>
      <trkpt lat="48.42736" lon="-3.16642">
        <ele>371</ele>
        <time>2014-11-10T15:54:34.1Z</time>
      </trkpt>
      <trkpt lat="48.42735" lon="-3.16644">
        <ele>371</ele>
        <time>2014-11-10T15:54:36.1Z</time>
      </trkpt>
      <trkpt lat="48.42735" lon="-3.16646">
        <ele>372</ele>
        <time>2014-11-10T15:54:39.1Z</time>
      </trkpt>
      <trkpt lat="48.42734" lon="-3.16647">
        <ele>372</ele>
        <time>2014-11-10T15:54:42.1Z</time>
      </trkpt>
      <trkpt lat="48.42734" lon="-3.16648">
        <ele>372</ele>
        <time>2014-11-10T15:54:45.1Z</time>
      </trkpt>
      <trkpt lat="48.42734" lon="-3.16649">
        <ele>372</ele>
        <time>2014-11-10T15:54:47.1Z</time>
      </trkpt>
      <trkpt lat="48.42734" lon="-3.16651">
        <ele>371</ele>
        <time>2014-11-10T15:54:50.1Z</time>
      </trkpt>
      <trkpt lat="48.42734" lon="-3.16652">
        <ele>371</ele>
        <time>2014-11-10T15:54:52.1Z</time>
      </trkpt>
      <trkpt lat="48.42734" lon="-3.16653">
        <ele>371</ele>
        <time>2014-11-10T15:54:55.1Z</time>
      </trkpt>
      <trkpt lat="48.42736" lon="-3.16654">
        <ele>371</ele>
        <time>2014-11-10T15:54:58.1Z</time>
      </trkpt>
      <trkpt lat="48.42737" lon="-3.16653">
        <ele>372</ele>
        <time>2014-11-10T15:55:00.1Z</time>
      </trkpt>
      <trkpt lat="48.42738" lon="-3.16653">
        <ele>372</ele>
        <time>2014-11-10T15:55:02.1Z</time>
      </trkpt>
      <trkpt lat="48.42739" lon="-3.16653">
        <ele>371</ele>
        <time>2014-11-10T15:55:05.1Z</time>
      </trkpt>
      <trkpt lat="48.42741" lon="-3.16653">
        <ele>371</ele>
        <time>2014-11-10T15:55:07.1Z</time>
      </trkpt>
      <trkpt lat="48.42741" lon="-3.16653">
        <ele>371</ele>
        <time>2014-11-10T15:55:10.1Z</time>
      </trkpt>
      <trkpt lat="48.42741" lon="-3.16653">
        <ele>371</ele>
        <time>2014-11-10T15:55:12.1Z</time>
      </trkpt>
      <trkpt lat="48.42741" lon="-3.16652">
        <ele>371</ele>
        <time>2014-11-10T15:55:15.1Z</time>
      </trkpt>
      <trkpt lat="48.42741" lon="-3.16651">
        <ele>371</ele>
        <time>2014-11-10T15:55:17.1Z</time>
      </trkpt>
      <trkpt lat="48.42741" lon="-3.1665">
        <ele>371</ele>
        <time>2014-11-10T15:55:19.1Z</time>
      </trkpt>
      <trkpt lat="48.42739" lon="-3.1665">
        <ele>370</ele>
        <time>2014-11-10T15:55:22.1Z</time>
      </trkpt>
      <trkpt lat="48.42739" lon="-3.1665">
        <ele>370</ele>
        <time>2014-11-10T15:55:24.1Z</time>
      </trkpt>
      <trkpt lat="48.42737" lon="-3.16651">
        <ele>370</ele>
        <time>2014-11-10T15:55:27.1Z</time>
      </trkpt>
      <trkpt lat="48.42736" lon="-3.16651">
        <ele>371</ele>
        <time>2014-11-10T15:55:30.1Z</time>
      </trkpt>
      <trkpt lat="48.42736" lon="-3.16651">
        <ele>371</ele>
        <time>2014-11-10T15:55:32.1Z</time>
      </trkpt>
      <trkpt lat="48.42736" lon="-3.16651">
        <ele>371</ele>
        <time>2014-11-10T15:55:35.1Z</time>
      </trkpt>
      <trkpt lat="48.42736" lon="-3.16652">
        <ele>371</ele>
        <time>2014-11-10T15:55:38.1Z</time>
      </trkpt>
      <trkpt lat="48.42736" lon="-3.16652">
        <ele>371</ele>
        <time>2014-11-10T15:55:40.1Z</time>
      </trkpt>
      <trkpt lat="48.42737" lon="-3.16653">
        <ele>371</ele>
        <time>2014-11-10T15:55:43.1Z</time>
      </trkpt>
      <trkpt lat="48.42737" lon="-3.16653">
        <ele>371</ele>
        <time>2014-11-10T15:55:45.1Z</time>
      </trkpt>
      <trkpt lat="48.42737" lon="-3.16654">
        <ele>371</ele>
        <time>2014-11-10T15:55:48.1Z</time>
      </trkpt>
      <trkpt lat="48.42738" lon="-3.16654">
        <ele>371</ele>
        <time>2014-11-10T15:55:50.1Z</time>
      </trkpt>
      <trkpt lat="48.42738" lon="-3.16652">
        <ele>371</ele>
        <time>2014-11-10T15:55:53.1Z</time>
      </trkpt>
      <trkpt lat="48.42738" lon="-3.16651">
        <ele>371</ele>
        <time>2014-11-10T15:55:55.1Z</time>
      </trkpt>
      <trkpt lat="48.42738" lon="-3.1665">
        <ele>371</ele>
        <time>2014-11-10T15:55:58.1Z</time>
      </trkpt>
      <trkpt lat="48.42739" lon="-3.16649">
        <ele>371</ele>
        <time>2014-11-10T15:56:01.1Z</time>
      </trkpt>
      <trkpt lat="48.42738" lon="-3.16649">
        <ele>371</ele>
        <time>2014-11-10T15:56:04.1Z</time>
      </trkpt>
      <trkpt lat="48.42738" lon="-3.16648">
        <ele>371</ele>
        <time>2014-11-10T15:56:06.1Z</time>
      </trkpt>
      <trkpt lat="48.42738" lon="-3.16648">
        <ele>371</ele>
        <time>2014-11-10T15:56:09.1Z</time>
      </trkpt>
      <trkpt lat="48.42739" lon="-3.16648">
        <ele>371</ele>
        <time>2014-11-10T15:56:12.1Z</time>
      </trkpt>
      <trkpt lat="48.42739" lon="-3.16648">
        <ele>371</ele>
        <time>2014-11-10T15:56:16.1Z</time>
      </trkpt>
      <trkpt lat="48.4274" lon="-3.16648">
        <ele>371</ele>
        <time>2014-11-10T15:56:19.1Z</time>
      </trkpt>
      <trkpt lat="48.4274" lon="-3.16648">
        <ele>371</ele>
        <time>2014-11-10T15:56:21.1Z</time>
      </trkpt>
      <trkpt lat="48.42739" lon="-3.1665">
        <ele>371</ele>
        <time>2014-11-10T15:56:24.1Z</time>
      </trkpt>
      <trkpt lat="48.42739" lon="-3.1665">
        <ele>371</ele>
        <time>2014-11-10T15:56:26.1Z</time>
      </trkpt>
      <trkpt lat="48.42738" lon="-3.16651">
        <ele>371</ele>
        <time>2014-11-10T15:56:29.1Z</time>
      </trkpt>
      <trkpt lat="48.42738" lon="-3.16651">
        <ele>371</ele>
        <time>2014-11-10T15:56:32.1Z</time>
      </trkpt>
      <trkpt lat="48.42737" lon="-3.16651">
        <ele>371</ele>
        <time>2014-11-10T15:56:35.1Z</time>
      </trkpt>
      <trkpt lat="48.42737" lon="-3.16651">
        <ele>371</ele>
        <time>2014-11-10T15:56:38.1Z</time>
      </trkpt>
      <trkpt lat="48.42737" lon="-3.16651">
        <ele>371</ele>
        <time>2014-11-10T15:56:40.1Z</time>
      </trkpt>
      <trkpt lat="48.42738" lon="-3.16651">
        <ele>371</ele>
        <time>2014-11-10T15:56:42.1Z</time>
      </trkpt>
      <trkpt lat="48.42738" lon="-3.1665">
        <ele>372</ele>
        <time>2014-11-10T15:56:44.1Z</time>
      </trkpt>
      <trkpt lat="48.42738" lon="-3.1665">
        <ele>372</ele>
        <time>2014-11-10T15:56:47.1Z</time>
      </trkpt>
      <trkpt lat="48.42738" lon="-3.1665">
        <ele>372</ele>
        <time>2014-11-10T15:56:49.1Z</time>
      </trkpt>
      <trkpt lat="48.42738" lon="-3.16648">
        <ele>372</ele>
        <time>2014-11-10T15:56:52.1Z</time>
      </trkpt>
      <trkpt lat="48.42739" lon="-3.16646">
        <ele>372</ele>
        <time>2014-11-10T15:56:55.1Z</time>
      </trkpt>
      <trkpt lat="48.42738" lon="-3.16645">
        <ele>372</ele>
        <time>2014-11-10T15:56:57.1Z</time>
      </trkpt>
      <trkpt lat="48.42739" lon="-3.16645">
        <ele>372</ele>
        <time>2014-11-10T15:56:59.1Z</time>
      </trkpt>
      <trkpt lat="48.4274" lon="-3.16643">
        <ele>372</ele>
        <time>2014-11-10T15:57:02.1Z</time>
      </trkpt>
      <trkpt lat="48.4274" lon="-3.16644">
        <ele>372</ele>
        <time>2014-11-10T15:57:05.1Z</time>
      </trkpt>
      <trkpt lat="48.42741" lon="-3.16644">
        <ele>372</ele>
        <time>2014-11-10T15:57:08.1Z</time>
      </trkpt>
      <trkpt lat="48.4274" lon="-3.16644">
        <ele>372</ele>
        <time>2014-11-10T15:57:10.1Z</time>
      </trkpt>
      <trkpt lat="48.42739" lon="-3.16644">
        <ele>372</ele>
        <time>2014-11-10T15:57:13.1Z</time>
      </trkpt>
      <trkpt lat="48.42739" lon="-3.16642">
        <ele>372</ele>
        <time>2014-11-10T15:57:16.1Z</time>
      </trkpt>
      <trkpt lat="48.42739" lon="-3.16641">
        <ele>372</ele>
        <time>2014-11-10T15:57:19.1Z</time>
      </trkpt>
      <trkpt lat="48.42739" lon="-3.1664">
        <ele>372</ele>
        <time>2014-11-10T15:57:21.1Z</time>
      </trkpt>
      <trkpt lat="48.4274" lon="-3.16639">
        <ele>372</ele>
        <time>2014-11-10T15:57:24.1Z</time>
      </trkpt>
      <trkpt lat="48.42741" lon="-3.16639">
        <ele>372</ele>
        <time>2014-11-10T15:57:26.1Z</time>
      </trkpt>
      <trkpt lat="48.42741" lon="-3.16639">
        <ele>372</ele>
        <time>2014-11-10T15:57:28.1Z</time>
      </trkpt>
      <trkpt lat="48.42741" lon="-3.16637">
        <ele>371</ele>
        <time>2014-11-10T15:57:31.1Z</time>
      </trkpt>
      <trkpt lat="48.42741" lon="-3.16637">
        <ele>371</ele>
        <time>2014-11-10T15:57:34.1Z</time>
      </trkpt>
      <trkpt lat="48.4274" lon="-3.16637">
        <ele>371</ele>
        <time>2014-11-10T15:57:37.1Z</time>
      </trkpt>
      <trkpt lat="48.42739" lon="-3.16637">
        <ele>371</ele>
        <time>2014-11-10T15:57:39.1Z</time>
      </trkpt>
      <trkpt lat="48.42739" lon="-3.16638">
        <ele>371</ele>
        <time>2014-11-10T15:57:42.1Z</time>
      </trkpt>
      <trkpt lat="48.42739" lon="-3.16638">
        <ele>371</ele>
        <time>2014-11-10T15:57:45.1Z</time>
      </trkpt>
      <trkpt lat="48.42739" lon="-3.16638">
        <ele>371</ele>
        <time>2014-11-10T15:57:49.1Z</time>
      </trkpt>
      <trkpt lat="48.4274" lon="-3.16637">
        <ele>372</ele>
        <time>2014-11-10T15:57:52.1Z</time>
      </trkpt>
      <trkpt lat="48.4274" lon="-3.16636">
        <ele>372</ele>
        <time>2014-11-10T15:57:55.1Z</time>
      </trkpt>
      <trkpt lat="48.4274" lon="-3.16636">
        <ele>372</ele>
        <time>2014-11-10T15:57:57.1Z</time>
      </trkpt>
      <trkpt lat="48.42741" lon="-3.16635">
        <ele>372</ele>
        <time>2014-11-10T15:58:01.1Z</time>
      </trkpt>
      <trkpt lat="48.42741" lon="-3.16634">
        <ele>372</ele>
        <time>2014-11-10T15:58:04.1Z</time>
      </trkpt>
      <trkpt lat="48.42742" lon="-3.16634">
        <ele>372</ele>
        <time>2014-11-10T15:58:07.1Z</time>
      </trkpt>
      <trkpt lat="48.42742" lon="-3.16633">
        <ele>372</ele>
        <time>2014-11-10T15:58:09.1Z</time>
      </trkpt>
      <trkpt lat="48.42742" lon="-3.16631">
        <ele>372</ele>
        <time>2014-11-10T15:58:12.1Z</time>
      </trkpt>
      <trkpt lat="48.42744" lon="-3.16628">
        <ele>372</ele>
        <time>2014-11-10T15:58:15.1Z</time>
      </trkpt>
      <trkpt lat="48.42743" lon="-3.16629">
        <ele>372</ele>
        <time>2014-11-10T15:58:18.1Z</time>
      </trkpt>
      <trkpt lat="48.42743" lon="-3.16629">
        <ele>372</ele>
        <time>2014-11-10T15:58:21.1Z</time>
      </trkpt>
      <trkpt lat="48.42742" lon="-3.16631">
        <ele>371</ele>
        <time>2014-11-10T15:58:24.1Z</time>
      </trkpt>
      <trkpt lat="48.42742" lon="-3.16632">
        <ele>372</ele>
        <time>2014-11-10T15:58:27.1Z</time>
      </trkpt>
      <trkpt lat="48.42741" lon="-3.16631">
        <ele>372</ele>
        <time>2014-11-10T15:58:30.1Z</time>
      </trkpt>
      <trkpt lat="48.42741" lon="-3.16631">
        <ele>372</ele>
        <time>2014-11-10T15:58:32.1Z</time>
      </trkpt>
      <trkpt lat="48.42741" lon="-3.16631">
        <ele>372</ele>
        <time>2014-11-10T15:58:35.1Z</time>
      </trkpt>
      <trkpt lat="48.42741" lon="-3.16631">
        <ele>371</ele>
        <time>2014-11-10T15:58:38.1Z</time>
      </trkpt>
      <trkpt lat="48.42741" lon="-3.16631">
        <ele>371</ele>
        <time>2014-11-10T15:58:40.1Z</time>
      </trkpt>
      <trkpt lat="48.4274" lon="-3.16632">
        <ele>372</ele>
        <time>2014-11-10T15:58:43.1Z</time>
      </trkpt>
      <trkpt lat="48.4274" lon="-3.16631">
        <ele>372</ele>
        <time>2014-11-10T15:58:45.1Z</time>
      </trkpt>
      <trkpt lat="48.42739" lon="-3.16631">
        <ele>372</ele>
        <time>2014-11-10T15:58:48.1Z</time>
      </trkpt>
      <trkpt lat="48.42738" lon="-3.16632">
        <ele>372</ele>
        <time>2014-11-10T15:58:51.1Z</time>
      </trkpt>
      <trkpt lat="48.42738" lon="-3.16632">
        <ele>372</ele>
        <time>2014-11-10T15:58:53.1Z</time>
      </trkpt>
      <trkpt lat="48.42737" lon="-3.16631">
        <ele>371</ele>
        <time>2014-11-10T15:58:56.1Z</time>
      </trkpt>
      <trkpt lat="48.42737" lon="-3.16631">
        <ele>371</ele>
        <time>2014-11-10T15:58:58.1Z</time>
      </trkpt>
      <trkpt lat="48.42737" lon="-3.16631">
        <ele>371</ele>
        <time>2014-11-10T15:59:01.1Z</time>
      </trkpt>
      <trkpt lat="48.42737" lon="-3.16631">
        <ele>371</ele>
        <time>2014-11-10T15:59:03.1Z</time>
      </trkpt>
      <trkpt lat="48.42737" lon="-3.16631">
        <ele>371</ele>
        <time>2014-11-10T15:59:06.1Z</time>
      </trkpt>
      <trkpt lat="48.42736" lon="-3.16631">
        <ele>371</ele>
        <time>2014-11-10T15:59:08.1Z</time>
      </trkpt>
      <trkpt lat="48.42736" lon="-3.16631">
        <ele>371</ele>
        <time>2014-11-10T15:59:10.1Z</time>
      </trkpt>
      <trkpt lat="48.42736" lon="-3.16631">
        <ele>372</ele>
        <time>2014-11-10T15:59:13.1Z</time>
      </trkpt>
      <trkpt lat="48.42736" lon="-3.16632">
        <ele>372</ele>
        <time>2014-11-10T15:59:15.1Z</time>
      </trkpt>
      <trkpt lat="48.42736" lon="-3.16633">
        <ele>372</ele>
        <time>2014-11-10T15:59:18.1Z</time>
      </trkpt>
      <trkpt lat="48.42736" lon="-3.16633">
        <ele>372</ele>
        <time>2014-11-10T15:59:20.1Z</time>
      </trkpt>
      <trkpt lat="48.42736" lon="-3.16633">
        <ele>372</ele>
        <time>2014-11-10T15:59:22.1Z</time>
      </trkpt>
      <trkpt lat="48.42736" lon="-3.16633">
        <ele>372</ele>
        <time>2014-11-10T15:59:25.1Z</time>
      </trkpt>
      <trkpt lat="48.42736" lon="-3.16634">
        <ele>372</ele>
        <time>2014-11-10T15:59:27.1Z</time>
      </trkpt>
      <trkpt lat="48.42736" lon="-3.16635">
        <ele>372</ele>
        <time>2014-11-10T15:59:29.1Z</time>
      </trkpt>
      <trkpt lat="48.42736" lon="-3.16636">
        <ele>372</ele>
        <time>2014-11-10T15:59:32.1Z</time>
      </trkpt>
      <trkpt lat="48.42738" lon="-3.16636">
        <ele>372</ele>
        <time>2014-11-10T15:59:34.1Z</time>
      </trkpt>
      <trkpt lat="48.42738" lon="-3.16637">
        <ele>372</ele>
        <time>2014-11-10T15:59:37.1Z</time>
      </trkpt>
      <trkpt lat="48.42737" lon="-3.16638">
        <ele>372</ele>
        <time>2014-11-10T15:59:39.1Z</time>
      </trkpt>
      <trkpt lat="48.42737" lon="-3.16638">
        <ele>372</ele>
        <time>2014-11-10T15:59:42.1Z</time>
      </trkpt>
      <trkpt lat="48.42737" lon="-3.16639">
        <ele>372</ele>
        <time>2014-11-10T15:59:44.1Z</time>
      </trkpt>
      <trkpt lat="48.42736" lon="-3.16639">
        <ele>372</ele>
        <time>2014-11-10T15:59:48.1Z</time>
      </trkpt>
      <trkpt lat="48.42736" lon="-3.16639">
        <ele>372</ele>
        <time>2014-11-10T15:59:50.1Z</time>
      </trkpt>
      <trkpt lat="48.42736" lon="-3.1664">
        <ele>372</ele>
        <time>2014-11-10T15:59:53.1Z</time>
      </trkpt>
      <trkpt lat="48.42736" lon="-3.1664">
        <ele>372</ele>
        <time>2014-11-10T15:59:55.1Z</time>
      </trkpt>
      <trkpt lat="48.42736" lon="-3.1664">
        <ele>372</ele>
        <time>2014-11-10T15:59:57.1Z</time>
      </trkpt>
      <trkpt lat="48.42736" lon="-3.16642">
        <ele>372</ele>
        <time>2014-11-10T16:00:00.1Z</time>
      </trkpt>
      <trkpt lat="48.42736" lon="-3.16643">
        <ele>372</ele>
        <time>2014-11-10T16:00:02.1Z</time>
      </trkpt>
      <trkpt lat="48.42737" lon="-3.16641">
        <ele>372</ele>
        <time>2014-11-10T16:00:05.1Z</time>
      </trkpt>
      <trkpt lat="48.42738" lon="-3.1664">
        <ele>372</ele>
        <time>2014-11-10T16:00:08.1Z</time>
      </trkpt>
      <trkpt lat="48.42738" lon="-3.16641">
        <ele>372</ele>
        <time>2014-11-10T16:00:10.1Z</time>
      </trkpt>
      <trkpt lat="48.42738" lon="-3.16641">
        <ele>372</ele>
        <time>2014-11-10T16:00:12.1Z</time>
      </trkpt>
      <trkpt lat="48.42737" lon="-3.16643">
        <ele>372</ele>
        <time>2014-11-10T16:00:14.1Z</time>
      </trkpt>
      <trkpt lat="48.42737" lon="-3.16643">
        <ele>372</ele>
        <time>2014-11-10T16:00:17.1Z</time>
      </trkpt>
      <trkpt lat="48.42737" lon="-3.16642">
        <ele>372</ele>
        <time>2014-11-10T16:00:19.1Z</time>
      </trkpt>
      <trkpt lat="48.42737" lon="-3.16642">
        <ele>372</ele>
        <time>2014-11-10T16:00:22.1Z</time>
      </trkpt>
      <trkpt lat="48.42737" lon="-3.16643">
        <ele>372</ele>
        <time>2014-11-10T16:00:25.1Z</time>
      </trkpt>
      <trkpt lat="48.42737" lon="-3.16644">
        <ele>372</ele>
        <time>2014-11-10T16:00:27.1Z</time>
      </trkpt>
      <trkpt lat="48.42738" lon="-3.16644">
        <ele>373</ele>
        <time>2014-11-10T16:00:30.1Z</time>
      </trkpt>
      <trkpt lat="48.42738" lon="-3.16644">
        <ele>373</ele>
        <time>2014-11-10T16:00:33.1Z</time>
      </trkpt>
      <trkpt lat="48.42738" lon="-3.16645">
        <ele>373</ele>
        <time>2014-11-10T16:00:35.1Z</time>
      </trkpt>
      <trkpt lat="48.42737" lon="-3.16647">
        <ele>373</ele>
        <time>2014-11-10T16:00:38.1Z</time>
      </trkpt>
      <trkpt lat="48.42737" lon="-3.16646">
        <ele>372</ele>
        <time>2014-11-10T16:00:41.1Z</time>
      </trkpt>
      <trkpt lat="48.42737" lon="-3.16646">
        <ele>372</ele>
        <time>2014-11-10T16:00:43.1Z</time>
      </trkpt>
      <trkpt lat="48.42737" lon="-3.16647">
        <ele>372</ele>
        <time>2014-11-10T16:00:45.1Z</time>
      </trkpt>
      <trkpt lat="48.42738" lon="-3.16647">
        <ele>372</ele>
        <time>2014-11-10T16:00:48.1Z</time>
      </trkpt>
      <trkpt lat="48.42738" lon="-3.16647">
        <ele>372</ele>
        <time>2014-11-10T16:00:50.1Z</time>
      </trkpt>
      <trkpt lat="48.42738" lon="-3.16649">
        <ele>372</ele>
        <time>2014-11-10T16:00:53.1Z</time>
      </trkpt>
      <trkpt lat="48.42738" lon="-3.16649">
        <ele>372</ele>
        <time>2014-11-10T16:00:55.1Z</time>
      </trkpt>
      <trkpt lat="48.42737" lon="-3.16649">
        <ele>372</ele>
        <time>2014-11-10T16:00:58.1Z</time>
      </trkpt>
      <trkpt lat="48.42737" lon="-3.16649">
        <ele>372</ele>
        <time>2014-11-10T16:01:00.1Z</time>
      </trkpt>
      <trkpt lat="48.42738" lon="-3.16648">
        <ele>372</ele>
        <time>2014-11-10T16:01:03.1Z</time>
      </trkpt>
      <trkpt lat="48.42738" lon="-3.16648">
        <ele>372</ele>
        <time>2014-11-10T16:01:05.1Z</time>
      </trkpt>
      <trkpt lat="48.42737" lon="-3.16649">
        <ele>372</ele>
        <time>2014-11-10T16:01:08.1Z</time>
      </trkpt>
      <trkpt lat="48.42737" lon="-3.16649">
        <ele>372</ele>
        <time>2014-11-10T16:01:10.1Z</time>
      </trkpt>
      <trkpt lat="48.42737" lon="-3.16649">
        <ele>372</ele>
        <time>2014-11-10T16:01:15.1Z</time>
      </trkpt>
      <trkpt lat="48.42737" lon="-3.16649">
        <ele>372</ele>
        <time>2014-11-10T16:01:17.1Z</time>
      </trkpt>
      <trkpt lat="48.42737" lon="-3.16649">
        <ele>372</ele>
        <time>2014-11-10T16:01:21.1Z</time>
      </trkpt>
      <trkpt lat="48.42738" lon="-3.16649">
        <ele>372</ele>
        <time>2014-11-10T16:01:24.1Z</time>
      </trkpt>
      <trkpt lat="48.42738" lon="-3.1665">
        <ele>372</ele>
        <time>2014-11-10T16:01:27.1Z</time>
      </trkpt>
      <trkpt lat="48.42738" lon="-3.16649">
        <ele>372</ele>
        <time>2014-11-10T16:01:29.1Z</time>
      </trkpt>
      <trkpt lat="48.42738" lon="-3.16649">
        <ele>372</ele>
        <time>2014-11-10T16:01:32.1Z</time>
      </trkpt>
      <trkpt lat="48.42739" lon="-3.16648">
        <ele>372</ele>
        <time>2014-11-10T16:01:34.1Z</time>
      </trkpt>
      <trkpt lat="48.42738" lon="-3.16648">
        <ele>372</ele>
        <time>2014-11-10T16:01:37.1Z</time>
      </trkpt>
      <trkpt lat="48.42738" lon="-3.1665">
        <ele>372</ele>
        <time>2014-11-10T16:01:40.1Z</time>
      </trkpt>
      <trkpt lat="48.42737" lon="-3.16651">
        <ele>372</ele>
        <time>2014-11-10T16:01:42.1Z</time>
      </trkpt>
      <trkpt lat="48.42737" lon="-3.16652">
        <ele>371</ele>
        <time>2014-11-10T16:01:45.1Z</time>
      </trkpt>
      <trkpt lat="48.42738" lon="-3.16652">
        <ele>372</ele>
        <time>2014-11-10T16:01:48.1Z</time>
      </trkpt>
      <trkpt lat="48.42737" lon="-3.16652">
        <ele>372</ele>
        <time>2014-11-10T16:01:51.1Z</time>
      </trkpt>
      <trkpt lat="48.42738" lon="-3.16652">
        <ele>372</ele>
        <time>2014-11-10T16:01:53.1Z</time>
      </trkpt>
      <trkpt lat="48.42738" lon="-3.16651">
        <ele>372</ele>
        <time>2014-11-10T16:01:56.1Z</time>
      </trkpt>
      <trkpt lat="48.42739" lon="-3.1665">
        <ele>372</ele>
        <time>2014-11-10T16:01:59.1Z</time>
      </trkpt>
      <trkpt lat="48.42741" lon="-3.16649">
        <ele>372</ele>
        <time>2014-11-10T16:02:02.1Z</time>
      </trkpt>
      <trkpt lat="48.42741" lon="-3.16648">
        <ele>372</ele>
        <time>2014-11-10T16:02:06.1Z</time>
      </trkpt>
      <trkpt lat="48.42741" lon="-3.16648">
        <ele>373</ele>
        <time>2014-11-10T16:02:09.1Z</time>
      </trkpt>
      <trkpt lat="48.42741" lon="-3.16646">
        <ele>373</ele>
        <time>2014-11-10T16:02:11.1Z</time>
      </trkpt>
      <trkpt lat="48.42742" lon="-3.16644">
        <ele>373</ele>
        <time>2014-11-10T16:02:13.1Z</time>
      </trkpt>
      <trkpt lat="48.42742" lon="-3.16643">
        <ele>372</ele>
        <time>2014-11-10T16:02:17.1Z</time>
      </trkpt>
      <trkpt lat="48.42741" lon="-3.16644">
        <ele>372</ele>
        <time>2014-11-10T16:02:20.1Z</time>
      </trkpt>
      <trkpt lat="48.42741" lon="-3.16644">
        <ele>372</ele>
        <time>2014-11-10T16:02:22.1Z</time>
      </trkpt>
      <trkpt lat="48.4274" lon="-3.16644">
        <ele>372</ele>
        <time>2014-11-10T16:02:25.1Z</time>
      </trkpt>
      <trkpt lat="48.42739" lon="-3.16644">
        <ele>372</ele>
        <time>2014-11-10T16:02:28.1Z</time>
      </trkpt>
      <trkpt lat="48.42739" lon="-3.16642">
        <ele>372</ele>
        <time>2014-11-10T16:02:30.1Z</time>
      </trkpt>
      <trkpt lat="48.4274" lon="-3.1664">
        <ele>372</ele>
        <time>2014-11-10T16:02:33.1Z</time>
      </trkpt>
      <trkpt lat="48.4274" lon="-3.1664">
        <ele>372</ele>
        <time>2014-11-10T16:02:35.1Z</time>
      </trkpt>
      <trkpt lat="48.4274" lon="-3.1664">
        <ele>372</ele>
        <time>2014-11-10T16:02:38.1Z</time>
      </trkpt>
      <trkpt lat="48.42739" lon="-3.1664">
        <ele>372</ele>
        <time>2014-11-10T16:02:40.1Z</time>
      </trkpt>
      <trkpt lat="48.4274" lon="-3.1664">
        <ele>372</ele>
        <time>2014-11-10T16:02:43.1Z</time>
      </trkpt>
      <trkpt lat="48.4274" lon="-3.16639">
        <ele>372</ele>
        <time>2014-11-10T16:02:45.1Z</time>
      </trkpt>
      <trkpt lat="48.4274" lon="-3.16639">
        <ele>372</ele>
        <time>2014-11-10T16:02:48.1Z</time>
      </trkpt>
      <trkpt lat="48.42739" lon="-3.16639">
        <ele>372</ele>
        <time>2014-11-10T16:02:50.1Z</time>
      </trkpt>
      <trkpt lat="48.42739" lon="-3.1664">
        <ele>372</ele>
        <time>2014-11-10T16:02:53.1Z</time>
      </trkpt>
      <trkpt lat="48.42738" lon="-3.16641">
        <ele>372</ele>
        <time>2014-11-10T16:02:55.1Z</time>
      </trkpt>
      <trkpt lat="48.42738" lon="-3.1664">
        <ele>372</ele>
        <time>2014-11-10T16:02:57.1Z</time>
      </trkpt>
      <trkpt lat="48.42737" lon="-3.1664">
        <ele>372</ele>
        <time>2014-11-10T16:03:00.1Z</time>
      </trkpt>
      <trkpt lat="48.42737" lon="-3.1664">
        <ele>372</ele>
        <time>2014-11-10T16:03:03.1Z</time>
      </trkpt>
      <trkpt lat="48.42737" lon="-3.1664">
        <ele>372</ele>
        <time>2014-11-10T16:03:05.1Z</time>
      </trkpt>
      <trkpt lat="48.42737" lon="-3.16639">
        <ele>372</ele>
        <time>2014-11-10T16:03:08.1Z</time>
      </trkpt>
      <trkpt lat="48.42737" lon="-3.16639">
        <ele>372</ele>
        <time>2014-11-10T16:03:10.1Z</time>
      </trkpt>
      <trkpt lat="48.42737" lon="-3.16639">
        <ele>372</ele>
        <time>2014-11-10T16:03:13.1Z</time>
      </trkpt>
      <trkpt lat="48.42736" lon="-3.16639">
        <ele>372</ele>
        <time>2014-11-10T16:03:15.1Z</time>
      </trkpt>
      <trkpt lat="48.42736" lon="-3.16639">
        <ele>372</ele>
        <time>2014-11-10T16:03:18.1Z</time>
      </trkpt>
      <trkpt lat="48.42737" lon="-3.16637">
        <ele>372</ele>
        <time>2014-11-10T16:03:20.1Z</time>
      </trkpt>
      <trkpt lat="48.42737" lon="-3.16637">
        <ele>372</ele>
        <time>2014-11-10T16:03:22.1Z</time>
      </trkpt>
      <trkpt lat="48.42738" lon="-3.16637">
        <ele>373</ele>
        <time>2014-11-10T16:03:25.1Z</time>
      </trkpt>
      <trkpt lat="48.42738" lon="-3.16637">
        <ele>373</ele>
        <time>2014-11-10T16:03:27.1Z</time>
      </trkpt>
      <trkpt lat="48.42738" lon="-3.16637">
        <ele>373</ele>
        <time>2014-11-10T16:03:31.1Z</time>
      </trkpt>
      <trkpt lat="48.42738" lon="-3.16637">
        <ele>373</ele>
        <time>2014-11-10T16:03:33.1Z</time>
      </trkpt>
      <trkpt lat="48.42738" lon="-3.16638">
        <ele>373</ele>
        <time>2014-11-10T16:03:35.1Z</time>
      </trkpt>
      <trkpt lat="48.42739" lon="-3.16638">
        <ele>373</ele>
        <time>2014-11-10T16:03:38.1Z</time>
      </trkpt>
      <trkpt lat="48.4274" lon="-3.16637">
        <ele>373</ele>
        <time>2014-11-10T16:03:40.1Z</time>
      </trkpt>
      <trkpt lat="48.42741" lon="-3.16637">
        <ele>373</ele>
        <time>2014-11-10T16:03:42.1Z</time>
      </trkpt>
      <trkpt lat="48.42743" lon="-3.16637">
        <ele>373</ele>
        <time>2014-11-10T16:03:45.1Z</time>
      </trkpt>
      <trkpt lat="48.42743" lon="-3.16639">
        <ele>373</ele>
        <time>2014-11-10T16:03:48.1Z</time>
      </trkpt>
      <trkpt lat="48.42744" lon="-3.1664">
        <ele>373</ele>
        <time>2014-11-10T16:03:50.1Z</time>
      </trkpt>
      <trkpt lat="48.42745" lon="-3.1664">
        <ele>372</ele>
        <time>2014-11-10T16:03:52.1Z</time>
      </trkpt>
      <trkpt lat="48.42747" lon="-3.16641">
        <ele>372</ele>
        <time>2014-11-10T16:03:55.1Z</time>
      </trkpt>
      <trkpt lat="48.42749" lon="-3.16641">
        <ele>372</ele>
        <time>2014-11-10T16:03:57.1Z</time>
      </trkpt>
      <trkpt lat="48.42751" lon="-3.16641">
        <ele>372</ele>
        <time>2014-11-10T16:03:59.1Z</time>
      </trkpt>
      <trkpt lat="48.42753" lon="-3.1664">
        <ele>372</ele>
        <time>2014-11-10T16:04:02.1Z</time>
      </trkpt>
      <trkpt lat="48.42755" lon="-3.16641">
        <ele>371</ele>
        <time>2014-11-10T16:04:05.1Z</time>
      </trkpt>
      <trkpt lat="48.42757" lon="-3.16642">
        <ele>371</ele>
        <time>2014-11-10T16:04:08.1Z</time>
      </trkpt>
      <trkpt lat="48.42759" lon="-3.16643">
        <ele>371</ele>
        <time>2014-11-10T16:04:11.1Z</time>
      </trkpt>
      <trkpt lat="48.42762" lon="-3.16643">
        <ele>371</ele>
        <time>2014-11-10T16:04:14.1Z</time>
      </trkpt>
      <trkpt lat="48.42763" lon="-3.16644">
        <ele>371</ele>
        <time>2014-11-10T16:04:16.1Z</time>
      </trkpt>
      <trkpt lat="48.42764" lon="-3.16645">
        <ele>371</ele>
        <time>2014-11-10T16:04:18.1Z</time>
      </trkpt>
      <trkpt lat="48.42766" lon="-3.16645">
        <ele>371</ele>
        <time>2014-11-10T16:04:21.1Z</time>
      </trkpt>
      <trkpt lat="48.42767" lon="-3.16646">
        <ele>371</ele>
        <time>2014-11-10T16:04:23.1Z</time>
      </trkpt>
      <trkpt lat="48.4277" lon="-3.16645">
        <ele>372</ele>
        <time>2014-11-10T16:04:26.1Z</time>
      </trkpt>
      <trkpt lat="48.42771" lon="-3.16645">
        <ele>372</ele>
        <time>2014-11-10T16:04:28.1Z</time>
      </trkpt>
      <trkpt lat="48.42772" lon="-3.16646">
        <ele>371</ele>
        <time>2014-11-10T16:04:31.1Z</time>
      </trkpt>
      <trkpt lat="48.42774" lon="-3.16647">
        <ele>371</ele>
        <time>2014-11-10T16:04:34.1Z</time>
      </trkpt>
      <trkpt lat="48.42776" lon="-3.16647">
        <ele>370</ele>
        <time>2014-11-10T16:04:36.1Z</time>
      </trkpt>
      <trkpt lat="48.42777" lon="-3.16648">
        <ele>370</ele>
        <time>2014-11-10T16:04:38.1Z</time>
      </trkpt>
      <trkpt lat="48.4278" lon="-3.16648">
        <ele>370</ele>
        <time>2014-11-10T16:04:41.1Z</time>
      </trkpt>
      <trkpt lat="48.42781" lon="-3.16648">
        <ele>370</ele>
        <time>2014-11-10T16:04:43.1Z</time>
      </trkpt>
      <trkpt lat="48.42783" lon="-3.16647">
        <ele>370</ele>
        <time>2014-11-10T16:04:45.1Z</time>
      </trkpt>
      <trkpt lat="48.42784" lon="-3.16648">
        <ele>370</ele>
        <time>2014-11-10T16:04:48.1Z</time>
      </trkpt>
      <trkpt lat="48.42785" lon="-3.16648">
        <ele>370</ele>
        <time>2014-11-10T16:04:50.1Z</time>
      </trkpt>
      <trkpt lat="48.42787" lon="-3.16648">
        <ele>370</ele>
        <time>2014-11-10T16:04:52.1Z</time>
      </trkpt>
      <trkpt lat="48.42788" lon="-3.16649">
        <ele>370</ele>
        <time>2014-11-10T16:04:55.1Z</time>
      </trkpt>
      <trkpt lat="48.4279" lon="-3.1665">
        <ele>370</ele>
        <time>2014-11-10T16:04:58.1Z</time>
      </trkpt>
      <trkpt lat="48.42792" lon="-3.16652">
        <ele>370</ele>
        <time>2014-11-10T16:05:01.1Z</time>
      </trkpt>
      <trkpt lat="48.42793" lon="-3.16652">
        <ele>370</ele>
        <time>2014-11-10T16:05:03.1Z</time>
      </trkpt>
      <trkpt lat="48.42795" lon="-3.16653">
        <ele>370</ele>
        <time>2014-11-10T16:05:05.1Z</time>
      </trkpt>
      <trkpt lat="48.42797" lon="-3.16654">
        <ele>370</ele>
        <time>2014-11-10T16:05:08.1Z</time>
      </trkpt>
      <trkpt lat="48.428" lon="-3.16655">
        <ele>369</ele>
        <time>2014-11-10T16:05:11.1Z</time>
      </trkpt>
      <trkpt lat="48.42802" lon="-3.16655">
        <ele>369</ele>
        <time>2014-11-10T16:05:14.1Z</time>
      </trkpt>
      <trkpt lat="48.42804" lon="-3.16655">
        <ele>369</ele>
        <time>2014-11-10T16:05:16.1Z</time>
      </trkpt>
      <trkpt lat="48.42805" lon="-3.16654">
        <ele>368</ele>
        <time>2014-11-10T16:05:18.1Z</time>
      </trkpt>
      <trkpt lat="48.42807" lon="-3.16654">
        <ele>368</ele>
        <time>2014-11-10T16:05:20.1Z</time>
      </trkpt>
      <trkpt lat="48.42809" lon="-3.16655">
        <ele>369</ele>
        <time>2014-11-10T16:05:23.1Z</time>
      </trkpt>
      <trkpt lat="48.42812" lon="-3.16654">
        <ele>369</ele>
        <time>2014-11-10T16:05:26.1Z</time>
      </trkpt>
      <trkpt lat="48.42814" lon="-3.16654">
        <ele>369</ele>
        <time>2014-11-10T16:05:28.1Z</time>
      </trkpt>
      <trkpt lat="48.42816" lon="-3.16653">
        <ele>369</ele>
        <time>2014-11-10T16:05:30.1Z</time>
      </trkpt>
      <trkpt lat="48.42819" lon="-3.16653">
        <ele>369</ele>
        <time>2014-11-10T16:05:33.1Z</time>
      </trkpt>
      <trkpt lat="48.42821" lon="-3.16653">
        <ele>369</ele>
        <time>2014-11-10T16:05:35.1Z</time>
      </trkpt>
      <trkpt lat="48.42825" lon="-3.16653">
        <ele>369</ele>
        <time>2014-11-10T16:05:38.1Z</time>
      </trkpt>
      <trkpt lat="48.42828" lon="-3.16653">
        <ele>369</ele>
        <time>2014-11-10T16:05:41.1Z</time>
      </trkpt>
      <trkpt lat="48.4283" lon="-3.16654">
        <ele>368</ele>
        <time>2014-11-10T16:05:44.1Z</time>
      </trkpt>
      <trkpt lat="48.42832" lon="-3.16654">
        <ele>368</ele>
        <time>2014-11-10T16:05:47.1Z</time>
      </trkpt>
      <trkpt lat="48.42834" lon="-3.16655">
        <ele>368</ele>
        <time>2014-11-10T16:05:50.1Z</time>
      </trkpt>
      <trkpt lat="48.42836" lon="-3.16655">
        <ele>368</ele>
        <time>2014-11-10T16:05:52.1Z</time>
      </trkpt>
      <trkpt lat="48.42838" lon="-3.16655">
        <ele>368</ele>
        <time>2014-11-10T16:05:54.1Z</time>
      </trkpt>
      <trkpt lat="48.42839" lon="-3.16655">
        <ele>368</ele>
        <time>2014-11-10T16:05:57.1Z</time>
      </trkpt>
      <trkpt lat="48.4284" lon="-3.16655">
        <ele>368</ele>
        <time>2014-11-10T16:06:00.1Z</time>
      </trkpt>
      <trkpt lat="48.42841" lon="-3.16656">
        <ele>368</ele>
        <time>2014-11-10T16:06:03.1Z</time>
      </trkpt>
      <trkpt lat="48.42842" lon="-3.16656">
        <ele>368</ele>
        <time>2014-11-10T16:06:06.1Z</time>
      </trkpt>
      <trkpt lat="48.42843" lon="-3.16657">
        <ele>368</ele>
        <time>2014-11-10T16:06:09.1Z</time>
      </trkpt>
      <trkpt lat="48.42845" lon="-3.16657">
        <ele>368</ele>
        <time>2014-11-10T16:06:12.1Z</time>
      </trkpt>
      <trkpt lat="48.42847" lon="-3.16659">
        <ele>368</ele>
        <time>2014-11-10T16:06:14.1Z</time>
      </trkpt>
      <trkpt lat="48.42849" lon="-3.16661">
        <ele>367</ele>
        <time>2014-11-10T16:06:17.1Z</time>
      </trkpt>
      <trkpt lat="48.4285" lon="-3.16662">
        <ele>367</ele>
        <time>2014-11-10T16:06:19.1Z</time>
      </trkpt>
      <trkpt lat="48.4285" lon="-3.16663">
        <ele>367</ele>
        <time>2014-11-10T16:06:22.1Z</time>
      </trkpt>
      <trkpt lat="48.42852" lon="-3.16665">
        <ele>367</ele>
        <time>2014-11-10T16:06:25.1Z</time>
      </trkpt>
      <trkpt lat="48.42853" lon="-3.16667">
        <ele>367</ele>
        <time>2014-11-10T16:06:28.1Z</time>
      </trkpt>
      <trkpt lat="48.42854" lon="-3.16667">
        <ele>366</ele>
        <time>2014-11-10T16:06:30.1Z</time>
      </trkpt>
      <trkpt lat="48.42857" lon="-3.16666">
        <ele>366</ele>
        <time>2014-11-10T16:06:33.1Z</time>
      </trkpt>
      <trkpt lat="48.42859" lon="-3.16667">
        <ele>366</ele>
        <time>2014-11-10T16:06:36.1Z</time>
      </trkpt>
      <trkpt lat="48.4286" lon="-3.16669">
        <ele>366</ele>
        <time>2014-11-10T16:06:39.1Z</time>
      </trkpt>
      <trkpt lat="48.42862" lon="-3.16669">
        <ele>366</ele>
        <time>2014-11-10T16:06:42.1Z</time>
      </trkpt>
      <trkpt lat="48.42864" lon="-3.16669">
        <ele>365</ele>
        <time>2014-11-10T16:06:45.1Z</time>
      </trkpt>
      <trkpt lat="48.42865" lon="-3.1667">
        <ele>365</ele>
        <time>2014-11-10T16:06:48.1Z</time>
      </trkpt>
      <trkpt lat="48.42867" lon="-3.1667">
        <ele>365</ele>
        <time>2014-11-10T16:06:51.1Z</time>
      </trkpt>
      <trkpt lat="48.42869" lon="-3.16671">
        <ele>365</ele>
        <time>2014-11-10T16:06:54.1Z</time>
      </trkpt>
      <trkpt lat="48.4287" lon="-3.16672">
        <ele>365</ele>
        <time>2014-11-10T16:06:56.1Z</time>
      </trkpt>
      <trkpt lat="48.42871" lon="-3.16673">
        <ele>365</ele>
        <time>2014-11-10T16:06:59.1Z</time>
      </trkpt>
      <trkpt lat="48.42873" lon="-3.16674">
        <ele>365</ele>
        <time>2014-11-10T16:07:02.1Z</time>
      </trkpt>
      <trkpt lat="48.42874" lon="-3.16674">
        <ele>365</ele>
        <time>2014-11-10T16:07:05.1Z</time>
      </trkpt>
      <trkpt lat="48.42876" lon="-3.16675">
        <ele>365</ele>
        <time>2014-11-10T16:07:08.1Z</time>
      </trkpt>
      <trkpt lat="48.42878" lon="-3.16677">
        <ele>364</ele>
        <time>2014-11-10T16:07:11.1Z</time>
      </trkpt>
      <trkpt lat="48.4288" lon="-3.16679">
        <ele>363</ele>
        <time>2014-11-10T16:07:14.1Z</time>
      </trkpt>
      <trkpt lat="48.42882" lon="-3.16681">
        <ele>362</ele>
        <time>2014-11-10T16:07:17.1Z</time>
      </trkpt>
      <trkpt lat="48.42884" lon="-3.16683">
        <ele>362</ele>
        <time>2014-11-10T16:07:20.1Z</time>
      </trkpt>
      <trkpt lat="48.42885" lon="-3.16684">
        <ele>362</ele>
        <time>2014-11-10T16:07:22.1Z</time>
      </trkpt>
      <trkpt lat="48.42887" lon="-3.16685">
        <ele>361</ele>
        <time>2014-11-10T16:07:25.1Z</time>
      </trkpt>
      <trkpt lat="48.42888" lon="-3.16687">
        <ele>362</ele>
        <time>2014-11-10T16:07:27.1Z</time>
      </trkpt>
      <trkpt lat="48.42889" lon="-3.16686">
        <ele>362</ele>
        <time>2014-11-10T16:07:29.1Z</time>
      </trkpt>
      <trkpt lat="48.42891" lon="-3.16685">
        <ele>362</ele>
        <time>2014-11-10T16:07:32.1Z</time>
      </trkpt>
      <trkpt lat="48.42892" lon="-3.16685">
        <ele>362</ele>
        <time>2014-11-10T16:07:34.1Z</time>
      </trkpt>
      <trkpt lat="48.42897" lon="-3.16683">
        <ele>362</ele>
        <time>2014-11-10T16:07:37.1Z</time>
      </trkpt>
      <trkpt lat="48.42899" lon="-3.16683">
        <ele>362</ele>
        <time>2014-11-10T16:07:39.1Z</time>
      </trkpt>
      <trkpt lat="48.42901" lon="-3.16683">
        <ele>362</ele>
        <time>2014-11-10T16:07:42.1Z</time>
      </trkpt>
      <trkpt lat="48.42903" lon="-3.16683">
        <ele>362</ele>
        <time>2014-11-10T16:07:45.1Z</time>
      </trkpt>
      <trkpt lat="48.42905" lon="-3.16683">
        <ele>362</ele>
        <time>2014-11-10T16:07:48.1Z</time>
      </trkpt>
      <trkpt lat="48.42907" lon="-3.16683">
        <ele>362</ele>
        <time>2014-11-10T16:07:50.1Z</time>
      </trkpt>
      <trkpt lat="48.42908" lon="-3.16682">
        <ele>363</ele>
        <time>2014-11-10T16:07:53.1Z</time>
      </trkpt>
      <trkpt lat="48.4291" lon="-3.16683">
        <ele>363</ele>
        <time>2014-11-10T16:07:56.1Z</time>
      </trkpt>
      <trkpt lat="48.42911" lon="-3.16683">
        <ele>364</ele>
        <time>2014-11-10T16:07:59.1Z</time>
      </trkpt>
      <trkpt lat="48.42912" lon="-3.16683">
        <ele>363</ele>
        <time>2014-11-10T16:08:01.1Z</time>
      </trkpt>
      <trkpt lat="48.42913" lon="-3.16684">
        <ele>363</ele>
        <time>2014-11-10T16:08:03.1Z</time>
      </trkpt>
      <trkpt lat="48.42915" lon="-3.16685">
        <ele>363</ele>
        <time>2014-11-10T16:08:05.1Z</time>
      </trkpt>
      <trkpt lat="48.42916" lon="-3.16685">
        <ele>363</ele>
        <time>2014-11-10T16:08:08.1Z</time>
      </trkpt>
      <trkpt lat="48.42919" lon="-3.16687">
        <ele>362</ele>
        <time>2014-11-10T16:08:11.1Z</time>
      </trkpt>
      <trkpt lat="48.4292" lon="-3.16688">
        <ele>361</ele>
        <time>2014-11-10T16:08:14.1Z</time>
      </trkpt>
      <trkpt lat="48.42922" lon="-3.16688">
        <ele>361</ele>
        <time>2014-11-10T16:08:16.1Z</time>
      </trkpt>
      <trkpt lat="48.42924" lon="-3.16689">
        <ele>360</ele>
        <time>2014-11-10T16:08:19.1Z</time>
      </trkpt>
      <trkpt lat="48.42926" lon="-3.16689">
        <ele>360</ele>
        <time>2014-11-10T16:08:21.1Z</time>
      </trkpt>
      <trkpt lat="48.42927" lon="-3.1669">
        <ele>360</ele>
        <time>2014-11-10T16:08:23.1Z</time>
      </trkpt>
      <trkpt lat="48.42929" lon="-3.1669">
        <ele>360</ele>
        <time>2014-11-10T16:08:26.1Z</time>
      </trkpt>
      <trkpt lat="48.42931" lon="-3.1669">
        <ele>360</ele>
        <time>2014-11-10T16:08:28.1Z</time>
      </trkpt>
      <trkpt lat="48.42932" lon="-3.16688">
        <ele>360</ele>
        <time>2014-11-10T16:08:30.1Z</time>
      </trkpt>
      <trkpt lat="48.42934" lon="-3.16689">
        <ele>360</ele>
        <time>2014-11-10T16:08:33.1Z</time>
      </trkpt>
      <trkpt lat="48.42935" lon="-3.16689">
        <ele>360</ele>
        <time>2014-11-10T16:08:35.1Z</time>
      </trkpt>
      <trkpt lat="48.42936" lon="-3.16688">
        <ele>359</ele>
        <time>2014-11-10T16:08:38.1Z</time>
      </trkpt>
      <trkpt lat="48.42939" lon="-3.16687">
        <ele>359</ele>
        <time>2014-11-10T16:08:41.1Z</time>
      </trkpt>
      <trkpt lat="48.42941" lon="-3.16686">
        <ele>359</ele>
        <time>2014-11-10T16:08:44.1Z</time>
      </trkpt>
      <trkpt lat="48.42941" lon="-3.16686">
        <ele>359</ele>
        <time>2014-11-10T16:08:46.1Z</time>
      </trkpt>
      <trkpt lat="48.42942" lon="-3.16685">
        <ele>359</ele>
        <time>2014-11-10T16:08:49.1Z</time>
      </trkpt>
      <trkpt lat="48.42942" lon="-3.16685">
        <ele>359</ele>
        <time>2014-11-10T16:08:51.1Z</time>
      </trkpt>
      <trkpt lat="48.42943" lon="-3.16684">
        <ele>360</ele>
        <time>2014-11-10T16:08:53.1Z</time>
      </trkpt>
      <trkpt lat="48.42944" lon="-3.16684">
        <ele>360</ele>
        <time>2014-11-10T16:08:56.1Z</time>
      </trkpt>
      <trkpt lat="48.42947" lon="-3.16685">
        <ele>359</ele>
        <time>2014-11-10T16:08:59.1Z</time>
      </trkpt>
      <trkpt lat="48.42949" lon="-3.16685">
        <ele>359</ele>
        <time>2014-11-10T16:09:02.1Z</time>
      </trkpt>
      <trkpt lat="48.42951" lon="-3.16686">
        <ele>359</ele>
        <time>2014-11-10T16:09:05.1Z</time>
      </trkpt>
      <trkpt lat="48.42953" lon="-3.16686">
        <ele>359</ele>
        <time>2014-11-10T16:09:08.1Z</time>
      </trkpt>
      <trkpt lat="48.42955" lon="-3.16688">
        <ele>359</ele>
        <time>2014-11-10T16:09:11.1Z</time>
      </trkpt>
      <trkpt lat="48.42958" lon="-3.1669">
        <ele>359</ele>
        <time>2014-11-10T16:09:14.1Z</time>
      </trkpt>
      <trkpt lat="48.4296" lon="-3.16691">
        <ele>359</ele>
        <time>2014-11-10T16:09:16.1Z</time>
      </trkpt>
      <trkpt lat="48.42962" lon="-3.16691">
        <ele>359</ele>
        <time>2014-11-10T16:09:18.1Z</time>
      </trkpt>
      <trkpt lat="48.42964" lon="-3.16692">
        <ele>359</ele>
        <time>2014-11-10T16:09:21.1Z</time>
      </trkpt>
      <trkpt lat="48.42967" lon="-3.16692">
        <ele>359</ele>
        <time>2014-11-10T16:09:24.1Z</time>
      </trkpt>
      <trkpt lat="48.4297" lon="-3.16692">
        <ele>358</ele>
        <time>2014-11-10T16:09:27.1Z</time>
      </trkpt>
      <trkpt lat="48.42972" lon="-3.16691">
        <ele>358</ele>
        <time>2014-11-10T16:09:29.1Z</time>
      </trkpt>
      <trkpt lat="48.42975" lon="-3.16691">
        <ele>358</ele>
        <time>2014-11-10T16:09:31.1Z</time>
      </trkpt>
      <trkpt lat="48.42977" lon="-3.16692">
        <ele>358</ele>
        <time>2014-11-10T16:09:33.1Z</time>
      </trkpt>
      <trkpt lat="48.42981" lon="-3.16692">
        <ele>358</ele>
        <time>2014-11-10T16:09:36.1Z</time>
      </trkpt>
      <trkpt lat="48.42984" lon="-3.16692">
        <ele>358</ele>
        <time>2014-11-10T16:09:39.1Z</time>
      </trkpt>
      <trkpt lat="48.42988" lon="-3.16692">
        <ele>359</ele>
        <time>2014-11-10T16:09:42.1Z</time>
      </trkpt>
      <trkpt lat="48.4299" lon="-3.16693">
        <ele>358</ele>
        <time>2014-11-10T16:09:44.1Z</time>
      </trkpt>
      <trkpt lat="48.42993" lon="-3.16694">
        <ele>358</ele>
        <time>2014-11-10T16:09:46.1Z</time>
      </trkpt>
      <trkpt lat="48.42996" lon="-3.16693">
        <ele>358</ele>
        <time>2014-11-10T16:09:49.1Z</time>
      </trkpt>
      <trkpt lat="48.42999" lon="-3.16692">
        <ele>358</ele>
        <time>2014-11-10T16:09:52.1Z</time>
      </trkpt>
      <trkpt lat="48.43" lon="-3.16692">
        <ele>358</ele>
        <time>2014-11-10T16:09:54.1Z</time>
      </trkpt>
      <trkpt lat="48.43" lon="-3.16693">
        <ele>358</ele>
        <time>2014-11-10T16:09:57.1Z</time>
      </trkpt>
      <trkpt lat="48.43001" lon="-3.16693">
        <ele>358</ele>
        <time>2014-11-10T16:09:59.1Z</time>
      </trkpt>
      <trkpt lat="48.43002" lon="-3.16694">
        <ele>359</ele>
        <time>2014-11-10T16:10:02.1Z</time>
      </trkpt>
      <trkpt lat="48.43005" lon="-3.16693">
        <ele>358</ele>
        <time>2014-11-10T16:10:05.1Z</time>
      </trkpt>
      <trkpt lat="48.43007" lon="-3.16694">
        <ele>358</ele>
        <time>2014-11-10T16:10:07.1Z</time>
      </trkpt>
      <trkpt lat="48.4301" lon="-3.16694">
        <ele>358</ele>
        <time>2014-11-10T16:10:10.1Z</time>
      </trkpt>
      <trkpt lat="48.43012" lon="-3.16695">
        <ele>358</ele>
        <time>2014-11-10T16:10:12.1Z</time>
      </trkpt>
      <trkpt lat="48.43015" lon="-3.16696">
        <ele>358</ele>
        <time>2014-11-10T16:10:15.1Z</time>
      </trkpt>
      <trkpt lat="48.43017" lon="-3.16696">
        <ele>357</ele>
        <time>2014-11-10T16:10:17.1Z</time>
      </trkpt>
      <trkpt lat="48.43019" lon="-3.16697">
        <ele>357</ele>
        <time>2014-11-10T16:10:20.1Z</time>
      </trkpt>
      <trkpt lat="48.43022" lon="-3.16697">
        <ele>357</ele>
        <time>2014-11-10T16:10:23.1Z</time>
      </trkpt>
      <trkpt lat="48.43026" lon="-3.16697">
        <ele>356</ele>
        <time>2014-11-10T16:10:26.1Z</time>
      </trkpt>
      <trkpt lat="48.43029" lon="-3.16698">
        <ele>356</ele>
        <time>2014-11-10T16:10:29.1Z</time>
      </trkpt>
      <trkpt lat="48.43031" lon="-3.16699">
        <ele>356</ele>
        <time>2014-11-10T16:10:32.1Z</time>
      </trkpt>
      <trkpt lat="48.43033" lon="-3.16699">
        <ele>356</ele>
        <time>2014-11-10T16:10:34.1Z</time>
      </trkpt>
      <trkpt lat="48.43036" lon="-3.16699">
        <ele>356</ele>
        <time>2014-11-10T16:10:36.1Z</time>
      </trkpt>
      <trkpt lat="48.43039" lon="-3.16699">
        <ele>355</ele>
        <time>2014-11-10T16:10:39.1Z</time>
      </trkpt>
      <trkpt lat="48.43042" lon="-3.16699">
        <ele>355</ele>
        <time>2014-11-10T16:10:41.1Z</time>
      </trkpt>
      <trkpt lat="48.43045" lon="-3.167">
        <ele>355</ele>
        <time>2014-11-10T16:10:44.1Z</time>
      </trkpt>
      <trkpt lat="48.43048" lon="-3.167">
        <ele>355</ele>
        <time>2014-11-10T16:10:47.1Z</time>
      </trkpt>
      <trkpt lat="48.43049" lon="-3.16699">
        <ele>355</ele>
        <time>2014-11-10T16:10:50.1Z</time>
      </trkpt>
      <trkpt lat="48.43052" lon="-3.16698">
        <ele>355</ele>
        <time>2014-11-10T16:10:53.1Z</time>
      </trkpt>
      <trkpt lat="48.43053" lon="-3.16698">
        <ele>355</ele>
        <time>2014-11-10T16:10:56.1Z</time>
      </trkpt>
      <trkpt lat="48.43054" lon="-3.16699">
        <ele>355</ele>
        <time>2014-11-10T16:10:58.1Z</time>
      </trkpt>
      <trkpt lat="48.43054" lon="-3.16699">
        <ele>355</ele>
        <time>2014-11-10T16:11:00.1Z</time>
      </trkpt>
      <trkpt lat="48.43057" lon="-3.16699">
        <ele>355</ele>
        <time>2014-11-10T16:11:03.1Z</time>
      </trkpt>
      <trkpt lat="48.43059" lon="-3.16698">
        <ele>354</ele>
        <time>2014-11-10T16:11:05.1Z</time>
      </trkpt>
      <trkpt lat="48.4306" lon="-3.16698">
        <ele>354</ele>
        <time>2014-11-10T16:11:07.1Z</time>
      </trkpt>
      <trkpt lat="48.43061" lon="-3.16698">
        <ele>354</ele>
        <time>2014-11-10T16:11:10.1Z</time>
      </trkpt>
      <trkpt lat="48.43062" lon="-3.16698">
        <ele>355</ele>
        <time>2014-11-10T16:11:12.1Z</time>
      </trkpt>
      <trkpt lat="48.43063" lon="-3.16699">
        <ele>355</ele>
        <time>2014-11-10T16:11:15.1Z</time>
      </trkpt>
      <trkpt lat="48.43064" lon="-3.167">
        <ele>355</ele>
        <time>2014-11-10T16:11:17.1Z</time>
      </trkpt>
      <trkpt lat="48.43064" lon="-3.16701">
        <ele>355</ele>
        <time>2014-11-10T16:11:20.1Z</time>
      </trkpt>
      <trkpt lat="48.43065" lon="-3.16701">
        <ele>355</ele>
        <time>2014-11-10T16:11:23.1Z</time>
      </trkpt>
      <trkpt lat="48.43065" lon="-3.16701">
        <ele>354</ele>
        <time>2014-11-10T16:11:26.1Z</time>
      </trkpt>
      <trkpt lat="48.43065" lon="-3.16701">
        <ele>354</ele>
        <time>2014-11-10T16:11:30.1Z</time>
      </trkpt>
      <trkpt lat="48.43066" lon="-3.167">
        <ele>354</ele>
        <time>2014-11-10T16:11:33.1Z</time>
      </trkpt>
      <trkpt lat="48.43066" lon="-3.16699">
        <ele>354</ele>
        <time>2014-11-10T16:11:36.1Z</time>
      </trkpt>
      <trkpt lat="48.43066" lon="-3.16699">
        <ele>354</ele>
        <time>2014-11-10T16:11:38.1Z</time>
      </trkpt>
      <trkpt lat="48.43067" lon="-3.16699">
        <ele>355</ele>
        <time>2014-11-10T16:11:40.1Z</time>
      </trkpt>
      <trkpt lat="48.43068" lon="-3.16698">
        <ele>355</ele>
        <time>2014-11-10T16:11:43.1Z</time>
      </trkpt>
      <trkpt lat="48.4307" lon="-3.16698">
        <ele>355</ele>
        <time>2014-11-10T16:11:46.1Z</time>
      </trkpt>
      <trkpt lat="48.43071" lon="-3.16697">
        <ele>354</ele>
        <time>2014-11-10T16:11:48.1Z</time>
      </trkpt>
      <trkpt lat="48.43072" lon="-3.16696">
        <ele>354</ele>
        <time>2014-11-10T16:11:51.1Z</time>
      </trkpt>
      <trkpt lat="48.43073" lon="-3.16695">
        <ele>354</ele>
        <time>2014-11-10T16:11:53.1Z</time>
      </trkpt>
      <trkpt lat="48.43075" lon="-3.16693">
        <ele>354</ele>
        <time>2014-11-10T16:11:56.1Z</time>
      </trkpt>
      <trkpt lat="48.43076" lon="-3.16692">
        <ele>354</ele>
        <time>2014-11-10T16:11:58.1Z</time>
      </trkpt>
      <trkpt lat="48.43079" lon="-3.1669">
        <ele>354</ele>
        <time>2014-11-10T16:12:01.1Z</time>
      </trkpt>
      <trkpt lat="48.4308" lon="-3.16689">
        <ele>354</ele>
        <time>2014-11-10T16:12:03.1Z</time>
      </trkpt>
      <trkpt lat="48.43082" lon="-3.16687">
        <ele>354</ele>
        <time>2014-11-10T16:12:06.1Z</time>
      </trkpt>
      <trkpt lat="48.43085" lon="-3.16685">
        <ele>354</ele>
        <time>2014-11-10T16:12:09.1Z</time>
      </trkpt>
      <trkpt lat="48.43086" lon="-3.16684">
        <ele>354</ele>
        <time>2014-11-10T16:12:11.1Z</time>
      </trkpt>
      <trkpt lat="48.43089" lon="-3.16682">
        <ele>354</ele>
        <time>2014-11-10T16:12:14.1Z</time>
      </trkpt>
      <trkpt lat="48.43092" lon="-3.16679">
        <ele>354</ele>
        <time>2014-11-10T16:12:17.1Z</time>
      </trkpt>
      <trkpt lat="48.43095" lon="-3.16676">
        <ele>353</ele>
        <time>2014-11-10T16:12:20.1Z</time>
      </trkpt>
      <trkpt lat="48.43097" lon="-3.16673">
        <ele>353</ele>
        <time>2014-11-10T16:12:23.1Z</time>
      </trkpt>
      <trkpt lat="48.431" lon="-3.1667">
        <ele>352</ele>
        <time>2014-11-10T16:12:26.1Z</time>
      </trkpt>
      <trkpt lat="48.43102" lon="-3.16667">
        <ele>352</ele>
        <time>2014-11-10T16:12:29.1Z</time>
      </trkpt>
      <trkpt lat="48.43104" lon="-3.16666">
        <ele>352</ele>
        <time>2014-11-10T16:12:31.1Z</time>
      </trkpt>
      <trkpt lat="48.43106" lon="-3.16663">
        <ele>351</ele>
        <time>2014-11-10T16:12:34.1Z</time>
      </trkpt>
      <trkpt lat="48.43108" lon="-3.16663">
        <ele>351</ele>
        <time>2014-11-10T16:12:37.1Z</time>
      </trkpt>
      <trkpt lat="48.4311" lon="-3.16662">
        <ele>351</ele>
        <time>2014-11-10T16:12:39.1Z</time>
      </trkpt>
      <trkpt lat="48.43112" lon="-3.16662">
        <ele>351</ele>
        <time>2014-11-10T16:12:42.1Z</time>
      </trkpt>
      <trkpt lat="48.43114" lon="-3.16662">
        <ele>351</ele>
        <time>2014-11-10T16:12:45.1Z</time>
      </trkpt>
      <trkpt lat="48.43117" lon="-3.16661">
        <ele>352</ele>
        <time>2014-11-10T16:12:48.1Z</time>
      </trkpt>
      <trkpt lat="48.4312" lon="-3.1666">
        <ele>352</ele>
        <time>2014-11-10T16:12:51.1Z</time>
      </trkpt>
      <trkpt lat="48.43123" lon="-3.16659">
        <ele>352</ele>
        <time>2014-11-10T16:12:54.1Z</time>
      </trkpt>
      <trkpt lat="48.43126" lon="-3.16659">
        <ele>352</ele>
        <time>2014-11-10T16:12:57.1Z</time>
      </trkpt>
      <trkpt lat="48.43129" lon="-3.1666">
        <ele>352</ele>
        <time>2014-11-10T16:13:00.1Z</time>
      </trkpt>
      <trkpt lat="48.4313" lon="-3.16661">
        <ele>353</ele>
        <time>2014-11-10T16:13:02.1Z</time>
      </trkpt>
      <trkpt lat="48.43133" lon="-3.16662">
        <ele>353</ele>
        <time>2014-11-10T16:13:05.1Z</time>
      </trkpt>
      <trkpt lat="48.43136" lon="-3.16662">
        <ele>353</ele>
        <time>2014-11-10T16:13:08.1Z</time>
      </trkpt>
      <trkpt lat="48.43137" lon="-3.16663">
        <ele>353</ele>
        <time>2014-11-10T16:13:11.1Z</time>
      </trkpt>
      <trkpt lat="48.43138" lon="-3.16662">
        <ele>353</ele>
        <time>2014-11-10T16:13:14.1Z</time>
      </trkpt>
      <trkpt lat="48.43139" lon="-3.16661">
        <ele>353</ele>
        <time>2014-11-10T16:13:16.1Z</time>
      </trkpt>
      <trkpt lat="48.4314" lon="-3.16661">
        <ele>354</ele>
        <time>2014-11-10T16:13:19.1Z</time>
      </trkpt>
      <trkpt lat="48.43139" lon="-3.16661">
        <ele>353</ele>
        <time>2014-11-10T16:13:21.1Z</time>
      </trkpt>
      <trkpt lat="48.43141" lon="-3.16663">
        <ele>353</ele>
        <time>2014-11-10T16:13:24.1Z</time>
      </trkpt>
      <trkpt lat="48.43142" lon="-3.16664">
        <ele>353</ele>
        <time>2014-11-10T16:13:26.1Z</time>
      </trkpt>
      <trkpt lat="48.43143" lon="-3.16666">
        <ele>353</ele>
        <time>2014-11-10T16:13:29.1Z</time>
      </trkpt>
      <trkpt lat="48.43143" lon="-3.1667">
        <ele>353</ele>
        <time>2014-11-10T16:13:32.1Z</time>
      </trkpt>
      <trkpt lat="48.43142" lon="-3.16674">
        <ele>352</ele>
        <time>2014-11-10T16:13:35.1Z</time>
      </trkpt>
      <trkpt lat="48.4314" lon="-3.16678">
        <ele>352</ele>
        <time>2014-11-10T16:13:38.1Z</time>
      </trkpt>
      <trkpt lat="48.43139" lon="-3.16681">
        <ele>352</ele>
        <time>2014-11-10T16:13:41.1Z</time>
      </trkpt>
      <trkpt lat="48.43138" lon="-3.16683">
        <ele>352</ele>
        <time>2014-11-10T16:13:43.1Z</time>
      </trkpt>
      <trkpt lat="48.43137" lon="-3.16686">
        <ele>352</ele>
        <time>2014-11-10T16:13:46.1Z</time>
      </trkpt>
      <trkpt lat="48.43137" lon="-3.16688">
        <ele>351</ele>
        <time>2014-11-10T16:13:49.1Z</time>
      </trkpt>
      <trkpt lat="48.43137" lon="-3.16689">
        <ele>351</ele>
        <time>2014-11-10T16:13:51.1Z</time>
      </trkpt>
      <trkpt lat="48.43137" lon="-3.1669">
        <ele>351</ele>
        <time>2014-11-10T16:13:54.1Z</time>
      </trkpt>
      <trkpt lat="48.43136" lon="-3.1669">
        <ele>351</ele>
        <time>2014-11-10T16:13:56.1Z</time>
      </trkpt>
      <trkpt lat="48.43136" lon="-3.16691">
        <ele>351</ele>
        <time>2014-11-10T16:13:58.1Z</time>
      </trkpt>
      <trkpt lat="48.43136" lon="-3.16697">
        <ele>351</ele>
        <time>2014-11-10T16:14:01.1Z</time>
      </trkpt>
      <trkpt lat="48.43136" lon="-3.167">
        <ele>350</ele>
        <time>2014-11-10T16:14:03.1Z</time>
      </trkpt>
      <trkpt lat="48.43137" lon="-3.16706">
        <ele>350</ele>
        <time>2014-11-10T16:14:06.1Z</time>
      </trkpt>
      <trkpt lat="48.43137" lon="-3.16709">
        <ele>349</ele>
        <time>2014-11-10T16:14:08.1Z</time>
      </trkpt>
      <trkpt lat="48.43137" lon="-3.16713">
        <ele>349</ele>
        <time>2014-11-10T16:14:11.1Z</time>
      </trkpt>
      <trkpt lat="48.43138" lon="-3.16717">
        <ele>349</ele>
        <time>2014-11-10T16:14:14.1Z</time>
      </trkpt>
      <trkpt lat="48.43139" lon="-3.1672">
        <ele>349</ele>
        <time>2014-11-10T16:14:16.1Z</time>
      </trkpt>
      <trkpt lat="48.43139" lon="-3.16722">
        <ele>349</ele>
        <time>2014-11-10T16:14:18.1Z</time>
      </trkpt>
      <trkpt lat="48.4314" lon="-3.16725">
        <ele>348</ele>
        <time>2014-11-10T16:14:20.1Z</time>
      </trkpt>
      <trkpt lat="48.43141" lon="-3.16728">
        <ele>348</ele>
        <time>2014-11-10T16:14:23.1Z</time>
      </trkpt>
      <trkpt lat="48.43142" lon="-3.16732">
        <ele>348</ele>
        <time>2014-11-10T16:14:26.1Z</time>
      </trkpt>
      <trkpt lat="48.43142" lon="-3.16735">
        <ele>348</ele>
        <time>2014-11-10T16:14:28.1Z</time>
      </trkpt>
      <trkpt lat="48.43144" lon="-3.16738">
        <ele>348</ele>
        <time>2014-11-10T16:14:31.1Z</time>
      </trkpt>
      <trkpt lat="48.43145" lon="-3.16742">
        <ele>348</ele>
        <time>2014-11-10T16:14:34.1Z</time>
      </trkpt>
      <trkpt lat="48.43145" lon="-3.16745">
        <ele>348</ele>
        <time>2014-11-10T16:14:36.1Z</time>
      </trkpt>
      <trkpt lat="48.43146" lon="-3.16749">
        <ele>349</ele>
        <time>2014-11-10T16:14:39.1Z</time>
      </trkpt>
      <trkpt lat="48.43147" lon="-3.16751">
        <ele>349</ele>
        <time>2014-11-10T16:14:41.1Z</time>
      </trkpt>
      <trkpt lat="48.43148" lon="-3.16755">
        <ele>348</ele>
        <time>2014-11-10T16:14:44.1Z</time>
      </trkpt>
      <trkpt lat="48.43149" lon="-3.16759">
        <ele>347</ele>
        <time>2014-11-10T16:14:47.1Z</time>
      </trkpt>
      <trkpt lat="48.43149" lon="-3.16761">
        <ele>347</ele>
        <time>2014-11-10T16:14:49.1Z</time>
      </trkpt>
      <trkpt lat="48.4315" lon="-3.16764">
        <ele>347</ele>
        <time>2014-11-10T16:14:51.1Z</time>
      </trkpt>
      <trkpt lat="48.43151" lon="-3.16769">
        <ele>346</ele>
        <time>2014-11-10T16:14:54.1Z</time>
      </trkpt>
      <trkpt lat="48.43152" lon="-3.16774">
        <ele>346</ele>
        <time>2014-11-10T16:14:57.1Z</time>
      </trkpt>
      <trkpt lat="48.43153" lon="-3.16777">
        <ele>346</ele>
        <time>2014-11-10T16:14:59.1Z</time>
      </trkpt>
      <trkpt lat="48.43155" lon="-3.16781">
        <ele>346</ele>
        <time>2014-11-10T16:15:02.1Z</time>
      </trkpt>
      <trkpt lat="48.43155" lon="-3.16786">
        <ele>346</ele>
        <time>2014-11-10T16:15:05.1Z</time>
      </trkpt>
      <trkpt lat="48.43156" lon="-3.16789">
        <ele>346</ele>
        <time>2014-11-10T16:15:07.1Z</time>
      </trkpt>
      <trkpt lat="48.43157" lon="-3.16792">
        <ele>345</ele>
        <time>2014-11-10T16:15:09.1Z</time>
      </trkpt>
      <trkpt lat="48.43158" lon="-3.16797">
        <ele>345</ele>
        <time>2014-11-10T16:15:12.1Z</time>
      </trkpt>
      <trkpt lat="48.43158" lon="-3.168">
        <ele>345</ele>
        <time>2014-11-10T16:15:14.1Z</time>
      </trkpt>
      <trkpt lat="48.43159" lon="-3.16805">
        <ele>345</ele>
        <time>2014-11-10T16:15:17.1Z</time>
      </trkpt>
      <trkpt lat="48.43159" lon="-3.16809">
        <ele>345</ele>
        <time>2014-11-10T16:15:19.1Z</time>
      </trkpt>
      <trkpt lat="48.4316" lon="-3.16812">
        <ele>345</ele>
        <time>2014-11-10T16:15:21.1Z</time>
      </trkpt>
      <trkpt lat="48.43162" lon="-3.16817">
        <ele>345</ele>
        <time>2014-11-10T16:15:24.1Z</time>
      </trkpt>
      <trkpt lat="48.43163" lon="-3.1682">
        <ele>345</ele>
        <time>2014-11-10T16:15:26.1Z</time>
      </trkpt>
      <trkpt lat="48.43165" lon="-3.16825">
        <ele>345</ele>
        <time>2014-11-10T16:15:29.1Z</time>
      </trkpt>
      <trkpt lat="48.43166" lon="-3.16827">
        <ele>344</ele>
        <time>2014-11-10T16:15:31.1Z</time>
      </trkpt>
      <trkpt lat="48.43169" lon="-3.16831">
        <ele>344</ele>
        <time>2014-11-10T16:15:34.1Z</time>
      </trkpt>
      <trkpt lat="48.43171" lon="-3.16834">
        <ele>344</ele>
        <time>2014-11-10T16:15:37.1Z</time>
      </trkpt>
      <trkpt lat="48.43172" lon="-3.16835">
        <ele>344</ele>
        <time>2014-11-10T16:15:39.1Z</time>
      </trkpt>
      <trkpt lat="48.43174" lon="-3.16836">
        <ele>344</ele>
        <time>2014-11-10T16:15:41.1Z</time>
      </trkpt>
      <trkpt lat="48.43176" lon="-3.16838">
        <ele>344</ele>
        <time>2014-11-10T16:15:44.1Z</time>
      </trkpt>
      <trkpt lat="48.43178" lon="-3.1684">
        <ele>344</ele>
        <time>2014-11-10T16:15:46.1Z</time>
      </trkpt>
      <trkpt lat="48.43179" lon="-3.16842">
        <ele>345</ele>
        <time>2014-11-10T16:15:48.1Z</time>
      </trkpt>
      <trkpt lat="48.43182" lon="-3.16844">
        <ele>345</ele>
        <time>2014-11-10T16:15:51.1Z</time>
      </trkpt>
      <trkpt lat="48.43184" lon="-3.16845">
        <ele>345</ele>
        <time>2014-11-10T16:15:53.1Z</time>
      </trkpt>
      <trkpt lat="48.43187" lon="-3.16847">
        <ele>344</ele>
        <time>2014-11-10T16:15:56.1Z</time>
      </trkpt>
      <trkpt lat="48.43188" lon="-3.16849">
        <ele>344</ele>
        <time>2014-11-10T16:15:59.1Z</time>
      </trkpt>
      <trkpt lat="48.4319" lon="-3.16852">
        <ele>344</ele>
        <time>2014-11-10T16:16:02.1Z</time>
      </trkpt>
      <trkpt lat="48.43192" lon="-3.16856">
        <ele>344</ele>
        <time>2014-11-10T16:16:05.1Z</time>
      </trkpt>
      <trkpt lat="48.43193" lon="-3.16859">
        <ele>344</ele>
        <time>2014-11-10T16:16:08.1Z</time>
      </trkpt>
      <trkpt lat="48.43194" lon="-3.16861">
        <ele>344</ele>
        <time>2014-11-10T16:16:11.1Z</time>
      </trkpt>
      <trkpt lat="48.43196" lon="-3.16864">
        <ele>344</ele>
        <time>2014-11-10T16:16:14.1Z</time>
      </trkpt>
      <trkpt lat="48.43199" lon="-3.16866">
        <ele>344</ele>
        <time>2014-11-10T16:16:16.1Z</time>
      </trkpt>
      <trkpt lat="48.43202" lon="-3.16869">
        <ele>344</ele>
        <time>2014-11-10T16:16:19.1Z</time>
      </trkpt>
      <trkpt lat="48.43205" lon="-3.16873">
        <ele>344</ele>
        <time>2014-11-10T16:16:22.1Z</time>
      </trkpt>
      <trkpt lat="48.43206" lon="-3.16876">
        <ele>344</ele>
        <time>2014-11-10T16:16:24.1Z</time>
      </trkpt>
      <trkpt lat="48.43209" lon="-3.16879">
        <ele>343</ele>
        <time>2014-11-10T16:16:27.1Z</time>
      </trkpt>
      <trkpt lat="48.43211" lon="-3.16881">
        <ele>344</ele>
        <time>2014-11-10T16:16:30.1Z</time>
      </trkpt>
      <trkpt lat="48.43215" lon="-3.16884">
        <ele>343</ele>
        <time>2014-11-10T16:16:33.1Z</time>
      </trkpt>
      <trkpt lat="48.43217" lon="-3.16886">
        <ele>343</ele>
        <time>2014-11-10T16:16:35.1Z</time>
      </trkpt>
      <trkpt lat="48.43219" lon="-3.16887">
        <ele>343</ele>
        <time>2014-11-10T16:16:37.1Z</time>
      </trkpt>
      <trkpt lat="48.43221" lon="-3.16889">
        <ele>343</ele>
        <time>2014-11-10T16:16:40.1Z</time>
      </trkpt>
      <trkpt lat="48.43224" lon="-3.16893">
        <ele>343</ele>
        <time>2014-11-10T16:16:43.1Z</time>
      </trkpt>
      <trkpt lat="48.43227" lon="-3.16896">
        <ele>343</ele>
        <time>2014-11-10T16:16:46.1Z</time>
      </trkpt>
      <trkpt lat="48.43231" lon="-3.16897">
        <ele>342</ele>
        <time>2014-11-10T16:16:49.1Z</time>
      </trkpt>
      <trkpt lat="48.43233" lon="-3.16897">
        <ele>342</ele>
        <time>2014-11-10T16:16:51.1Z</time>
      </trkpt>
      <trkpt lat="48.43236" lon="-3.16898">
        <ele>342</ele>
        <time>2014-11-10T16:16:54.1Z</time>
      </trkpt>
      <trkpt lat="48.43239" lon="-3.16899">
        <ele>342</ele>
        <time>2014-11-10T16:16:57.1Z</time>
      </trkpt>
      <trkpt lat="48.43242" lon="-3.16902">
        <ele>342</ele>
        <time>2014-11-10T16:17:00.1Z</time>
      </trkpt>
      <trkpt lat="48.43244" lon="-3.16904">
        <ele>342</ele>
        <time>2014-11-10T16:17:03.1Z</time>
      </trkpt>
      <trkpt lat="48.43248" lon="-3.16906">
        <ele>341</ele>
        <time>2014-11-10T16:17:06.1Z</time>
      </trkpt>
      <trkpt lat="48.43253" lon="-3.16908">
        <ele>341</ele>
        <time>2014-11-10T16:17:09.1Z</time>
      </trkpt>
      <trkpt lat="48.43255" lon="-3.16909">
        <ele>341</ele>
        <time>2014-11-10T16:17:11.1Z</time>
      </trkpt>
      <trkpt lat="48.43258" lon="-3.16912">
        <ele>341</ele>
        <time>2014-11-10T16:17:14.1Z</time>
      </trkpt>
      <trkpt lat="48.43261" lon="-3.16913">
        <ele>341</ele>
        <time>2014-11-10T16:17:16.1Z</time>
      </trkpt>
      <trkpt lat="48.43262" lon="-3.16913">
        <ele>341</ele>
        <time>2014-11-10T16:17:18.1Z</time>
      </trkpt>
      <trkpt lat="48.43266" lon="-3.16915">
        <ele>341</ele>
        <time>2014-11-10T16:17:21.1Z</time>
      </trkpt>
      <trkpt lat="48.4327" lon="-3.16916">
        <ele>341</ele>
        <time>2014-11-10T16:17:24.1Z</time>
      </trkpt>
      <trkpt lat="48.43274" lon="-3.16918">
        <ele>341</ele>
        <time>2014-11-10T16:17:27.1Z</time>
      </trkpt>
      <trkpt lat="48.43276" lon="-3.1692">
        <ele>341</ele>
        <time>2014-11-10T16:17:30.1Z</time>
      </trkpt>
      <trkpt lat="48.43279" lon="-3.16921">
        <ele>341</ele>
        <time>2014-11-10T16:17:32.1Z</time>
      </trkpt>
      <trkpt lat="48.43282" lon="-3.16922">
        <ele>341</ele>
        <time>2014-11-10T16:17:35.1Z</time>
      </trkpt>
      <trkpt lat="48.43287" lon="-3.16923">
        <ele>341</ele>
        <time>2014-11-10T16:17:38.1Z</time>
      </trkpt>
      <trkpt lat="48.43289" lon="-3.16923">
        <ele>341</ele>
        <time>2014-11-10T16:17:40.1Z</time>
      </trkpt>
      <trkpt lat="48.43293" lon="-3.16923">
        <ele>341</ele>
        <time>2014-11-10T16:17:43.1Z</time>
      </trkpt>
      <trkpt lat="48.43295" lon="-3.16923">
        <ele>341</ele>
        <time>2014-11-10T16:17:45.1Z</time>
      </trkpt>
      <trkpt lat="48.43298" lon="-3.16922">
        <ele>341</ele>
        <time>2014-11-10T16:17:48.1Z</time>
      </trkpt>
      <trkpt lat="48.43302" lon="-3.16922">
        <ele>341</ele>
        <time>2014-11-10T16:17:51.1Z</time>
      </trkpt>
      <trkpt lat="48.43304" lon="-3.16922">
        <ele>340</ele>
        <time>2014-11-10T16:17:54.1Z</time>
      </trkpt>
      <trkpt lat="48.43305" lon="-3.16923">
        <ele>340</ele>
        <time>2014-11-10T16:17:56.1Z</time>
      </trkpt>
      <trkpt lat="48.43308" lon="-3.16923">
        <ele>340</ele>
        <time>2014-11-10T16:17:59.1Z</time>
      </trkpt>
      <trkpt lat="48.4331" lon="-3.16925">
        <ele>340</ele>
        <time>2014-11-10T16:18:01.1Z</time>
      </trkpt>
      <trkpt lat="48.43313" lon="-3.16925">
        <ele>340</ele>
        <time>2014-11-10T16:18:04.1Z</time>
      </trkpt>
      <trkpt lat="48.43316" lon="-3.16926">
        <ele>340</ele>
        <time>2014-11-10T16:18:07.1Z</time>
      </trkpt>
      <trkpt lat="48.43318" lon="-3.16925">
        <ele>340</ele>
        <time>2014-11-10T16:18:09.1Z</time>
      </trkpt>
      <trkpt lat="48.4332" lon="-3.16924">
        <ele>340</ele>
        <time>2014-11-10T16:18:11.1Z</time>
      </trkpt>
      <trkpt lat="48.43323" lon="-3.16922">
        <ele>340</ele>
        <time>2014-11-10T16:18:14.1Z</time>
      </trkpt>
      <trkpt lat="48.43326" lon="-3.16921">
        <ele>340</ele>
        <time>2014-11-10T16:18:17.1Z</time>
      </trkpt>
      <trkpt lat="48.43328" lon="-3.1692">
        <ele>340</ele>
        <time>2014-11-10T16:18:20.1Z</time>
      </trkpt>
      <trkpt lat="48.43331" lon="-3.1692">
        <ele>340</ele>
        <time>2014-11-10T16:18:23.1Z</time>
      </trkpt>
      <trkpt lat="48.43334" lon="-3.16919">
        <ele>340</ele>
        <time>2014-11-10T16:18:26.1Z</time>
      </trkpt>
      <trkpt lat="48.43337" lon="-3.16918">
        <ele>340</ele>
        <time>2014-11-10T16:18:29.1Z</time>
      </trkpt>
      <trkpt lat="48.43339" lon="-3.16916">
        <ele>340</ele>
        <time>2014-11-10T16:18:31.1Z</time>
      </trkpt>
      <trkpt lat="48.43342" lon="-3.16917">
        <ele>340</ele>
        <time>2014-11-10T16:18:34.1Z</time>
      </trkpt>
      <trkpt lat="48.43344" lon="-3.16916">
        <ele>340</ele>
        <time>2014-11-10T16:18:36.1Z</time>
      </trkpt>
      <trkpt lat="48.43347" lon="-3.16915">
        <ele>340</ele>
        <time>2014-11-10T16:18:38.1Z</time>
      </trkpt>
      <trkpt lat="48.43349" lon="-3.16914">
        <ele>340</ele>
        <time>2014-11-10T16:18:40.1Z</time>
      </trkpt>
      <trkpt lat="48.43352" lon="-3.16913">
        <ele>340</ele>
        <time>2014-11-10T16:18:43.1Z</time>
      </trkpt>
      <trkpt lat="48.43354" lon="-3.16911">
        <ele>340</ele>
        <time>2014-11-10T16:18:45.1Z</time>
      </trkpt>
      <trkpt lat="48.43358" lon="-3.1691">
        <ele>340</ele>
        <time>2014-11-10T16:18:48.1Z</time>
      </trkpt>
      <trkpt lat="48.43362" lon="-3.16909">
        <ele>340</ele>
        <time>2014-11-10T16:18:51.1Z</time>
      </trkpt>
      <trkpt lat="48.43364" lon="-3.16907">
        <ele>341</ele>
        <time>2014-11-10T16:18:54.1Z</time>
      </trkpt>
      <trkpt lat="48.43367" lon="-3.16906">
        <ele>340</ele>
        <time>2014-11-10T16:18:56.1Z</time>
      </trkpt>
      <trkpt lat="48.43369" lon="-3.16906">
        <ele>340</ele>
        <time>2014-11-10T16:18:58.1Z</time>
      </trkpt>
      <trkpt lat="48.43372" lon="-3.16905">
        <ele>340</ele>
        <time>2014-11-10T16:19:01.1Z</time>
      </trkpt>
      <trkpt lat="48.43376" lon="-3.16904">
        <ele>340</ele>
        <time>2014-11-10T16:19:04.1Z</time>
      </trkpt>
      <trkpt lat="48.4338" lon="-3.16903">
        <ele>339</ele>
        <time>2014-11-10T16:19:07.1Z</time>
      </trkpt>
      <trkpt lat="48.43383" lon="-3.16902">
        <ele>339</ele>
        <time>2014-11-10T16:19:10.1Z</time>
      </trkpt>
      <trkpt lat="48.43387" lon="-3.16903">
        <ele>339</ele>
        <time>2014-11-10T16:19:13.1Z</time>
      </trkpt>
      <trkpt lat="48.43389" lon="-3.16903">
        <ele>338</ele>
        <time>2014-11-10T16:19:15.1Z</time>
      </trkpt>
      <trkpt lat="48.4339" lon="-3.16903">
        <ele>338</ele>
        <time>2014-11-10T16:19:18.1Z</time>
      </trkpt>
      <trkpt lat="48.43391" lon="-3.16903">
        <ele>338</ele>
        <time>2014-11-10T16:19:20.1Z</time>
      </trkpt>
      <trkpt lat="48.43392" lon="-3.16903">
        <ele>338</ele>
        <time>2014-11-10T16:19:22.1Z</time>
      </trkpt>
      <trkpt lat="48.43394" lon="-3.16903">
        <ele>338</ele>
        <time>2014-11-10T16:19:25.1Z</time>
      </trkpt>
      <trkpt lat="48.43396" lon="-3.16904">
        <ele>339</ele>
        <time>2014-11-10T16:19:27.1Z</time>
      </trkpt>
      <trkpt lat="48.43399" lon="-3.16905">
        <ele>338</ele>
        <time>2014-11-10T16:19:30.1Z</time>
      </trkpt>
      <trkpt lat="48.43401" lon="-3.16905">
        <ele>337</ele>
        <time>2014-11-10T16:19:33.1Z</time>
      </trkpt>
      <trkpt lat="48.43404" lon="-3.16905">
        <ele>336</ele>
        <time>2014-11-10T16:19:36.1Z</time>
      </trkpt>
      <trkpt lat="48.43406" lon="-3.16905">
        <ele>336</ele>
        <time>2014-11-10T16:19:38.1Z</time>
      </trkpt>
      <trkpt lat="48.43409" lon="-3.16905">
        <ele>336</ele>
        <time>2014-11-10T16:19:41.1Z</time>
      </trkpt>
      <trkpt lat="48.43411" lon="-3.16905">
        <ele>336</ele>
        <time>2014-11-10T16:19:43.1Z</time>
      </trkpt>
      <trkpt lat="48.43413" lon="-3.16905">
        <ele>336</ele>
        <time>2014-11-10T16:19:45.1Z</time>
      </trkpt>
      <trkpt lat="48.43415" lon="-3.16906">
        <ele>336</ele>
        <time>2014-11-10T16:19:48.1Z</time>
      </trkpt>
      <trkpt lat="48.43417" lon="-3.16907">
        <ele>336</ele>
        <time>2014-11-10T16:19:51.1Z</time>
      </trkpt>
      <trkpt lat="48.43421" lon="-3.16909">
        <ele>336</ele>
        <time>2014-11-10T16:19:54.1Z</time>
      </trkpt>
      <trkpt lat="48.43423" lon="-3.16911">
        <ele>336</ele>
        <time>2014-11-10T16:19:56.1Z</time>
      </trkpt>
      <trkpt lat="48.43426" lon="-3.16913">
        <ele>336</ele>
        <time>2014-11-10T16:19:59.1Z</time>
      </trkpt>
      <trkpt lat="48.43428" lon="-3.16915">
        <ele>336</ele>
        <time>2014-11-10T16:20:01.1Z</time>
      </trkpt>
      <trkpt lat="48.4343" lon="-3.16917">
        <ele>336</ele>
        <time>2014-11-10T16:20:03.1Z</time>
      </trkpt>
      <trkpt lat="48.43432" lon="-3.16919">
        <ele>335</ele>
        <time>2014-11-10T16:20:06.1Z</time>
      </trkpt>
      <trkpt lat="48.43435" lon="-3.16922">
        <ele>335</ele>
        <time>2014-11-10T16:20:09.1Z</time>
      </trkpt>
      <trkpt lat="48.43437" lon="-3.16923">
        <ele>335</ele>
        <time>2014-11-10T16:20:11.1Z</time>
      </trkpt>
      <trkpt lat="48.4344" lon="-3.16925">
        <ele>335</ele>
        <time>2014-11-10T16:20:14.1Z</time>
      </trkpt>
      <trkpt lat="48.43443" lon="-3.16928">
        <ele>335</ele>
        <time>2014-11-10T16:20:17.1Z</time>
      </trkpt>
      <trkpt lat="48.43446" lon="-3.1693">
        <ele>335</ele>
        <time>2014-11-10T16:20:20.1Z</time>
      </trkpt>
      <trkpt lat="48.43448" lon="-3.16931">
        <ele>335</ele>
        <time>2014-11-10T16:20:22.1Z</time>
      </trkpt>
      <trkpt lat="48.4345" lon="-3.16934">
        <ele>335</ele>
        <time>2014-11-10T16:20:25.1Z</time>
      </trkpt>
      <trkpt lat="48.43452" lon="-3.16937">
        <ele>335</ele>
        <time>2014-11-10T16:20:28.1Z</time>
      </trkpt>
      <trkpt lat="48.43454" lon="-3.16939">
        <ele>335</ele>
        <time>2014-11-10T16:20:30.1Z</time>
      </trkpt>
      <trkpt lat="48.43456" lon="-3.16941">
        <ele>335</ele>
        <time>2014-11-10T16:20:33.1Z</time>
      </trkpt>
      <trkpt lat="48.43458" lon="-3.16943">
        <ele>335</ele>
        <time>2014-11-10T16:20:35.1Z</time>
      </trkpt>
      <trkpt lat="48.43459" lon="-3.16946">
        <ele>335</ele>
        <time>2014-11-10T16:20:38.1Z</time>
      </trkpt>
      <trkpt lat="48.43461" lon="-3.16948">
        <ele>335</ele>
        <time>2014-11-10T16:20:40.1Z</time>
      </trkpt>
      <trkpt lat="48.43463" lon="-3.16951">
        <ele>335</ele>
        <time>2014-11-10T16:20:43.1Z</time>
      </trkpt>
      <trkpt lat="48.43465" lon="-3.16952">
        <ele>335</ele>
        <time>2014-11-10T16:20:45.1Z</time>
      </trkpt>
      <trkpt lat="48.43467" lon="-3.16954">
        <ele>335</ele>
        <time>2014-11-10T16:20:48.1Z</time>
      </trkpt>
      <trkpt lat="48.43468" lon="-3.16955">
        <ele>335</ele>
        <time>2014-11-10T16:20:50.1Z</time>
      </trkpt>
      <trkpt lat="48.43471" lon="-3.16957">
        <ele>335</ele>
        <time>2014-11-10T16:20:53.1Z</time>
      </trkpt>
      <trkpt lat="48.43473" lon="-3.16958">
        <ele>335</ele>
        <time>2014-11-10T16:20:56.1Z</time>
      </trkpt>
      <trkpt lat="48.43476" lon="-3.16961">
        <ele>335</ele>
        <time>2014-11-10T16:20:59.1Z</time>
      </trkpt>
      <trkpt lat="48.43478" lon="-3.16963">
        <ele>335</ele>
        <time>2014-11-10T16:21:02.1Z</time>
      </trkpt>
      <trkpt lat="48.43479" lon="-3.16964">
        <ele>336</ele>
        <time>2014-11-10T16:21:04.1Z</time>
      </trkpt>
      <trkpt lat="48.43481" lon="-3.16966">
        <ele>335</ele>
        <time>2014-11-10T16:21:07.1Z</time>
      </trkpt>
      <trkpt lat="48.43483" lon="-3.16968">
        <ele>335</ele>
        <time>2014-11-10T16:21:10.1Z</time>
      </trkpt>
      <trkpt lat="48.43484" lon="-3.16968">
        <ele>335</ele>
        <time>2014-11-10T16:21:12.1Z</time>
      </trkpt>
      <trkpt lat="48.43486" lon="-3.1697">
        <ele>335</ele>
        <time>2014-11-10T16:21:14.1Z</time>
      </trkpt>
      <trkpt lat="48.43488" lon="-3.16971">
        <ele>335</ele>
        <time>2014-11-10T16:21:17.1Z</time>
      </trkpt>
      <trkpt lat="48.43491" lon="-3.16972">
        <ele>335</ele>
        <time>2014-11-10T16:21:20.1Z</time>
      </trkpt>
      <trkpt lat="48.43494" lon="-3.16973">
        <ele>335</ele>
        <time>2014-11-10T16:21:23.1Z</time>
      </trkpt>
      <trkpt lat="48.43497" lon="-3.16974">
        <ele>335</ele>
        <time>2014-11-10T16:21:26.1Z</time>
      </trkpt>
      <trkpt lat="48.43499" lon="-3.16975">
        <ele>335</ele>
        <time>2014-11-10T16:21:29.1Z</time>
      </trkpt>
      <trkpt lat="48.43501" lon="-3.16976">
        <ele>336</ele>
        <time>2014-11-10T16:21:32.1Z</time>
      </trkpt>
      <trkpt lat="48.43504" lon="-3.16976">
        <ele>336</ele>
        <time>2014-11-10T16:21:35.1Z</time>
      </trkpt>
      <trkpt lat="48.43506" lon="-3.16974">
        <ele>336</ele>
        <time>2014-11-10T16:21:38.1Z</time>
      </trkpt>
      <trkpt lat="48.43508" lon="-3.16971">
        <ele>336</ele>
        <time>2014-11-10T16:21:40.1Z</time>
      </trkpt>
      <trkpt lat="48.4351" lon="-3.16968">
        <ele>337</ele>
        <time>2014-11-10T16:21:43.1Z</time>
      </trkpt>
      <trkpt lat="48.43511" lon="-3.16965">
        <ele>337</ele>
        <time>2014-11-10T16:21:45.1Z</time>
      </trkpt>
      <trkpt lat="48.43513" lon="-3.16962">
        <ele>338</ele>
        <time>2014-11-10T16:21:47.1Z</time>
      </trkpt>
      <trkpt lat="48.43515" lon="-3.16957">
        <ele>338</ele>
        <time>2014-11-10T16:21:50.1Z</time>
      </trkpt>
      <trkpt lat="48.43516" lon="-3.16954">
        <ele>339</ele>
        <time>2014-11-10T16:21:52.1Z</time>
      </trkpt>
      <trkpt lat="48.43518" lon="-3.16949">
        <ele>340</ele>
        <time>2014-11-10T16:21:55.1Z</time>
      </trkpt>
      <trkpt lat="48.4352" lon="-3.16945">
        <ele>340</ele>
        <time>2014-11-10T16:21:57.1Z</time>
      </trkpt>
      <trkpt lat="48.4352" lon="-3.16942">
        <ele>341</ele>
        <time>2014-11-10T16:21:59.1Z</time>
      </trkpt>
      <trkpt lat="48.43521" lon="-3.16936">
        <ele>342</ele>
        <time>2014-11-10T16:22:02.1Z</time>
      </trkpt>
      <trkpt lat="48.43521" lon="-3.16933">
        <ele>342</ele>
        <time>2014-11-10T16:22:04.1Z</time>
      </trkpt>
      <trkpt lat="48.43522" lon="-3.16928">
        <ele>342</ele>
        <time>2014-11-10T16:22:07.1Z</time>
      </trkpt>
      <trkpt lat="48.43524" lon="-3.16922">
        <ele>343</ele>
        <time>2014-11-10T16:22:10.1Z</time>
      </trkpt>
      <trkpt lat="48.43525" lon="-3.16917">
        <ele>343</ele>
        <time>2014-11-10T16:22:13.1Z</time>
      </trkpt>
      <trkpt lat="48.43526" lon="-3.16911">
        <ele>344</ele>
        <time>2014-11-10T16:22:16.1Z</time>
      </trkpt>
      <trkpt lat="48.43528" lon="-3.16906">
        <ele>344</ele>
        <time>2014-11-10T16:22:19.1Z</time>
      </trkpt>
      <trkpt lat="48.43529" lon="-3.16903">
        <ele>345</ele>
        <time>2014-11-10T16:22:21.1Z</time>
      </trkpt>
      <trkpt lat="48.4353" lon="-3.16898">
        <ele>345</ele>
        <time>2014-11-10T16:22:24.1Z</time>
      </trkpt>
      <trkpt lat="48.43531" lon="-3.16893">
        <ele>345</ele>
        <time>2014-11-10T16:22:27.1Z</time>
      </trkpt>
      <trkpt lat="48.43532" lon="-3.16888">
        <ele>345</ele>
        <time>2014-11-10T16:22:30.1Z</time>
      </trkpt>
      <trkpt lat="48.43533" lon="-3.16884">
        <ele>345</ele>
        <time>2014-11-10T16:22:32.1Z</time>
      </trkpt>
      <trkpt lat="48.43533" lon="-3.16881">
        <ele>346</ele>
        <time>2014-11-10T16:22:34.1Z</time>
      </trkpt>
      <trkpt lat="48.43533" lon="-3.16876">
        <ele>346</ele>
        <time>2014-11-10T16:22:37.1Z</time>
      </trkpt>
      <trkpt lat="48.43534" lon="-3.16873">
        <ele>346</ele>
        <time>2014-11-10T16:22:39.1Z</time>
      </trkpt>
      <trkpt lat="48.43535" lon="-3.16868">
        <ele>347</ele>
        <time>2014-11-10T16:22:42.1Z</time>
      </trkpt>
      <trkpt lat="48.43536" lon="-3.16863">
        <ele>347</ele>
        <time>2014-11-10T16:22:45.1Z</time>
      </trkpt>
      <trkpt lat="48.43536" lon="-3.16859">
        <ele>347</ele>
        <time>2014-11-10T16:22:47.1Z</time>
      </trkpt>
      <trkpt lat="48.43537" lon="-3.16855">
        <ele>347</ele>
        <time>2014-11-10T16:22:49.1Z</time>
      </trkpt>
      <trkpt lat="48.43537" lon="-3.16852">
        <ele>348</ele>
        <time>2014-11-10T16:22:51.1Z</time>
      </trkpt>
      <trkpt lat="48.43538" lon="-3.16846">
        <ele>348</ele>
        <time>2014-11-10T16:22:54.1Z</time>
      </trkpt>
      <trkpt lat="48.43539" lon="-3.16843">
        <ele>348</ele>
        <time>2014-11-10T16:22:56.1Z</time>
      </trkpt>
      <trkpt lat="48.4354" lon="-3.16837">
        <ele>348</ele>
        <time>2014-11-10T16:22:59.1Z</time>
      </trkpt>
      <trkpt lat="48.4354" lon="-3.16832">
        <ele>349</ele>
        <time>2014-11-10T16:23:02.1Z</time>
      </trkpt>
      <trkpt lat="48.43541" lon="-3.16828">
        <ele>349</ele>
        <time>2014-11-10T16:23:04.1Z</time>
      </trkpt>
      <trkpt lat="48.43541" lon="-3.16824">
        <ele>349</ele>
        <time>2014-11-10T16:23:06.1Z</time>
      </trkpt>
      <trkpt lat="48.43541" lon="-3.16819">
        <ele>349</ele>
        <time>2014-11-10T16:23:09.1Z</time>
      </trkpt>
      <trkpt lat="48.43542" lon="-3.16815">
        <ele>350</ele>
        <time>2014-11-10T16:23:11.1Z</time>
      </trkpt>
      <trkpt lat="48.43543" lon="-3.1681">
        <ele>350</ele>
        <time>2014-11-10T16:23:14.1Z</time>
      </trkpt>
      <trkpt lat="48.43544" lon="-3.16806">
        <ele>351</ele>
        <time>2014-11-10T16:23:16.1Z</time>
      </trkpt>
      <trkpt lat="48.43544" lon="-3.168">
        <ele>351</ele>
        <time>2014-11-10T16:23:19.1Z</time>
      </trkpt>
      <trkpt lat="48.43544" lon="-3.16793">
        <ele>351</ele>
        <time>2014-11-10T16:23:22.1Z</time>
      </trkpt>
      <trkpt lat="48.43544" lon="-3.1679">
        <ele>351</ele>
        <time>2014-11-10T16:23:24.1Z</time>
      </trkpt>
      <trkpt lat="48.43544" lon="-3.16784">
        <ele>352</ele>
        <time>2014-11-10T16:23:27.1Z</time>
      </trkpt>
      <trkpt lat="48.43544" lon="-3.16778">
        <ele>352</ele>
        <time>2014-11-10T16:23:30.1Z</time>
      </trkpt>
      <trkpt lat="48.43544" lon="-3.16773">
        <ele>352</ele>
        <time>2014-11-10T16:23:33.1Z</time>
      </trkpt>
      <trkpt lat="48.43544" lon="-3.16769">
        <ele>352</ele>
        <time>2014-11-10T16:23:35.1Z</time>
      </trkpt>
      <trkpt lat="48.43544" lon="-3.16764">
        <ele>352</ele>
        <time>2014-11-10T16:23:38.1Z</time>
      </trkpt>
      <trkpt lat="48.43544" lon="-3.1676">
        <ele>352</ele>
        <time>2014-11-10T16:23:40.1Z</time>
      </trkpt>
      <trkpt lat="48.43544" lon="-3.16754">
        <ele>353</ele>
        <time>2014-11-10T16:23:43.1Z</time>
      </trkpt>
      <trkpt lat="48.43544" lon="-3.1675">
        <ele>353</ele>
        <time>2014-11-10T16:23:45.1Z</time>
      </trkpt>
      <trkpt lat="48.43544" lon="-3.16746">
        <ele>353</ele>
        <time>2014-11-10T16:23:47.1Z</time>
      </trkpt>
      <trkpt lat="48.43543" lon="-3.16741">
        <ele>352</ele>
        <time>2014-11-10T16:23:50.1Z</time>
      </trkpt>
      <trkpt lat="48.43543" lon="-3.16736">
        <ele>353</ele>
        <time>2014-11-10T16:23:53.1Z</time>
      </trkpt>
      <trkpt lat="48.43542" lon="-3.16733">
        <ele>353</ele>
        <time>2014-11-10T16:23:55.1Z</time>
      </trkpt>
      <trkpt lat="48.43541" lon="-3.16727">
        <ele>352</ele>
        <time>2014-11-10T16:23:58.1Z</time>
      </trkpt>
      <trkpt lat="48.43541" lon="-3.16721">
        <ele>352</ele>
        <time>2014-11-10T16:24:01.1Z</time>
      </trkpt>
      <trkpt lat="48.43542" lon="-3.16717">
        <ele>352</ele>
        <time>2014-11-10T16:24:03.1Z</time>
      </trkpt>
      <trkpt lat="48.43542" lon="-3.16711">
        <ele>351</ele>
        <time>2014-11-10T16:24:06.1Z</time>
      </trkpt>
      <trkpt lat="48.43543" lon="-3.16706">
        <ele>351</ele>
        <time>2014-11-10T16:24:08.1Z</time>
      </trkpt>
      <trkpt lat="48.43543" lon="-3.167">
        <ele>351</ele>
        <time>2014-11-10T16:24:11.1Z</time>
      </trkpt>
      <trkpt lat="48.43544" lon="-3.16694">
        <ele>351</ele>
        <time>2014-11-10T16:24:14.1Z</time>
      </trkpt>
      <trkpt lat="48.43544" lon="-3.16688">
        <ele>350</ele>
        <time>2014-11-10T16:24:17.1Z</time>
      </trkpt>
      <trkpt lat="48.43545" lon="-3.16683">
        <ele>350</ele>
        <time>2014-11-10T16:24:20.1Z</time>
      </trkpt>
      <trkpt lat="48.43546" lon="-3.16679">
        <ele>350</ele>
        <time>2014-11-10T16:24:22.1Z</time>
      </trkpt>
      <trkpt lat="48.43547" lon="-3.16673">
        <ele>350</ele>
        <time>2014-11-10T16:24:25.1Z</time>
      </trkpt>
      <trkpt lat="48.43549" lon="-3.16667">
        <ele>350</ele>
        <time>2014-11-10T16:24:28.1Z</time>
      </trkpt>
      <trkpt lat="48.4355" lon="-3.16662">
        <ele>350</ele>
        <time>2014-11-10T16:24:31.1Z</time>
      </trkpt>
      <trkpt lat="48.43551" lon="-3.16656">
        <ele>350</ele>
        <time>2014-11-10T16:24:34.1Z</time>
      </trkpt>
      <trkpt lat="48.43554" lon="-3.1665">
        <ele>350</ele>
        <time>2014-11-10T16:24:37.1Z</time>
      </trkpt>
      <trkpt lat="48.43555" lon="-3.16644">
        <ele>349</ele>
        <time>2014-11-10T16:24:40.1Z</time>
      </trkpt>
      <trkpt lat="48.43557" lon="-3.16639">
        <ele>349</ele>
        <time>2014-11-10T16:24:43.1Z</time>
      </trkpt>
      <trkpt lat="48.43558" lon="-3.16634">
        <ele>350</ele>
        <time>2014-11-10T16:24:46.1Z</time>
      </trkpt>
      <trkpt lat="48.43559" lon="-3.1663">
        <ele>350</ele>
        <time>2014-11-10T16:24:48.1Z</time>
      </trkpt>
      <trkpt lat="48.4356" lon="-3.16624">
        <ele>350</ele>
        <time>2014-11-10T16:24:51.1Z</time>
      </trkpt>
      <trkpt lat="48.43561" lon="-3.1662">
        <ele>350</ele>
        <time>2014-11-10T16:24:53.1Z</time>
      </trkpt>
      <trkpt lat="48.43562" lon="-3.16617">
        <ele>349</ele>
        <time>2014-11-10T16:24:55.1Z</time>
      </trkpt>
      <trkpt lat="48.43563" lon="-3.16612">
        <ele>349</ele>
        <time>2014-11-10T16:24:58.1Z</time>
      </trkpt>
      <trkpt lat="48.43564" lon="-3.16608">
        <ele>349</ele>
        <time>2014-11-10T16:25:00.1Z</time>
      </trkpt>
      <trkpt lat="48.43565" lon="-3.16604">
        <ele>348</ele>
        <time>2014-11-10T16:25:02.1Z</time>
      </trkpt>
      <trkpt lat="48.43566" lon="-3.16599">
        <ele>348</ele>
        <time>2014-11-10T16:25:05.1Z</time>
      </trkpt>
      <trkpt lat="48.43566" lon="-3.16595">
        <ele>348</ele>
        <time>2014-11-10T16:25:07.1Z</time>
      </trkpt>
      <trkpt lat="48.43567" lon="-3.1659">
        <ele>348</ele>
        <time>2014-11-10T16:25:10.1Z</time>
      </trkpt>
      <trkpt lat="48.43567" lon="-3.16588">
        <ele>348</ele>
        <time>2014-11-10T16:25:12.1Z</time>
      </trkpt>
      <trkpt lat="48.43568" lon="-3.16585">
        <ele>348</ele>
        <time>2014-11-10T16:25:14.1Z</time>
      </trkpt>
      <trkpt lat="48.4357" lon="-3.16583">
        <ele>348</ele>
        <time>2014-11-10T16:25:16.1Z</time>
      </trkpt>
      <trkpt lat="48.43572" lon="-3.16583">
        <ele>348</ele>
        <time>2014-11-10T16:25:19.1Z</time>
      </trkpt>
      <trkpt lat="48.43575" lon="-3.16582">
        <ele>349</ele>
        <time>2014-11-10T16:25:22.1Z</time>
      </trkpt>
      <trkpt lat="48.43578" lon="-3.16582">
        <ele>348</ele>
        <time>2014-11-10T16:25:25.1Z</time>
      </trkpt>
      <trkpt lat="48.4358" lon="-3.16582">
        <ele>348</ele>
        <time>2014-11-10T16:25:27.1Z</time>
      </trkpt>
      <trkpt lat="48.43582" lon="-3.16582">
        <ele>348</ele>
        <time>2014-11-10T16:25:29.1Z</time>
      </trkpt>
      <trkpt lat="48.43585" lon="-3.16584">
        <ele>347</ele>
        <time>2014-11-10T16:25:32.1Z</time>
      </trkpt>
      <trkpt lat="48.43587" lon="-3.16586">
        <ele>347</ele>
        <time>2014-11-10T16:25:34.1Z</time>
      </trkpt>
      <trkpt lat="48.43589" lon="-3.16588">
        <ele>347</ele>
        <time>2014-11-10T16:25:36.1Z</time>
      </trkpt>
      <trkpt lat="48.43592" lon="-3.16591">
        <ele>347</ele>
        <time>2014-11-10T16:25:39.1Z</time>
      </trkpt>
      <trkpt lat="48.43594" lon="-3.16595">
        <ele>347</ele>
        <time>2014-11-10T16:25:42.1Z</time>
      </trkpt>
      <trkpt lat="48.43597" lon="-3.16598">
        <ele>347</ele>
        <time>2014-11-10T16:25:45.1Z</time>
      </trkpt>
      <trkpt lat="48.43598" lon="-3.16599">
        <ele>347</ele>
        <time>2014-11-10T16:25:47.1Z</time>
      </trkpt>
      <trkpt lat="48.436" lon="-3.16601">
        <ele>347</ele>
        <time>2014-11-10T16:25:49.1Z</time>
      </trkpt>
      <trkpt lat="48.43604" lon="-3.16604">
        <ele>348</ele>
        <time>2014-11-10T16:25:52.1Z</time>
      </trkpt>
      <trkpt lat="48.43606" lon="-3.16606">
        <ele>348</ele>
        <time>2014-11-10T16:25:55.1Z</time>
      </trkpt>
      <trkpt lat="48.43609" lon="-3.16609">
        <ele>348</ele>
        <time>2014-11-10T16:25:58.1Z</time>
      </trkpt>
      <trkpt lat="48.4361" lon="-3.16611">
        <ele>348</ele>
        <time>2014-11-10T16:26:00.1Z</time>
      </trkpt>
      <trkpt lat="48.43613" lon="-3.16612">
        <ele>348</ele>
        <time>2014-11-10T16:26:03.1Z</time>
      </trkpt>
      <trkpt lat="48.43615" lon="-3.16614">
        <ele>348</ele>
        <time>2014-11-10T16:26:05.1Z</time>
      </trkpt>
      <trkpt lat="48.43617" lon="-3.16616">
        <ele>348</ele>
        <time>2014-11-10T16:26:08.1Z</time>
      </trkpt>
      <trkpt lat="48.43619" lon="-3.16617">
        <ele>348</ele>
        <time>2014-11-10T16:26:10.1Z</time>
      </trkpt>
      <trkpt lat="48.43621" lon="-3.16618">
        <ele>348</ele>
        <time>2014-11-10T16:26:13.1Z</time>
      </trkpt>
      <trkpt lat="48.43623" lon="-3.1662">
        <ele>349</ele>
        <time>2014-11-10T16:26:16.1Z</time>
      </trkpt>
      <trkpt lat="48.43624" lon="-3.1662">
        <ele>349</ele>
        <time>2014-11-10T16:26:19.1Z</time>
      </trkpt>
      <trkpt lat="48.43626" lon="-3.16621">
        <ele>349</ele>
        <time>2014-11-10T16:26:21.1Z</time>
      </trkpt>
      <trkpt lat="48.43629" lon="-3.16622">
        <ele>350</ele>
        <time>2014-11-10T16:26:23.1Z</time>
      </trkpt>
      <trkpt lat="48.43632" lon="-3.16623">
        <ele>350</ele>
        <time>2014-11-10T16:26:26.1Z</time>
      </trkpt>
      <trkpt lat="48.43634" lon="-3.16624">
        <ele>350</ele>
        <time>2014-11-10T16:26:28.1Z</time>
      </trkpt>
      <trkpt lat="48.43636" lon="-3.16625">
        <ele>350</ele>
        <time>2014-11-10T16:26:31.1Z</time>
      </trkpt>
      <trkpt lat="48.43639" lon="-3.16626">
        <ele>350</ele>
        <time>2014-11-10T16:26:33.1Z</time>
      </trkpt>
      <trkpt lat="48.43641" lon="-3.16628">
        <ele>350</ele>
        <time>2014-11-10T16:26:36.1Z</time>
      </trkpt>
      <trkpt lat="48.43644" lon="-3.16629">
        <ele>350</ele>
        <time>2014-11-10T16:26:39.1Z</time>
      </trkpt>
      <trkpt lat="48.43647" lon="-3.1663">
        <ele>350</ele>
        <time>2014-11-10T16:26:42.1Z</time>
      </trkpt>
      <trkpt lat="48.43651" lon="-3.16631">
        <ele>350</ele>
        <time>2014-11-10T16:26:45.1Z</time>
      </trkpt>
      <trkpt lat="48.43653" lon="-3.16631">
        <ele>351</ele>
        <time>2014-11-10T16:26:47.1Z</time>
      </trkpt>
      <trkpt lat="48.43655" lon="-3.16631">
        <ele>351</ele>
        <time>2014-11-10T16:26:50.1Z</time>
      </trkpt>
      <trkpt lat="48.43655" lon="-3.16631">
        <ele>351</ele>
        <time>2014-11-10T16:26:53.1Z</time>
      </trkpt>
      <trkpt lat="48.43655" lon="-3.16631">
        <ele>351</ele>
        <time>2014-11-10T16:26:58.1Z</time>
      </trkpt>
      <trkpt lat="48.43655" lon="-3.16631">
        <ele>351</ele>
        <time>2014-11-10T16:27:01.1Z</time>
      </trkpt>
      <trkpt lat="48.43655" lon="-3.16631">
        <ele>351</ele>
        <time>2014-11-10T16:27:04.1Z</time>
      </trkpt>
      <trkpt lat="48.43656" lon="-3.16631">
        <ele>351</ele>
        <time>2014-11-10T16:27:07.1Z</time>
      </trkpt>
      <trkpt lat="48.43656" lon="-3.16631">
        <ele>351</ele>
        <time>2014-11-10T16:27:09.1Z</time>
      </trkpt>
      <trkpt lat="48.43656" lon="-3.16631">
        <ele>351</ele>
        <time>2014-11-10T16:27:12.1Z</time>
      </trkpt>
      <trkpt lat="48.43658" lon="-3.16633">
        <ele>351</ele>
        <time>2014-11-10T16:27:15.1Z</time>
      </trkpt>
      <trkpt lat="48.43658" lon="-3.16635">
        <ele>351</ele>
        <time>2014-11-10T16:27:17.1Z</time>
      </trkpt>
      <trkpt lat="48.43659" lon="-3.16637">
        <ele>351</ele>
        <time>2014-11-10T16:27:20.1Z</time>
      </trkpt>
      <trkpt lat="48.4366" lon="-3.1664">
        <ele>351</ele>
        <time>2014-11-10T16:27:23.1Z</time>
      </trkpt>
      <trkpt lat="48.43662" lon="-3.16641">
        <ele>351</ele>
        <time>2014-11-10T16:27:25.1Z</time>
      </trkpt>
      <trkpt lat="48.43664" lon="-3.16644">
        <ele>351</ele>
        <time>2014-11-10T16:27:28.1Z</time>
      </trkpt>
      <trkpt lat="48.43666" lon="-3.16647">
        <ele>352</ele>
        <time>2014-11-10T16:27:31.1Z</time>
      </trkpt>
      <trkpt lat="48.43667" lon="-3.16648">
        <ele>352</ele>
        <time>2014-11-10T16:27:33.1Z</time>
      </trkpt>
      <trkpt lat="48.43667" lon="-3.1665">
        <ele>352</ele>
        <time>2014-11-10T16:27:35.1Z</time>
      </trkpt>
      <trkpt lat="48.43666" lon="-3.16652">
        <ele>352</ele>
        <time>2014-11-10T16:27:38.1Z</time>
      </trkpt>
      <trkpt lat="48.43666" lon="-3.16655">
        <ele>352</ele>
        <time>2014-11-10T16:27:40.1Z</time>
      </trkpt>
      <trkpt lat="48.43665" lon="-3.16657">
        <ele>353</ele>
        <time>2014-11-10T16:27:42.1Z</time>
      </trkpt>
      <trkpt lat="48.43663" lon="-3.1666">
        <ele>353</ele>
        <time>2014-11-10T16:27:45.1Z</time>
      </trkpt>
      <trkpt lat="48.43663" lon="-3.16662">
        <ele>353</ele>
        <time>2014-11-10T16:27:47.1Z</time>
      </trkpt>
      <trkpt lat="48.43662" lon="-3.16664">
        <ele>353</ele>
        <time>2014-11-10T16:27:49.1Z</time>
      </trkpt>
      <trkpt lat="48.4366" lon="-3.16666">
        <ele>353</ele>
        <time>2014-11-10T16:27:51.1Z</time>
      </trkpt>
      <trkpt lat="48.43659" lon="-3.16667">
        <ele>354</ele>
        <time>2014-11-10T16:27:53.1Z</time>
      </trkpt>
      <trkpt lat="48.43658" lon="-3.16667">
        <ele>354</ele>
        <time>2014-11-10T16:27:56.1Z</time>
      </trkpt>
      <trkpt lat="48.43658" lon="-3.16667">
        <ele>354</ele>
        <time>2014-11-10T16:27:59.1Z</time>
      </trkpt>
      <trkpt lat="48.43657" lon="-3.16668">
        <ele>354</ele>
        <time>2014-11-10T16:28:01.1Z</time>
      </trkpt>
      <trkpt lat="48.43656" lon="-3.16667">
        <ele>353</ele>
        <time>2014-11-10T16:28:03.1Z</time>
      </trkpt>
      <trkpt lat="48.43655" lon="-3.16666">
        <ele>353</ele>
        <time>2014-11-10T16:28:05.1Z</time>
      </trkpt>
      <trkpt lat="48.43654" lon="-3.16665">
        <ele>353</ele>
        <time>2014-11-10T16:28:08.1Z</time>
      </trkpt>
      <trkpt lat="48.43653" lon="-3.16663">
        <ele>353</ele>
        <time>2014-11-10T16:28:11.1Z</time>
      </trkpt>
      <trkpt lat="48.43653" lon="-3.16663">
        <ele>353</ele>
        <time>2014-11-10T16:28:14.1Z</time>
      </trkpt>
      <trkpt lat="48.43653" lon="-3.16663">
        <ele>353</ele>
        <time>2014-11-10T16:28:16.1Z</time>
      </trkpt>
      <trkpt lat="48.43653" lon="-3.16662">
        <ele>353</ele>
        <time>2014-11-10T16:28:18.1Z</time>
      </trkpt>
      <trkpt lat="48.43653" lon="-3.16662">
        <ele>353</ele>
        <time>2014-11-10T16:28:21.1Z</time>
      </trkpt>
      <trkpt lat="48.43653" lon="-3.16662">
        <ele>353</ele>
        <time>2014-11-10T16:28:24.1Z</time>
      </trkpt>
      <trkpt lat="48.43654" lon="-3.16663">
        <ele>353</ele>
        <time>2014-11-10T16:28:26.1Z</time>
      </trkpt>
      <trkpt lat="48.43654" lon="-3.16662">
        <ele>353</ele>
        <time>2014-11-10T16:28:29.1Z</time>
      </trkpt>
      <trkpt lat="48.43654" lon="-3.16662">
        <ele>353</ele>
        <time>2014-11-10T16:28:32.1Z</time>
      </trkpt>
      <trkpt lat="48.43654" lon="-3.16662">
        <ele>353</ele>
        <time>2014-11-10T16:28:34.1Z</time>
      </trkpt>
      <trkpt lat="48.43654" lon="-3.16662">
        <ele>353</ele>
        <time>2014-11-10T16:28:36.1Z</time>
      </trkpt>
      <trkpt lat="48.43654" lon="-3.16661">
        <ele>353</ele>
        <time>2014-11-10T16:28:39.1Z</time>
      </trkpt>
      <trkpt lat="48.43655" lon="-3.16661">
        <ele>353</ele>
        <time>2014-11-10T16:28:41.1Z</time>
      </trkpt>
      <trkpt lat="48.43654" lon="-3.16661">
        <ele>353</ele>
        <time>2014-11-10T16:28:44.1Z</time>
      </trkpt>
      <trkpt lat="48.43654" lon="-3.16661">
        <ele>353</ele>
        <time>2014-11-10T16:28:46.1Z</time>
      </trkpt>
      <trkpt lat="48.43655" lon="-3.1666">
        <ele>353</ele>
        <time>2014-11-10T16:28:49.1Z</time>
      </trkpt>
      <trkpt lat="48.43655" lon="-3.16659">
        <ele>353</ele>
        <time>2014-11-10T16:28:52.1Z</time>
      </trkpt>
      <trkpt lat="48.43655" lon="-3.16659">
        <ele>354</ele>
        <time>2014-11-10T16:28:55.1Z</time>
      </trkpt>
      <trkpt lat="48.43655" lon="-3.16658">
        <ele>354</ele>
        <time>2014-11-10T16:28:58.1Z</time>
      </trkpt>
      <trkpt lat="48.43655" lon="-3.16658">
        <ele>354</ele>
        <time>2014-11-10T16:29:01.1Z</time>
      </trkpt>
      <trkpt lat="48.43655" lon="-3.16658">
        <ele>354</ele>
        <time>2014-11-10T16:29:03.1Z</time>
      </trkpt>
      <trkpt lat="48.43657" lon="-3.16657">
        <ele>354</ele>
        <time>2014-11-10T16:29:06.1Z</time>
      </trkpt>
      <trkpt lat="48.43657" lon="-3.16655">
        <ele>353</ele>
        <time>2014-11-10T16:29:09.1Z</time>
      </trkpt>
      <trkpt lat="48.43658" lon="-3.16653">
        <ele>353</ele>
        <time>2014-11-10T16:29:11.1Z</time>
      </trkpt>
      <trkpt lat="48.43658" lon="-3.16652">
        <ele>353</ele>
        <time>2014-11-10T16:29:14.1Z</time>
      </trkpt>
      <trkpt lat="48.43658" lon="-3.16651">
        <ele>353</ele>
        <time>2014-11-10T16:29:16.1Z</time>
      </trkpt>
      <trkpt lat="48.43658" lon="-3.16651">
        <ele>352</ele>
        <time>2014-11-10T16:29:18.1Z</time>
      </trkpt>
      <trkpt lat="48.43658" lon="-3.16648">
        <ele>352</ele>
        <time>2014-11-10T16:29:21.1Z</time>
      </trkpt>
      <trkpt lat="48.43658" lon="-3.16647">
        <ele>352</ele>
        <time>2014-11-10T16:29:24.1Z</time>
      </trkpt>
      <trkpt lat="48.43659" lon="-3.16645">
        <ele>352</ele>
        <time>2014-11-10T16:29:26.1Z</time>
      </trkpt>
      <trkpt lat="48.4366" lon="-3.16644">
        <ele>352</ele>
        <time>2014-11-10T16:29:30.1Z</time>
      </trkpt>
      <trkpt lat="48.4366" lon="-3.16644">
        <ele>352</ele>
        <time>2014-11-10T16:29:32.1Z</time>
      </trkpt>
      <trkpt lat="48.4366" lon="-3.16646">
        <ele>352</ele>
        <time>2014-11-10T16:29:35.1Z</time>
      </trkpt>
      <trkpt lat="48.4366" lon="-3.16648">
        <ele>352</ele>
        <time>2014-11-10T16:29:38.1Z</time>
      </trkpt>
      <trkpt lat="48.43659" lon="-3.16649">
        <ele>352</ele>
        <time>2014-11-10T16:29:42.1Z</time>
      </trkpt>
      <trkpt lat="48.43658" lon="-3.16648">
        <ele>352</ele>
        <time>2014-11-10T16:29:45.1Z</time>
      </trkpt>
      <trkpt lat="48.43658" lon="-3.16647">
        <ele>352</ele>
        <time>2014-11-10T16:29:47.1Z</time>
      </trkpt>
      <trkpt lat="48.43658" lon="-3.16646">
        <ele>352</ele>
        <time>2014-11-10T16:29:50.1Z</time>
      </trkpt>
      <trkpt lat="48.43658" lon="-3.16643">
        <ele>352</ele>
        <time>2014-11-10T16:29:53.1Z</time>
      </trkpt>
      <trkpt lat="48.43659" lon="-3.16641">
        <ele>351</ele>
        <time>2014-11-10T16:29:55.1Z</time>
      </trkpt>
      <trkpt lat="48.43659" lon="-3.16639">
        <ele>351</ele>
        <time>2014-11-10T16:29:57.1Z</time>
      </trkpt>
      <trkpt lat="48.43658" lon="-3.16637">
        <ele>351</ele>
        <time>2014-11-10T16:30:00.1Z</time>
      </trkpt>
      <trkpt lat="48.43658" lon="-3.16636">
        <ele>351</ele>
        <time>2014-11-10T16:30:02.1Z</time>
      </trkpt>
      <trkpt lat="48.43657" lon="-3.16635">
        <ele>351</ele>
        <time>2014-11-10T16:30:05.1Z</time>
      </trkpt>
      <trkpt lat="48.43657" lon="-3.16634">
        <ele>351</ele>
        <time>2014-11-10T16:30:07.1Z</time>
      </trkpt>
      <trkpt lat="48.43657" lon="-3.16634">
        <ele>351</ele>
        <time>2014-11-10T16:30:10.1Z</time>
      </trkpt>
      <trkpt lat="48.43656" lon="-3.16633">
        <ele>351</ele>
        <time>2014-11-10T16:30:13.1Z</time>
      </trkpt>
      <trkpt lat="48.43656" lon="-3.16632">
        <ele>351</ele>
        <time>2014-11-10T16:30:16.1Z</time>
      </trkpt>
      <trkpt lat="48.43656" lon="-3.16631">
        <ele>351</ele>
        <time>2014-11-10T16:30:20.1Z</time>
      </trkpt>
      <trkpt lat="48.43655" lon="-3.16632">
        <ele>351</ele>
        <time>2014-11-10T16:30:23.1Z</time>
      </trkpt>
      <trkpt lat="48.43655" lon="-3.16632">
        <ele>351</ele>
        <time>2014-11-10T16:30:27.1Z</time>
      </trkpt>
      <trkpt lat="48.43655" lon="-3.16633">
        <ele>351</ele>
        <time>2014-11-10T16:30:30.1Z</time>
      </trkpt>
      <trkpt lat="48.43655" lon="-3.16632">
        <ele>351</ele>
        <time>2014-11-10T16:30:32.1Z</time>
      </trkpt>
      <trkpt lat="48.43656" lon="-3.16632">
        <ele>351</ele>
        <time>2014-11-10T16:30:36.1Z</time>
      </trkpt>
      <trkpt lat="48.43656" lon="-3.16632">
        <ele>351</ele>
        <time>2014-11-10T16:30:39.1Z</time>
      </trkpt>
      <trkpt lat="48.43656" lon="-3.16632">
        <ele>351</ele>
        <time>2014-11-10T16:30:42.1Z</time>
      </trkpt>
      <trkpt lat="48.43656" lon="-3.16632">
        <ele>351</ele>
        <time>2014-11-10T16:30:45.1Z</time>
      </trkpt>
      <trkpt lat="48.43656" lon="-3.16632">
        <ele>351</ele>
        <time>2014-11-10T16:30:48.1Z</time>
      </trkpt>
      <trkpt lat="48.43656" lon="-3.16633">
        <ele>351</ele>
        <time>2014-11-10T16:30:51.1Z</time>
      </trkpt>
      <trkpt lat="48.43656" lon="-3.16633">
        <ele>351</ele>
        <time>2014-11-10T16:30:53.1Z</time>
      </trkpt>
      <trkpt lat="48.43656" lon="-3.16633">
        <ele>351</ele>
        <time>2014-11-10T16:30:57.1Z</time>
      </trkpt>
      <trkpt lat="48.43656" lon="-3.16633">
        <ele>351</ele>
        <time>2014-11-10T16:30:59.1Z</time>
      </trkpt>
      <trkpt lat="48.43656" lon="-3.16633">
        <ele>350</ele>
        <time>2014-11-10T16:31:03.1Z</time>
      </trkpt>
      <trkpt lat="48.43656" lon="-3.16633">
        <ele>351</ele>
        <time>2014-11-10T16:31:06.1Z</time>
      </trkpt>
      <trkpt lat="48.43656" lon="-3.16634">
        <ele>351</ele>
        <time>2014-11-10T16:31:09.1Z</time>
      </trkpt>
      <trkpt lat="48.43656" lon="-3.16633">
        <ele>351</ele>
        <time>2014-11-10T16:31:12.1Z</time>
      </trkpt>
      <trkpt lat="48.43656" lon="-3.16633">
        <ele>351</ele>
        <time>2014-11-10T16:31:14.1Z</time>
      </trkpt>
      <trkpt lat="48.43657" lon="-3.16632">
        <ele>351</ele>
        <time>2014-11-10T16:31:17.1Z</time>
      </trkpt>
      <trkpt lat="48.43657" lon="-3.16632">
        <ele>351</ele>
        <time>2014-11-10T16:31:20.1Z</time>
      </trkpt>
      <trkpt lat="48.43657" lon="-3.16632">
        <ele>351</ele>
        <time>2014-11-10T16:31:24.1Z</time>
      </trkpt>
      <trkpt lat="48.43657" lon="-3.16632">
        <ele>351</ele>
        <time>2014-11-10T16:31:27.1Z</time>
      </trkpt>
      <trkpt lat="48.43657" lon="-3.16632">
        <ele>351</ele>
        <time>2014-11-10T16:31:32.1Z</time>
      </trkpt>
      <trkpt lat="48.43657" lon="-3.16632">
        <ele>351</ele>
        <time>2014-11-10T16:31:35.1Z</time>
      </trkpt>
      <trkpt lat="48.43657" lon="-3.16633">
        <ele>351</ele>
        <time>2014-11-10T16:31:39.1Z</time>
      </trkpt>
      <trkpt lat="48.43657" lon="-3.16633">
        <ele>351</ele>
        <time>2014-11-10T16:31:41.1Z</time>
      </trkpt>
      <trkpt lat="48.43656" lon="-3.16634">
        <ele>351</ele>
        <time>2014-11-10T16:31:44.1Z</time>
      </trkpt>
      <trkpt lat="48.43656" lon="-3.16634">
        <ele>351</ele>
        <time>2014-11-10T16:31:47.1Z</time>
      </trkpt>
      <trkpt lat="48.43655" lon="-3.16635">
        <ele>351</ele>
        <time>2014-11-10T16:31:50.1Z</time>
      </trkpt>
      <trkpt lat="48.43655" lon="-3.16634">
        <ele>351</ele>
        <time>2014-11-10T16:31:53.1Z</time>
      </trkpt>
      <trkpt lat="48.43655" lon="-3.16634">
        <ele>351</ele>
        <time>2014-11-10T16:31:55.1Z</time>
      </trkpt>
      <trkpt lat="48.43656" lon="-3.16634">
        <ele>351</ele>
        <time>2014-11-10T16:32:00.1Z</time>
      </trkpt>
      <trkpt lat="48.43655" lon="-3.16635">
        <ele>351</ele>
        <time>2014-11-10T16:32:02.1Z</time>
      </trkpt>
      <trkpt lat="48.43655" lon="-3.16635">
        <ele>351</ele>
        <time>2014-11-10T16:32:06.1Z</time>
      </trkpt>
      <trkpt lat="48.43655" lon="-3.16634">
        <ele>352</ele>
        <time>2014-11-10T16:32:10.1Z</time>
      </trkpt>
      <trkpt lat="48.43655" lon="-3.16634">
        <ele>352</ele>
        <time>2014-11-10T16:32:12.1Z</time>
      </trkpt>
      <trkpt lat="48.43655" lon="-3.16634">
        <ele>351</ele>
        <time>2014-11-10T16:32:16.1Z</time>
      </trkpt>
      <trkpt lat="48.43655" lon="-3.16634">
        <ele>351</ele>
        <time>2014-11-10T16:32:18.1Z</time>
      </trkpt>
      <trkpt lat="48.43655" lon="-3.16634">
        <ele>351</ele>
        <time>2014-11-10T16:32:20.1Z</time>
      </trkpt>
      <trkpt lat="48.43656" lon="-3.16634">
        <ele>352</ele>
        <time>2014-11-10T16:32:24.1Z</time>
      </trkpt>
      <trkpt lat="48.43655" lon="-3.16634">
        <ele>352</ele>
        <time>2014-11-10T16:32:27.1Z</time>
      </trkpt>
      <trkpt lat="48.43655" lon="-3.16634">
        <ele>351</ele>
        <time>2014-11-10T16:32:30.1Z</time>
      </trkpt>
      <trkpt lat="48.43655" lon="-3.16634">
        <ele>351</ele>
        <time>2014-11-10T16:32:35.1Z</time>
      </trkpt>
      <trkpt lat="48.43655" lon="-3.16634">
        <ele>352</ele>
        <time>2014-11-10T16:32:39.1Z</time>
      </trkpt>
      <trkpt lat="48.43655" lon="-3.16634">
        <ele>352</ele>
        <time>2014-11-10T16:32:42.1Z</time>
      </trkpt>
      <trkpt lat="48.43654" lon="-3.16633">
        <ele>351</ele>
        <time>2014-11-10T16:32:45.1Z</time>
      </trkpt>
      <trkpt lat="48.43652" lon="-3.16631">
        <ele>351</ele>
        <time>2014-11-10T16:32:48.1Z</time>
      </trkpt>
      <trkpt lat="48.43649" lon="-3.16628">
        <ele>351</ele>
        <time>2014-11-10T16:32:51.1Z</time>
      </trkpt>
      <trkpt lat="48.43647" lon="-3.16626">
        <ele>351</ele>
        <time>2014-11-10T16:32:54.1Z</time>
      </trkpt>
      <trkpt lat="48.43644" lon="-3.16625">
        <ele>350</ele>
        <time>2014-11-10T16:32:56.1Z</time>
      </trkpt>
      <trkpt lat="48.43641" lon="-3.16624">
        <ele>350</ele>
        <time>2014-11-10T16:32:59.1Z</time>
      </trkpt>
      <trkpt lat="48.43638" lon="-3.16623">
        <ele>351</ele>
        <time>2014-11-10T16:33:02.1Z</time>
      </trkpt>
      <trkpt lat="48.43636" lon="-3.16622">
        <ele>351</ele>
        <time>2014-11-10T16:33:04.1Z</time>
      </trkpt>
      <trkpt lat="48.43632" lon="-3.1662">
        <ele>350</ele>
        <time>2014-11-10T16:33:07.1Z</time>
      </trkpt>
      <trkpt lat="48.43629" lon="-3.16618">
        <ele>350</ele>
        <time>2014-11-10T16:33:09.1Z</time>
      </trkpt>
      <trkpt lat="48.43626" lon="-3.16616">
        <ele>350</ele>
        <time>2014-11-10T16:33:12.1Z</time>
      </trkpt>
      <trkpt lat="48.43625" lon="-3.16615">
        <ele>350</ele>
        <time>2014-11-10T16:33:14.1Z</time>
      </trkpt>
      <trkpt lat="48.43623" lon="-3.16614">
        <ele>350</ele>
        <time>2014-11-10T16:33:17.1Z</time>
      </trkpt>
      <trkpt lat="48.43621" lon="-3.16613">
        <ele>350</ele>
        <time>2014-11-10T16:33:20.1Z</time>
      </trkpt>
      <trkpt lat="48.43619" lon="-3.16613">
        <ele>350</ele>
        <time>2014-11-10T16:33:23.1Z</time>
      </trkpt>
      <trkpt lat="48.43616" lon="-3.16612">
        <ele>350</ele>
        <time>2014-11-10T16:33:26.1Z</time>
      </trkpt>
      <trkpt lat="48.43613" lon="-3.1661">
        <ele>349</ele>
        <time>2014-11-10T16:33:29.1Z</time>
      </trkpt>
      <trkpt lat="48.43611" lon="-3.16608">
        <ele>349</ele>
        <time>2014-11-10T16:33:31.1Z</time>
      </trkpt>
      <trkpt lat="48.43608" lon="-3.16606">
        <ele>349</ele>
        <time>2014-11-10T16:33:34.1Z</time>
      </trkpt>
      <trkpt lat="48.43606" lon="-3.16604">
        <ele>349</ele>
        <time>2014-11-10T16:33:36.1Z</time>
      </trkpt>
      <trkpt lat="48.43604" lon="-3.16601">
        <ele>349</ele>
        <time>2014-11-10T16:33:39.1Z</time>
      </trkpt>
      <trkpt lat="48.43601" lon="-3.16599">
        <ele>348</ele>
        <time>2014-11-10T16:33:42.1Z</time>
      </trkpt>
      <trkpt lat="48.43599" lon="-3.16596">
        <ele>348</ele>
        <time>2014-11-10T16:33:45.1Z</time>
      </trkpt>
      <trkpt lat="48.43596" lon="-3.16593">
        <ele>348</ele>
        <time>2014-11-10T16:33:48.1Z</time>
      </trkpt>
      <trkpt lat="48.43596" lon="-3.16589">
        <ele>348</ele>
        <time>2014-11-10T16:33:50.1Z</time>
      </trkpt>
      <trkpt lat="48.43596" lon="-3.16586">
        <ele>348</ele>
        <time>2014-11-10T16:33:52.1Z</time>
      </trkpt>
      <trkpt lat="48.43597" lon="-3.16581">
        <ele>347</ele>
        <time>2014-11-10T16:33:55.1Z</time>
      </trkpt>
      <trkpt lat="48.43599" lon="-3.16576">
        <ele>347</ele>
        <time>2014-11-10T16:33:58.1Z</time>
      </trkpt>
      <trkpt lat="48.436" lon="-3.16573">
        <ele>347</ele>
        <time>2014-11-10T16:34:00.1Z</time>
      </trkpt>
      <trkpt lat="48.43602" lon="-3.1657">
        <ele>347</ele>
        <time>2014-11-10T16:34:02.1Z</time>
      </trkpt>
      <trkpt lat="48.43604" lon="-3.16565">
        <ele>347</ele>
        <time>2014-11-10T16:34:05.1Z</time>
      </trkpt>
      <trkpt lat="48.43606" lon="-3.16562">
        <ele>347</ele>
        <time>2014-11-10T16:34:07.1Z</time>
      </trkpt>
      <trkpt lat="48.43608" lon="-3.16558">
        <ele>347</ele>
        <time>2014-11-10T16:34:10.1Z</time>
      </trkpt>
      <trkpt lat="48.43609" lon="-3.16555">
        <ele>346</ele>
        <time>2014-11-10T16:34:12.1Z</time>
      </trkpt>
      <trkpt lat="48.4361" lon="-3.16552">
        <ele>346</ele>
        <time>2014-11-10T16:34:14.1Z</time>
      </trkpt>
      <trkpt lat="48.43612" lon="-3.16548">
        <ele>346</ele>
        <time>2014-11-10T16:34:17.1Z</time>
      </trkpt>
      <trkpt lat="48.43613" lon="-3.16545">
        <ele>346</ele>
        <time>2014-11-10T16:34:19.1Z</time>
      </trkpt>
      <trkpt lat="48.43615" lon="-3.1654">
        <ele>346</ele>
        <time>2014-11-10T16:34:22.1Z</time>
      </trkpt>
      <trkpt lat="48.43617" lon="-3.16535">
        <ele>346</ele>
        <time>2014-11-10T16:34:25.1Z</time>
      </trkpt>
      <trkpt lat="48.43619" lon="-3.1653">
        <ele>345</ele>
        <time>2014-11-10T16:34:28.1Z</time>
      </trkpt>
      <trkpt lat="48.4362" lon="-3.16527">
        <ele>345</ele>
        <time>2014-11-10T16:34:30.1Z</time>
      </trkpt>
      <trkpt lat="48.43621" lon="-3.16524">
        <ele>345</ele>
        <time>2014-11-10T16:34:32.1Z</time>
      </trkpt>
      <trkpt lat="48.43622" lon="-3.16518">
        <ele>345</ele>
        <time>2014-11-10T16:34:35.1Z</time>
      </trkpt>
      <trkpt lat="48.43622" lon="-3.16515">
        <ele>345</ele>
        <time>2014-11-10T16:34:37.1Z</time>
      </trkpt>
      <trkpt lat="48.43623" lon="-3.16512">
        <ele>345</ele>
        <time>2014-11-10T16:34:39.1Z</time>
      </trkpt>
      <trkpt lat="48.43624" lon="-3.16506">
        <ele>345</ele>
        <time>2014-11-10T16:34:42.1Z</time>
      </trkpt>
      <trkpt lat="48.43626" lon="-3.16501">
        <ele>345</ele>
        <time>2014-11-10T16:34:45.1Z</time>
      </trkpt>
      <trkpt lat="48.43627" lon="-3.16495">
        <ele>345</ele>
        <time>2014-11-10T16:34:48.1Z</time>
      </trkpt>
      <trkpt lat="48.43628" lon="-3.1649">
        <ele>345</ele>
        <time>2014-11-10T16:34:51.1Z</time>
      </trkpt>
      <trkpt lat="48.43629" lon="-3.16484">
        <ele>345</ele>
        <time>2014-11-10T16:34:54.1Z</time>
      </trkpt>
      <trkpt lat="48.4363" lon="-3.1648">
        <ele>344</ele>
        <time>2014-11-10T16:34:56.1Z</time>
      </trkpt>
      <trkpt lat="48.4363" lon="-3.16476">
        <ele>344</ele>
        <time>2014-11-10T16:34:58.1Z</time>
      </trkpt>
      <trkpt lat="48.43631" lon="-3.16471">
        <ele>344</ele>
        <time>2014-11-10T16:35:01.1Z</time>
      </trkpt>
      <trkpt lat="48.43632" lon="-3.16465">
        <ele>344</ele>
        <time>2014-11-10T16:35:04.1Z</time>
      </trkpt>
      <trkpt lat="48.43633" lon="-3.1646">
        <ele>344</ele>
        <time>2014-11-10T16:35:07.1Z</time>
      </trkpt>
      <trkpt lat="48.43633" lon="-3.16454">
        <ele>345</ele>
        <time>2014-11-10T16:35:10.1Z</time>
      </trkpt>
      <trkpt lat="48.43634" lon="-3.1645">
        <ele>344</ele>
        <time>2014-11-10T16:35:12.1Z</time>
      </trkpt>
      <trkpt lat="48.43634" lon="-3.16444">
        <ele>344</ele>
        <time>2014-11-10T16:35:15.1Z</time>
      </trkpt>
      <trkpt lat="48.43634" lon="-3.16439">
        <ele>345</ele>
        <time>2014-11-10T16:35:18.1Z</time>
      </trkpt>
      <trkpt lat="48.43634" lon="-3.16433">
        <ele>345</ele>
        <time>2014-11-10T16:35:21.1Z</time>
      </trkpt>
      <trkpt lat="48.43634" lon="-3.16429">
        <ele>344</ele>
        <time>2014-11-10T16:35:23.1Z</time>
      </trkpt>
      <trkpt lat="48.43634" lon="-3.16423">
        <ele>344</ele>
        <time>2014-11-10T16:35:26.1Z</time>
      </trkpt>
      <trkpt lat="48.43635" lon="-3.16419">
        <ele>344</ele>
        <time>2014-11-10T16:35:28.1Z</time>
      </trkpt>
      <trkpt lat="48.43635" lon="-3.16415">
        <ele>344</ele>
        <time>2014-11-10T16:35:30.1Z</time>
      </trkpt>
      <trkpt lat="48.43635" lon="-3.16411">
        <ele>344</ele>
        <time>2014-11-10T16:35:32.1Z</time>
      </trkpt>
      <trkpt lat="48.43635" lon="-3.16405">
        <ele>345</ele>
        <time>2014-11-10T16:35:35.1Z</time>
      </trkpt>
      <trkpt lat="48.43636" lon="-3.16399">
        <ele>345</ele>
        <time>2014-11-10T16:35:38.1Z</time>
      </trkpt>
      <trkpt lat="48.43636" lon="-3.16393">
        <ele>345</ele>
        <time>2014-11-10T16:35:41.1Z</time>
      </trkpt>
      <trkpt lat="48.43636" lon="-3.16387">
        <ele>345</ele>
        <time>2014-11-10T16:35:44.1Z</time>
      </trkpt>
      <trkpt lat="48.43636" lon="-3.16381">
        <ele>345</ele>
        <time>2014-11-10T16:35:47.1Z</time>
      </trkpt>
      <trkpt lat="48.43637" lon="-3.16375">
        <ele>345</ele>
        <time>2014-11-10T16:35:50.1Z</time>
      </trkpt>
      <trkpt lat="48.43637" lon="-3.16371">
        <ele>345</ele>
        <time>2014-11-10T16:35:52.1Z</time>
      </trkpt>
      <trkpt lat="48.43638" lon="-3.16365">
        <ele>345</ele>
        <time>2014-11-10T16:35:55.1Z</time>
      </trkpt>
      <trkpt lat="48.43638" lon="-3.16359">
        <ele>346</ele>
        <time>2014-11-10T16:35:58.1Z</time>
      </trkpt>
      <trkpt lat="48.43639" lon="-3.16354">
        <ele>346</ele>
        <time>2014-11-10T16:36:01.1Z</time>
      </trkpt>
      <trkpt lat="48.4364" lon="-3.16349">
        <ele>346</ele>
        <time>2014-11-10T16:36:04.1Z</time>
      </trkpt>
      <trkpt lat="48.43641" lon="-3.16345">
        <ele>347</ele>
        <time>2014-11-10T16:36:06.1Z</time>
      </trkpt>
      <trkpt lat="48.43642" lon="-3.16341">
        <ele>347</ele>
        <time>2014-11-10T16:36:08.1Z</time>
      </trkpt>
      <trkpt lat="48.43643" lon="-3.16336">
        <ele>348</ele>
        <time>2014-11-10T16:36:11.1Z</time>
      </trkpt>
      <trkpt lat="48.43644" lon="-3.16331">
        <ele>348</ele>
        <time>2014-11-10T16:36:14.1Z</time>
      </trkpt>
      <trkpt lat="48.43645" lon="-3.16325">
        <ele>347</ele>
        <time>2014-11-10T16:36:17.1Z</time>
      </trkpt>
      <trkpt lat="48.43646" lon="-3.1632">
        <ele>347</ele>
        <time>2014-11-10T16:36:20.1Z</time>
      </trkpt>
      <trkpt lat="48.43647" lon="-3.16316">
        <ele>347</ele>
        <time>2014-11-10T16:36:22.1Z</time>
      </trkpt>
      <trkpt lat="48.43647" lon="-3.16312">
        <ele>347</ele>
        <time>2014-11-10T16:36:25.1Z</time>
      </trkpt>
      <trkpt lat="48.43648" lon="-3.16308">
        <ele>347</ele>
        <time>2014-11-10T16:36:27.1Z</time>
      </trkpt>
      <trkpt lat="48.43649" lon="-3.16305">
        <ele>347</ele>
        <time>2014-11-10T16:36:29.1Z</time>
      </trkpt>
      <trkpt lat="48.43649" lon="-3.16299">
        <ele>347</ele>
        <time>2014-11-10T16:36:32.1Z</time>
      </trkpt>
      <trkpt lat="48.43649" lon="-3.16293">
        <ele>347</ele>
        <time>2014-11-10T16:36:35.1Z</time>
      </trkpt>
      <trkpt lat="48.4365" lon="-3.16287">
        <ele>347</ele>
        <time>2014-11-10T16:36:38.1Z</time>
      </trkpt>
      <trkpt lat="48.4365" lon="-3.16282">
        <ele>347</ele>
        <time>2014-11-10T16:36:41.1Z</time>
      </trkpt>
      <trkpt lat="48.43649" lon="-3.16276">
        <ele>347</ele>
        <time>2014-11-10T16:36:44.1Z</time>
      </trkpt>
      <trkpt lat="48.43649" lon="-3.16272">
        <ele>347</ele>
        <time>2014-11-10T16:36:46.1Z</time>
      </trkpt>
      <trkpt lat="48.43649" lon="-3.16268">
        <ele>347</ele>
        <time>2014-11-10T16:36:48.1Z</time>
      </trkpt>
      <trkpt lat="48.43649" lon="-3.16262">
        <ele>347</ele>
        <time>2014-11-10T16:36:51.1Z</time>
      </trkpt>
      <trkpt lat="48.43649" lon="-3.16256">
        <ele>347</ele>
        <time>2014-11-10T16:36:54.1Z</time>
      </trkpt>
      <trkpt lat="48.43648" lon="-3.1625">
        <ele>348</ele>
        <time>2014-11-10T16:36:57.1Z</time>
      </trkpt>
      <trkpt lat="48.43648" lon="-3.16246">
        <ele>348</ele>
        <time>2014-11-10T16:36:59.1Z</time>
      </trkpt>
      <trkpt lat="48.43647" lon="-3.16241">
        <ele>348</ele>
        <time>2014-11-10T16:37:02.1Z</time>
      </trkpt>
      <trkpt lat="48.43647" lon="-3.16235">
        <ele>348</ele>
        <time>2014-11-10T16:37:05.1Z</time>
      </trkpt>
      <trkpt lat="48.43646" lon="-3.16231">
        <ele>348</ele>
        <time>2014-11-10T16:37:07.1Z</time>
      </trkpt>
      <trkpt lat="48.43646" lon="-3.16226">
        <ele>348</ele>
        <time>2014-11-10T16:37:10.1Z</time>
      </trkpt>
      <trkpt lat="48.43645" lon="-3.16222">
        <ele>348</ele>
        <time>2014-11-10T16:37:12.1Z</time>
      </trkpt>
      <trkpt lat="48.43645" lon="-3.16216">
        <ele>348</ele>
        <time>2014-11-10T16:37:15.1Z</time>
      </trkpt>
      <trkpt lat="48.43645" lon="-3.16213">
        <ele>348</ele>
        <time>2014-11-10T16:37:17.1Z</time>
      </trkpt>
      <trkpt lat="48.43645" lon="-3.16207">
        <ele>348</ele>
        <time>2014-11-10T16:37:20.1Z</time>
      </trkpt>
      <trkpt lat="48.43646" lon="-3.16201">
        <ele>348</ele>
        <time>2014-11-10T16:37:23.1Z</time>
      </trkpt>
      <trkpt lat="48.43646" lon="-3.16196">
        <ele>347</ele>
        <time>2014-11-10T16:37:26.1Z</time>
      </trkpt>
      <trkpt lat="48.43646" lon="-3.16189">
        <ele>347</ele>
        <time>2014-11-10T16:37:29.1Z</time>
      </trkpt>
      <trkpt lat="48.43647" lon="-3.16186">
        <ele>347</ele>
        <time>2014-11-10T16:37:31.1Z</time>
      </trkpt>
      <trkpt lat="48.43647" lon="-3.16183">
        <ele>347</ele>
        <time>2014-11-10T16:37:33.1Z</time>
      </trkpt>
      <trkpt lat="48.43647" lon="-3.16177">
        <ele>347</ele>
        <time>2014-11-10T16:37:36.1Z</time>
      </trkpt>
      <trkpt lat="48.43648" lon="-3.16171">
        <ele>346</ele>
        <time>2014-11-10T16:37:39.1Z</time>
      </trkpt>
      <trkpt lat="48.43647" lon="-3.16165">
        <ele>346</ele>
        <time>2014-11-10T16:37:42.1Z</time>
      </trkpt>
      <trkpt lat="48.43648" lon="-3.16161">
        <ele>345</ele>
        <time>2014-11-10T16:37:44.1Z</time>
      </trkpt>
      <trkpt lat="48.43648" lon="-3.16155">
        <ele>345</ele>
        <time>2014-11-10T16:37:47.1Z</time>
      </trkpt>
      <trkpt lat="48.43647" lon="-3.16151">
        <ele>345</ele>
        <time>2014-11-10T16:37:49.1Z</time>
      </trkpt>
      <trkpt lat="48.43647" lon="-3.16145">
        <ele>346</ele>
        <time>2014-11-10T16:37:52.1Z</time>
      </trkpt>
      <trkpt lat="48.43647" lon="-3.16141">
        <ele>346</ele>
        <time>2014-11-10T16:37:54.1Z</time>
      </trkpt>
      <trkpt lat="48.43647" lon="-3.16134">
        <ele>346</ele>
        <time>2014-11-10T16:37:57.1Z</time>
      </trkpt>
      <trkpt lat="48.43646" lon="-3.16129">
        <ele>346</ele>
        <time>2014-11-10T16:37:59.1Z</time>
      </trkpt>
      <trkpt lat="48.43646" lon="-3.16123">
        <ele>345</ele>
        <time>2014-11-10T16:38:02.1Z</time>
      </trkpt>
      <trkpt lat="48.43644" lon="-3.16117">
        <ele>346</ele>
        <time>2014-11-10T16:38:05.1Z</time>
      </trkpt>
      <trkpt lat="48.43644" lon="-3.16113">
        <ele>346</ele>
        <time>2014-11-10T16:38:07.1Z</time>
      </trkpt>
      <trkpt lat="48.43643" lon="-3.16107">
        <ele>346</ele>
        <time>2014-11-10T16:38:10.1Z</time>
      </trkpt>
      <trkpt lat="48.43642" lon="-3.16103">
        <ele>346</ele>
        <time>2014-11-10T16:38:12.1Z</time>
      </trkpt>
      <trkpt lat="48.43641" lon="-3.16099">
        <ele>346</ele>
        <time>2014-11-10T16:38:14.1Z</time>
      </trkpt>
      <trkpt lat="48.4364" lon="-3.16093">
        <ele>345</ele>
        <time>2014-11-10T16:38:17.1Z</time>
      </trkpt>
      <trkpt lat="48.43638" lon="-3.16088">
        <ele>345</ele>
        <time>2014-11-10T16:38:20.1Z</time>
      </trkpt>
      <trkpt lat="48.43637" lon="-3.16082">
        <ele>345</ele>
        <time>2014-11-10T16:38:23.1Z</time>
      </trkpt>
      <trkpt lat="48.43636" lon="-3.16077">
        <ele>345</ele>
        <time>2014-11-10T16:38:26.1Z</time>
      </trkpt>
      <trkpt lat="48.43636" lon="-3.16073">
        <ele>345</ele>
        <time>2014-11-10T16:38:28.1Z</time>
      </trkpt>
      <trkpt lat="48.43635" lon="-3.16068">
        <ele>345</ele>
        <time>2014-11-10T16:38:31.1Z</time>
      </trkpt>
      <trkpt lat="48.43634" lon="-3.16063">
        <ele>344</ele>
        <time>2014-11-10T16:38:33.1Z</time>
      </trkpt>
      <trkpt lat="48.43633" lon="-3.16057">
        <ele>344</ele>
        <time>2014-11-10T16:38:36.1Z</time>
      </trkpt>
      <trkpt lat="48.43633" lon="-3.16053">
        <ele>345</ele>
        <time>2014-11-10T16:38:39.1Z</time>
      </trkpt>
      <trkpt lat="48.43634" lon="-3.16049">
        <ele>345</ele>
        <time>2014-11-10T16:38:41.1Z</time>
      </trkpt>
      <trkpt lat="48.43637" lon="-3.16045">
        <ele>345</ele>
        <time>2014-11-10T16:38:44.1Z</time>
      </trkpt>
      <trkpt lat="48.43639" lon="-3.16043">
        <ele>345</ele>
        <time>2014-11-10T16:38:46.1Z</time>
      </trkpt>
      <trkpt lat="48.43642" lon="-3.16041">
        <ele>345</ele>
        <time>2014-11-10T16:38:49.1Z</time>
      </trkpt>
      <trkpt lat="48.43644" lon="-3.1604">
        <ele>344</ele>
        <time>2014-11-10T16:38:51.1Z</time>
      </trkpt>
      <trkpt lat="48.43647" lon="-3.16039">
        <ele>344</ele>
        <time>2014-11-10T16:38:53.1Z</time>
      </trkpt>
      <trkpt lat="48.4365" lon="-3.16038">
        <ele>344</ele>
        <time>2014-11-10T16:38:56.1Z</time>
      </trkpt>
      <trkpt lat="48.43652" lon="-3.16037">
        <ele>344</ele>
        <time>2014-11-10T16:38:58.1Z</time>
      </trkpt>
      <trkpt lat="48.43656" lon="-3.16035">
        <ele>344</ele>
        <time>2014-11-10T16:39:01.1Z</time>
      </trkpt>
      <trkpt lat="48.4366" lon="-3.16034">
        <ele>344</ele>
        <time>2014-11-10T16:39:04.1Z</time>
      </trkpt>
      <trkpt lat="48.43662" lon="-3.16033">
        <ele>344</ele>
        <time>2014-11-10T16:39:06.1Z</time>
      </trkpt>
      <trkpt lat="48.43666" lon="-3.16033">
        <ele>344</ele>
        <time>2014-11-10T16:39:09.1Z</time>
      </trkpt>
      <trkpt lat="48.4367" lon="-3.16032">
        <ele>344</ele>
        <time>2014-11-10T16:39:12.1Z</time>
      </trkpt>
      <trkpt lat="48.43673" lon="-3.1603">
        <ele>343</ele>
        <time>2014-11-10T16:39:15.1Z</time>
      </trkpt>
      <trkpt lat="48.43676" lon="-3.16029">
        <ele>343</ele>
        <time>2014-11-10T16:39:18.1Z</time>
      </trkpt>
      <trkpt lat="48.43679" lon="-3.16028">
        <ele>343</ele>
        <time>2014-11-10T16:39:20.1Z</time>
      </trkpt>
      <trkpt lat="48.43682" lon="-3.16027">
        <ele>343</ele>
        <time>2014-11-10T16:39:22.1Z</time>
      </trkpt>
      <trkpt lat="48.43684" lon="-3.16027">
        <ele>343</ele>
        <time>2014-11-10T16:39:24.1Z</time>
      </trkpt>
      <trkpt lat="48.43687" lon="-3.16026">
        <ele>342</ele>
        <time>2014-11-10T16:39:27.1Z</time>
      </trkpt>
      <trkpt lat="48.4369" lon="-3.16026">
        <ele>342</ele>
        <time>2014-11-10T16:39:29.1Z</time>
      </trkpt>
      <trkpt lat="48.43694" lon="-3.16025">
        <ele>342</ele>
        <time>2014-11-10T16:39:32.1Z</time>
      </trkpt>
      <trkpt lat="48.43696" lon="-3.16024">
        <ele>342</ele>
        <time>2014-11-10T16:39:34.1Z</time>
      </trkpt>
      <trkpt lat="48.43698" lon="-3.16023">
        <ele>342</ele>
        <time>2014-11-10T16:39:36.1Z</time>
      </trkpt>
      <trkpt lat="48.43702" lon="-3.16022">
        <ele>342</ele>
        <time>2014-11-10T16:39:39.1Z</time>
      </trkpt>
      <trkpt lat="48.43705" lon="-3.16021">
        <ele>342</ele>
        <time>2014-11-10T16:39:42.1Z</time>
      </trkpt>
      <trkpt lat="48.43708" lon="-3.1602">
        <ele>342</ele>
        <time>2014-11-10T16:39:44.1Z</time>
      </trkpt>
      <trkpt lat="48.4371" lon="-3.1602">
        <ele>342</ele>
        <time>2014-11-10T16:39:46.1Z</time>
      </trkpt>
      <trkpt lat="48.43714" lon="-3.16019">
        <ele>341</ele>
        <time>2014-11-10T16:39:49.1Z</time>
      </trkpt>
      <trkpt lat="48.43718" lon="-3.16018">
        <ele>340</ele>
        <time>2014-11-10T16:39:52.1Z</time>
      </trkpt>
      <trkpt lat="48.43721" lon="-3.16017">
        <ele>340</ele>
        <time>2014-11-10T16:39:55.1Z</time>
      </trkpt>
      <trkpt lat="48.43725" lon="-3.16015">
        <ele>340</ele>
        <time>2014-11-10T16:39:58.1Z</time>
      </trkpt>
      <trkpt lat="48.43729" lon="-3.16014">
        <ele>340</ele>
        <time>2014-11-10T16:40:01.1Z</time>
      </trkpt>
      <trkpt lat="48.43731" lon="-3.16013">
        <ele>340</ele>
        <time>2014-11-10T16:40:03.1Z</time>
      </trkpt>
      <trkpt lat="48.43734" lon="-3.16012">
        <ele>340</ele>
        <time>2014-11-10T16:40:05.1Z</time>
      </trkpt>
      <trkpt lat="48.43737" lon="-3.1601">
        <ele>340</ele>
        <time>2014-11-10T16:40:08.1Z</time>
      </trkpt>
      <trkpt lat="48.43741" lon="-3.1601">
        <ele>340</ele>
        <time>2014-11-10T16:40:11.1Z</time>
      </trkpt>
      <trkpt lat="48.43745" lon="-3.16008">
        <ele>340</ele>
        <time>2014-11-10T16:40:14.1Z</time>
      </trkpt>
      <trkpt lat="48.43748" lon="-3.16007">
        <ele>340</ele>
        <time>2014-11-10T16:40:17.1Z</time>
      </trkpt>
      <trkpt lat="48.4375" lon="-3.16006">
        <ele>339</ele>
        <time>2014-11-10T16:40:19.1Z</time>
      </trkpt>
      <trkpt lat="48.43754" lon="-3.16005">
        <ele>339</ele>
        <time>2014-11-10T16:40:22.1Z</time>
      </trkpt>
      <trkpt lat="48.43756" lon="-3.16004">
        <ele>340</ele>
        <time>2014-11-10T16:40:24.1Z</time>
      </trkpt>
      <trkpt lat="48.4376" lon="-3.16003">
        <ele>340</ele>
        <time>2014-11-10T16:40:27.1Z</time>
      </trkpt>
      <trkpt lat="48.43763" lon="-3.16002">
        <ele>339</ele>
        <time>2014-11-10T16:40:29.1Z</time>
      </trkpt>
      <trkpt lat="48.43765" lon="-3.16001">
        <ele>339</ele>
        <time>2014-11-10T16:40:31.1Z</time>
      </trkpt>
      <trkpt lat="48.43769" lon="-3.16">
        <ele>339</ele>
        <time>2014-11-10T16:40:34.1Z</time>
      </trkpt>
      <trkpt lat="48.43771" lon="-3.15999">
        <ele>339</ele>
        <time>2014-11-10T16:40:36.1Z</time>
      </trkpt>
      <trkpt lat="48.43775" lon="-3.15998">
        <ele>339</ele>
        <time>2014-11-10T16:40:39.1Z</time>
      </trkpt>
      <trkpt lat="48.43779" lon="-3.15998">
        <ele>339</ele>
        <time>2014-11-10T16:40:42.1Z</time>
      </trkpt>
      <trkpt lat="48.43782" lon="-3.15997">
        <ele>339</ele>
        <time>2014-11-10T16:40:45.1Z</time>
      </trkpt>
      <trkpt lat="48.43786" lon="-3.15996">
        <ele>339</ele>
        <time>2014-11-10T16:40:48.1Z</time>
      </trkpt>
      <trkpt lat="48.43789" lon="-3.15996">
        <ele>339</ele>
        <time>2014-11-10T16:40:50.1Z</time>
      </trkpt>
      <trkpt lat="48.43792" lon="-3.15995">
        <ele>338</ele>
        <time>2014-11-10T16:40:53.1Z</time>
      </trkpt>
      <trkpt lat="48.43794" lon="-3.15995">
        <ele>338</ele>
        <time>2014-11-10T16:40:55.1Z</time>
      </trkpt>
      <trkpt lat="48.43798" lon="-3.15995">
        <ele>338</ele>
        <time>2014-11-10T16:40:58.1Z</time>
      </trkpt>
      <trkpt lat="48.43801" lon="-3.15994">
        <ele>338</ele>
        <time>2014-11-10T16:41:01.1Z</time>
      </trkpt>
      <trkpt lat="48.43805" lon="-3.15994">
        <ele>338</ele>
        <time>2014-11-10T16:41:04.1Z</time>
      </trkpt>
      <trkpt lat="48.43808" lon="-3.15994">
        <ele>338</ele>
        <time>2014-11-10T16:41:07.1Z</time>
      </trkpt>
      <trkpt lat="48.43812" lon="-3.15995">
        <ele>338</ele>
        <time>2014-11-10T16:41:10.1Z</time>
      </trkpt>
      <trkpt lat="48.43814" lon="-3.15995">
        <ele>338</ele>
        <time>2014-11-10T16:41:12.1Z</time>
      </trkpt>
      <trkpt lat="48.43816" lon="-3.15996">
        <ele>338</ele>
        <time>2014-11-10T16:41:14.1Z</time>
      </trkpt>
      <trkpt lat="48.4382" lon="-3.15997">
        <ele>338</ele>
        <time>2014-11-10T16:41:17.1Z</time>
      </trkpt>
      <trkpt lat="48.43822" lon="-3.15998">
        <ele>338</ele>
        <time>2014-11-10T16:41:19.1Z</time>
      </trkpt>
      <trkpt lat="48.43825" lon="-3.15999">
        <ele>338</ele>
        <time>2014-11-10T16:41:22.1Z</time>
      </trkpt>
      <trkpt lat="48.43828" lon="-3.16">
        <ele>338</ele>
        <time>2014-11-10T16:41:24.1Z</time>
      </trkpt>
      <trkpt lat="48.4383" lon="-3.16002">
        <ele>338</ele>
        <time>2014-11-10T16:41:26.1Z</time>
      </trkpt>
      <trkpt lat="48.43833" lon="-3.16003">
        <ele>338</ele>
        <time>2014-11-10T16:41:29.1Z</time>
      </trkpt>
      <trkpt lat="48.43837" lon="-3.16004">
        <ele>338</ele>
        <time>2014-11-10T16:41:32.1Z</time>
      </trkpt>
      <trkpt lat="48.43839" lon="-3.16005">
        <ele>338</ele>
        <time>2014-11-10T16:41:34.1Z</time>
      </trkpt>
      <trkpt lat="48.43841" lon="-3.16006">
        <ele>338</ele>
        <time>2014-11-10T16:41:36.1Z</time>
      </trkpt>
      <trkpt lat="48.43845" lon="-3.16008">
        <ele>338</ele>
        <time>2014-11-10T16:41:39.1Z</time>
      </trkpt>
      <trkpt lat="48.43847" lon="-3.16009">
        <ele>338</ele>
        <time>2014-11-10T16:41:41.1Z</time>
      </trkpt>
      <trkpt lat="48.43851" lon="-3.16011">
        <ele>338</ele>
        <time>2014-11-10T16:41:44.1Z</time>
      </trkpt>
      <trkpt lat="48.43853" lon="-3.16012">
        <ele>339</ele>
        <time>2014-11-10T16:41:46.1Z</time>
      </trkpt>
      <trkpt lat="48.43856" lon="-3.16013">
        <ele>339</ele>
        <time>2014-11-10T16:41:49.1Z</time>
      </trkpt>
      <trkpt lat="48.43858" lon="-3.16014">
        <ele>339</ele>
        <time>2014-11-10T16:41:51.1Z</time>
      </trkpt>
      <trkpt lat="48.43861" lon="-3.16015">
        <ele>339</ele>
        <time>2014-11-10T16:41:54.1Z</time>
      </trkpt>
      <trkpt lat="48.43865" lon="-3.16016">
        <ele>339</ele>
        <time>2014-11-10T16:41:57.1Z</time>
      </trkpt>
      <trkpt lat="48.43867" lon="-3.16017">
        <ele>339</ele>
        <time>2014-11-10T16:41:59.1Z</time>
      </trkpt>
      <trkpt lat="48.4387" lon="-3.16019">
        <ele>339</ele>
        <time>2014-11-10T16:42:02.1Z</time>
      </trkpt>
      <trkpt lat="48.43874" lon="-3.1602">
        <ele>339</ele>
        <time>2014-11-10T16:42:05.1Z</time>
      </trkpt>
      <trkpt lat="48.43876" lon="-3.16021">
        <ele>339</ele>
        <time>2014-11-10T16:42:07.1Z</time>
      </trkpt>
      <trkpt lat="48.43878" lon="-3.16022">
        <ele>339</ele>
        <time>2014-11-10T16:42:10.1Z</time>
      </trkpt>
      <trkpt lat="48.43882" lon="-3.16023">
        <ele>339</ele>
        <time>2014-11-10T16:42:13.1Z</time>
      </trkpt>
      <trkpt lat="48.43885" lon="-3.16025">
        <ele>339</ele>
        <time>2014-11-10T16:42:16.1Z</time>
      </trkpt>
      <trkpt lat="48.43888" lon="-3.16026">
        <ele>340</ele>
        <time>2014-11-10T16:42:19.1Z</time>
      </trkpt>
      <trkpt lat="48.43891" lon="-3.16027">
        <ele>340</ele>
        <time>2014-11-10T16:42:22.1Z</time>
      </trkpt>
      <trkpt lat="48.43894" lon="-3.16028">
        <ele>340</ele>
        <time>2014-11-10T16:42:24.1Z</time>
      </trkpt>
      <trkpt lat="48.43897" lon="-3.16029">
        <ele>340</ele>
        <time>2014-11-10T16:42:27.1Z</time>
      </trkpt>
      <trkpt lat="48.43899" lon="-3.16031">
        <ele>340</ele>
        <time>2014-11-10T16:42:29.1Z</time>
      </trkpt>
      <trkpt lat="48.43901" lon="-3.16032">
        <ele>340</ele>
        <time>2014-11-10T16:42:31.1Z</time>
      </trkpt>
      <trkpt lat="48.43904" lon="-3.16033">
        <ele>340</ele>
        <time>2014-11-10T16:42:33.1Z</time>
      </trkpt>
      <trkpt lat="48.43907" lon="-3.16034">
        <ele>340</ele>
        <time>2014-11-10T16:42:36.1Z</time>
      </trkpt>
      <trkpt lat="48.43909" lon="-3.16035">
        <ele>340</ele>
        <time>2014-11-10T16:42:38.1Z</time>
      </trkpt>
      <trkpt lat="48.43912" lon="-3.16036">
        <ele>340</ele>
        <time>2014-11-10T16:42:40.1Z</time>
      </trkpt>
      <trkpt lat="48.43915" lon="-3.16037">
        <ele>340</ele>
        <time>2014-11-10T16:42:43.1Z</time>
      </trkpt>
      <trkpt lat="48.43917" lon="-3.16038">
        <ele>340</ele>
        <time>2014-11-10T16:42:45.1Z</time>
      </trkpt>
      <trkpt lat="48.4392" lon="-3.16039">
        <ele>341</ele>
        <time>2014-11-10T16:42:47.1Z</time>
      </trkpt>
      <trkpt lat="48.43923" lon="-3.16041">
        <ele>341</ele>
        <time>2014-11-10T16:42:50.1Z</time>
      </trkpt>
      <trkpt lat="48.43925" lon="-3.16042">
        <ele>341</ele>
        <time>2014-11-10T16:42:52.1Z</time>
      </trkpt>
      <trkpt lat="48.43929" lon="-3.16044">
        <ele>341</ele>
        <time>2014-11-10T16:42:55.1Z</time>
      </trkpt>
      <trkpt lat="48.43933" lon="-3.16046">
        <ele>341</ele>
        <time>2014-11-10T16:42:58.1Z</time>
      </trkpt>
      <trkpt lat="48.43936" lon="-3.16048">
        <ele>341</ele>
        <time>2014-11-10T16:43:01.1Z</time>
      </trkpt>
      <trkpt lat="48.4394" lon="-3.16049">
        <ele>341</ele>
        <time>2014-11-10T16:43:04.1Z</time>
      </trkpt>
      <trkpt lat="48.43942" lon="-3.1605">
        <ele>341</ele>
        <time>2014-11-10T16:43:06.1Z</time>
      </trkpt>
      <trkpt lat="48.43946" lon="-3.16052">
        <ele>340</ele>
        <time>2014-11-10T16:43:09.1Z</time>
      </trkpt>
      <trkpt lat="48.43949" lon="-3.16054">
        <ele>340</ele>
        <time>2014-11-10T16:43:11.1Z</time>
      </trkpt>
      <trkpt lat="48.43951" lon="-3.16055">
        <ele>340</ele>
        <time>2014-11-10T16:43:13.1Z</time>
      </trkpt>
      <trkpt lat="48.43954" lon="-3.16056">
        <ele>341</ele>
        <time>2014-11-10T16:43:16.1Z</time>
      </trkpt>
      <trkpt lat="48.43957" lon="-3.16057">
        <ele>341</ele>
        <time>2014-11-10T16:43:18.1Z</time>
      </trkpt>
      <trkpt lat="48.4396" lon="-3.16059">
        <ele>341</ele>
        <time>2014-11-10T16:43:21.1Z</time>
      </trkpt>
      <trkpt lat="48.43964" lon="-3.16061">
        <ele>341</ele>
        <time>2014-11-10T16:43:24.1Z</time>
      </trkpt>
      <trkpt lat="48.43967" lon="-3.16062">
        <ele>341</ele>
        <time>2014-11-10T16:43:27.1Z</time>
      </trkpt>
      <trkpt lat="48.43971" lon="-3.16064">
        <ele>341</ele>
        <time>2014-11-10T16:43:30.1Z</time>
      </trkpt>
      <trkpt lat="48.43974" lon="-3.16065">
        <ele>341</ele>
        <time>2014-11-10T16:43:33.1Z</time>
      </trkpt>
      <trkpt lat="48.43977" lon="-3.16066">
        <ele>341</ele>
        <time>2014-11-10T16:43:36.1Z</time>
      </trkpt>
      <trkpt lat="48.4398" lon="-3.16067">
        <ele>341</ele>
        <time>2014-11-10T16:43:39.1Z</time>
      </trkpt>
      <trkpt lat="48.43985" lon="-3.16069">
        <ele>341</ele>
        <time>2014-11-10T16:43:42.1Z</time>
      </trkpt>
      <trkpt lat="48.43988" lon="-3.1607">
        <ele>341</ele>
        <time>2014-11-10T16:43:45.1Z</time>
      </trkpt>
      <trkpt lat="48.4399" lon="-3.16071">
        <ele>341</ele>
        <time>2014-11-10T16:43:47.1Z</time>
      </trkpt>
      <trkpt lat="48.43994" lon="-3.16073">
        <ele>341</ele>
        <time>2014-11-10T16:43:50.1Z</time>
      </trkpt>
      <trkpt lat="48.43998" lon="-3.16074">
        <ele>341</ele>
        <time>2014-11-10T16:43:53.1Z</time>
      </trkpt>
      <trkpt lat="48.44" lon="-3.16076">
        <ele>341</ele>
        <time>2014-11-10T16:43:55.1Z</time>
      </trkpt>
      <trkpt lat="48.44004" lon="-3.16078">
        <ele>341</ele>
        <time>2014-11-10T16:43:58.1Z</time>
      </trkpt>
      <trkpt lat="48.44007" lon="-3.16079">
        <ele>341</ele>
        <time>2014-11-10T16:44:01.1Z</time>
      </trkpt>
      <trkpt lat="48.44011" lon="-3.1608">
        <ele>341</ele>
        <time>2014-11-10T16:44:04.1Z</time>
      </trkpt>
      <trkpt lat="48.44014" lon="-3.16082">
        <ele>342</ele>
        <time>2014-11-10T16:44:07.1Z</time>
      </trkpt>
      <trkpt lat="48.44017" lon="-3.16083">
        <ele>342</ele>
        <time>2014-11-10T16:44:10.1Z</time>
      </trkpt>
      <trkpt lat="48.4402" lon="-3.16084">
        <ele>342</ele>
        <time>2014-11-10T16:44:12.1Z</time>
      </trkpt>
      <trkpt lat="48.44023" lon="-3.16085">
        <ele>342</ele>
        <time>2014-11-10T16:44:14.1Z</time>
      </trkpt>
      <trkpt lat="48.44025" lon="-3.16086">
        <ele>342</ele>
        <time>2014-11-10T16:44:16.1Z</time>
      </trkpt>
      <trkpt lat="48.44028" lon="-3.16088">
        <ele>342</ele>
        <time>2014-11-10T16:44:19.1Z</time>
      </trkpt>
      <trkpt lat="48.44032" lon="-3.16089">
        <ele>342</ele>
        <time>2014-11-10T16:44:22.1Z</time>
      </trkpt>
      <trkpt lat="48.44033" lon="-3.1609">
        <ele>342</ele>
        <time>2014-11-10T16:44:24.1Z</time>
      </trkpt>
      <trkpt lat="48.44036" lon="-3.1609">
        <ele>342</ele>
        <time>2014-11-10T16:44:27.1Z</time>
      </trkpt>
      <trkpt lat="48.44038" lon="-3.16091">
        <ele>343</ele>
        <time>2014-11-10T16:44:29.1Z</time>
      </trkpt>
      <trkpt lat="48.4404" lon="-3.16092">
        <ele>342</ele>
        <time>2014-11-10T16:44:31.1Z</time>
      </trkpt>
      <trkpt lat="48.44043" lon="-3.16093">
        <ele>342</ele>
        <time>2014-11-10T16:44:33.1Z</time>
      </trkpt>
      <trkpt lat="48.44045" lon="-3.16094">
        <ele>342</ele>
        <time>2014-11-10T16:44:35.1Z</time>
      </trkpt>
      <trkpt lat="48.44049" lon="-3.16095">
        <ele>342</ele>
        <time>2014-11-10T16:44:38.1Z</time>
      </trkpt>
      <trkpt lat="48.44053" lon="-3.16096">
        <ele>343</ele>
        <time>2014-11-10T16:44:41.1Z</time>
      </trkpt>
      <trkpt lat="48.44056" lon="-3.16096">
        <ele>343</ele>
        <time>2014-11-10T16:44:43.1Z</time>
      </trkpt>
      <trkpt lat="48.44059" lon="-3.16097">
        <ele>343</ele>
        <time>2014-11-10T16:44:46.1Z</time>
      </trkpt>
      <trkpt lat="48.44061" lon="-3.16097">
        <ele>343</ele>
        <time>2014-11-10T16:44:48.1Z</time>
      </trkpt>
      <trkpt lat="48.44065" lon="-3.16097">
        <ele>343</ele>
        <time>2014-11-10T16:44:51.1Z</time>
      </trkpt>
      <trkpt lat="48.44069" lon="-3.16097">
        <ele>343</ele>
        <time>2014-11-10T16:44:54.1Z</time>
      </trkpt>
      <trkpt lat="48.44072" lon="-3.16096">
        <ele>343</ele>
        <time>2014-11-10T16:44:57.1Z</time>
      </trkpt>
      <trkpt lat="48.44075" lon="-3.16096">
        <ele>344</ele>
        <time>2014-11-10T16:44:59.1Z</time>
      </trkpt>
      <trkpt lat="48.44079" lon="-3.16096">
        <ele>344</ele>
        <time>2014-11-10T16:45:02.1Z</time>
      </trkpt>
      <trkpt lat="48.44082" lon="-3.16095">
        <ele>344</ele>
        <time>2014-11-10T16:45:05.1Z</time>
      </trkpt>
      <trkpt lat="48.44086" lon="-3.16094">
        <ele>344</ele>
        <time>2014-11-10T16:45:08.1Z</time>
      </trkpt>
      <trkpt lat="48.44089" lon="-3.16093">
        <ele>344</ele>
        <time>2014-11-10T16:45:11.1Z</time>
      </trkpt>
      <trkpt lat="48.44091" lon="-3.16092">
        <ele>344</ele>
        <time>2014-11-10T16:45:13.1Z</time>
      </trkpt>
      <trkpt lat="48.44094" lon="-3.16091">
        <ele>344</ele>
        <time>2014-11-10T16:45:15.1Z</time>
      </trkpt>
      <trkpt lat="48.44097" lon="-3.16089">
        <ele>344</ele>
        <time>2014-11-10T16:45:18.1Z</time>
      </trkpt>
      <trkpt lat="48.44099" lon="-3.16088">
        <ele>344</ele>
        <time>2014-11-10T16:45:20.1Z</time>
      </trkpt>
      <trkpt lat="48.44102" lon="-3.16085">
        <ele>344</ele>
        <time>2014-11-10T16:45:23.1Z</time>
      </trkpt>
      <trkpt lat="48.44104" lon="-3.16084">
        <ele>344</ele>
        <time>2014-11-10T16:45:25.1Z</time>
      </trkpt>
      <trkpt lat="48.44106" lon="-3.16081">
        <ele>345</ele>
        <time>2014-11-10T16:45:27.1Z</time>
      </trkpt>
      <trkpt lat="48.44108" lon="-3.16078">
        <ele>345</ele>
        <time>2014-11-10T16:45:30.1Z</time>
      </trkpt>
      <trkpt lat="48.4411" lon="-3.16075">
        <ele>344</ele>
        <time>2014-11-10T16:45:32.1Z</time>
      </trkpt>
      <trkpt lat="48.44111" lon="-3.16072">
        <ele>344</ele>
        <time>2014-11-10T16:45:34.1Z</time>
      </trkpt>
      <trkpt lat="48.44113" lon="-3.16068">
        <ele>344</ele>
        <time>2014-11-10T16:45:37.1Z</time>
      </trkpt>
      <trkpt lat="48.44115" lon="-3.16063">
        <ele>344</ele>
        <time>2014-11-10T16:45:40.1Z</time>
      </trkpt>
      <trkpt lat="48.44116" lon="-3.1606">
        <ele>344</ele>
        <time>2014-11-10T16:45:42.1Z</time>
      </trkpt>
      <trkpt lat="48.44118" lon="-3.16056">
        <ele>344</ele>
        <time>2014-11-10T16:45:45.1Z</time>
      </trkpt>
      <trkpt lat="48.4412" lon="-3.16053">
        <ele>344</ele>
        <time>2014-11-10T16:45:47.1Z</time>
      </trkpt>
      <trkpt lat="48.44121" lon="-3.16049">
        <ele>344</ele>
        <time>2014-11-10T16:45:50.1Z</time>
      </trkpt>
      <trkpt lat="48.44123" lon="-3.16045">
        <ele>344</ele>
        <time>2014-11-10T16:45:52.1Z</time>
      </trkpt>
      <trkpt lat="48.44124" lon="-3.16042">
        <ele>344</ele>
        <time>2014-11-10T16:45:54.1Z</time>
      </trkpt>
      <trkpt lat="48.44125" lon="-3.16037">
        <ele>343</ele>
        <time>2014-11-10T16:45:57.1Z</time>
      </trkpt>
      <trkpt lat="48.44127" lon="-3.16034">
        <ele>343</ele>
        <time>2014-11-10T16:45:59.1Z</time>
      </trkpt>
      <trkpt lat="48.44128" lon="-3.1603">
        <ele>343</ele>
        <time>2014-11-10T16:46:02.1Z</time>
      </trkpt>
      <trkpt lat="48.44129" lon="-3.16025">
        <ele>343</ele>
        <time>2014-11-10T16:46:05.1Z</time>
      </trkpt>
      <trkpt lat="48.4413" lon="-3.16022">
        <ele>343</ele>
        <time>2014-11-10T16:46:07.1Z</time>
      </trkpt>
      <trkpt lat="48.44132" lon="-3.16017">
        <ele>343</ele>
        <time>2014-11-10T16:46:10.1Z</time>
      </trkpt>
      <trkpt lat="48.44133" lon="-3.16014">
        <ele>343</ele>
        <time>2014-11-10T16:46:12.1Z</time>
      </trkpt>
      <trkpt lat="48.44134" lon="-3.16009">
        <ele>343</ele>
        <time>2014-11-10T16:46:15.1Z</time>
      </trkpt>
      <trkpt lat="48.44135" lon="-3.16006">
        <ele>342</ele>
        <time>2014-11-10T16:46:17.1Z</time>
      </trkpt>
      <trkpt lat="48.44136" lon="-3.16002">
        <ele>342</ele>
        <time>2014-11-10T16:46:19.1Z</time>
      </trkpt>
      <trkpt lat="48.44137" lon="-3.15997">
        <ele>342</ele>
        <time>2014-11-10T16:46:22.1Z</time>
      </trkpt>
      <trkpt lat="48.44138" lon="-3.15993">
        <ele>341</ele>
        <time>2014-11-10T16:46:25.1Z</time>
      </trkpt>
      <trkpt lat="48.44139" lon="-3.1599">
        <ele>341</ele>
        <time>2014-11-10T16:46:27.1Z</time>
      </trkpt>
      <trkpt lat="48.44139" lon="-3.15987">
        <ele>341</ele>
        <time>2014-11-10T16:46:29.1Z</time>
      </trkpt>
      <trkpt lat="48.4414" lon="-3.15984">
        <ele>341</ele>
        <time>2014-11-10T16:46:31.1Z</time>
      </trkpt>
      <trkpt lat="48.44142" lon="-3.1598">
        <ele>341</ele>
        <time>2014-11-10T16:46:34.1Z</time>
      </trkpt>
      <trkpt lat="48.44143" lon="-3.15977">
        <ele>340</ele>
        <time>2014-11-10T16:46:36.1Z</time>
      </trkpt>
      <trkpt lat="48.44144" lon="-3.15972">
        <ele>340</ele>
        <time>2014-11-10T16:46:39.1Z</time>
      </trkpt>
      <trkpt lat="48.44145" lon="-3.15968">
        <ele>340</ele>
        <time>2014-11-10T16:46:42.1Z</time>
      </trkpt>
      <trkpt lat="48.44146" lon="-3.15965">
        <ele>340</ele>
        <time>2014-11-10T16:46:44.1Z</time>
      </trkpt>
      <trkpt lat="48.44147" lon="-3.15962">
        <ele>339</ele>
        <time>2014-11-10T16:46:47.1Z</time>
      </trkpt>
      <trkpt lat="48.44149" lon="-3.15957">
        <ele>339</ele>
        <time>2014-11-10T16:46:50.1Z</time>
      </trkpt>
      <trkpt lat="48.4415" lon="-3.15952">
        <ele>338</ele>
        <time>2014-11-10T16:46:53.1Z</time>
      </trkpt>
      <trkpt lat="48.44152" lon="-3.15947">
        <ele>338</ele>
        <time>2014-11-10T16:46:56.1Z</time>
      </trkpt>
      <trkpt lat="48.44152" lon="-3.15944">
        <ele>338</ele>
        <time>2014-11-10T16:46:58.1Z</time>
      </trkpt>
      <trkpt lat="48.44153" lon="-3.15939">
        <ele>338</ele>
        <time>2014-11-10T16:47:01.1Z</time>
      </trkpt>
      <trkpt lat="48.44154" lon="-3.15935">
        <ele>338</ele>
        <time>2014-11-10T16:47:04.1Z</time>
      </trkpt>
      <trkpt lat="48.44155" lon="-3.15932">
        <ele>337</ele>
        <time>2014-11-10T16:47:06.1Z</time>
      </trkpt>
      <trkpt lat="48.44156" lon="-3.15928">
        <ele>337</ele>
        <time>2014-11-10T16:47:09.1Z</time>
      </trkpt>
      <trkpt lat="48.44157" lon="-3.15923">
        <ele>337</ele>
        <time>2014-11-10T16:47:12.1Z</time>
      </trkpt>
      <trkpt lat="48.44158" lon="-3.15919">
        <ele>336</ele>
        <time>2014-11-10T16:47:15.1Z</time>
      </trkpt>
      <trkpt lat="48.4416" lon="-3.15914">
        <ele>336</ele>
        <time>2014-11-10T16:47:18.1Z</time>
      </trkpt>
      <trkpt lat="48.44161" lon="-3.15911">
        <ele>336</ele>
        <time>2014-11-10T16:47:20.1Z</time>
      </trkpt>
      <trkpt lat="48.44162" lon="-3.15908">
        <ele>336</ele>
        <time>2014-11-10T16:47:22.1Z</time>
      </trkpt>
      <trkpt lat="48.44163" lon="-3.15905">
        <ele>336</ele>
        <time>2014-11-10T16:47:24.1Z</time>
      </trkpt>
      <trkpt lat="48.44165" lon="-3.15901">
        <ele>335</ele>
        <time>2014-11-10T16:47:27.1Z</time>
      </trkpt>
      <trkpt lat="48.44167" lon="-3.15896">
        <ele>335</ele>
        <time>2014-11-10T16:47:30.1Z</time>
      </trkpt>
      <trkpt lat="48.44168" lon="-3.15892">
        <ele>335</ele>
        <time>2014-11-10T16:47:32.1Z</time>
      </trkpt>
      <trkpt lat="48.4417" lon="-3.15887">
        <ele>335</ele>
        <time>2014-11-10T16:47:35.1Z</time>
      </trkpt>
      <trkpt lat="48.44172" lon="-3.15882">
        <ele>335</ele>
        <time>2014-11-10T16:47:38.1Z</time>
      </trkpt>
      <trkpt lat="48.44173" lon="-3.15877">
        <ele>335</ele>
        <time>2014-11-10T16:47:41.1Z</time>
      </trkpt>
      <trkpt lat="48.44174" lon="-3.15873">
        <ele>335</ele>
        <time>2014-11-10T16:47:43.1Z</time>
      </trkpt>
      <trkpt lat="48.44176" lon="-3.15868">
        <ele>335</ele>
        <time>2014-11-10T16:47:46.1Z</time>
      </trkpt>
      <trkpt lat="48.44178" lon="-3.15862">
        <ele>334</ele>
        <time>2014-11-10T16:47:49.1Z</time>
      </trkpt>
      <trkpt lat="48.4418" lon="-3.15858">
        <ele>335</ele>
        <time>2014-11-10T16:47:52.1Z</time>
      </trkpt>
      <trkpt lat="48.44181" lon="-3.15855">
        <ele>335</ele>
        <time>2014-11-10T16:47:54.1Z</time>
      </trkpt>
      <trkpt lat="48.44183" lon="-3.1585">
        <ele>334</ele>
        <time>2014-11-10T16:47:57.1Z</time>
      </trkpt>
      <trkpt lat="48.44184" lon="-3.15844">
        <ele>334</ele>
        <time>2014-11-10T16:48:00.1Z</time>
      </trkpt>
      <trkpt lat="48.44187" lon="-3.15839">
        <ele>334</ele>
        <time>2014-11-10T16:48:03.1Z</time>
      </trkpt>
      <trkpt lat="48.44188" lon="-3.15836">
        <ele>334</ele>
        <time>2014-11-10T16:48:05.1Z</time>
      </trkpt>
      <trkpt lat="48.4419" lon="-3.15831">
        <ele>333</ele>
        <time>2014-11-10T16:48:08.1Z</time>
      </trkpt>
      <trkpt lat="48.44192" lon="-3.15826">
        <ele>333</ele>
        <time>2014-11-10T16:48:11.1Z</time>
      </trkpt>
      <trkpt lat="48.44194" lon="-3.15823">
        <ele>333</ele>
        <time>2014-11-10T16:48:13.1Z</time>
      </trkpt>
      <trkpt lat="48.44195" lon="-3.1582">
        <ele>332</ele>
        <time>2014-11-10T16:48:16.1Z</time>
      </trkpt>
      <trkpt lat="48.44196" lon="-3.15816">
        <ele>332</ele>
        <time>2014-11-10T16:48:19.1Z</time>
      </trkpt>
      <trkpt lat="48.44197" lon="-3.15813">
        <ele>332</ele>
        <time>2014-11-10T16:48:22.1Z</time>
      </trkpt>
      <trkpt lat="48.44198" lon="-3.15811">
        <ele>332</ele>
        <time>2014-11-10T16:48:24.1Z</time>
      </trkpt>
      <trkpt lat="48.44199" lon="-3.15807">
        <ele>332</ele>
        <time>2014-11-10T16:48:27.1Z</time>
      </trkpt>
      <trkpt lat="48.44201" lon="-3.15803">
        <ele>332</ele>
        <time>2014-11-10T16:48:30.1Z</time>
      </trkpt>
      <trkpt lat="48.44202" lon="-3.15799">
        <ele>332</ele>
        <time>2014-11-10T16:48:33.1Z</time>
      </trkpt>
      <trkpt lat="48.44203" lon="-3.15797">
        <ele>332</ele>
        <time>2014-11-10T16:48:35.1Z</time>
      </trkpt>
      <trkpt lat="48.44204" lon="-3.15794">
        <ele>332</ele>
        <time>2014-11-10T16:48:38.1Z</time>
      </trkpt>
      <trkpt lat="48.44206" lon="-3.15791">
        <ele>332</ele>
        <time>2014-11-10T16:48:41.1Z</time>
      </trkpt>
      <trkpt lat="48.44208" lon="-3.15788">
        <ele>331</ele>
        <time>2014-11-10T16:48:44.1Z</time>
      </trkpt>
      <trkpt lat="48.44209" lon="-3.15786">
        <ele>331</ele>
        <time>2014-11-10T16:48:46.1Z</time>
      </trkpt>
      <trkpt lat="48.44211" lon="-3.15783">
        <ele>331</ele>
        <time>2014-11-10T16:48:49.1Z</time>
      </trkpt>
      <trkpt lat="48.44213" lon="-3.15782">
        <ele>331</ele>
        <time>2014-11-10T16:48:51.1Z</time>
      </trkpt>
      <trkpt lat="48.44215" lon="-3.15781">
        <ele>331</ele>
        <time>2014-11-10T16:48:53.1Z</time>
      </trkpt>
      <trkpt lat="48.44217" lon="-3.15777">
        <ele>331</ele>
        <time>2014-11-10T16:48:56.1Z</time>
      </trkpt>
      <trkpt lat="48.44218" lon="-3.15775">
        <ele>331</ele>
        <time>2014-11-10T16:48:58.1Z</time>
      </trkpt>
      <trkpt lat="48.44221" lon="-3.15771">
        <ele>331</ele>
        <time>2014-11-10T16:49:01.1Z</time>
      </trkpt>
      <trkpt lat="48.44223" lon="-3.15769">
        <ele>331</ele>
        <time>2014-11-10T16:49:03.1Z</time>
      </trkpt>
      <trkpt lat="48.44225" lon="-3.15765">
        <ele>331</ele>
        <time>2014-11-10T16:49:06.1Z</time>
      </trkpt>
      <trkpt lat="48.44227" lon="-3.15761">
        <ele>331</ele>
        <time>2014-11-10T16:49:09.1Z</time>
      </trkpt>
      <trkpt lat="48.44229" lon="-3.15758">
        <ele>330</ele>
        <time>2014-11-10T16:49:11.1Z</time>
      </trkpt>
      <trkpt lat="48.44231" lon="-3.15754">
        <ele>330</ele>
        <time>2014-11-10T16:49:14.1Z</time>
      </trkpt>
      <trkpt lat="48.44233" lon="-3.15752">
        <ele>330</ele>
        <time>2014-11-10T16:49:16.1Z</time>
      </trkpt>
      <trkpt lat="48.44235" lon="-3.15748">
        <ele>330</ele>
        <time>2014-11-10T16:49:19.1Z</time>
      </trkpt>
      <trkpt lat="48.44236" lon="-3.15746">
        <ele>330</ele>
        <time>2014-11-10T16:49:21.1Z</time>
      </trkpt>
      <trkpt lat="48.44238" lon="-3.15741">
        <ele>329</ele>
        <time>2014-11-10T16:49:24.1Z</time>
      </trkpt>
      <trkpt lat="48.44239" lon="-3.15738">
        <ele>329</ele>
        <time>2014-11-10T16:49:26.1Z</time>
      </trkpt>
      <trkpt lat="48.44242" lon="-3.15734">
        <ele>329</ele>
        <time>2014-11-10T16:49:29.1Z</time>
      </trkpt>
      <trkpt lat="48.44244" lon="-3.15729">
        <ele>330</ele>
        <time>2014-11-10T16:49:32.1Z</time>
      </trkpt>
      <trkpt lat="48.44246" lon="-3.15726">
        <ele>330</ele>
        <time>2014-11-10T16:49:34.1Z</time>
      </trkpt>
      <trkpt lat="48.44247" lon="-3.15723">
        <ele>329</ele>
        <time>2014-11-10T16:49:36.1Z</time>
      </trkpt>
      <trkpt lat="48.44249" lon="-3.15719">
        <ele>329</ele>
        <time>2014-11-10T16:49:39.1Z</time>
      </trkpt>
      <trkpt lat="48.44252" lon="-3.15714">
        <ele>329</ele>
        <time>2014-11-10T16:49:42.1Z</time>
      </trkpt>
      <trkpt lat="48.44253" lon="-3.15711">
        <ele>328</ele>
        <time>2014-11-10T16:49:44.1Z</time>
      </trkpt>
      <trkpt lat="48.44256" lon="-3.15707">
        <ele>328</ele>
        <time>2014-11-10T16:49:47.1Z</time>
      </trkpt>
      <trkpt lat="48.44258" lon="-3.15703">
        <ele>328</ele>
        <time>2014-11-10T16:49:50.1Z</time>
      </trkpt>
      <trkpt lat="48.44259" lon="-3.157">
        <ele>328</ele>
        <time>2014-11-10T16:49:52.1Z</time>
      </trkpt>
      <trkpt lat="48.44261" lon="-3.15696">
        <ele>327</ele>
        <time>2014-11-10T16:49:55.1Z</time>
      </trkpt>
      <trkpt lat="48.44263" lon="-3.15694">
        <ele>327</ele>
        <time>2014-11-10T16:49:57.1Z</time>
      </trkpt>
      <trkpt lat="48.44265" lon="-3.15689">
        <ele>327</ele>
        <time>2014-11-10T16:50:00.1Z</time>
      </trkpt>
      <trkpt lat="48.44267" lon="-3.15686">
        <ele>326</ele>
        <time>2014-11-10T16:50:03.1Z</time>
      </trkpt>
      <trkpt lat="48.44269" lon="-3.15682">
        <ele>326</ele>
        <time>2014-11-10T16:50:06.1Z</time>
      </trkpt>
      <trkpt lat="48.44271" lon="-3.1568">
        <ele>326</ele>
        <time>2014-11-10T16:50:08.1Z</time>
      </trkpt>
      <trkpt lat="48.44273" lon="-3.15676">
        <ele>326</ele>
        <time>2014-11-10T16:50:11.1Z</time>
      </trkpt>
      <trkpt lat="48.44276" lon="-3.15672">
        <ele>326</ele>
        <time>2014-11-10T16:50:14.1Z</time>
      </trkpt>
      <trkpt lat="48.44277" lon="-3.15669">
        <ele>326</ele>
        <time>2014-11-10T16:50:16.1Z</time>
      </trkpt>
      <trkpt lat="48.44278" lon="-3.15666">
        <ele>325</ele>
        <time>2014-11-10T16:50:19.1Z</time>
      </trkpt>
      <trkpt lat="48.44281" lon="-3.15662">
        <ele>325</ele>
        <time>2014-11-10T16:50:22.1Z</time>
      </trkpt>
      <trkpt lat="48.44283" lon="-3.15659">
        <ele>325</ele>
        <time>2014-11-10T16:50:24.1Z</time>
      </trkpt>
      <trkpt lat="48.44285" lon="-3.15656">
        <ele>324</ele>
        <time>2014-11-10T16:50:27.1Z</time>
      </trkpt>
      <trkpt lat="48.44288" lon="-3.15652">
        <ele>324</ele>
        <time>2014-11-10T16:50:30.1Z</time>
      </trkpt>
      <trkpt lat="48.44291" lon="-3.15649">
        <ele>324</ele>
        <time>2014-11-10T16:50:33.1Z</time>
      </trkpt>
      <trkpt lat="48.44293" lon="-3.15646">
        <ele>324</ele>
        <time>2014-11-10T16:50:36.1Z</time>
      </trkpt>
      <trkpt lat="48.44296" lon="-3.15642">
        <ele>324</ele>
        <time>2014-11-10T16:50:39.1Z</time>
      </trkpt>
      <trkpt lat="48.44297" lon="-3.15639">
        <ele>323</ele>
        <time>2014-11-10T16:50:41.1Z</time>
      </trkpt>
      <trkpt lat="48.443" lon="-3.15635">
        <ele>323</ele>
        <time>2014-11-10T16:50:44.1Z</time>
      </trkpt>
      <trkpt lat="48.44301" lon="-3.15633">
        <ele>323</ele>
        <time>2014-11-10T16:50:46.1Z</time>
      </trkpt>
      <trkpt lat="48.44304" lon="-3.1563">
        <ele>323</ele>
        <time>2014-11-10T16:50:49.1Z</time>
      </trkpt>
      <trkpt lat="48.44306" lon="-3.15626">
        <ele>322</ele>
        <time>2014-11-10T16:50:52.1Z</time>
      </trkpt>
      <trkpt lat="48.44308" lon="-3.15622">
        <ele>322</ele>
        <time>2014-11-10T16:50:55.1Z</time>
      </trkpt>
      <trkpt lat="48.44311" lon="-3.15618">
        <ele>322</ele>
        <time>2014-11-10T16:50:58.1Z</time>
      </trkpt>
      <trkpt lat="48.44312" lon="-3.15615">
        <ele>322</ele>
        <time>2014-11-10T16:51:00.1Z</time>
      </trkpt>
      <trkpt lat="48.44315" lon="-3.15611">
        <ele>322</ele>
        <time>2014-11-10T16:51:03.1Z</time>
      </trkpt>
      <trkpt lat="48.44316" lon="-3.15609">
        <ele>321</ele>
        <time>2014-11-10T16:51:05.1Z</time>
      </trkpt>
      <trkpt lat="48.44319" lon="-3.15605">
        <ele>321</ele>
        <time>2014-11-10T16:51:08.1Z</time>
      </trkpt>
      <trkpt lat="48.44321" lon="-3.15601">
        <ele>321</ele>
        <time>2014-11-10T16:51:11.1Z</time>
      </trkpt>
      <trkpt lat="48.44322" lon="-3.15598">
        <ele>321</ele>
        <time>2014-11-10T16:51:13.1Z</time>
      </trkpt>
      <trkpt lat="48.44325" lon="-3.15594">
        <ele>321</ele>
        <time>2014-11-10T16:51:16.1Z</time>
      </trkpt>
      <trkpt lat="48.44326" lon="-3.15592">
        <ele>321</ele>
        <time>2014-11-10T16:51:18.1Z</time>
      </trkpt>
      <trkpt lat="48.44328" lon="-3.15588">
        <ele>321</ele>
        <time>2014-11-10T16:51:21.1Z</time>
      </trkpt>
      <trkpt lat="48.44329" lon="-3.15585">
        <ele>321</ele>
        <time>2014-11-10T16:51:23.1Z</time>
      </trkpt>
      <trkpt lat="48.44332" lon="-3.15581">
        <ele>321</ele>
        <time>2014-11-10T16:51:26.1Z</time>
      </trkpt>
      <trkpt lat="48.44333" lon="-3.15578">
        <ele>321</ele>
        <time>2014-11-10T16:51:28.1Z</time>
      </trkpt>
      <trkpt lat="48.44336" lon="-3.15575">
        <ele>321</ele>
        <time>2014-11-10T16:51:31.1Z</time>
      </trkpt>
      <trkpt lat="48.44338" lon="-3.15571">
        <ele>321</ele>
        <time>2014-11-10T16:51:34.1Z</time>
      </trkpt>
      <trkpt lat="48.4434" lon="-3.15566">
        <ele>321</ele>
        <time>2014-11-10T16:51:37.1Z</time>
      </trkpt>
      <trkpt lat="48.44342" lon="-3.15564">
        <ele>320</ele>
        <time>2014-11-10T16:51:39.1Z</time>
      </trkpt>
      <trkpt lat="48.44344" lon="-3.1556">
        <ele>320</ele>
        <time>2014-11-10T16:51:42.1Z</time>
      </trkpt>
      <trkpt lat="48.44346" lon="-3.15555">
        <ele>320</ele>
        <time>2014-11-10T16:51:45.1Z</time>
      </trkpt>
      <trkpt lat="48.44349" lon="-3.15551">
        <ele>320</ele>
        <time>2014-11-10T16:51:48.1Z</time>
      </trkpt>
      <trkpt lat="48.4435" lon="-3.15548">
        <ele>320</ele>
        <time>2014-11-10T16:51:50.1Z</time>
      </trkpt>
      <trkpt lat="48.44352" lon="-3.15544">
        <ele>320</ele>
        <time>2014-11-10T16:51:53.1Z</time>
      </trkpt>
      <trkpt lat="48.44353" lon="-3.15541">
        <ele>319</ele>
        <time>2014-11-10T16:51:55.1Z</time>
      </trkpt>
      <trkpt lat="48.44355" lon="-3.15536">
        <ele>319</ele>
        <time>2014-11-10T16:51:58.1Z</time>
      </trkpt>
      <trkpt lat="48.44357" lon="-3.15532">
        <ele>319</ele>
        <time>2014-11-10T16:52:00.1Z</time>
      </trkpt>
      <trkpt lat="48.44357" lon="-3.15528">
        <ele>319</ele>
        <time>2014-11-10T16:52:02.1Z</time>
      </trkpt>
      <trkpt lat="48.44358" lon="-3.15523">
        <ele>319</ele>
        <time>2014-11-10T16:52:05.1Z</time>
      </trkpt>
      <trkpt lat="48.44359" lon="-3.15519">
        <ele>320</ele>
        <time>2014-11-10T16:52:07.1Z</time>
      </trkpt>
      <trkpt lat="48.4436" lon="-3.15515">
        <ele>320</ele>
        <time>2014-11-10T16:52:09.1Z</time>
      </trkpt>
      <trkpt lat="48.4436" lon="-3.15511">
        <ele>320</ele>
        <time>2014-11-10T16:52:11.1Z</time>
      </trkpt>
      <trkpt lat="48.4436" lon="-3.15506">
        <ele>319</ele>
        <time>2014-11-10T16:52:14.1Z</time>
      </trkpt>
      <trkpt lat="48.4436" lon="-3.15502">
        <ele>319</ele>
        <time>2014-11-10T16:52:16.1Z</time>
      </trkpt>
      <trkpt lat="48.4436" lon="-3.15498">
        <ele>319</ele>
        <time>2014-11-10T16:52:18.1Z</time>
      </trkpt>
      <trkpt lat="48.4436" lon="-3.15495">
        <ele>319</ele>
        <time>2014-11-10T16:52:20.1Z</time>
      </trkpt>
      <trkpt lat="48.4436" lon="-3.15491">
        <ele>319</ele>
        <time>2014-11-10T16:52:22.1Z</time>
      </trkpt>
      <trkpt lat="48.4436" lon="-3.15488">
        <ele>319</ele>
        <time>2014-11-10T16:52:24.1Z</time>
      </trkpt>
      <trkpt lat="48.44359" lon="-3.15483">
        <ele>319</ele>
        <time>2014-11-10T16:52:27.1Z</time>
      </trkpt>
      <trkpt lat="48.44359" lon="-3.15481">
        <ele>319</ele>
        <time>2014-11-10T16:52:29.1Z</time>
      </trkpt>
      <trkpt lat="48.44358" lon="-3.15478">
        <ele>319</ele>
        <time>2014-11-10T16:52:31.1Z</time>
      </trkpt>
      <trkpt lat="48.44357" lon="-3.15474">
        <ele>319</ele>
        <time>2014-11-10T16:52:34.1Z</time>
      </trkpt>
      <trkpt lat="48.44356" lon="-3.15471">
        <ele>319</ele>
        <time>2014-11-10T16:52:36.1Z</time>
      </trkpt>
      <trkpt lat="48.44354" lon="-3.15467">
        <ele>319</ele>
        <time>2014-11-10T16:52:39.1Z</time>
      </trkpt>
      <trkpt lat="48.44353" lon="-3.15464">
        <ele>319</ele>
        <time>2014-11-10T16:52:41.1Z</time>
      </trkpt>
      <trkpt lat="48.44352" lon="-3.15461">
        <ele>319</ele>
        <time>2014-11-10T16:52:43.1Z</time>
      </trkpt>
      <trkpt lat="48.44349" lon="-3.15457">
        <ele>320</ele>
        <time>2014-11-10T16:52:46.1Z</time>
      </trkpt>
      <trkpt lat="48.44347" lon="-3.15453">
        <ele>320</ele>
        <time>2014-11-10T16:52:49.1Z</time>
      </trkpt>
      <trkpt lat="48.44346" lon="-3.15451">
        <ele>320</ele>
        <time>2014-11-10T16:52:51.1Z</time>
      </trkpt>
      <trkpt lat="48.44343" lon="-3.15446">
        <ele>319</ele>
        <time>2014-11-10T16:52:54.1Z</time>
      </trkpt>
      <trkpt lat="48.44341" lon="-3.15443">
        <ele>320</ele>
        <time>2014-11-10T16:52:56.1Z</time>
      </trkpt>
      <trkpt lat="48.4434" lon="-3.1544">
        <ele>320</ele>
        <time>2014-11-10T16:52:58.1Z</time>
      </trkpt>
      <trkpt lat="48.44337" lon="-3.15437">
        <ele>320</ele>
        <time>2014-11-10T16:53:01.1Z</time>
      </trkpt>
      <trkpt lat="48.44335" lon="-3.15434">
        <ele>320</ele>
        <time>2014-11-10T16:53:03.1Z</time>
      </trkpt>
      <trkpt lat="48.44332" lon="-3.1543">
        <ele>320</ele>
        <time>2014-11-10T16:53:06.1Z</time>
      </trkpt>
      <trkpt lat="48.44331" lon="-3.15428">
        <ele>320</ele>
        <time>2014-11-10T16:53:08.1Z</time>
      </trkpt>
      <trkpt lat="48.44329" lon="-3.15425">
        <ele>320</ele>
        <time>2014-11-10T16:53:10.1Z</time>
      </trkpt>
      <trkpt lat="48.44327" lon="-3.15421">
        <ele>321</ele>
        <time>2014-11-10T16:53:13.1Z</time>
      </trkpt>
      <trkpt lat="48.44325" lon="-3.15418">
        <ele>321</ele>
        <time>2014-11-10T16:53:15.1Z</time>
      </trkpt>
      <trkpt lat="48.44323" lon="-3.15414">
        <ele>321</ele>
        <time>2014-11-10T16:53:18.1Z</time>
      </trkpt>
      <trkpt lat="48.44321" lon="-3.15412">
        <ele>321</ele>
        <time>2014-11-10T16:53:20.1Z</time>
      </trkpt>
      <trkpt lat="48.44318" lon="-3.15408">
        <ele>321</ele>
        <time>2014-11-10T16:53:23.1Z</time>
      </trkpt>
      <trkpt lat="48.44316" lon="-3.15406">
        <ele>321</ele>
        <time>2014-11-10T16:53:25.1Z</time>
      </trkpt>
      <trkpt lat="48.44314" lon="-3.15404">
        <ele>321</ele>
        <time>2014-11-10T16:53:27.1Z</time>
      </trkpt>
      <trkpt lat="48.44312" lon="-3.154">
        <ele>321</ele>
        <time>2014-11-10T16:53:30.1Z</time>
      </trkpt>
      <trkpt lat="48.4431" lon="-3.15398">
        <ele>321</ele>
        <time>2014-11-10T16:53:32.1Z</time>
      </trkpt>
      <trkpt lat="48.44307" lon="-3.15394">
        <ele>322</ele>
        <time>2014-11-10T16:53:35.1Z</time>
      </trkpt>
      <trkpt lat="48.44305" lon="-3.15392">
        <ele>322</ele>
        <time>2014-11-10T16:53:37.1Z</time>
      </trkpt>
      <trkpt lat="48.44303" lon="-3.15389">
        <ele>323</ele>
        <time>2014-11-10T16:53:40.1Z</time>
      </trkpt>
      <trkpt lat="48.443" lon="-3.15386">
        <ele>324</ele>
        <time>2014-11-10T16:53:43.1Z</time>
      </trkpt>
      <trkpt lat="48.44297" lon="-3.15383">
        <ele>324</ele>
        <time>2014-11-10T16:53:46.1Z</time>
      </trkpt>
      <trkpt lat="48.44296" lon="-3.15381">
        <ele>324</ele>
        <time>2014-11-10T16:53:48.1Z</time>
      </trkpt>
      <trkpt lat="48.44293" lon="-3.15378">
        <ele>324</ele>
        <time>2014-11-10T16:53:51.1Z</time>
      </trkpt>
      <trkpt lat="48.44291" lon="-3.15376">
        <ele>325</ele>
        <time>2014-11-10T16:53:53.1Z</time>
      </trkpt>
      <trkpt lat="48.44289" lon="-3.15374">
        <ele>325</ele>
        <time>2014-11-10T16:53:55.1Z</time>
      </trkpt>
      <trkpt lat="48.44287" lon="-3.15371">
        <ele>325</ele>
        <time>2014-11-10T16:53:58.1Z</time>
      </trkpt>
      <trkpt lat="48.44285" lon="-3.15369">
        <ele>326</ele>
        <time>2014-11-10T16:54:00.1Z</time>
      </trkpt>
      <trkpt lat="48.44282" lon="-3.15365">
        <ele>326</ele>
        <time>2014-11-10T16:54:03.1Z</time>
      </trkpt>
      <trkpt lat="48.4428" lon="-3.15363">
        <ele>326</ele>
        <time>2014-11-10T16:54:05.1Z</time>
      </trkpt>
      <trkpt lat="48.44278" lon="-3.1536">
        <ele>326</ele>
        <time>2014-11-10T16:54:08.1Z</time>
      </trkpt>
      <trkpt lat="48.44275" lon="-3.15357">
        <ele>327</ele>
        <time>2014-11-10T16:54:11.1Z</time>
      </trkpt>
      <trkpt lat="48.44273" lon="-3.15355">
        <ele>327</ele>
        <time>2014-11-10T16:54:13.1Z</time>
      </trkpt>
      <trkpt lat="48.44271" lon="-3.15352">
        <ele>327</ele>
        <time>2014-11-10T16:54:16.1Z</time>
      </trkpt>
      <trkpt lat="48.44269" lon="-3.15349">
        <ele>327</ele>
        <time>2014-11-10T16:54:19.1Z</time>
      </trkpt>
      <trkpt lat="48.44267" lon="-3.15347">
        <ele>327</ele>
        <time>2014-11-10T16:54:21.1Z</time>
      </trkpt>
      <trkpt lat="48.44265" lon="-3.15344">
        <ele>328</ele>
        <time>2014-11-10T16:54:24.1Z</time>
      </trkpt>
      <trkpt lat="48.44263" lon="-3.15342">
        <ele>328</ele>
        <time>2014-11-10T16:54:26.1Z</time>
      </trkpt>
      <trkpt lat="48.44261" lon="-3.15339">
        <ele>329</ele>
        <time>2014-11-10T16:54:29.1Z</time>
      </trkpt>
      <trkpt lat="48.44259" lon="-3.15337">
        <ele>329</ele>
        <time>2014-11-10T16:54:31.1Z</time>
      </trkpt>
      <trkpt lat="48.44257" lon="-3.15334">
        <ele>330</ele>
        <time>2014-11-10T16:54:34.1Z</time>
      </trkpt>
      <trkpt lat="48.44255" lon="-3.15332">
        <ele>330</ele>
        <time>2014-11-10T16:54:36.1Z</time>
      </trkpt>
      <trkpt lat="48.44252" lon="-3.15328">
        <ele>330</ele>
        <time>2014-11-10T16:54:39.1Z</time>
      </trkpt>
      <trkpt lat="48.44251" lon="-3.15326">
        <ele>329</ele>
        <time>2014-11-10T16:54:41.1Z</time>
      </trkpt>
      <trkpt lat="48.44248" lon="-3.15323">
        <ele>330</ele>
        <time>2014-11-10T16:54:44.1Z</time>
      </trkpt>
      <trkpt lat="48.44246" lon="-3.15319">
        <ele>330</ele>
        <time>2014-11-10T16:54:47.1Z</time>
      </trkpt>
      <trkpt lat="48.44244" lon="-3.15318">
        <ele>330</ele>
        <time>2014-11-10T16:54:49.1Z</time>
      </trkpt>
      <trkpt lat="48.44242" lon="-3.15315">
        <ele>330</ele>
        <time>2014-11-10T16:54:52.1Z</time>
      </trkpt>
      <trkpt lat="48.44239" lon="-3.15312">
        <ele>331</ele>
        <time>2014-11-10T16:54:55.1Z</time>
      </trkpt>
      <trkpt lat="48.44237" lon="-3.15309">
        <ele>331</ele>
        <time>2014-11-10T16:54:58.1Z</time>
      </trkpt>
      <trkpt lat="48.44235" lon="-3.15307">
        <ele>332</ele>
        <time>2014-11-10T16:55:00.1Z</time>
      </trkpt>
      <trkpt lat="48.44233" lon="-3.15304">
        <ele>332</ele>
        <time>2014-11-10T16:55:03.1Z</time>
      </trkpt>
      <trkpt lat="48.44231" lon="-3.15302">
        <ele>332</ele>
        <time>2014-11-10T16:55:05.1Z</time>
      </trkpt>
      <trkpt lat="48.44229" lon="-3.153">
        <ele>332</ele>
        <time>2014-11-10T16:55:08.1Z</time>
      </trkpt>
      <trkpt lat="48.44228" lon="-3.15298">
        <ele>332</ele>
        <time>2014-11-10T16:55:10.1Z</time>
      </trkpt>
      <trkpt lat="48.44225" lon="-3.15295">
        <ele>332</ele>
        <time>2014-11-10T16:55:13.1Z</time>
      </trkpt>
      <trkpt lat="48.44224" lon="-3.15293">
        <ele>332</ele>
        <time>2014-11-10T16:55:15.1Z</time>
      </trkpt>
      <trkpt lat="48.44221" lon="-3.1529">
        <ele>332</ele>
        <time>2014-11-10T16:55:18.1Z</time>
      </trkpt>
      <trkpt lat="48.4422" lon="-3.15288">
        <ele>332</ele>
        <time>2014-11-10T16:55:20.1Z</time>
      </trkpt>
      <trkpt lat="48.44217" lon="-3.15285">
        <ele>333</ele>
        <time>2014-11-10T16:55:23.1Z</time>
      </trkpt>
      <trkpt lat="48.44215" lon="-3.15283">
        <ele>333</ele>
        <time>2014-11-10T16:55:25.1Z</time>
      </trkpt>
      <trkpt lat="48.44213" lon="-3.1528">
        <ele>334</ele>
        <time>2014-11-10T16:55:28.1Z</time>
      </trkpt>
      <trkpt lat="48.4421" lon="-3.15277">
        <ele>334</ele>
        <time>2014-11-10T16:55:31.1Z</time>
      </trkpt>
      <trkpt lat="48.44208" lon="-3.15274">
        <ele>334</ele>
        <time>2014-11-10T16:55:34.1Z</time>
      </trkpt>
      <trkpt lat="48.44206" lon="-3.1527">
        <ele>335</ele>
        <time>2014-11-10T16:55:37.1Z</time>
      </trkpt>
      <trkpt lat="48.44204" lon="-3.15268">
        <ele>335</ele>
        <time>2014-11-10T16:55:39.1Z</time>
      </trkpt>
      <trkpt lat="48.44202" lon="-3.15264">
        <ele>335</ele>
        <time>2014-11-10T16:55:42.1Z</time>
      </trkpt>
      <trkpt lat="48.442" lon="-3.15259">
        <ele>336</ele>
        <time>2014-11-10T16:55:45.1Z</time>
      </trkpt>
      <trkpt lat="48.44198" lon="-3.15255">
        <ele>336</ele>
        <time>2014-11-10T16:55:48.1Z</time>
      </trkpt>
      <trkpt lat="48.44197" lon="-3.15252">
        <ele>336</ele>
        <time>2014-11-10T16:55:50.1Z</time>
      </trkpt>
      <trkpt lat="48.44195" lon="-3.15248">
        <ele>337</ele>
        <time>2014-11-10T16:55:53.1Z</time>
      </trkpt>
      <trkpt lat="48.44193" lon="-3.15243">
        <ele>337</ele>
        <time>2014-11-10T16:55:56.1Z</time>
      </trkpt>
      <trkpt lat="48.44192" lon="-3.15238">
        <ele>337</ele>
        <time>2014-11-10T16:55:59.1Z</time>
      </trkpt>
      <trkpt lat="48.4419" lon="-3.15233">
        <ele>338</ele>
        <time>2014-11-10T16:56:02.1Z</time>
      </trkpt>
      <trkpt lat="48.44189" lon="-3.1523">
        <ele>338</ele>
        <time>2014-11-10T16:56:04.1Z</time>
      </trkpt>
      <trkpt lat="48.44188" lon="-3.15226">
        <ele>338</ele>
        <time>2014-11-10T16:56:07.1Z</time>
      </trkpt>
      <trkpt lat="48.44186" lon="-3.15222">
        <ele>338</ele>
        <time>2014-11-10T16:56:10.1Z</time>
      </trkpt>
      <trkpt lat="48.44185" lon="-3.15218">
        <ele>338</ele>
        <time>2014-11-10T16:56:12.1Z</time>
      </trkpt>
      <trkpt lat="48.44184" lon="-3.15214">
        <ele>338</ele>
        <time>2014-11-10T16:56:15.1Z</time>
      </trkpt>
      <trkpt lat="48.44182" lon="-3.15209">
        <ele>339</ele>
        <time>2014-11-10T16:56:18.1Z</time>
      </trkpt>
      <trkpt lat="48.44181" lon="-3.15206">
        <ele>339</ele>
        <time>2014-11-10T16:56:20.1Z</time>
      </trkpt>
      <trkpt lat="48.4418" lon="-3.15201">
        <ele>339</ele>
        <time>2014-11-10T16:56:23.1Z</time>
      </trkpt>
      <trkpt lat="48.44179" lon="-3.15198">
        <ele>339</ele>
        <time>2014-11-10T16:56:25.1Z</time>
      </trkpt>
      <trkpt lat="48.44177" lon="-3.15193">
        <ele>340</ele>
        <time>2014-11-10T16:56:28.1Z</time>
      </trkpt>
      <trkpt lat="48.44176" lon="-3.1519">
        <ele>341</ele>
        <time>2014-11-10T16:56:30.1Z</time>
      </trkpt>
      <trkpt lat="48.44175" lon="-3.15187">
        <ele>341</ele>
        <time>2014-11-10T16:56:32.1Z</time>
      </trkpt>
      <trkpt lat="48.44174" lon="-3.15184">
        <ele>341</ele>
        <time>2014-11-10T16:56:34.1Z</time>
      </trkpt>
      <trkpt lat="48.44173" lon="-3.1518">
        <ele>342</ele>
        <time>2014-11-10T16:56:37.1Z</time>
      </trkpt>
      <trkpt lat="48.44171" lon="-3.15176">
        <ele>342</ele>
        <time>2014-11-10T16:56:40.1Z</time>
      </trkpt>
      <trkpt lat="48.4417" lon="-3.1517">
        <ele>342</ele>
        <time>2014-11-10T16:56:43.1Z</time>
      </trkpt>
      <trkpt lat="48.44168" lon="-3.15166">
        <ele>342</ele>
        <time>2014-11-10T16:56:46.1Z</time>
      </trkpt>
      <trkpt lat="48.44167" lon="-3.15161">
        <ele>342</ele>
        <time>2014-11-10T16:56:49.1Z</time>
      </trkpt>
      <trkpt lat="48.44165" lon="-3.15158">
        <ele>342</ele>
        <time>2014-11-10T16:56:52.1Z</time>
      </trkpt>
      <trkpt lat="48.44163" lon="-3.15155">
        <ele>342</ele>
        <time>2014-11-10T16:56:54.1Z</time>
      </trkpt>
      <trkpt lat="48.44162" lon="-3.15153">
        <ele>342</ele>
        <time>2014-11-10T16:56:56.1Z</time>
      </trkpt>
      <trkpt lat="48.4416" lon="-3.15149">
        <ele>342</ele>
        <time>2014-11-10T16:56:59.1Z</time>
      </trkpt>
      <trkpt lat="48.44159" lon="-3.15144">
        <ele>342</ele>
        <time>2014-11-10T16:57:02.1Z</time>
      </trkpt>
      <trkpt lat="48.44158" lon="-3.15141">
        <ele>342</ele>
        <time>2014-11-10T16:57:04.1Z</time>
      </trkpt>
      <trkpt lat="48.44157" lon="-3.15138">
        <ele>342</ele>
        <time>2014-11-10T16:57:06.1Z</time>
      </trkpt>
      <trkpt lat="48.44156" lon="-3.15133">
        <ele>343</ele>
        <time>2014-11-10T16:57:09.1Z</time>
      </trkpt>
      <trkpt lat="48.44155" lon="-3.15129">
        <ele>343</ele>
        <time>2014-11-10T16:57:12.1Z</time>
      </trkpt>
      <trkpt lat="48.44154" lon="-3.15124">
        <ele>343</ele>
        <time>2014-11-10T16:57:15.1Z</time>
      </trkpt>
      <trkpt lat="48.44152" lon="-3.15122">
        <ele>343</ele>
        <time>2014-11-10T16:57:17.1Z</time>
      </trkpt>
      <trkpt lat="48.44151" lon="-3.15117">
        <ele>344</ele>
        <time>2014-11-10T16:57:20.1Z</time>
      </trkpt>
      <trkpt lat="48.4415" lon="-3.15112">
        <ele>344</ele>
        <time>2014-11-10T16:57:23.1Z</time>
      </trkpt>
      <trkpt lat="48.44149" lon="-3.15109">
        <ele>344</ele>
        <time>2014-11-10T16:57:26.1Z</time>
      </trkpt>
      <trkpt lat="48.44148" lon="-3.15107">
        <ele>344</ele>
        <time>2014-11-10T16:57:28.1Z</time>
      </trkpt>
      <trkpt lat="48.44147" lon="-3.15105">
        <ele>344</ele>
        <time>2014-11-10T16:57:30.1Z</time>
      </trkpt>
      <trkpt lat="48.44146" lon="-3.15102">
        <ele>343</ele>
        <time>2014-11-10T16:57:33.1Z</time>
      </trkpt>
      <trkpt lat="48.44146" lon="-3.151">
        <ele>343</ele>
        <time>2014-11-10T16:57:35.1Z</time>
      </trkpt>
      <trkpt lat="48.44146" lon="-3.15099">
        <ele>343</ele>
        <time>2014-11-10T16:57:38.1Z</time>
      </trkpt>
      <trkpt lat="48.44146" lon="-3.15099">
        <ele>343</ele>
        <time>2014-11-10T16:57:40.1Z</time>
      </trkpt>
      <trkpt lat="48.44146" lon="-3.15098">
        <ele>343</ele>
        <time>2014-11-10T16:57:43.1Z</time>
      </trkpt>
      <trkpt lat="48.44145" lon="-3.15096">
        <ele>343</ele>
        <time>2014-11-10T16:57:45.1Z</time>
      </trkpt>
      <trkpt lat="48.44145" lon="-3.15095">
        <ele>343</ele>
        <time>2014-11-10T16:57:47.1Z</time>
      </trkpt>
      <trkpt lat="48.44144" lon="-3.15093">
        <ele>343</ele>
        <time>2014-11-10T16:57:50.1Z</time>
      </trkpt>
      <trkpt lat="48.44143" lon="-3.15092">
        <ele>342</ele>
        <time>2014-11-10T16:57:52.1Z</time>
      </trkpt>
      <trkpt lat="48.44141" lon="-3.1509">
        <ele>342</ele>
        <time>2014-11-10T16:57:55.1Z</time>
      </trkpt>
      <trkpt lat="48.4414" lon="-3.15086">
        <ele>342</ele>
        <time>2014-11-10T16:57:58.1Z</time>
      </trkpt>
      <trkpt lat="48.44138" lon="-3.1508">
        <ele>342</ele>
        <time>2014-11-10T16:58:01.1Z</time>
      </trkpt>
      <trkpt lat="48.44136" lon="-3.15075">
        <ele>343</ele>
        <time>2014-11-10T16:58:04.1Z</time>
      </trkpt>
      <trkpt lat="48.44135" lon="-3.15069">
        <ele>343</ele>
        <time>2014-11-10T16:58:07.1Z</time>
      </trkpt>
      <trkpt lat="48.44133" lon="-3.15064">
        <ele>343</ele>
        <time>2014-11-10T16:58:10.1Z</time>
      </trkpt>
      <trkpt lat="48.44133" lon="-3.1506">
        <ele>342</ele>
        <time>2014-11-10T16:58:12.1Z</time>
      </trkpt>
      <trkpt lat="48.44132" lon="-3.15055">
        <ele>342</ele>
        <time>2014-11-10T16:58:15.1Z</time>
      </trkpt>
      <trkpt lat="48.44132" lon="-3.15051">
        <ele>342</ele>
        <time>2014-11-10T16:58:18.1Z</time>
      </trkpt>
      <trkpt lat="48.44132" lon="-3.15048">
        <ele>341</ele>
        <time>2014-11-10T16:58:20.1Z</time>
      </trkpt>
      <trkpt lat="48.44133" lon="-3.15046">
        <ele>341</ele>
        <time>2014-11-10T16:58:22.1Z</time>
      </trkpt>
      <trkpt lat="48.44133" lon="-3.15045">
        <ele>341</ele>
        <time>2014-11-10T16:58:25.1Z</time>
      </trkpt>
      <trkpt lat="48.44133" lon="-3.15045">
        <ele>341</ele>
        <time>2014-11-10T16:58:29.1Z</time>
      </trkpt>
      <trkpt lat="48.44133" lon="-3.15044">
        <ele>342</ele>
        <time>2014-11-10T16:58:31.1Z</time>
      </trkpt>
      <trkpt lat="48.44133" lon="-3.15043">
        <ele>341</ele>
        <time>2014-11-10T16:58:34.1Z</time>
      </trkpt>
      <trkpt lat="48.44133" lon="-3.15042">
        <ele>341</ele>
        <time>2014-11-10T16:58:37.1Z</time>
      </trkpt>
      <trkpt lat="48.44133" lon="-3.15043">
        <ele>341</ele>
        <time>2014-11-10T16:58:39.1Z</time>
      </trkpt>
      <trkpt lat="48.44133" lon="-3.15042">
        <ele>342</ele>
        <time>2014-11-10T16:58:42.1Z</time>
      </trkpt>
      <trkpt lat="48.44133" lon="-3.15042">
        <ele>342</ele>
        <time>2014-11-10T16:58:45.1Z</time>
      </trkpt>
      <trkpt lat="48.44133" lon="-3.15041">
        <ele>342</ele>
        <time>2014-11-10T16:58:47.1Z</time>
      </trkpt>
      <trkpt lat="48.44133" lon="-3.15041">
        <ele>342</ele>
        <time>2014-11-10T16:58:50.1Z</time>
      </trkpt>
      <trkpt lat="48.44133" lon="-3.15041">
        <ele>342</ele>
        <time>2014-11-10T16:58:52.1Z</time>
      </trkpt>
      <trkpt lat="48.44135" lon="-3.15041">
        <ele>341</ele>
        <time>2014-11-10T16:58:54.1Z</time>
      </trkpt>
      <trkpt lat="48.44136" lon="-3.1504">
        <ele>342</ele>
        <time>2014-11-10T16:58:56.1Z</time>
      </trkpt>
      <trkpt lat="48.44138" lon="-3.15038">
        <ele>342</ele>
        <time>2014-11-10T16:58:59.1Z</time>
      </trkpt>
      <trkpt lat="48.44139" lon="-3.15038">
        <ele>342</ele>
        <time>2014-11-10T16:59:01.1Z</time>
      </trkpt>
      <trkpt lat="48.44142" lon="-3.15038">
        <ele>342</ele>
        <time>2014-11-10T16:59:04.1Z</time>
      </trkpt>
      <trkpt lat="48.44143" lon="-3.15037">
        <ele>342</ele>
        <time>2014-11-10T16:59:06.1Z</time>
      </trkpt>
      <trkpt lat="48.44145" lon="-3.15037">
        <ele>342</ele>
        <time>2014-11-10T16:59:09.1Z</time>
      </trkpt>
      <trkpt lat="48.44147" lon="-3.15037">
        <ele>342</ele>
        <time>2014-11-10T16:59:12.1Z</time>
      </trkpt>
      <trkpt lat="48.44149" lon="-3.15036">
        <ele>342</ele>
        <time>2014-11-10T16:59:15.1Z</time>
      </trkpt>
      <trkpt lat="48.44149" lon="-3.15035">
        <ele>342</ele>
        <time>2014-11-10T16:59:17.1Z</time>
      </trkpt>
      <trkpt lat="48.44149" lon="-3.15035">
        <ele>342</ele>
        <time>2014-11-10T16:59:19.1Z</time>
      </trkpt>
      <trkpt lat="48.44151" lon="-3.15035">
        <ele>342</ele>
        <time>2014-11-10T16:59:22.1Z</time>
      </trkpt>
      <trkpt lat="48.44152" lon="-3.15034">
        <ele>342</ele>
        <time>2014-11-10T16:59:25.1Z</time>
      </trkpt>
      <trkpt lat="48.44152" lon="-3.15035">
        <ele>342</ele>
        <time>2014-11-10T16:59:28.1Z</time>
      </trkpt>
      <trkpt lat="48.44153" lon="-3.15035">
        <ele>342</ele>
        <time>2014-11-10T16:59:31.1Z</time>
      </trkpt>
      <trkpt lat="48.44151" lon="-3.15033">
        <ele>342</ele>
        <time>2014-11-10T16:59:34.1Z</time>
      </trkpt>
      <trkpt lat="48.44151" lon="-3.15032">
        <ele>342</ele>
        <time>2014-11-10T16:59:37.1Z</time>
      </trkpt>
      <trkpt lat="48.44151" lon="-3.15033">
        <ele>342</ele>
        <time>2014-11-10T16:59:40.1Z</time>
      </trkpt>
      <trkpt lat="48.44151" lon="-3.15032">
        <ele>343</ele>
        <time>2014-11-10T16:59:43.1Z</time>
      </trkpt>
      <trkpt lat="48.44151" lon="-3.15032">
        <ele>343</ele>
        <time>2014-11-10T16:59:45.1Z</time>
      </trkpt>
      <trkpt lat="48.4415" lon="-3.15031">
        <ele>343</ele>
        <time>2014-11-10T16:59:47.1Z</time>
      </trkpt>
      <trkpt lat="48.44149" lon="-3.1503">
        <ele>342</ele>
        <time>2014-11-10T16:59:50.1Z</time>
      </trkpt>
      <trkpt lat="48.44149" lon="-3.15031">
        <ele>342</ele>
        <time>2014-11-10T16:59:52.1Z</time>
      </trkpt>
      <trkpt lat="48.44149" lon="-3.15031">
        <ele>342</ele>
        <time>2014-11-10T16:59:54.1Z</time>
      </trkpt>
      <trkpt lat="48.44149" lon="-3.15031">
        <ele>343</ele>
        <time>2014-11-10T16:59:57.1Z</time>
      </trkpt>
      <trkpt lat="48.4415" lon="-3.15031">
        <ele>343</ele>
        <time>2014-11-10T16:59:59.1Z</time>
      </trkpt>
      <trkpt lat="48.44151" lon="-3.15031">
        <ele>343</ele>
        <time>2014-11-10T17:00:02.1Z</time>
      </trkpt>
      <trkpt lat="48.44152" lon="-3.15031">
        <ele>342</ele>
        <time>2014-11-10T17:00:04.1Z</time>
      </trkpt>
      <trkpt lat="48.44154" lon="-3.15031">
        <ele>343</ele>
        <time>2014-11-10T17:00:06.1Z</time>
      </trkpt>
      <trkpt lat="48.44156" lon="-3.15031">
        <ele>343</ele>
        <time>2014-11-10T17:00:09.1Z</time>
      </trkpt>
      <trkpt lat="48.44158" lon="-3.15031">
        <ele>343</ele>
        <time>2014-11-10T17:00:12.1Z</time>
      </trkpt>
      <trkpt lat="48.44159" lon="-3.15031">
        <ele>343</ele>
        <time>2014-11-10T17:00:14.1Z</time>
      </trkpt>
      <trkpt lat="48.44161" lon="-3.15031">
        <ele>342</ele>
        <time>2014-11-10T17:00:17.1Z</time>
      </trkpt>
      <trkpt lat="48.44162" lon="-3.15031">
        <ele>342</ele>
        <time>2014-11-10T17:00:20.1Z</time>
      </trkpt>
      <trkpt lat="48.44163" lon="-3.15032">
        <ele>342</ele>
        <time>2014-11-10T17:00:23.1Z</time>
      </trkpt>
      <trkpt lat="48.44165" lon="-3.15032">
        <ele>342</ele>
        <time>2014-11-10T17:00:26.1Z</time>
      </trkpt>
      <trkpt lat="48.44167" lon="-3.15031">
        <ele>342</ele>
        <time>2014-11-10T17:00:29.1Z</time>
      </trkpt>
      <trkpt lat="48.44169" lon="-3.1503">
        <ele>342</ele>
        <time>2014-11-10T17:00:31.1Z</time>
      </trkpt>
      <trkpt lat="48.44172" lon="-3.15029">
        <ele>342</ele>
        <time>2014-11-10T17:00:34.1Z</time>
      </trkpt>
      <trkpt lat="48.44175" lon="-3.15028">
        <ele>342</ele>
        <time>2014-11-10T17:00:37.1Z</time>
      </trkpt>
      <trkpt lat="48.44178" lon="-3.15027">
        <ele>341</ele>
        <time>2014-11-10T17:00:40.1Z</time>
      </trkpt>
      <trkpt lat="48.44181" lon="-3.15026">
        <ele>342</ele>
        <time>2014-11-10T17:00:43.1Z</time>
      </trkpt>
      <trkpt lat="48.44184" lon="-3.15025">
        <ele>342</ele>
        <time>2014-11-10T17:00:45.1Z</time>
      </trkpt>
      <trkpt lat="48.44187" lon="-3.15025">
        <ele>342</ele>
        <time>2014-11-10T17:00:48.1Z</time>
      </trkpt>
      <trkpt lat="48.44189" lon="-3.15025">
        <ele>342</ele>
        <time>2014-11-10T17:00:50.1Z</time>
      </trkpt>
      <trkpt lat="48.44192" lon="-3.15024">
        <ele>341</ele>
        <time>2014-11-10T17:00:53.1Z</time>
      </trkpt>
      <trkpt lat="48.44194" lon="-3.15024">
        <ele>341</ele>
        <time>2014-11-10T17:00:55.1Z</time>
      </trkpt>
      <trkpt lat="48.44196" lon="-3.15024">
        <ele>340</ele>
        <time>2014-11-10T17:00:58.1Z</time>
      </trkpt>
      <trkpt lat="48.44198" lon="-3.15024">
        <ele>341</ele>
        <time>2014-11-10T17:01:01.1Z</time>
      </trkpt>
      <trkpt lat="48.44201" lon="-3.15024">
        <ele>340</ele>
        <time>2014-11-10T17:01:04.1Z</time>
      </trkpt>
      <trkpt lat="48.44203" lon="-3.15025">
        <ele>340</ele>
        <time>2014-11-10T17:01:07.1Z</time>
      </trkpt>
      <trkpt lat="48.44205" lon="-3.15026">
        <ele>340</ele>
        <time>2014-11-10T17:01:09.1Z</time>
      </trkpt>
      <trkpt lat="48.44208" lon="-3.15027">
        <ele>339</ele>
        <time>2014-11-10T17:01:12.1Z</time>
      </trkpt>
      <trkpt lat="48.4421" lon="-3.15028">
        <ele>339</ele>
        <time>2014-11-10T17:01:15.1Z</time>
      </trkpt>
      <trkpt lat="48.44212" lon="-3.15029">
        <ele>339</ele>
        <time>2014-11-10T17:01:17.1Z</time>
      </trkpt>
      <trkpt lat="48.44215" lon="-3.1503">
        <ele>338</ele>
        <time>2014-11-10T17:01:20.1Z</time>
      </trkpt>
      <trkpt lat="48.44218" lon="-3.15031">
        <ele>338</ele>
        <time>2014-11-10T17:01:23.1Z</time>
      </trkpt>
      <trkpt lat="48.44221" lon="-3.15032">
        <ele>339</ele>
        <time>2014-11-10T17:01:26.1Z</time>
      </trkpt>
      <trkpt lat="48.44223" lon="-3.15032">
        <ele>338</ele>
        <time>2014-11-10T17:01:29.1Z</time>
      </trkpt>
      <trkpt lat="48.44226" lon="-3.15032">
        <ele>338</ele>
        <time>2014-11-10T17:01:32.1Z</time>
      </trkpt>
      <trkpt lat="48.44228" lon="-3.15033">
        <ele>338</ele>
        <time>2014-11-10T17:01:34.1Z</time>
      </trkpt>
      <trkpt lat="48.4423" lon="-3.15033">
        <ele>338</ele>
        <time>2014-11-10T17:01:36.1Z</time>
      </trkpt>
      <trkpt lat="48.44232" lon="-3.15034">
        <ele>338</ele>
        <time>2014-11-10T17:01:39.1Z</time>
      </trkpt>
      <trkpt lat="48.44234" lon="-3.15034">
        <ele>338</ele>
        <time>2014-11-10T17:01:41.1Z</time>
      </trkpt>
      <trkpt lat="48.44236" lon="-3.15035">
        <ele>338</ele>
        <time>2014-11-10T17:01:44.1Z</time>
      </trkpt>
      <trkpt lat="48.44239" lon="-3.15035">
        <ele>338</ele>
        <time>2014-11-10T17:01:46.1Z</time>
      </trkpt>
      <trkpt lat="48.44241" lon="-3.15035">
        <ele>337</ele>
        <time>2014-11-10T17:01:48.1Z</time>
      </trkpt>
      <trkpt lat="48.44244" lon="-3.15035">
        <ele>337</ele>
        <time>2014-11-10T17:01:51.1Z</time>
      </trkpt>
      <trkpt lat="48.44246" lon="-3.15036">
        <ele>336</ele>
        <time>2014-11-10T17:01:53.1Z</time>
      </trkpt>
      <trkpt lat="48.44249" lon="-3.15037">
        <ele>336</ele>
        <time>2014-11-10T17:01:56.1Z</time>
      </trkpt>
      <trkpt lat="48.44251" lon="-3.15037">
        <ele>337</ele>
        <time>2014-11-10T17:01:58.1Z</time>
      </trkpt>
      <trkpt lat="48.44253" lon="-3.15038">
        <ele>336</ele>
        <time>2014-11-10T17:02:00.1Z</time>
      </trkpt>
      <trkpt lat="48.44255" lon="-3.15038">
        <ele>336</ele>
        <time>2014-11-10T17:02:03.1Z</time>
      </trkpt>
      <trkpt lat="48.44257" lon="-3.15039">
        <ele>336</ele>
        <time>2014-11-10T17:02:05.1Z</time>
      </trkpt>
      <trkpt lat="48.44261" lon="-3.1504">
        <ele>336</ele>
        <time>2014-11-10T17:02:08.1Z</time>
      </trkpt>
      <trkpt lat="48.44265" lon="-3.1504">
        <ele>336</ele>
        <time>2014-11-10T17:02:11.1Z</time>
      </trkpt>
      <trkpt lat="48.44267" lon="-3.1504">
        <ele>335</ele>
        <time>2014-11-10T17:02:13.1Z</time>
      </trkpt>
      <trkpt lat="48.4427" lon="-3.15041">
        <ele>336</ele>
        <time>2014-11-10T17:02:16.1Z</time>
      </trkpt>
      <trkpt lat="48.44273" lon="-3.15042">
        <ele>336</ele>
        <time>2014-11-10T17:02:19.1Z</time>
      </trkpt>
      <trkpt lat="48.44277" lon="-3.15043">
        <ele>335</ele>
        <time>2014-11-10T17:02:22.1Z</time>
      </trkpt>
      <trkpt lat="48.44279" lon="-3.15043">
        <ele>335</ele>
        <time>2014-11-10T17:02:24.1Z</time>
      </trkpt>
      <trkpt lat="48.44283" lon="-3.15043">
        <ele>335</ele>
        <time>2014-11-10T17:02:27.1Z</time>
      </trkpt>
      <trkpt lat="48.44284" lon="-3.15043">
        <ele>335</ele>
        <time>2014-11-10T17:02:29.1Z</time>
      </trkpt>
      <trkpt lat="48.44287" lon="-3.15043">
        <ele>335</ele>
        <time>2014-11-10T17:02:31.1Z</time>
      </trkpt>
      <trkpt lat="48.4429" lon="-3.15044">
        <ele>335</ele>
        <time>2014-11-10T17:02:34.1Z</time>
      </trkpt>
      <trkpt lat="48.44293" lon="-3.15044">
        <ele>335</ele>
        <time>2014-11-10T17:02:37.1Z</time>
      </trkpt>
      <trkpt lat="48.44295" lon="-3.15044">
        <ele>335</ele>
        <time>2014-11-10T17:02:39.1Z</time>
      </trkpt>
      <trkpt lat="48.44297" lon="-3.15044">
        <ele>334</ele>
        <time>2014-11-10T17:02:41.1Z</time>
      </trkpt>
      <trkpt lat="48.443" lon="-3.15044">
        <ele>334</ele>
        <time>2014-11-10T17:02:44.1Z</time>
      </trkpt>
      <trkpt lat="48.44303" lon="-3.15045">
        <ele>334</ele>
        <time>2014-11-10T17:02:47.1Z</time>
      </trkpt>
      <trkpt lat="48.44307" lon="-3.15045">
        <ele>334</ele>
        <time>2014-11-10T17:02:50.1Z</time>
      </trkpt>
      <trkpt lat="48.44309" lon="-3.15045">
        <ele>333</ele>
        <time>2014-11-10T17:02:52.1Z</time>
      </trkpt>
      <trkpt lat="48.44312" lon="-3.15046">
        <ele>333</ele>
        <time>2014-11-10T17:02:55.1Z</time>
      </trkpt>
      <trkpt lat="48.44314" lon="-3.15046">
        <ele>333</ele>
        <time>2014-11-10T17:02:57.1Z</time>
      </trkpt>
      <trkpt lat="48.44318" lon="-3.15046">
        <ele>333</ele>
        <time>2014-11-10T17:03:00.1Z</time>
      </trkpt>
      <trkpt lat="48.4432" lon="-3.15046">
        <ele>333</ele>
        <time>2014-11-10T17:03:02.1Z</time>
      </trkpt>
      <trkpt lat="48.44323" lon="-3.15046">
        <ele>332</ele>
        <time>2014-11-10T17:03:05.1Z</time>
      </trkpt>
      <trkpt lat="48.44326" lon="-3.15047">
        <ele>332</ele>
        <time>2014-11-10T17:03:07.1Z</time>
      </trkpt>
      <trkpt lat="48.4433" lon="-3.15047">
        <ele>332</ele>
        <time>2014-11-10T17:03:10.1Z</time>
      </trkpt>
      <trkpt lat="48.44333" lon="-3.15048">
        <ele>332</ele>
        <time>2014-11-10T17:03:13.1Z</time>
      </trkpt>
      <trkpt lat="48.44336" lon="-3.15048">
        <ele>332</ele>
        <time>2014-11-10T17:03:16.1Z</time>
      </trkpt>
      <trkpt lat="48.44339" lon="-3.15048">
        <ele>332</ele>
        <time>2014-11-10T17:03:18.1Z</time>
      </trkpt>
      <trkpt lat="48.44341" lon="-3.15048">
        <ele>331</ele>
        <time>2014-11-10T17:03:21.1Z</time>
      </trkpt>
      <trkpt lat="48.44345" lon="-3.15048">
        <ele>331</ele>
        <time>2014-11-10T17:03:24.1Z</time>
      </trkpt>
      <trkpt lat="48.44349" lon="-3.15049">
        <ele>331</ele>
        <time>2014-11-10T17:03:27.1Z</time>
      </trkpt>
      <trkpt lat="48.44351" lon="-3.15049">
        <ele>331</ele>
        <time>2014-11-10T17:03:29.1Z</time>
      </trkpt>
      <trkpt lat="48.44353" lon="-3.15049">
        <ele>331</ele>
        <time>2014-11-10T17:03:31.1Z</time>
      </trkpt>
      <trkpt lat="48.44357" lon="-3.1505">
        <ele>331</ele>
        <time>2014-11-10T17:03:34.1Z</time>
      </trkpt>
      <trkpt lat="48.4436" lon="-3.1505">
        <ele>330</ele>
        <time>2014-11-10T17:03:37.1Z</time>
      </trkpt>
      <trkpt lat="48.44363" lon="-3.1505">
        <ele>330</ele>
        <time>2014-11-10T17:03:40.1Z</time>
      </trkpt>
      <trkpt lat="48.44367" lon="-3.1505">
        <ele>329</ele>
        <time>2014-11-10T17:03:43.1Z</time>
      </trkpt>
      <trkpt lat="48.4437" lon="-3.15051">
        <ele>330</ele>
        <time>2014-11-10T17:03:46.1Z</time>
      </trkpt>
      <trkpt lat="48.44372" lon="-3.15051">
        <ele>329</ele>
        <time>2014-11-10T17:03:48.1Z</time>
      </trkpt>
      <trkpt lat="48.44376" lon="-3.15051">
        <ele>329</ele>
        <time>2014-11-10T17:03:51.1Z</time>
      </trkpt>
      <trkpt lat="48.44379" lon="-3.15051">
        <ele>328</ele>
        <time>2014-11-10T17:03:54.1Z</time>
      </trkpt>
      <trkpt lat="48.44383" lon="-3.15052">
        <ele>329</ele>
        <time>2014-11-10T17:03:57.1Z</time>
      </trkpt>
      <trkpt lat="48.44386" lon="-3.15052">
        <ele>330</ele>
        <time>2014-11-10T17:04:00.1Z</time>
      </trkpt>
      <trkpt lat="48.44388" lon="-3.15052">
        <ele>330</ele>
        <time>2014-11-10T17:04:02.1Z</time>
      </trkpt>
      <trkpt lat="48.4439" lon="-3.15053">
        <ele>329</ele>
        <time>2014-11-10T17:04:04.1Z</time>
      </trkpt>
      <trkpt lat="48.44394" lon="-3.15053">
        <ele>329</ele>
        <time>2014-11-10T17:04:07.1Z</time>
      </trkpt>
      <trkpt lat="48.44397" lon="-3.15053">
        <ele>329</ele>
        <time>2014-11-10T17:04:10.1Z</time>
      </trkpt>
      <trkpt lat="48.444" lon="-3.15053">
        <ele>328</ele>
        <time>2014-11-10T17:04:12.1Z</time>
      </trkpt>
      <trkpt lat="48.44403" lon="-3.15054">
        <ele>328</ele>
        <time>2014-11-10T17:04:15.1Z</time>
      </trkpt>
      <trkpt lat="48.44405" lon="-3.15054">
        <ele>328</ele>
        <time>2014-11-10T17:04:17.1Z</time>
      </trkpt>
      <trkpt lat="48.44408" lon="-3.15054">
        <ele>328</ele>
        <time>2014-11-10T17:04:19.1Z</time>
      </trkpt>
      <trkpt lat="48.44411" lon="-3.15054">
        <ele>328</ele>
        <time>2014-11-10T17:04:22.1Z</time>
      </trkpt>
      <trkpt lat="48.44414" lon="-3.15054">
        <ele>327</ele>
        <time>2014-11-10T17:04:25.1Z</time>
      </trkpt>
      <trkpt lat="48.44418" lon="-3.15054">
        <ele>327</ele>
        <time>2014-11-10T17:04:28.1Z</time>
      </trkpt>
      <trkpt lat="48.44421" lon="-3.15055">
        <ele>327</ele>
        <time>2014-11-10T17:04:30.1Z</time>
      </trkpt>
      <trkpt lat="48.44423" lon="-3.15055">
        <ele>327</ele>
        <time>2014-11-10T17:04:32.1Z</time>
      </trkpt>
      <trkpt lat="48.44426" lon="-3.15056">
        <ele>327</ele>
        <time>2014-11-10T17:04:35.1Z</time>
      </trkpt>
      <trkpt lat="48.44429" lon="-3.15056">
        <ele>327</ele>
        <time>2014-11-10T17:04:37.1Z</time>
      </trkpt>
      <trkpt lat="48.44432" lon="-3.15056">
        <ele>327</ele>
        <time>2014-11-10T17:04:40.1Z</time>
      </trkpt>
      <trkpt lat="48.44436" lon="-3.15056">
        <ele>327</ele>
        <time>2014-11-10T17:04:43.1Z</time>
      </trkpt>
      <trkpt lat="48.44438" lon="-3.15056">
        <ele>327</ele>
        <time>2014-11-10T17:04:45.1Z</time>
      </trkpt>
      <trkpt lat="48.44442" lon="-3.15057">
        <ele>328</ele>
        <time>2014-11-10T17:04:48.1Z</time>
      </trkpt>
      <trkpt lat="48.44444" lon="-3.15057">
        <ele>328</ele>
        <time>2014-11-10T17:04:50.1Z</time>
      </trkpt>
      <trkpt lat="48.44447" lon="-3.15057">
        <ele>327</ele>
        <time>2014-11-10T17:04:52.1Z</time>
      </trkpt>
      <trkpt lat="48.4445" lon="-3.15057">
        <ele>327</ele>
        <time>2014-11-10T17:04:55.1Z</time>
      </trkpt>
      <trkpt lat="48.44453" lon="-3.15058">
        <ele>327</ele>
        <time>2014-11-10T17:04:58.1Z</time>
      </trkpt>
      <trkpt lat="48.44457" lon="-3.15058">
        <ele>327</ele>
        <time>2014-11-10T17:05:01.1Z</time>
      </trkpt>
      <trkpt lat="48.44461" lon="-3.15059">
        <ele>327</ele>
        <time>2014-11-10T17:05:04.1Z</time>
      </trkpt>
      <trkpt lat="48.44463" lon="-3.15059">
        <ele>327</ele>
        <time>2014-11-10T17:05:06.1Z</time>
      </trkpt>
      <trkpt lat="48.44466" lon="-3.15059">
        <ele>327</ele>
        <time>2014-11-10T17:05:09.1Z</time>
      </trkpt>
      <trkpt lat="48.44469" lon="-3.1506">
        <ele>327</ele>
        <time>2014-11-10T17:05:11.1Z</time>
      </trkpt>
      <trkpt lat="48.44473" lon="-3.15059">
        <ele>326</ele>
        <time>2014-11-10T17:05:14.1Z</time>
      </trkpt>
      <trkpt lat="48.44476" lon="-3.1506">
        <ele>326</ele>
        <time>2014-11-10T17:05:17.1Z</time>
      </trkpt>
      <trkpt lat="48.44479" lon="-3.15061">
        <ele>326</ele>
        <time>2014-11-10T17:05:20.1Z</time>
      </trkpt>
      <trkpt lat="48.44483" lon="-3.15061">
        <ele>326</ele>
        <time>2014-11-10T17:05:23.1Z</time>
      </trkpt>
      <trkpt lat="48.44485" lon="-3.15062">
        <ele>326</ele>
        <time>2014-11-10T17:05:25.1Z</time>
      </trkpt>
      <trkpt lat="48.44487" lon="-3.15062">
        <ele>327</ele>
        <time>2014-11-10T17:05:27.1Z</time>
      </trkpt>
      <trkpt lat="48.44492" lon="-3.15063">
        <ele>327</ele>
        <time>2014-11-10T17:05:30.1Z</time>
      </trkpt>
      <trkpt lat="48.44495" lon="-3.15064">
        <ele>327</ele>
        <time>2014-11-10T17:05:33.1Z</time>
      </trkpt>
      <trkpt lat="48.44498" lon="-3.15064">
        <ele>327</ele>
        <time>2014-11-10T17:05:35.1Z</time>
      </trkpt>
      <trkpt lat="48.44501" lon="-3.15064">
        <ele>327</ele>
        <time>2014-11-10T17:05:38.1Z</time>
      </trkpt>
      <trkpt lat="48.44504" lon="-3.15065">
        <ele>326</ele>
        <time>2014-11-10T17:05:40.1Z</time>
      </trkpt>
      <trkpt lat="48.44507" lon="-3.15065">
        <ele>326</ele>
        <time>2014-11-10T17:05:43.1Z</time>
      </trkpt>
      <trkpt lat="48.4451" lon="-3.15065">
        <ele>326</ele>
        <time>2014-11-10T17:05:45.1Z</time>
      </trkpt>
      <trkpt lat="48.44514" lon="-3.15066">
        <ele>326</ele>
        <time>2014-11-10T17:05:48.1Z</time>
      </trkpt>
      <trkpt lat="48.44516" lon="-3.15066">
        <ele>326</ele>
        <time>2014-11-10T17:05:50.1Z</time>
      </trkpt>
      <trkpt lat="48.44518" lon="-3.15066">
        <ele>326</ele>
        <time>2014-11-10T17:05:52.1Z</time>
      </trkpt>
      <trkpt lat="48.44521" lon="-3.15067">
        <ele>326</ele>
        <time>2014-11-10T17:05:54.1Z</time>
      </trkpt>
      <trkpt lat="48.44524" lon="-3.15067">
        <ele>326</ele>
        <time>2014-11-10T17:05:57.1Z</time>
      </trkpt>
      <trkpt lat="48.44527" lon="-3.15067">
        <ele>325</ele>
        <time>2014-11-10T17:05:59.1Z</time>
      </trkpt>
      <trkpt lat="48.4453" lon="-3.15068">
        <ele>325</ele>
        <time>2014-11-10T17:06:02.1Z</time>
      </trkpt>
      <trkpt lat="48.44533" lon="-3.15068">
        <ele>325</ele>
        <time>2014-11-10T17:06:04.1Z</time>
      </trkpt>
      <trkpt lat="48.44537" lon="-3.15068">
        <ele>325</ele>
        <time>2014-11-10T17:06:07.1Z</time>
      </trkpt>
      <trkpt lat="48.4454" lon="-3.15068">
        <ele>326</ele>
        <time>2014-11-10T17:06:10.1Z</time>
      </trkpt>
      <trkpt lat="48.44542" lon="-3.15068">
        <ele>326</ele>
        <time>2014-11-10T17:06:12.1Z</time>
      </trkpt>
      <trkpt lat="48.44546" lon="-3.15068">
        <ele>326</ele>
        <time>2014-11-10T17:06:15.1Z</time>
      </trkpt>
      <trkpt lat="48.44548" lon="-3.15069">
        <ele>325</ele>
        <time>2014-11-10T17:06:17.1Z</time>
      </trkpt>
      <trkpt lat="48.44552" lon="-3.15069">
        <ele>325</ele>
        <time>2014-11-10T17:06:20.1Z</time>
      </trkpt>
      <trkpt lat="48.44556" lon="-3.15069">
        <ele>325</ele>
        <time>2014-11-10T17:06:23.1Z</time>
      </trkpt>
      <trkpt lat="48.4456" lon="-3.1507">
        <ele>325</ele>
        <time>2014-11-10T17:06:26.1Z</time>
      </trkpt>
      <trkpt lat="48.44562" lon="-3.1507">
        <ele>325</ele>
        <time>2014-11-10T17:06:28.1Z</time>
      </trkpt>
      <trkpt lat="48.44565" lon="-3.15071">
        <ele>325</ele>
        <time>2014-11-10T17:06:31.1Z</time>
      </trkpt>
      <trkpt lat="48.44569" lon="-3.15071">
        <ele>326</ele>
        <time>2014-11-10T17:06:34.1Z</time>
      </trkpt>
      <trkpt lat="48.44573" lon="-3.15071">
        <ele>325</ele>
        <time>2014-11-10T17:06:37.1Z</time>
      </trkpt>
      <trkpt lat="48.44575" lon="-3.15071">
        <ele>325</ele>
        <time>2014-11-10T17:06:39.1Z</time>
      </trkpt>
      <trkpt lat="48.44579" lon="-3.15071">
        <ele>326</ele>
        <time>2014-11-10T17:06:42.1Z</time>
      </trkpt>
      <trkpt lat="48.44581" lon="-3.15071">
        <ele>326</ele>
        <time>2014-11-10T17:06:44.1Z</time>
      </trkpt>
      <trkpt lat="48.44585" lon="-3.15072">
        <ele>326</ele>
        <time>2014-11-10T17:06:47.1Z</time>
      </trkpt>
      <trkpt lat="48.44588" lon="-3.15072">
        <ele>326</ele>
        <time>2014-11-10T17:06:50.1Z</time>
      </trkpt>
      <trkpt lat="48.4459" lon="-3.15072">
        <ele>326</ele>
        <time>2014-11-10T17:06:52.1Z</time>
      </trkpt>
      <trkpt lat="48.44594" lon="-3.15071">
        <ele>326</ele>
        <time>2014-11-10T17:06:55.1Z</time>
      </trkpt>
      <trkpt lat="48.44597" lon="-3.1507">
        <ele>326</ele>
        <time>2014-11-10T17:06:58.1Z</time>
      </trkpt>
      <trkpt lat="48.44599" lon="-3.15067">
        <ele>326</ele>
        <time>2014-11-10T17:07:00.1Z</time>
      </trkpt>
      <trkpt lat="48.446" lon="-3.15064">
        <ele>326</ele>
        <time>2014-11-10T17:07:02.1Z</time>
      </trkpt>
      <trkpt lat="48.44601" lon="-3.15059">
        <ele>326</ele>
        <time>2014-11-10T17:07:05.1Z</time>
      </trkpt>
      <trkpt lat="48.44601" lon="-3.15056">
        <ele>326</ele>
        <time>2014-11-10T17:07:07.1Z</time>
      </trkpt>
      <trkpt lat="48.44601" lon="-3.15051">
        <ele>326</ele>
        <time>2014-11-10T17:07:10.1Z</time>
      </trkpt>
      <trkpt lat="48.44601" lon="-3.15046">
        <ele>326</ele>
        <time>2014-11-10T17:07:13.1Z</time>
      </trkpt>
      <trkpt lat="48.44601" lon="-3.15042">
        <ele>326</ele>
        <time>2014-11-10T17:07:15.1Z</time>
      </trkpt>
      <trkpt lat="48.44601" lon="-3.15037">
        <ele>327</ele>
        <time>2014-11-10T17:07:18.1Z</time>
      </trkpt>
      <trkpt lat="48.446" lon="-3.15031">
        <ele>327</ele>
        <time>2014-11-10T17:07:21.1Z</time>
      </trkpt>
      <trkpt lat="48.446" lon="-3.15028">
        <ele>326</ele>
        <time>2014-11-10T17:07:23.1Z</time>
      </trkpt>
      <trkpt lat="48.44599" lon="-3.15023">
        <ele>327</ele>
        <time>2014-11-10T17:07:26.1Z</time>
      </trkpt>
      <trkpt lat="48.44599" lon="-3.15017">
        <ele>327</ele>
        <time>2014-11-10T17:07:29.1Z</time>
      </trkpt>
      <trkpt lat="48.44598" lon="-3.15012">
        <ele>327</ele>
        <time>2014-11-10T17:07:32.1Z</time>
      </trkpt>
      <trkpt lat="48.44598" lon="-3.15006">
        <ele>327</ele>
        <time>2014-11-10T17:07:35.1Z</time>
      </trkpt>
      <trkpt lat="48.44597" lon="-3.15001">
        <ele>327</ele>
        <time>2014-11-10T17:07:38.1Z</time>
      </trkpt>
      <trkpt lat="48.44597" lon="-3.14995">
        <ele>326</ele>
        <time>2014-11-10T17:07:41.1Z</time>
      </trkpt>
      <trkpt lat="48.44596" lon="-3.1499">
        <ele>327</ele>
        <time>2014-11-10T17:07:44.1Z</time>
      </trkpt>
      <trkpt lat="48.44596" lon="-3.14986">
        <ele>327</ele>
        <time>2014-11-10T17:07:46.1Z</time>
      </trkpt>
      <trkpt lat="48.44595" lon="-3.14981">
        <ele>327</ele>
        <time>2014-11-10T17:07:49.1Z</time>
      </trkpt>
      <trkpt lat="48.44595" lon="-3.14977">
        <ele>327</ele>
        <time>2014-11-10T17:07:51.1Z</time>
      </trkpt>
      <trkpt lat="48.44595" lon="-3.14973">
        <ele>327</ele>
        <time>2014-11-10T17:07:53.1Z</time>
      </trkpt>
      <trkpt lat="48.44594" lon="-3.14967">
        <ele>327</ele>
        <time>2014-11-10T17:07:56.1Z</time>
      </trkpt>
      <trkpt lat="48.44594" lon="-3.14963">
        <ele>326</ele>
        <time>2014-11-10T17:07:58.1Z</time>
      </trkpt>
      <trkpt lat="48.44593" lon="-3.14958">
        <ele>326</ele>
        <time>2014-11-10T17:08:01.1Z</time>
      </trkpt>
      <trkpt lat="48.44593" lon="-3.14954">
        <ele>326</ele>
        <time>2014-11-10T17:08:03.1Z</time>
      </trkpt>
      <trkpt lat="48.44593" lon="-3.1495">
        <ele>326</ele>
        <time>2014-11-10T17:08:05.1Z</time>
      </trkpt>
      <trkpt lat="48.44592" lon="-3.14945">
        <ele>326</ele>
        <time>2014-11-10T17:08:08.1Z</time>
      </trkpt>
      <trkpt lat="48.44592" lon="-3.14941">
        <ele>326</ele>
        <time>2014-11-10T17:08:10.1Z</time>
      </trkpt>
      <trkpt lat="48.44591" lon="-3.14936">
        <ele>325</ele>
        <time>2014-11-10T17:08:13.1Z</time>
      </trkpt>
      <trkpt lat="48.4459" lon="-3.14931">
        <ele>325</ele>
        <time>2014-11-10T17:08:16.1Z</time>
      </trkpt>
      <trkpt lat="48.4459" lon="-3.14927">
        <ele>325</ele>
        <time>2014-11-10T17:08:18.1Z</time>
      </trkpt>
      <trkpt lat="48.4459" lon="-3.14921">
        <ele>325</ele>
        <time>2014-11-10T17:08:21.1Z</time>
      </trkpt>
      <trkpt lat="48.44589" lon="-3.14918">
        <ele>325</ele>
        <time>2014-11-10T17:08:23.1Z</time>
      </trkpt>
      <trkpt lat="48.44589" lon="-3.14913">
        <ele>325</ele>
        <time>2014-11-10T17:08:26.1Z</time>
      </trkpt>
      <trkpt lat="48.44588" lon="-3.14907">
        <ele>325</ele>
        <time>2014-11-10T17:08:29.1Z</time>
      </trkpt>
      <trkpt lat="48.44588" lon="-3.14904">
        <ele>324</ele>
        <time>2014-11-10T17:08:31.1Z</time>
      </trkpt>
      <trkpt lat="48.44587" lon="-3.14899">
        <ele>324</ele>
        <time>2014-11-10T17:08:34.1Z</time>
      </trkpt>
      <trkpt lat="48.44586" lon="-3.14893">
        <ele>324</ele>
        <time>2014-11-10T17:08:37.1Z</time>
      </trkpt>
      <trkpt lat="48.44586" lon="-3.1489">
        <ele>324</ele>
        <time>2014-11-10T17:08:39.1Z</time>
      </trkpt>
      <trkpt lat="48.44585" lon="-3.14887">
        <ele>324</ele>
        <time>2014-11-10T17:08:41.1Z</time>
      </trkpt>
      <trkpt lat="48.44585" lon="-3.14881">
        <ele>324</ele>
        <time>2014-11-10T17:08:44.1Z</time>
      </trkpt>
      <trkpt lat="48.44584" lon="-3.14878">
        <ele>324</ele>
        <time>2014-11-10T17:08:46.1Z</time>
      </trkpt>
      <trkpt lat="48.44584" lon="-3.14873">
        <ele>324</ele>
        <time>2014-11-10T17:08:49.1Z</time>
      </trkpt>
      <trkpt lat="48.44584" lon="-3.14869">
        <ele>323</ele>
        <time>2014-11-10T17:08:51.1Z</time>
      </trkpt>
      <trkpt lat="48.44583" lon="-3.14864">
        <ele>324</ele>
        <time>2014-11-10T17:08:54.1Z</time>
      </trkpt>
      <trkpt lat="48.44582" lon="-3.14861">
        <ele>323</ele>
        <time>2014-11-10T17:08:56.1Z</time>
      </trkpt>
      <trkpt lat="48.44581" lon="-3.14858">
        <ele>323</ele>
        <time>2014-11-10T17:08:58.1Z</time>
      </trkpt>
      <trkpt lat="48.44581" lon="-3.14854">
        <ele>323</ele>
        <time>2014-11-10T17:09:00.1Z</time>
      </trkpt>
      <trkpt lat="48.4458" lon="-3.14849">
        <ele>322</ele>
        <time>2014-11-10T17:09:03.1Z</time>
      </trkpt>
      <trkpt lat="48.4458" lon="-3.14845">
        <ele>322</ele>
        <time>2014-11-10T17:09:05.1Z</time>
      </trkpt>
      <trkpt lat="48.44579" lon="-3.1484">
        <ele>322</ele>
        <time>2014-11-10T17:09:08.1Z</time>
      </trkpt>
      <trkpt lat="48.44579" lon="-3.14837">
        <ele>322</ele>
        <time>2014-11-10T17:09:10.1Z</time>
      </trkpt>
      <trkpt lat="48.44578" lon="-3.14831">
        <ele>322</ele>
        <time>2014-11-10T17:09:13.1Z</time>
      </trkpt>
      <trkpt lat="48.44577" lon="-3.14826">
        <ele>321</ele>
        <time>2014-11-10T17:09:16.1Z</time>
      </trkpt>
      <trkpt lat="48.44578" lon="-3.14821">
        <ele>321</ele>
        <time>2014-11-10T17:09:19.1Z</time>
      </trkpt>
      <trkpt lat="48.44578" lon="-3.14817">
        <ele>321</ele>
        <time>2014-11-10T17:09:21.1Z</time>
      </trkpt>
      <trkpt lat="48.44578" lon="-3.14814">
        <ele>321</ele>
        <time>2014-11-10T17:09:23.1Z</time>
      </trkpt>
      <trkpt lat="48.44578" lon="-3.14809">
        <ele>321</ele>
        <time>2014-11-10T17:09:25.1Z</time>
      </trkpt>
      <trkpt lat="48.44578" lon="-3.14806">
        <ele>321</ele>
        <time>2014-11-10T17:09:27.1Z</time>
      </trkpt>
      <trkpt lat="48.44578" lon="-3.14802">
        <ele>321</ele>
        <time>2014-11-10T17:09:29.1Z</time>
      </trkpt>
      <trkpt lat="48.44578" lon="-3.14797">
        <ele>321</ele>
        <time>2014-11-10T17:09:32.1Z</time>
      </trkpt>
      <trkpt lat="48.44578" lon="-3.14792">
        <ele>322</ele>
        <time>2014-11-10T17:09:34.1Z</time>
      </trkpt>
      <trkpt lat="48.44579" lon="-3.14787">
        <ele>321</ele>
        <time>2014-11-10T17:09:37.1Z</time>
      </trkpt>
      <trkpt lat="48.44579" lon="-3.14781">
        <ele>321</ele>
        <time>2014-11-10T17:09:40.1Z</time>
      </trkpt>
      <trkpt lat="48.44579" lon="-3.14775">
        <ele>320</ele>
        <time>2014-11-10T17:09:43.1Z</time>
      </trkpt>
      <trkpt lat="48.44579" lon="-3.14772">
        <ele>321</ele>
        <time>2014-11-10T17:09:45.1Z</time>
      </trkpt>
      <trkpt lat="48.44579" lon="-3.14766">
        <ele>321</ele>
        <time>2014-11-10T17:09:48.1Z</time>
      </trkpt>
      <trkpt lat="48.44579" lon="-3.14762">
        <ele>321</ele>
        <time>2014-11-10T17:09:50.1Z</time>
      </trkpt>
      <trkpt lat="48.44579" lon="-3.14758">
        <ele>321</ele>
        <time>2014-11-10T17:09:52.1Z</time>
      </trkpt>
      <trkpt lat="48.44579" lon="-3.14753">
        <ele>320</ele>
        <time>2014-11-10T17:09:55.1Z</time>
      </trkpt>
      <trkpt lat="48.44579" lon="-3.14748">
        <ele>321</ele>
        <time>2014-11-10T17:09:58.1Z</time>
      </trkpt>
      <trkpt lat="48.44579" lon="-3.14742">
        <ele>320</ele>
        <time>2014-11-10T17:10:01.1Z</time>
      </trkpt>
      <trkpt lat="48.44579" lon="-3.14738">
        <ele>320</ele>
        <time>2014-11-10T17:10:04.1Z</time>
      </trkpt>
      <trkpt lat="48.4458" lon="-3.14734">
        <ele>320</ele>
        <time>2014-11-10T17:10:06.1Z</time>
      </trkpt>
      <trkpt lat="48.4458" lon="-3.1473">
        <ele>320</ele>
        <time>2014-11-10T17:10:08.1Z</time>
      </trkpt>
      <trkpt lat="48.4458" lon="-3.14725">
        <ele>320</ele>
        <time>2014-11-10T17:10:11.1Z</time>
      </trkpt>
      <trkpt lat="48.4458" lon="-3.14722">
        <ele>320</ele>
        <time>2014-11-10T17:10:13.1Z</time>
      </trkpt>
      <trkpt lat="48.44581" lon="-3.14717">
        <ele>320</ele>
        <time>2014-11-10T17:10:16.1Z</time>
      </trkpt>
      <trkpt lat="48.44581" lon="-3.14712">
        <ele>320</ele>
        <time>2014-11-10T17:10:19.1Z</time>
      </trkpt>
      <trkpt lat="48.44582" lon="-3.14707">
        <ele>320</ele>
        <time>2014-11-10T17:10:22.1Z</time>
      </trkpt>
      <trkpt lat="48.44583" lon="-3.14704">
        <ele>320</ele>
        <time>2014-11-10T17:10:24.1Z</time>
      </trkpt>
      <trkpt lat="48.44584" lon="-3.147">
        <ele>320</ele>
        <time>2014-11-10T17:10:26.1Z</time>
      </trkpt>
      <trkpt lat="48.44585" lon="-3.14697">
        <ele>320</ele>
        <time>2014-11-10T17:10:28.1Z</time>
      </trkpt>
      <trkpt lat="48.44586" lon="-3.14692">
        <ele>320</ele>
        <time>2014-11-10T17:10:31.1Z</time>
      </trkpt>
      <trkpt lat="48.44587" lon="-3.14688">
        <ele>320</ele>
        <time>2014-11-10T17:10:33.1Z</time>
      </trkpt>
      <trkpt lat="48.44588" lon="-3.14683">
        <ele>320</ele>
        <time>2014-11-10T17:10:36.1Z</time>
      </trkpt>
      <trkpt lat="48.4459" lon="-3.14678">
        <ele>320</ele>
        <time>2014-11-10T17:10:39.1Z</time>
      </trkpt>
      <trkpt lat="48.44591" lon="-3.14672">
        <ele>320</ele>
        <time>2014-11-10T17:10:42.1Z</time>
      </trkpt>
      <trkpt lat="48.44592" lon="-3.14668">
        <ele>320</ele>
        <time>2014-11-10T17:10:44.1Z</time>
      </trkpt>
      <trkpt lat="48.44593" lon="-3.14665">
        <ele>321</ele>
        <time>2014-11-10T17:10:46.1Z</time>
      </trkpt>
      <trkpt lat="48.44594" lon="-3.14659">
        <ele>321</ele>
        <time>2014-11-10T17:10:49.1Z</time>
      </trkpt>
      <trkpt lat="48.44595" lon="-3.14656">
        <ele>321</ele>
        <time>2014-11-10T17:10:51.1Z</time>
      </trkpt>
      <trkpt lat="48.44596" lon="-3.14651">
        <ele>321</ele>
        <time>2014-11-10T17:10:54.1Z</time>
      </trkpt>
      <trkpt lat="48.44597" lon="-3.14646">
        <ele>321</ele>
        <time>2014-11-10T17:10:57.1Z</time>
      </trkpt>
      <trkpt lat="48.44598" lon="-3.1464">
        <ele>321</ele>
        <time>2014-11-10T17:11:00.1Z</time>
      </trkpt>
      <trkpt lat="48.44599" lon="-3.14636">
        <ele>321</ele>
        <time>2014-11-10T17:11:02.1Z</time>
      </trkpt>
      <trkpt lat="48.446" lon="-3.14631">
        <ele>321</ele>
        <time>2014-11-10T17:11:05.1Z</time>
      </trkpt>
      <trkpt lat="48.44601" lon="-3.14626">
        <ele>321</ele>
        <time>2014-11-10T17:11:08.1Z</time>
      </trkpt>
      <trkpt lat="48.44603" lon="-3.1462">
        <ele>321</ele>
        <time>2014-11-10T17:11:11.1Z</time>
      </trkpt>
      <trkpt lat="48.44603" lon="-3.14615">
        <ele>321</ele>
        <time>2014-11-10T17:11:14.1Z</time>
      </trkpt>
      <trkpt lat="48.44604" lon="-3.14612">
        <ele>321</ele>
        <time>2014-11-10T17:11:16.1Z</time>
      </trkpt>
      <trkpt lat="48.44604" lon="-3.14607">
        <ele>321</ele>
        <time>2014-11-10T17:11:19.1Z</time>
      </trkpt>
      <trkpt lat="48.44605" lon="-3.14602">
        <ele>321</ele>
        <time>2014-11-10T17:11:22.1Z</time>
      </trkpt>
      <trkpt lat="48.44605" lon="-3.14599">
        <ele>321</ele>
        <time>2014-11-10T17:11:24.1Z</time>
      </trkpt>
      <trkpt lat="48.44605" lon="-3.14593">
        <ele>320</ele>
        <time>2014-11-10T17:11:27.1Z</time>
      </trkpt>
      <trkpt lat="48.44605" lon="-3.1459">
        <ele>320</ele>
        <time>2014-11-10T17:11:29.1Z</time>
      </trkpt>
      <trkpt lat="48.44606" lon="-3.14585">
        <ele>320</ele>
        <time>2014-11-10T17:11:32.1Z</time>
      </trkpt>
      <trkpt lat="48.44607" lon="-3.14578">
        <ele>321</ele>
        <time>2014-11-10T17:11:35.1Z</time>
      </trkpt>
      <trkpt lat="48.44607" lon="-3.14574">
        <ele>321</ele>
        <time>2014-11-10T17:11:37.1Z</time>
      </trkpt>
      <trkpt lat="48.44608" lon="-3.1457">
        <ele>321</ele>
        <time>2014-11-10T17:11:39.1Z</time>
      </trkpt>
      <trkpt lat="48.44607" lon="-3.14565">
        <ele>321</ele>
        <time>2014-11-10T17:11:42.1Z</time>
      </trkpt>
      <trkpt lat="48.44607" lon="-3.14559">
        <ele>320</ele>
        <time>2014-11-10T17:11:45.1Z</time>
      </trkpt>
      <trkpt lat="48.44606" lon="-3.14556">
        <ele>320</ele>
        <time>2014-11-10T17:11:47.1Z</time>
      </trkpt>
      <trkpt lat="48.44606" lon="-3.14551">
        <ele>320</ele>
        <time>2014-11-10T17:11:50.1Z</time>
      </trkpt>
      <trkpt lat="48.44605" lon="-3.14547">
        <ele>320</ele>
        <time>2014-11-10T17:11:52.1Z</time>
      </trkpt>
      <trkpt lat="48.44604" lon="-3.14542">
        <ele>320</ele>
        <time>2014-11-10T17:11:55.1Z</time>
      </trkpt>
      <trkpt lat="48.44603" lon="-3.14539">
        <ele>321</ele>
        <time>2014-11-10T17:11:57.1Z</time>
      </trkpt>
      <trkpt lat="48.44602" lon="-3.14536">
        <ele>321</ele>
        <time>2014-11-10T17:11:59.1Z</time>
      </trkpt>
      <trkpt lat="48.44601" lon="-3.14532">
        <ele>321</ele>
        <time>2014-11-10T17:12:01.1Z</time>
      </trkpt>
      <trkpt lat="48.44599" lon="-3.14528">
        <ele>321</ele>
        <time>2014-11-10T17:12:04.1Z</time>
      </trkpt>
      <trkpt lat="48.44598" lon="-3.14524">
        <ele>321</ele>
        <time>2014-11-10T17:12:06.1Z</time>
      </trkpt>
      <trkpt lat="48.44598" lon="-3.14521">
        <ele>322</ele>
        <time>2014-11-10T17:12:08.1Z</time>
      </trkpt>
      <trkpt lat="48.44596" lon="-3.14516">
        <ele>322</ele>
        <time>2014-11-10T17:12:11.1Z</time>
      </trkpt>
      <trkpt lat="48.44594" lon="-3.14513">
        <ele>322</ele>
        <time>2014-11-10T17:12:13.1Z</time>
      </trkpt>
      <trkpt lat="48.44593" lon="-3.1451">
        <ele>322</ele>
        <time>2014-11-10T17:12:15.1Z</time>
      </trkpt>
      <trkpt lat="48.44592" lon="-3.14505">
        <ele>322</ele>
        <time>2014-11-10T17:12:18.1Z</time>
      </trkpt>
      <trkpt lat="48.44591" lon="-3.14502">
        <ele>323</ele>
        <time>2014-11-10T17:12:20.1Z</time>
      </trkpt>
      <trkpt lat="48.44589" lon="-3.14498">
        <ele>323</ele>
        <time>2014-11-10T17:12:23.1Z</time>
      </trkpt>
      <trkpt lat="48.44588" lon="-3.14494">
        <ele>324</ele>
        <time>2014-11-10T17:12:25.1Z</time>
      </trkpt>
      <trkpt lat="48.44587" lon="-3.14491">
        <ele>324</ele>
        <time>2014-11-10T17:12:27.1Z</time>
      </trkpt>
      <trkpt lat="48.44585" lon="-3.14488">
        <ele>324</ele>
        <time>2014-11-10T17:12:29.1Z</time>
      </trkpt>
      <trkpt lat="48.44584" lon="-3.14483">
        <ele>324</ele>
        <time>2014-11-10T17:12:32.1Z</time>
      </trkpt>
      <trkpt lat="48.44582" lon="-3.1448">
        <ele>324</ele>
        <time>2014-11-10T17:12:34.1Z</time>
      </trkpt>
      <trkpt lat="48.44581" lon="-3.14476">
        <ele>323</ele>
        <time>2014-11-10T17:12:37.1Z</time>
      </trkpt>
      <trkpt lat="48.44579" lon="-3.14472">
        <ele>324</ele>
        <time>2014-11-10T17:12:39.1Z</time>
      </trkpt>
      <trkpt lat="48.44578" lon="-3.14469">
        <ele>324</ele>
        <time>2014-11-10T17:12:41.1Z</time>
      </trkpt>
      <trkpt lat="48.44577" lon="-3.14467">
        <ele>324</ele>
        <time>2014-11-10T17:12:43.1Z</time>
      </trkpt>
      <trkpt lat="48.44575" lon="-3.14463">
        <ele>324</ele>
        <time>2014-11-10T17:12:46.1Z</time>
      </trkpt>
      <trkpt lat="48.44575" lon="-3.14459">
        <ele>324</ele>
        <time>2014-11-10T17:12:48.1Z</time>
      </trkpt>
      <trkpt lat="48.44574" lon="-3.14456">
        <ele>324</ele>
        <time>2014-11-10T17:12:50.1Z</time>
      </trkpt>
      <trkpt lat="48.44573" lon="-3.14451">
        <ele>324</ele>
        <time>2014-11-10T17:12:53.1Z</time>
      </trkpt>
      <trkpt lat="48.44572" lon="-3.14445">
        <ele>324</ele>
        <time>2014-11-10T17:12:56.1Z</time>
      </trkpt>
      <trkpt lat="48.44571" lon="-3.14441">
        <ele>324</ele>
        <time>2014-11-10T17:12:58.1Z</time>
      </trkpt>
      <trkpt lat="48.44569" lon="-3.14436">
        <ele>325</ele>
        <time>2014-11-10T17:13:01.1Z</time>
      </trkpt>
      <trkpt lat="48.44569" lon="-3.14433">
        <ele>325</ele>
        <time>2014-11-10T17:13:03.1Z</time>
      </trkpt>
      <trkpt lat="48.44567" lon="-3.14428">
        <ele>325</ele>
        <time>2014-11-10T17:13:06.1Z</time>
      </trkpt>
      <trkpt lat="48.44567" lon="-3.14425">
        <ele>325</ele>
        <time>2014-11-10T17:13:08.1Z</time>
      </trkpt>
      <trkpt lat="48.44565" lon="-3.14421">
        <ele>326</ele>
        <time>2014-11-10T17:13:11.1Z</time>
      </trkpt>
      <trkpt lat="48.44563" lon="-3.14417">
        <ele>326</ele>
        <time>2014-11-10T17:13:14.1Z</time>
      </trkpt>
      <trkpt lat="48.4456" lon="-3.14414">
        <ele>327</ele>
        <time>2014-11-10T17:13:17.1Z</time>
      </trkpt>
      <trkpt lat="48.44558" lon="-3.14412">
        <ele>326</ele>
        <time>2014-11-10T17:13:19.1Z</time>
      </trkpt>
      <trkpt lat="48.44556" lon="-3.1441">
        <ele>326</ele>
        <time>2014-11-10T17:13:21.1Z</time>
      </trkpt>
      <trkpt lat="48.44553" lon="-3.14407">
        <ele>327</ele>
        <time>2014-11-10T17:13:24.1Z</time>
      </trkpt>
      <trkpt lat="48.44551" lon="-3.14405">
        <ele>327</ele>
        <time>2014-11-10T17:13:27.1Z</time>
      </trkpt>
      <trkpt lat="48.44548" lon="-3.14403">
        <ele>327</ele>
        <time>2014-11-10T17:13:29.1Z</time>
      </trkpt>
      <trkpt lat="48.44546" lon="-3.14401">
        <ele>328</ele>
        <time>2014-11-10T17:13:32.1Z</time>
      </trkpt>
      <trkpt lat="48.44543" lon="-3.14398">
        <ele>328</ele>
        <time>2014-11-10T17:13:35.1Z</time>
      </trkpt>
      <trkpt lat="48.44541" lon="-3.14396">
        <ele>328</ele>
        <time>2014-11-10T17:13:38.1Z</time>
      </trkpt>
      <trkpt lat="48.44539" lon="-3.14395">
        <ele>328</ele>
        <time>2014-11-10T17:13:40.1Z</time>
      </trkpt>
      <trkpt lat="48.44536" lon="-3.14392">
        <ele>329</ele>
        <time>2014-11-10T17:13:43.1Z</time>
      </trkpt>
      <trkpt lat="48.44533" lon="-3.1439">
        <ele>329</ele>
        <time>2014-11-10T17:13:46.1Z</time>
      </trkpt>
      <trkpt lat="48.4453" lon="-3.14388">
        <ele>329</ele>
        <time>2014-11-10T17:13:49.1Z</time>
      </trkpt>
      <trkpt lat="48.44526" lon="-3.14387">
        <ele>329</ele>
        <time>2014-11-10T17:13:52.1Z</time>
      </trkpt>
      <trkpt lat="48.44524" lon="-3.14386">
        <ele>329</ele>
        <time>2014-11-10T17:13:54.1Z</time>
      </trkpt>
      <trkpt lat="48.44522" lon="-3.14385">
        <ele>329</ele>
        <time>2014-11-10T17:13:56.1Z</time>
      </trkpt>
      <trkpt lat="48.44519" lon="-3.14384">
        <ele>329</ele>
        <time>2014-11-10T17:13:58.1Z</time>
      </trkpt>
      <trkpt lat="48.44517" lon="-3.14384">
        <ele>329</ele>
        <time>2014-11-10T17:14:00.1Z</time>
      </trkpt>
      <trkpt lat="48.44514" lon="-3.14383">
        <ele>330</ele>
        <time>2014-11-10T17:14:03.1Z</time>
      </trkpt>
      <trkpt lat="48.44511" lon="-3.14382">
        <ele>329</ele>
        <time>2014-11-10T17:14:05.1Z</time>
      </trkpt>
      <trkpt lat="48.44509" lon="-3.14382">
        <ele>330</ele>
        <time>2014-11-10T17:14:08.1Z</time>
      </trkpt>
      <trkpt lat="48.44506" lon="-3.14382">
        <ele>330</ele>
        <time>2014-11-10T17:14:11.1Z</time>
      </trkpt>
      <trkpt lat="48.44503" lon="-3.14381">
        <ele>330</ele>
        <time>2014-11-10T17:14:14.1Z</time>
      </trkpt>
      <trkpt lat="48.44501" lon="-3.14381">
        <ele>330</ele>
        <time>2014-11-10T17:14:16.1Z</time>
      </trkpt>
      <trkpt lat="48.44499" lon="-3.14381">
        <ele>330</ele>
        <time>2014-11-10T17:14:18.1Z</time>
      </trkpt>
      <trkpt lat="48.44495" lon="-3.14379">
        <ele>330</ele>
        <time>2014-11-10T17:14:21.1Z</time>
      </trkpt>
      <trkpt lat="48.44493" lon="-3.14378">
        <ele>330</ele>
        <time>2014-11-10T17:14:23.1Z</time>
      </trkpt>
      <trkpt lat="48.44491" lon="-3.14378">
        <ele>330</ele>
        <time>2014-11-10T17:14:25.1Z</time>
      </trkpt>
      <trkpt lat="48.44487" lon="-3.14377">
        <ele>330</ele>
        <time>2014-11-10T17:14:28.1Z</time>
      </trkpt>
      <trkpt lat="48.44484" lon="-3.14376">
        <ele>330</ele>
        <time>2014-11-10T17:14:30.1Z</time>
      </trkpt>
      <trkpt lat="48.4448" lon="-3.14374">
        <ele>330</ele>
        <time>2014-11-10T17:14:33.1Z</time>
      </trkpt>
      <trkpt lat="48.44478" lon="-3.14374">
        <ele>330</ele>
        <time>2014-11-10T17:14:35.1Z</time>
      </trkpt>
      <trkpt lat="48.44476" lon="-3.14373">
        <ele>330</ele>
        <time>2014-11-10T17:14:37.1Z</time>
      </trkpt>
      <trkpt lat="48.44474" lon="-3.14372">
        <ele>330</ele>
        <time>2014-11-10T17:14:39.1Z</time>
      </trkpt>
      <trkpt lat="48.44472" lon="-3.14371">
        <ele>330</ele>
        <time>2014-11-10T17:14:41.1Z</time>
      </trkpt>
      <trkpt lat="48.4447" lon="-3.1437">
        <ele>329</ele>
        <time>2014-11-10T17:14:43.1Z</time>
      </trkpt>
      <trkpt lat="48.44467" lon="-3.14368">
        <ele>329</ele>
        <time>2014-11-10T17:14:46.1Z</time>
      </trkpt>
      <trkpt lat="48.44465" lon="-3.14366">
        <ele>330</ele>
        <time>2014-11-10T17:14:48.1Z</time>
      </trkpt>
      <trkpt lat="48.44461" lon="-3.14362">
        <ele>330</ele>
        <time>2014-11-10T17:14:51.1Z</time>
      </trkpt>
      <trkpt lat="48.44458" lon="-3.14358">
        <ele>330</ele>
        <time>2014-11-10T17:14:54.1Z</time>
      </trkpt>
      <trkpt lat="48.44455" lon="-3.14354">
        <ele>330</ele>
        <time>2014-11-10T17:14:57.1Z</time>
      </trkpt>
      <trkpt lat="48.44452" lon="-3.14352">
        <ele>330</ele>
        <time>2014-11-10T17:14:59.1Z</time>
      </trkpt>
      <trkpt lat="48.4445" lon="-3.14348">
        <ele>329</ele>
        <time>2014-11-10T17:15:02.1Z</time>
      </trkpt>
      <trkpt lat="48.44449" lon="-3.14346">
        <ele>330</ele>
        <time>2014-11-10T17:15:04.1Z</time>
      </trkpt>
      <trkpt lat="48.44447" lon="-3.14343">
        <ele>330</ele>
        <time>2014-11-10T17:15:06.1Z</time>
      </trkpt>
      <trkpt lat="48.44444" lon="-3.14339">
        <ele>330</ele>
        <time>2014-11-10T17:15:09.1Z</time>
      </trkpt>
      <trkpt lat="48.44441" lon="-3.14335">
        <ele>330</ele>
        <time>2014-11-10T17:15:12.1Z</time>
      </trkpt>
      <trkpt lat="48.44439" lon="-3.14331">
        <ele>330</ele>
        <time>2014-11-10T17:15:15.1Z</time>
      </trkpt>
      <trkpt lat="48.44437" lon="-3.14327">
        <ele>330</ele>
        <time>2014-11-10T17:15:17.1Z</time>
      </trkpt>
      <trkpt lat="48.44435" lon="-3.14322">
        <ele>330</ele>
        <time>2014-11-10T17:15:20.1Z</time>
      </trkpt>
      <trkpt lat="48.44434" lon="-3.1432">
        <ele>330</ele>
        <time>2014-11-10T17:15:22.1Z</time>
      </trkpt>
      <trkpt lat="48.44432" lon="-3.14317">
        <ele>330</ele>
        <time>2014-11-10T17:15:24.1Z</time>
      </trkpt>
      <trkpt lat="48.44429" lon="-3.14314">
        <ele>330</ele>
        <time>2014-11-10T17:15:26.1Z</time>
      </trkpt>
      <trkpt lat="48.44426" lon="-3.1431">
        <ele>330</ele>
        <time>2014-11-10T17:15:29.1Z</time>
      </trkpt>
      <trkpt lat="48.44424" lon="-3.14307">
        <ele>329</ele>
        <time>2014-11-10T17:15:32.1Z</time>
      </trkpt>
      <trkpt lat="48.44422" lon="-3.14304">
        <ele>330</ele>
        <time>2014-11-10T17:15:34.1Z</time>
      </trkpt>
      <trkpt lat="48.44419" lon="-3.14301">
        <ele>330</ele>
        <time>2014-11-10T17:15:36.1Z</time>
      </trkpt>
      <trkpt lat="48.44417" lon="-3.14299">
        <ele>329</ele>
        <time>2014-11-10T17:15:38.1Z</time>
      </trkpt>
      <trkpt lat="48.44416" lon="-3.14298">
        <ele>329</ele>
        <time>2014-11-10T17:15:41.1Z</time>
      </trkpt>
      <trkpt lat="48.44413" lon="-3.14296">
        <ele>329</ele>
        <time>2014-11-10T17:15:44.1Z</time>
      </trkpt>
      <trkpt lat="48.44411" lon="-3.14294">
        <ele>329</ele>
        <time>2014-11-10T17:15:47.1Z</time>
      </trkpt>
      <trkpt lat="48.44408" lon="-3.14291">
        <ele>329</ele>
        <time>2014-11-10T17:15:50.1Z</time>
      </trkpt>
      <trkpt lat="48.44407" lon="-3.1429">
        <ele>329</ele>
        <time>2014-11-10T17:15:52.1Z</time>
      </trkpt>
      <trkpt lat="48.44404" lon="-3.14288">
        <ele>329</ele>
        <time>2014-11-10T17:15:55.1Z</time>
      </trkpt>
      <trkpt lat="48.44401" lon="-3.14285">
        <ele>329</ele>
        <time>2014-11-10T17:15:58.1Z</time>
      </trkpt>
      <trkpt lat="48.44398" lon="-3.14284">
        <ele>329</ele>
        <time>2014-11-10T17:16:00.1Z</time>
      </trkpt>
      <trkpt lat="48.44395" lon="-3.14282">
        <ele>329</ele>
        <time>2014-11-10T17:16:03.1Z</time>
      </trkpt>
      <trkpt lat="48.44392" lon="-3.14281">
        <ele>328</ele>
        <time>2014-11-10T17:16:05.1Z</time>
      </trkpt>
      <trkpt lat="48.44388" lon="-3.14279">
        <ele>329</ele>
        <time>2014-11-10T17:16:08.1Z</time>
      </trkpt>
      <trkpt lat="48.44384" lon="-3.14277">
        <ele>329</ele>
        <time>2014-11-10T17:16:10.1Z</time>
      </trkpt>
      <trkpt lat="48.44379" lon="-3.14275">
        <ele>328</ele>
        <time>2014-11-10T17:16:14.1Z</time>
      </trkpt>
      <trkpt lat="48.44376" lon="-3.14273">
        <ele>328</ele>
        <time>2014-11-10T17:16:17.1Z</time>
      </trkpt>
      <trkpt lat="48.44372" lon="-3.14271">
        <ele>328</ele>
        <time>2014-11-10T17:16:20.1Z</time>
      </trkpt>
      <trkpt lat="48.44368" lon="-3.14269">
        <ele>328</ele>
        <time>2014-11-10T17:16:23.1Z</time>
      </trkpt>
      <trkpt lat="48.44364" lon="-3.14266">
        <ele>328</ele>
        <time>2014-11-10T17:16:26.1Z</time>
      </trkpt>
      <trkpt lat="48.44361" lon="-3.14265">
        <ele>328</ele>
        <time>2014-11-10T17:16:28.1Z</time>
      </trkpt>
      <trkpt lat="48.44358" lon="-3.14262">
        <ele>328</ele>
        <time>2014-11-10T17:16:31.1Z</time>
      </trkpt>
      <trkpt lat="48.44353" lon="-3.14259">
        <ele>328</ele>
        <time>2014-11-10T17:16:34.1Z</time>
      </trkpt>
      <trkpt lat="48.44351" lon="-3.14258">
        <ele>328</ele>
        <time>2014-11-10T17:16:36.1Z</time>
      </trkpt>
      <trkpt lat="48.44348" lon="-3.14256">
        <ele>328</ele>
        <time>2014-11-10T17:16:38.1Z</time>
      </trkpt>
      <trkpt lat="48.44344" lon="-3.14253">
        <ele>328</ele>
        <time>2014-11-10T17:16:41.1Z</time>
      </trkpt>
      <trkpt lat="48.4434" lon="-3.14251">
        <ele>328</ele>
        <time>2014-11-10T17:16:43.1Z</time>
      </trkpt>
      <trkpt lat="48.44338" lon="-3.14249">
        <ele>328</ele>
        <time>2014-11-10T17:16:46.1Z</time>
      </trkpt>
      <trkpt lat="48.44336" lon="-3.14247">
        <ele>328</ele>
        <time>2014-11-10T17:16:48.1Z</time>
      </trkpt>
      <trkpt lat="48.44333" lon="-3.14245">
        <ele>328</ele>
        <time>2014-11-10T17:16:51.1Z</time>
      </trkpt>
      <trkpt lat="48.44329" lon="-3.14243">
        <ele>328</ele>
        <time>2014-11-10T17:16:54.1Z</time>
      </trkpt>
      <trkpt lat="48.44328" lon="-3.14242">
        <ele>328</ele>
        <time>2014-11-10T17:16:56.1Z</time>
      </trkpt>
      <trkpt lat="48.44324" lon="-3.14239">
        <ele>328</ele>
        <time>2014-11-10T17:16:58.1Z</time>
      </trkpt>
      <trkpt lat="48.44322" lon="-3.14237">
        <ele>328</ele>
        <time>2014-11-10T17:17:01.1Z</time>
      </trkpt>
      <trkpt lat="48.44318" lon="-3.14235">
        <ele>327</ele>
        <time>2014-11-10T17:17:04.1Z</time>
      </trkpt>
      <trkpt lat="48.44315" lon="-3.14232">
        <ele>328</ele>
        <time>2014-11-10T17:17:07.1Z</time>
      </trkpt>
      <trkpt lat="48.44312" lon="-3.1423">
        <ele>327</ele>
        <time>2014-11-10T17:17:10.1Z</time>
      </trkpt>
      <trkpt lat="48.44309" lon="-3.14227">
        <ele>327</ele>
        <time>2014-11-10T17:17:13.1Z</time>
      </trkpt>
      <trkpt lat="48.44305" lon="-3.14224">
        <ele>326</ele>
        <time>2014-11-10T17:17:15.1Z</time>
      </trkpt>
      <trkpt lat="48.44303" lon="-3.14223">
        <ele>327</ele>
        <time>2014-11-10T17:17:18.1Z</time>
      </trkpt>
      <trkpt lat="48.443" lon="-3.1422">
        <ele>326</ele>
        <time>2014-11-10T17:17:20.1Z</time>
      </trkpt>
      <trkpt lat="48.44298" lon="-3.14218">
        <ele>327</ele>
        <time>2014-11-10T17:17:23.1Z</time>
      </trkpt>
      <trkpt lat="48.44295" lon="-3.14215">
        <ele>327</ele>
        <time>2014-11-10T17:17:26.1Z</time>
      </trkpt>
      <trkpt lat="48.44293" lon="-3.14213">
        <ele>327</ele>
        <time>2014-11-10T17:17:28.1Z</time>
      </trkpt>
      <trkpt lat="48.4429" lon="-3.1421">
        <ele>327</ele>
        <time>2014-11-10T17:17:31.1Z</time>
      </trkpt>
      <trkpt lat="48.44287" lon="-3.14208">
        <ele>327</ele>
        <time>2014-11-10T17:17:34.1Z</time>
      </trkpt>
      <trkpt lat="48.44285" lon="-3.14205">
        <ele>327</ele>
        <time>2014-11-10T17:17:36.1Z</time>
      </trkpt>
      <trkpt lat="48.44283" lon="-3.14203">
        <ele>326</ele>
        <time>2014-11-10T17:17:39.1Z</time>
      </trkpt>
      <trkpt lat="48.4428" lon="-3.142">
        <ele>327</ele>
        <time>2014-11-10T17:17:41.1Z</time>
      </trkpt>
      <trkpt lat="48.44278" lon="-3.14198">
        <ele>327</ele>
        <time>2014-11-10T17:17:43.1Z</time>
      </trkpt>
      <trkpt lat="48.44276" lon="-3.14196">
        <ele>327</ele>
        <time>2014-11-10T17:17:46.1Z</time>
      </trkpt>
      <trkpt lat="48.44273" lon="-3.14194">
        <ele>327</ele>
        <time>2014-11-10T17:17:49.1Z</time>
      </trkpt>
      <trkpt lat="48.44271" lon="-3.14191">
        <ele>327</ele>
        <time>2014-11-10T17:17:51.1Z</time>
      </trkpt>
      <trkpt lat="48.44269" lon="-3.14189">
        <ele>327</ele>
        <time>2014-11-10T17:17:54.1Z</time>
      </trkpt>
      <trkpt lat="48.44266" lon="-3.14186">
        <ele>327</ele>
        <time>2014-11-10T17:17:56.1Z</time>
      </trkpt>
      <trkpt lat="48.44265" lon="-3.14184">
        <ele>327</ele>
        <time>2014-11-10T17:17:59.1Z</time>
      </trkpt>
      <trkpt lat="48.44263" lon="-3.14182">
        <ele>327</ele>
        <time>2014-11-10T17:18:01.1Z</time>
      </trkpt>
      <trkpt lat="48.4426" lon="-3.14177">
        <ele>327</ele>
        <time>2014-11-10T17:18:04.1Z</time>
      </trkpt>
      <trkpt lat="48.44258" lon="-3.14174">
        <ele>327</ele>
        <time>2014-11-10T17:18:07.1Z</time>
      </trkpt>
      <trkpt lat="48.44256" lon="-3.14172">
        <ele>327</ele>
        <time>2014-11-10T17:18:09.1Z</time>
      </trkpt>
      <trkpt lat="48.44256" lon="-3.14171">
        <ele>326</ele>
        <time>2014-11-10T17:18:12.1Z</time>
      </trkpt>
      <trkpt lat="48.44255" lon="-3.1417">
        <ele>326</ele>
        <time>2014-11-10T17:18:15.1Z</time>
      </trkpt>
      <trkpt lat="48.44254" lon="-3.14169">
        <ele>327</ele>
        <time>2014-11-10T17:18:18.1Z</time>
      </trkpt>
      <trkpt lat="48.44252" lon="-3.14164">
        <ele>327</ele>
        <time>2014-11-10T17:18:21.1Z</time>
      </trkpt>
      <trkpt lat="48.44252" lon="-3.14162">
        <ele>327</ele>
        <time>2014-11-10T17:18:23.1Z</time>
      </trkpt>
      <trkpt lat="48.44251" lon="-3.14159">
        <ele>326</ele>
        <time>2014-11-10T17:18:25.1Z</time>
      </trkpt>
      <trkpt lat="48.4425" lon="-3.14155">
        <ele>326</ele>
        <time>2014-11-10T17:18:27.1Z</time>
      </trkpt>
      <trkpt lat="48.4425" lon="-3.14153">
        <ele>326</ele>
        <time>2014-11-10T17:18:30.1Z</time>
      </trkpt>
      <trkpt lat="48.44249" lon="-3.14149">
        <ele>326</ele>
        <time>2014-11-10T17:18:33.1Z</time>
      </trkpt>
      <trkpt lat="48.44248" lon="-3.14144">
        <ele>326</ele>
        <time>2014-11-10T17:18:35.1Z</time>
      </trkpt>
      <trkpt lat="48.44248" lon="-3.14141">
        <ele>326</ele>
        <time>2014-11-10T17:18:37.1Z</time>
      </trkpt>
      <trkpt lat="48.44248" lon="-3.14138">
        <ele>326</ele>
        <time>2014-11-10T17:18:39.1Z</time>
      </trkpt>
      <trkpt lat="48.44248" lon="-3.14135">
        <ele>326</ele>
        <time>2014-11-10T17:18:41.1Z</time>
      </trkpt>
      <trkpt lat="48.44247" lon="-3.14132">
        <ele>326</ele>
        <time>2014-11-10T17:18:44.1Z</time>
      </trkpt>
      <trkpt lat="48.44247" lon="-3.14128">
        <ele>326</ele>
        <time>2014-11-10T17:18:47.1Z</time>
      </trkpt>
      <trkpt lat="48.44247" lon="-3.14125">
        <ele>326</ele>
        <time>2014-11-10T17:18:49.1Z</time>
      </trkpt>
      <trkpt lat="48.44247" lon="-3.14123">
        <ele>326</ele>
        <time>2014-11-10T17:18:51.1Z</time>
      </trkpt>
      <trkpt lat="48.44247" lon="-3.1412">
        <ele>326</ele>
        <time>2014-11-10T17:18:53.1Z</time>
      </trkpt>
      <trkpt lat="48.44247" lon="-3.14116">
        <ele>326</ele>
        <time>2014-11-10T17:18:56.1Z</time>
      </trkpt>
      <trkpt lat="48.44247" lon="-3.1411">
        <ele>325</ele>
        <time>2014-11-10T17:18:59.1Z</time>
      </trkpt>
      <trkpt lat="48.44247" lon="-3.14107">
        <ele>325</ele>
        <time>2014-11-10T17:19:01.1Z</time>
      </trkpt>
      <trkpt lat="48.44248" lon="-3.14104">
        <ele>325</ele>
        <time>2014-11-10T17:19:03.1Z</time>
      </trkpt>
      <trkpt lat="48.44248" lon="-3.14102">
        <ele>325</ele>
        <time>2014-11-10T17:19:05.1Z</time>
      </trkpt>
      <trkpt lat="48.44248" lon="-3.14099">
        <ele>326</ele>
        <time>2014-11-10T17:19:08.1Z</time>
      </trkpt>
      <trkpt lat="48.44248" lon="-3.14098">
        <ele>326</ele>
        <time>2014-11-10T17:19:11.1Z</time>
      </trkpt>
      <trkpt lat="48.44248" lon="-3.14097">
        <ele>326</ele>
        <time>2014-11-10T17:19:13.1Z</time>
      </trkpt>
      <trkpt lat="48.44248" lon="-3.14097">
        <ele>326</ele>
        <time>2014-11-10T17:19:16.1Z</time>
      </trkpt>
      <trkpt lat="48.44248" lon="-3.14097">
        <ele>326</ele>
        <time>2014-11-10T17:19:17.1Z</time>
      </trkpt>
    </trkseg>
  </trk>
</gpx>